<?xml version="1.0" encoding="UTF-8" standalone="no" ?>
<gpx xmlns="http://www.topografix.com/GPX/1/1" xmlns:xsi="http://www.w3.org/2001/XMLSchema-instance" xsi:schemaLocation="http://www.topografix.com/GPX/1/1 http://www.topografix.com/GPX/1/1/gpx.xsd" version="1.1" creator="VisuGPX - https://www.visugpx.com">
  <metadata>
    <name>Roc d'Enfer (tour anti-horaire)</name>
    <desc><![CDATA[Trace en ski de randonnée depuis col de l'Encrenaz]]></desc>
  </metadata>
  <trk>
    <name><![CDATA[20180127104929-iQ5DX]]></name>
    <trkseg>
      <trkpt lat="46.17278" lon="6.63353">
        <ele>1439</ele>
        <time>2018-01-24T11:31:18Z</time>
      </trkpt>
      <trkpt lat="46.17279" lon="6.6335">
        <ele>1439</ele>
        <time>2018-01-24T11:31:20Z</time>
      </trkpt>
      <trkpt lat="46.17281" lon="6.6335">
        <ele>1439</ele>
        <time>2018-01-24T11:31:21Z</time>
      </trkpt>
      <trkpt lat="46.1728" lon="6.63351">
        <ele>1439</ele>
        <time>2018-01-24T11:31:22Z</time>
      </trkpt>
      <trkpt lat="46.17283" lon="6.63343">
        <ele>1440</ele>
        <time>2018-01-24T11:31:25Z</time>
      </trkpt>
      <trkpt lat="46.17283" lon="6.63342">
        <ele>1440</ele>
        <time>2018-01-24T11:31:26Z</time>
      </trkpt>
      <trkpt lat="46.17283" lon="6.63343">
        <ele>1440</ele>
        <time>2018-01-24T11:31:27Z</time>
      </trkpt>
      <trkpt lat="46.17285" lon="6.63344">
        <ele>1440</ele>
        <time>2018-01-24T11:31:28Z</time>
      </trkpt>
      <trkpt lat="46.17285" lon="6.63342">
        <ele>1440</ele>
        <time>2018-01-24T11:31:29Z</time>
      </trkpt>
      <trkpt lat="46.17286" lon="6.63341">
        <ele>1440</ele>
        <time>2018-01-24T11:31:30Z</time>
      </trkpt>
      <trkpt lat="46.17287" lon="6.6334">
        <ele>1440</ele>
        <time>2018-01-24T11:31:31Z</time>
      </trkpt>
      <trkpt lat="46.17288" lon="6.63339">
        <ele>1441</ele>
        <time>2018-01-24T11:31:32Z</time>
      </trkpt>
      <trkpt lat="46.17289" lon="6.63339">
        <ele>1441</ele>
        <time>2018-01-24T11:31:33Z</time>
      </trkpt>
      <trkpt lat="46.17289" lon="6.63334">
        <ele>1441</ele>
        <time>2018-01-24T11:31:39Z</time>
      </trkpt>
      <trkpt lat="46.17289" lon="6.63333">
        <ele>1449</ele>
        <time>2018-01-24T11:31:40Z</time>
      </trkpt>
      <trkpt lat="46.17286" lon="6.63325">
        <ele>1449</ele>
        <time>2018-01-24T11:31:45Z</time>
      </trkpt>
      <trkpt lat="46.17284" lon="6.6332">
        <ele>1449</ele>
        <time>2018-01-24T11:31:48Z</time>
      </trkpt>
      <trkpt lat="46.17283" lon="6.63319">
        <ele>1449</ele>
        <time>2018-01-24T11:31:49Z</time>
      </trkpt>
      <trkpt lat="46.17283" lon="6.63317">
        <ele>1449</ele>
        <time>2018-01-24T11:31:50Z</time>
      </trkpt>
      <trkpt lat="46.17283" lon="6.63314">
        <ele>1450</ele>
        <time>2018-01-24T11:31:52Z</time>
      </trkpt>
      <trkpt lat="46.17282" lon="6.63313">
        <ele>1449</ele>
        <time>2018-01-24T11:31:53Z</time>
      </trkpt>
      <trkpt lat="46.17279" lon="6.63307">
        <ele>1450</ele>
        <time>2018-01-24T11:31:58Z</time>
      </trkpt>
      <trkpt lat="46.17278" lon="6.63306">
        <ele>1450</ele>
        <time>2018-01-24T11:31:59Z</time>
      </trkpt>
      <trkpt lat="46.17277" lon="6.63306">
        <ele>1450</ele>
        <time>2018-01-24T11:32:00Z</time>
      </trkpt>
      <trkpt lat="46.17274" lon="6.63304">
        <ele>1450</ele>
        <time>2018-01-24T11:32:02Z</time>
      </trkpt>
      <trkpt lat="46.17273" lon="6.63302">
        <ele>1450</ele>
        <time>2018-01-24T11:32:04Z</time>
      </trkpt>
      <trkpt lat="46.17269" lon="6.63296">
        <ele>1450</ele>
        <time>2018-01-24T11:32:09Z</time>
      </trkpt>
      <trkpt lat="46.17268" lon="6.63295">
        <ele>1450</ele>
        <time>2018-01-24T11:32:10Z</time>
      </trkpt>
      <trkpt lat="46.17267" lon="6.63293">
        <ele>1450</ele>
        <time>2018-01-24T11:32:11Z</time>
      </trkpt>
      <trkpt lat="46.17266" lon="6.63292">
        <ele>1450</ele>
        <time>2018-01-24T11:32:12Z</time>
      </trkpt>
      <trkpt lat="46.17265" lon="6.63291">
        <ele>1451</ele>
        <time>2018-01-24T11:32:13Z</time>
      </trkpt>
      <trkpt lat="46.17265" lon="6.63289">
        <ele>1451</ele>
        <time>2018-01-24T11:32:14Z</time>
      </trkpt>
      <trkpt lat="46.17264" lon="6.63288">
        <ele>1451</ele>
        <time>2018-01-24T11:32:15Z</time>
      </trkpt>
      <trkpt lat="46.17263" lon="6.63286">
        <ele>1451</ele>
        <time>2018-01-24T11:32:16Z</time>
      </trkpt>
      <trkpt lat="46.17263" lon="6.63285">
        <ele>1451</ele>
        <time>2018-01-24T11:32:17Z</time>
      </trkpt>
      <trkpt lat="46.17263" lon="6.63283">
        <ele>1452</ele>
        <time>2018-01-24T11:32:18Z</time>
      </trkpt>
      <trkpt lat="46.17263" lon="6.63281">
        <ele>1452</ele>
        <time>2018-01-24T11:32:20Z</time>
      </trkpt>
      <trkpt lat="46.17262" lon="6.6328">
        <ele>1452</ele>
        <time>2018-01-24T11:32:21Z</time>
      </trkpt>
      <trkpt lat="46.17258" lon="6.63268">
        <ele>1453</ele>
        <time>2018-01-24T11:32:29Z</time>
      </trkpt>
      <trkpt lat="46.17257" lon="6.63266">
        <ele>1453</ele>
        <time>2018-01-24T11:32:30Z</time>
      </trkpt>
      <trkpt lat="46.17256" lon="6.63265">
        <ele>1453</ele>
        <time>2018-01-24T11:32:31Z</time>
      </trkpt>
      <trkpt lat="46.17256" lon="6.63264">
        <ele>1453</ele>
        <time>2018-01-24T11:32:32Z</time>
      </trkpt>
      <trkpt lat="46.17255" lon="6.63262">
        <ele>1453</ele>
        <time>2018-01-24T11:32:33Z</time>
      </trkpt>
      <trkpt lat="46.17254" lon="6.63261">
        <ele>1453</ele>
        <time>2018-01-24T11:32:34Z</time>
      </trkpt>
      <trkpt lat="46.17252" lon="6.63256">
        <ele>1453</ele>
        <time>2018-01-24T11:32:38Z</time>
      </trkpt>
      <trkpt lat="46.17252" lon="6.63254">
        <ele>1453</ele>
        <time>2018-01-24T11:32:39Z</time>
      </trkpt>
      <trkpt lat="46.17251" lon="6.63253">
        <ele>1453</ele>
        <time>2018-01-24T11:32:40Z</time>
      </trkpt>
      <trkpt lat="46.17252" lon="6.63251">
        <ele>1453</ele>
        <time>2018-01-24T11:32:41Z</time>
      </trkpt>
      <trkpt lat="46.17252" lon="6.6325">
        <ele>1454</ele>
        <time>2018-01-24T11:32:42Z</time>
      </trkpt>
      <trkpt lat="46.17251" lon="6.63249">
        <ele>1454</ele>
        <time>2018-01-24T11:32:43Z</time>
      </trkpt>
      <trkpt lat="46.17251" lon="6.63247">
        <ele>1455</ele>
        <time>2018-01-24T11:32:44Z</time>
      </trkpt>
      <trkpt lat="46.1725" lon="6.63246">
        <ele>1452</ele>
        <time>2018-01-24T11:32:45Z</time>
      </trkpt>
      <trkpt lat="46.1725" lon="6.63244">
        <ele>1452</ele>
        <time>2018-01-24T11:32:46Z</time>
      </trkpt>
      <trkpt lat="46.17249" lon="6.63243">
        <ele>1452</ele>
        <time>2018-01-24T11:32:47Z</time>
      </trkpt>
      <trkpt lat="46.17245" lon="6.63217">
        <ele>1453</ele>
        <time>2018-01-24T11:33:11Z</time>
      </trkpt>
      <trkpt lat="46.17226" lon="6.63187">
        <ele>1455</ele>
        <time>2018-01-24T11:33:37Z</time>
      </trkpt>
      <trkpt lat="46.17223" lon="6.63182">
        <ele>1455</ele>
        <time>2018-01-24T11:33:41Z</time>
      </trkpt>
      <trkpt lat="46.17222" lon="6.6318">
        <ele>1455</ele>
        <time>2018-01-24T11:33:42Z</time>
      </trkpt>
      <trkpt lat="46.17221" lon="6.63179">
        <ele>1455</ele>
        <time>2018-01-24T11:33:43Z</time>
      </trkpt>
      <trkpt lat="46.17221" lon="6.63177">
        <ele>1455</ele>
        <time>2018-01-24T11:33:44Z</time>
      </trkpt>
      <trkpt lat="46.1722" lon="6.63175">
        <ele>1455</ele>
        <time>2018-01-24T11:33:45Z</time>
      </trkpt>
      <trkpt lat="46.1722" lon="6.63174">
        <ele>1455</ele>
        <time>2018-01-24T11:33:46Z</time>
      </trkpt>
      <trkpt lat="46.1722" lon="6.63172">
        <ele>1456</ele>
        <time>2018-01-24T11:33:47Z</time>
      </trkpt>
      <trkpt lat="46.17219" lon="6.63166">
        <ele>1467</ele>
        <time>2018-01-24T11:33:51Z</time>
      </trkpt>
      <trkpt lat="46.17218" lon="6.63165">
        <ele>1467</ele>
        <time>2018-01-24T11:33:52Z</time>
      </trkpt>
      <trkpt lat="46.17218" lon="6.63165">
        <ele>1467</ele>
        <time>2018-01-24T11:33:53Z</time>
      </trkpt>
      <trkpt lat="46.17217" lon="6.63163">
        <ele>1467</ele>
        <time>2018-01-24T11:33:54Z</time>
      </trkpt>
      <trkpt lat="46.17216" lon="6.63162">
        <ele>1467</ele>
        <time>2018-01-24T11:33:55Z</time>
      </trkpt>
      <trkpt lat="46.17215" lon="6.6316">
        <ele>1467</ele>
        <time>2018-01-24T11:33:57Z</time>
      </trkpt>
      <trkpt lat="46.17214" lon="6.6316">
        <ele>1467</ele>
        <time>2018-01-24T11:33:58Z</time>
      </trkpt>
      <trkpt lat="46.17212" lon="6.63159">
        <ele>1466</ele>
        <time>2018-01-24T11:34:00Z</time>
      </trkpt>
      <trkpt lat="46.17212" lon="6.63152">
        <ele>1467</ele>
        <time>2018-01-24T11:34:06Z</time>
      </trkpt>
      <trkpt lat="46.17212" lon="6.6315">
        <ele>1467</ele>
        <time>2018-01-24T11:34:07Z</time>
      </trkpt>
      <trkpt lat="46.17211" lon="6.63148">
        <ele>1467</ele>
        <time>2018-01-24T11:34:09Z</time>
      </trkpt>
      <trkpt lat="46.17212" lon="6.63146">
        <ele>1467</ele>
        <time>2018-01-24T11:34:11Z</time>
      </trkpt>
      <trkpt lat="46.17213" lon="6.63135">
        <ele>1469</ele>
        <time>2018-01-24T11:34:22Z</time>
      </trkpt>
      <trkpt lat="46.17214" lon="6.63132">
        <ele>1469</ele>
        <time>2018-01-24T11:34:24Z</time>
      </trkpt>
      <trkpt lat="46.17213" lon="6.63131">
        <ele>1469</ele>
        <time>2018-01-24T11:34:25Z</time>
      </trkpt>
      <trkpt lat="46.17211" lon="6.63128">
        <ele>1469</ele>
        <time>2018-01-24T11:34:28Z</time>
      </trkpt>
      <trkpt lat="46.17211" lon="6.63125">
        <ele>1470</ele>
        <time>2018-01-24T11:34:29Z</time>
      </trkpt>
      <trkpt lat="46.17208" lon="6.63114">
        <ele>1471</ele>
        <time>2018-01-24T11:34:40Z</time>
      </trkpt>
      <trkpt lat="46.17202" lon="6.63108">
        <ele>1470</ele>
        <time>2018-01-24T11:34:46Z</time>
      </trkpt>
      <trkpt lat="46.17199" lon="6.63106">
        <ele>1470</ele>
        <time>2018-01-24T11:34:47Z</time>
      </trkpt>
      <trkpt lat="46.17197" lon="6.63105">
        <ele>1470</ele>
        <time>2018-01-24T11:34:48Z</time>
      </trkpt>
      <trkpt lat="46.17194" lon="6.63103">
        <ele>1470</ele>
        <time>2018-01-24T11:34:49Z</time>
      </trkpt>
      <trkpt lat="46.17186" lon="6.63095">
        <ele>1470</ele>
        <time>2018-01-24T11:34:56Z</time>
      </trkpt>
      <trkpt lat="46.17185" lon="6.63094">
        <ele>1470</ele>
        <time>2018-01-24T11:34:57Z</time>
      </trkpt>
      <trkpt lat="46.17176" lon="6.63075">
        <ele>1478</ele>
        <time>2018-01-24T11:35:14Z</time>
      </trkpt>
      <trkpt lat="46.1717" lon="6.63056">
        <ele>1482</ele>
        <time>2018-01-24T11:35:29Z</time>
      </trkpt>
      <trkpt lat="46.17164" lon="6.63042">
        <ele>1474</ele>
        <time>2018-01-24T11:35:43Z</time>
      </trkpt>
      <trkpt lat="46.17158" lon="6.63028">
        <ele>1476</ele>
        <time>2018-01-24T11:35:56Z</time>
      </trkpt>
      <trkpt lat="46.17155" lon="6.63016">
        <ele>1479</ele>
        <time>2018-01-24T11:36:05Z</time>
      </trkpt>
      <trkpt lat="46.17144" lon="6.62992">
        <ele>1486</ele>
        <time>2018-01-24T11:36:21Z</time>
      </trkpt>
      <trkpt lat="46.17143" lon="6.62991">
        <ele>1486</ele>
        <time>2018-01-24T11:36:22Z</time>
      </trkpt>
      <trkpt lat="46.17142" lon="6.6299">
        <ele>1486</ele>
        <time>2018-01-24T11:36:23Z</time>
      </trkpt>
      <trkpt lat="46.17141" lon="6.62988">
        <ele>1486</ele>
        <time>2018-01-24T11:36:24Z</time>
      </trkpt>
      <trkpt lat="46.1714" lon="6.62987">
        <ele>1485</ele>
        <time>2018-01-24T11:36:25Z</time>
      </trkpt>
      <trkpt lat="46.17139" lon="6.62985">
        <ele>1485</ele>
        <time>2018-01-24T11:36:26Z</time>
      </trkpt>
      <trkpt lat="46.17138" lon="6.62984">
        <ele>1485</ele>
        <time>2018-01-24T11:36:27Z</time>
      </trkpt>
      <trkpt lat="46.17138" lon="6.62982">
        <ele>1485</ele>
        <time>2018-01-24T11:36:28Z</time>
      </trkpt>
      <trkpt lat="46.17137" lon="6.6298">
        <ele>1485</ele>
        <time>2018-01-24T11:36:29Z</time>
      </trkpt>
      <trkpt lat="46.17134" lon="6.62949">
        <ele>1487</ele>
        <time>2018-01-24T11:36:46Z</time>
      </trkpt>
      <trkpt lat="46.17132" lon="6.62938">
        <ele>1488</ele>
        <time>2018-01-24T11:36:53Z</time>
      </trkpt>
      <trkpt lat="46.17131" lon="6.62937">
        <ele>1488</ele>
        <time>2018-01-24T11:36:54Z</time>
      </trkpt>
      <trkpt lat="46.17131" lon="6.62935">
        <ele>1488</ele>
        <time>2018-01-24T11:36:55Z</time>
      </trkpt>
      <trkpt lat="46.1713" lon="6.62934">
        <ele>1488</ele>
        <time>2018-01-24T11:36:56Z</time>
      </trkpt>
      <trkpt lat="46.17125" lon="6.62927">
        <ele>1487</ele>
        <time>2018-01-24T11:37:01Z</time>
      </trkpt>
      <trkpt lat="46.17103" lon="6.62909">
        <ele>1492</ele>
        <time>2018-01-24T11:37:22Z</time>
      </trkpt>
      <trkpt lat="46.17084" lon="6.62883">
        <ele>1494</ele>
        <time>2018-01-24T11:37:45Z</time>
      </trkpt>
      <trkpt lat="46.17083" lon="6.62882">
        <ele>1486</ele>
        <time>2018-01-24T11:37:46Z</time>
      </trkpt>
      <trkpt lat="46.17082" lon="6.62881">
        <ele>1486</ele>
        <time>2018-01-24T11:37:47Z</time>
      </trkpt>
      <trkpt lat="46.17076" lon="6.62847">
        <ele>1491</ele>
        <time>2018-01-24T11:38:11Z</time>
      </trkpt>
      <trkpt lat="46.17075" lon="6.62836">
        <ele>1493</ele>
        <time>2018-01-24T11:38:20Z</time>
      </trkpt>
      <trkpt lat="46.17077" lon="6.62827">
        <ele>1496</ele>
        <time>2018-01-24T11:38:28Z</time>
      </trkpt>
      <trkpt lat="46.17081" lon="6.62811">
        <ele>1495</ele>
        <time>2018-01-24T11:38:40Z</time>
      </trkpt>
      <trkpt lat="46.17087" lon="6.62781">
        <ele>1506</ele>
        <time>2018-01-24T11:39:01Z</time>
      </trkpt>
      <trkpt lat="46.1709" lon="6.62768">
        <ele>1506</ele>
        <time>2018-01-24T11:39:10Z</time>
      </trkpt>
      <trkpt lat="46.17095" lon="6.62748">
        <ele>1508</ele>
        <time>2018-01-24T11:39:23Z</time>
      </trkpt>
      <trkpt lat="46.17095" lon="6.62746">
        <ele>1508</ele>
        <time>2018-01-24T11:39:24Z</time>
      </trkpt>
      <trkpt lat="46.17095" lon="6.62744">
        <ele>1508</ele>
        <time>2018-01-24T11:39:25Z</time>
      </trkpt>
      <trkpt lat="46.17095" lon="6.62743">
        <ele>1509</ele>
        <time>2018-01-24T11:39:26Z</time>
      </trkpt>
      <trkpt lat="46.17095" lon="6.62741">
        <ele>1509</ele>
        <time>2018-01-24T11:39:27Z</time>
      </trkpt>
      <trkpt lat="46.17095" lon="6.62738">
        <ele>1509</ele>
        <time>2018-01-24T11:39:28Z</time>
      </trkpt>
      <trkpt lat="46.17095" lon="6.62737">
        <ele>1509</ele>
        <time>2018-01-24T11:39:29Z</time>
      </trkpt>
      <trkpt lat="46.17096" lon="6.62735">
        <ele>1510</ele>
        <time>2018-01-24T11:39:30Z</time>
      </trkpt>
      <trkpt lat="46.17096" lon="6.62733">
        <ele>1510</ele>
        <time>2018-01-24T11:39:31Z</time>
      </trkpt>
      <trkpt lat="46.17096" lon="6.62731">
        <ele>1510</ele>
        <time>2018-01-24T11:39:32Z</time>
      </trkpt>
      <trkpt lat="46.17097" lon="6.6273">
        <ele>1510</ele>
        <time>2018-01-24T11:39:33Z</time>
      </trkpt>
      <trkpt lat="46.17097" lon="6.62728">
        <ele>1511</ele>
        <time>2018-01-24T11:39:34Z</time>
      </trkpt>
      <trkpt lat="46.17098" lon="6.62726">
        <ele>1511</ele>
        <time>2018-01-24T11:39:36Z</time>
      </trkpt>
      <trkpt lat="46.17111" lon="6.62717">
        <ele>1513</ele>
        <time>2018-01-24T11:39:50Z</time>
      </trkpt>
      <trkpt lat="46.17116" lon="6.62715">
        <ele>1513</ele>
        <time>2018-01-24T11:39:55Z</time>
      </trkpt>
      <trkpt lat="46.17118" lon="6.62713">
        <ele>1514</ele>
        <time>2018-01-24T11:39:57Z</time>
      </trkpt>
      <trkpt lat="46.17121" lon="6.62711">
        <ele>1514</ele>
        <time>2018-01-24T11:40:00Z</time>
      </trkpt>
      <trkpt lat="46.17122" lon="6.62711">
        <ele>1514</ele>
        <time>2018-01-24T11:40:01Z</time>
      </trkpt>
      <trkpt lat="46.17123" lon="6.6271">
        <ele>1514</ele>
        <time>2018-01-24T11:40:02Z</time>
      </trkpt>
      <trkpt lat="46.17125" lon="6.62708">
        <ele>1514</ele>
        <time>2018-01-24T11:40:04Z</time>
      </trkpt>
      <trkpt lat="46.17125" lon="6.62707">
        <ele>1515</ele>
        <time>2018-01-24T11:40:05Z</time>
      </trkpt>
      <trkpt lat="46.17126" lon="6.62706">
        <ele>1515</ele>
        <time>2018-01-24T11:40:06Z</time>
      </trkpt>
      <trkpt lat="46.17127" lon="6.62705">
        <ele>1515</ele>
        <time>2018-01-24T11:40:07Z</time>
      </trkpt>
      <trkpt lat="46.17128" lon="6.62704">
        <ele>1515</ele>
        <time>2018-01-24T11:40:08Z</time>
      </trkpt>
      <trkpt lat="46.17129" lon="6.62703">
        <ele>1515</ele>
        <time>2018-01-24T11:40:09Z</time>
      </trkpt>
      <trkpt lat="46.1713" lon="6.62702">
        <ele>1515</ele>
        <time>2018-01-24T11:40:10Z</time>
      </trkpt>
      <trkpt lat="46.17131" lon="6.62702">
        <ele>1515</ele>
        <time>2018-01-24T11:40:11Z</time>
      </trkpt>
      <trkpt lat="46.17132" lon="6.62701">
        <ele>1515</ele>
        <time>2018-01-24T11:40:12Z</time>
      </trkpt>
      <trkpt lat="46.17142" lon="6.62691">
        <ele>1517</ele>
        <time>2018-01-24T11:40:23Z</time>
      </trkpt>
      <trkpt lat="46.17142" lon="6.6269">
        <ele>1517</ele>
        <time>2018-01-24T11:40:24Z</time>
      </trkpt>
      <trkpt lat="46.17143" lon="6.62689">
        <ele>1517</ele>
        <time>2018-01-24T11:40:25Z</time>
      </trkpt>
      <trkpt lat="46.17144" lon="6.62688">
        <ele>1517</ele>
        <time>2018-01-24T11:40:26Z</time>
      </trkpt>
      <trkpt lat="46.17145" lon="6.62687">
        <ele>1517</ele>
        <time>2018-01-24T11:40:27Z</time>
      </trkpt>
      <trkpt lat="46.17146" lon="6.62686">
        <ele>1518</ele>
        <time>2018-01-24T11:40:28Z</time>
      </trkpt>
      <trkpt lat="46.17147" lon="6.62685">
        <ele>1518</ele>
        <time>2018-01-24T11:40:29Z</time>
      </trkpt>
      <trkpt lat="46.17148" lon="6.62685">
        <ele>1518</ele>
        <time>2018-01-24T11:40:30Z</time>
      </trkpt>
      <trkpt lat="46.17149" lon="6.62684">
        <ele>1518</ele>
        <time>2018-01-24T11:40:31Z</time>
      </trkpt>
      <trkpt lat="46.17164" lon="6.62673">
        <ele>1522</ele>
        <time>2018-01-24T11:40:46Z</time>
      </trkpt>
      <trkpt lat="46.17172" lon="6.62667">
        <ele>1525</ele>
        <time>2018-01-24T11:40:55Z</time>
      </trkpt>
      <trkpt lat="46.17173" lon="6.62667">
        <ele>1525</ele>
        <time>2018-01-24T11:40:56Z</time>
      </trkpt>
      <trkpt lat="46.17195" lon="6.62651">
        <ele>1527</ele>
        <time>2018-01-24T11:41:19Z</time>
      </trkpt>
      <trkpt lat="46.17196" lon="6.62651">
        <ele>1527</ele>
        <time>2018-01-24T11:41:20Z</time>
      </trkpt>
      <trkpt lat="46.17197" lon="6.62651">
        <ele>1527</ele>
        <time>2018-01-24T11:41:21Z</time>
      </trkpt>
      <trkpt lat="46.17198" lon="6.6265">
        <ele>1527</ele>
        <time>2018-01-24T11:41:22Z</time>
      </trkpt>
      <trkpt lat="46.172" lon="6.6265">
        <ele>1528</ele>
        <time>2018-01-24T11:41:23Z</time>
      </trkpt>
      <trkpt lat="46.17201" lon="6.62649">
        <ele>1528</ele>
        <time>2018-01-24T11:41:24Z</time>
      </trkpt>
      <trkpt lat="46.17209" lon="6.62644">
        <ele>1528</ele>
        <time>2018-01-24T11:41:31Z</time>
      </trkpt>
      <trkpt lat="46.17219" lon="6.62636">
        <ele>1529</ele>
        <time>2018-01-24T11:41:41Z</time>
      </trkpt>
      <trkpt lat="46.1722" lon="6.62635">
        <ele>1529</ele>
        <time>2018-01-24T11:41:42Z</time>
      </trkpt>
      <trkpt lat="46.17222" lon="6.62634">
        <ele>1529</ele>
        <time>2018-01-24T11:41:43Z</time>
      </trkpt>
      <trkpt lat="46.17238" lon="6.62624">
        <ele>1530</ele>
        <time>2018-01-24T11:41:58Z</time>
      </trkpt>
      <trkpt lat="46.17252" lon="6.62616">
        <ele>1539</ele>
        <time>2018-01-24T11:42:11Z</time>
      </trkpt>
      <trkpt lat="46.17264" lon="6.62618">
        <ele>1540</ele>
        <time>2018-01-24T11:42:22Z</time>
      </trkpt>
      <trkpt lat="46.17272" lon="6.62615">
        <ele>1541</ele>
        <time>2018-01-24T11:42:30Z</time>
      </trkpt>
      <trkpt lat="46.17284" lon="6.62611">
        <ele>1541</ele>
        <time>2018-01-24T11:42:42Z</time>
      </trkpt>
      <trkpt lat="46.17298" lon="6.62607">
        <ele>1543</ele>
        <time>2018-01-24T11:42:55Z</time>
      </trkpt>
      <trkpt lat="46.17311" lon="6.62605">
        <ele>1544</ele>
        <time>2018-01-24T11:43:09Z</time>
      </trkpt>
      <trkpt lat="46.17325" lon="6.62594">
        <ele>1544</ele>
        <time>2018-01-24T11:43:23Z</time>
      </trkpt>
      <trkpt lat="46.17329" lon="6.62591">
        <ele>1544</ele>
        <time>2018-01-24T11:43:28Z</time>
      </trkpt>
      <trkpt lat="46.1733" lon="6.6259">
        <ele>1545</ele>
        <time>2018-01-24T11:43:29Z</time>
      </trkpt>
      <trkpt lat="46.17352" lon="6.62576">
        <ele>1543</ele>
        <time>2018-01-24T11:43:49Z</time>
      </trkpt>
      <trkpt lat="46.17352" lon="6.62575">
        <ele>1543</ele>
        <time>2018-01-24T11:43:50Z</time>
      </trkpt>
      <trkpt lat="46.17354" lon="6.62575">
        <ele>1543</ele>
        <time>2018-01-24T11:43:51Z</time>
      </trkpt>
      <trkpt lat="46.17355" lon="6.62575">
        <ele>1543</ele>
        <time>2018-01-24T11:43:52Z</time>
      </trkpt>
      <trkpt lat="46.17356" lon="6.62575">
        <ele>1543</ele>
        <time>2018-01-24T11:43:53Z</time>
      </trkpt>
      <trkpt lat="46.17357" lon="6.62575">
        <ele>1543</ele>
        <time>2018-01-24T11:43:54Z</time>
      </trkpt>
      <trkpt lat="46.17363" lon="6.62573">
        <ele>1543</ele>
        <time>2018-01-24T11:43:59Z</time>
      </trkpt>
      <trkpt lat="46.17364" lon="6.62572">
        <ele>1543</ele>
        <time>2018-01-24T11:44:00Z</time>
      </trkpt>
      <trkpt lat="46.17365" lon="6.62572">
        <ele>1543</ele>
        <time>2018-01-24T11:44:01Z</time>
      </trkpt>
      <trkpt lat="46.17367" lon="6.62572">
        <ele>1543</ele>
        <time>2018-01-24T11:44:02Z</time>
      </trkpt>
      <trkpt lat="46.17368" lon="6.62571">
        <ele>1543</ele>
        <time>2018-01-24T11:44:03Z</time>
      </trkpt>
      <trkpt lat="46.17388" lon="6.62569">
        <ele>1545</ele>
        <time>2018-01-24T11:44:19Z</time>
      </trkpt>
      <trkpt lat="46.17413" lon="6.62569">
        <ele>1551</ele>
        <time>2018-01-24T11:44:38Z</time>
      </trkpt>
      <trkpt lat="46.17414" lon="6.62568">
        <ele>1551</ele>
        <time>2018-01-24T11:44:39Z</time>
      </trkpt>
      <trkpt lat="46.17442" lon="6.62571">
        <ele>1556</ele>
        <time>2018-01-24T11:44:58Z</time>
      </trkpt>
      <trkpt lat="46.17443" lon="6.62571">
        <ele>1556</ele>
        <time>2018-01-24T11:44:59Z</time>
      </trkpt>
      <trkpt lat="46.17444" lon="6.6257">
        <ele>1556</ele>
        <time>2018-01-24T11:45:00Z</time>
      </trkpt>
      <trkpt lat="46.17446" lon="6.6257">
        <ele>1556</ele>
        <time>2018-01-24T11:45:01Z</time>
      </trkpt>
      <trkpt lat="46.17448" lon="6.6257">
        <ele>1556</ele>
        <time>2018-01-24T11:45:02Z</time>
      </trkpt>
      <trkpt lat="46.17449" lon="6.62569">
        <ele>1556</ele>
        <time>2018-01-24T11:45:03Z</time>
      </trkpt>
      <trkpt lat="46.1745" lon="6.62569">
        <ele>1556</ele>
        <time>2018-01-24T11:45:04Z</time>
      </trkpt>
      <trkpt lat="46.17452" lon="6.62568">
        <ele>1556</ele>
        <time>2018-01-24T11:45:05Z</time>
      </trkpt>
      <trkpt lat="46.17453" lon="6.62568">
        <ele>1556</ele>
        <time>2018-01-24T11:45:06Z</time>
      </trkpt>
      <trkpt lat="46.17469" lon="6.62563">
        <ele>1557</ele>
        <time>2018-01-24T11:45:17Z</time>
      </trkpt>
      <trkpt lat="46.1747" lon="6.62563">
        <ele>1557</ele>
        <time>2018-01-24T11:45:18Z</time>
      </trkpt>
      <trkpt lat="46.17478" lon="6.62561">
        <ele>1557</ele>
        <time>2018-01-24T11:45:24Z</time>
      </trkpt>
      <trkpt lat="46.17479" lon="6.6256">
        <ele>1558</ele>
        <time>2018-01-24T11:45:25Z</time>
      </trkpt>
      <trkpt lat="46.1748" lon="6.6256">
        <ele>1558</ele>
        <time>2018-01-24T11:45:26Z</time>
      </trkpt>
      <trkpt lat="46.17482" lon="6.6256">
        <ele>1558</ele>
        <time>2018-01-24T11:45:27Z</time>
      </trkpt>
      <trkpt lat="46.17483" lon="6.62561">
        <ele>1558</ele>
        <time>2018-01-24T11:45:28Z</time>
      </trkpt>
      <trkpt lat="46.17484" lon="6.62561">
        <ele>1558</ele>
        <time>2018-01-24T11:45:29Z</time>
      </trkpt>
      <trkpt lat="46.17485" lon="6.62561">
        <ele>1559</ele>
        <time>2018-01-24T11:45:30Z</time>
      </trkpt>
      <trkpt lat="46.17486" lon="6.62561">
        <ele>1559</ele>
        <time>2018-01-24T11:45:31Z</time>
      </trkpt>
      <trkpt lat="46.17488" lon="6.62561">
        <ele>1559</ele>
        <time>2018-01-24T11:45:32Z</time>
      </trkpt>
      <trkpt lat="46.17489" lon="6.62562">
        <ele>1559</ele>
        <time>2018-01-24T11:45:33Z</time>
      </trkpt>
      <trkpt lat="46.1749" lon="6.62562">
        <ele>1560</ele>
        <time>2018-01-24T11:45:34Z</time>
      </trkpt>
      <trkpt lat="46.17491" lon="6.62562">
        <ele>1560</ele>
        <time>2018-01-24T11:45:35Z</time>
      </trkpt>
      <trkpt lat="46.17493" lon="6.62563">
        <ele>1560</ele>
        <time>2018-01-24T11:45:36Z</time>
      </trkpt>
      <trkpt lat="46.17495" lon="6.62563">
        <ele>1561</ele>
        <time>2018-01-24T11:45:38Z</time>
      </trkpt>
      <trkpt lat="46.17496" lon="6.62564">
        <ele>1561</ele>
        <time>2018-01-24T11:45:39Z</time>
      </trkpt>
      <trkpt lat="46.17498" lon="6.62564">
        <ele>1561</ele>
        <time>2018-01-24T11:45:40Z</time>
      </trkpt>
      <trkpt lat="46.17516" lon="6.62566">
        <ele>1566</ele>
        <time>2018-01-24T11:45:54Z</time>
      </trkpt>
      <trkpt lat="46.17527" lon="6.62568">
        <ele>1566</ele>
        <time>2018-01-24T11:46:03Z</time>
      </trkpt>
      <trkpt lat="46.17528" lon="6.62568">
        <ele>1566</ele>
        <time>2018-01-24T11:46:04Z</time>
      </trkpt>
      <trkpt lat="46.1753" lon="6.62569">
        <ele>1566</ele>
        <time>2018-01-24T11:46:05Z</time>
      </trkpt>
      <trkpt lat="46.17545" lon="6.62574">
        <ele>1568</ele>
        <time>2018-01-24T11:46:20Z</time>
      </trkpt>
      <trkpt lat="46.17546" lon="6.62574">
        <ele>1568</ele>
        <time>2018-01-24T11:46:21Z</time>
      </trkpt>
      <trkpt lat="46.17547" lon="6.62574">
        <ele>1568</ele>
        <time>2018-01-24T11:46:22Z</time>
      </trkpt>
      <trkpt lat="46.17548" lon="6.62574">
        <ele>1568</ele>
        <time>2018-01-24T11:46:23Z</time>
      </trkpt>
      <trkpt lat="46.17549" lon="6.62574">
        <ele>1568</ele>
        <time>2018-01-24T11:46:24Z</time>
      </trkpt>
      <trkpt lat="46.1755" lon="6.62574">
        <ele>1569</ele>
        <time>2018-01-24T11:46:25Z</time>
      </trkpt>
      <trkpt lat="46.17589" lon="6.62582">
        <ele>1579</ele>
        <time>2018-01-24T11:46:55Z</time>
      </trkpt>
      <trkpt lat="46.17618" lon="6.62589">
        <ele>1586</ele>
        <time>2018-01-24T11:47:18Z</time>
      </trkpt>
      <trkpt lat="46.17655" lon="6.62596">
        <ele>1582</ele>
        <time>2018-01-24T11:47:44Z</time>
      </trkpt>
      <trkpt lat="46.17674" lon="6.62609">
        <ele>1584</ele>
        <time>2018-01-24T11:47:58Z</time>
      </trkpt>
      <trkpt lat="46.17683" lon="6.62616">
        <ele>1586</ele>
        <time>2018-01-24T11:48:06Z</time>
      </trkpt>
      <trkpt lat="46.17684" lon="6.62619">
        <ele>1587</ele>
        <time>2018-01-24T11:48:08Z</time>
      </trkpt>
      <trkpt lat="46.17685" lon="6.6262">
        <ele>1587</ele>
        <time>2018-01-24T11:48:09Z</time>
      </trkpt>
      <trkpt lat="46.17686" lon="6.62621">
        <ele>1587</ele>
        <time>2018-01-24T11:48:10Z</time>
      </trkpt>
      <trkpt lat="46.17687" lon="6.62622">
        <ele>1587</ele>
        <time>2018-01-24T11:48:11Z</time>
      </trkpt>
      <trkpt lat="46.17688" lon="6.62623">
        <ele>1588</ele>
        <time>2018-01-24T11:48:12Z</time>
      </trkpt>
      <trkpt lat="46.17689" lon="6.62624">
        <ele>1588</ele>
        <time>2018-01-24T11:48:13Z</time>
      </trkpt>
      <trkpt lat="46.17691" lon="6.62624">
        <ele>1588</ele>
        <time>2018-01-24T11:48:14Z</time>
      </trkpt>
      <trkpt lat="46.17692" lon="6.62625">
        <ele>1588</ele>
        <time>2018-01-24T11:48:15Z</time>
      </trkpt>
      <trkpt lat="46.17693" lon="6.62626">
        <ele>1588</ele>
        <time>2018-01-24T11:48:16Z</time>
      </trkpt>
      <trkpt lat="46.17694" lon="6.62627">
        <ele>1588</ele>
        <time>2018-01-24T11:48:17Z</time>
      </trkpt>
      <trkpt lat="46.17695" lon="6.62628">
        <ele>1589</ele>
        <time>2018-01-24T11:48:18Z</time>
      </trkpt>
      <trkpt lat="46.17702" lon="6.62631">
        <ele>1589</ele>
        <time>2018-01-24T11:48:24Z</time>
      </trkpt>
      <trkpt lat="46.17703" lon="6.62631">
        <ele>1589</ele>
        <time>2018-01-24T11:48:25Z</time>
      </trkpt>
      <trkpt lat="46.17704" lon="6.62631">
        <ele>1589</ele>
        <time>2018-01-24T11:48:26Z</time>
      </trkpt>
      <trkpt lat="46.17726" lon="6.62632">
        <ele>1590</ele>
        <time>2018-01-24T11:48:45Z</time>
      </trkpt>
      <trkpt lat="46.17728" lon="6.62632">
        <ele>1590</ele>
        <time>2018-01-24T11:48:46Z</time>
      </trkpt>
      <trkpt lat="46.17729" lon="6.62632">
        <ele>1590</ele>
        <time>2018-01-24T11:48:47Z</time>
      </trkpt>
      <trkpt lat="46.17767" lon="6.62637">
        <ele>1592</ele>
        <time>2018-01-24T11:49:18Z</time>
      </trkpt>
      <trkpt lat="46.17778" lon="6.6264">
        <ele>1592</ele>
        <time>2018-01-24T11:49:27Z</time>
      </trkpt>
      <trkpt lat="46.17781" lon="6.6264">
        <ele>1592</ele>
        <time>2018-01-24T11:49:29Z</time>
      </trkpt>
      <trkpt lat="46.17782" lon="6.62641">
        <ele>1592</ele>
        <time>2018-01-24T11:49:30Z</time>
      </trkpt>
      <trkpt lat="46.17783" lon="6.62641">
        <ele>1592</ele>
        <time>2018-01-24T11:49:31Z</time>
      </trkpt>
      <trkpt lat="46.17784" lon="6.62641">
        <ele>1592</ele>
        <time>2018-01-24T11:49:32Z</time>
      </trkpt>
      <trkpt lat="46.17786" lon="6.62642">
        <ele>1592</ele>
        <time>2018-01-24T11:49:34Z</time>
      </trkpt>
      <trkpt lat="46.17787" lon="6.62642">
        <ele>1592</ele>
        <time>2018-01-24T11:49:35Z</time>
      </trkpt>
      <trkpt lat="46.17804" lon="6.62648">
        <ele>1594</ele>
        <time>2018-01-24T11:49:50Z</time>
      </trkpt>
      <trkpt lat="46.17806" lon="6.62649">
        <ele>1594</ele>
        <time>2018-01-24T11:49:51Z</time>
      </trkpt>
      <trkpt lat="46.17813" lon="6.62652">
        <ele>1595</ele>
        <time>2018-01-24T11:49:57Z</time>
      </trkpt>
      <trkpt lat="46.1782" lon="6.62656">
        <ele>1597</ele>
        <time>2018-01-24T11:50:03Z</time>
      </trkpt>
      <trkpt lat="46.1783" lon="6.62666">
        <ele>1601</ele>
        <time>2018-01-24T11:50:14Z</time>
      </trkpt>
      <trkpt lat="46.17841" lon="6.62673">
        <ele>1606</ele>
        <time>2018-01-24T11:50:23Z</time>
      </trkpt>
      <trkpt lat="46.17866" lon="6.62691">
        <ele>1610</ele>
        <time>2018-01-24T11:50:46Z</time>
      </trkpt>
      <trkpt lat="46.1787" lon="6.62693">
        <ele>1611</ele>
        <time>2018-01-24T11:50:50Z</time>
      </trkpt>
      <trkpt lat="46.17871" lon="6.62693">
        <ele>1611</ele>
        <time>2018-01-24T11:50:51Z</time>
      </trkpt>
      <trkpt lat="46.17901" lon="6.62714">
        <ele>1613</ele>
        <time>2018-01-24T11:51:18Z</time>
      </trkpt>
      <trkpt lat="46.17903" lon="6.62715">
        <ele>1613</ele>
        <time>2018-01-24T11:51:19Z</time>
      </trkpt>
      <trkpt lat="46.17904" lon="6.62715">
        <ele>1613</ele>
        <time>2018-01-24T11:51:20Z</time>
      </trkpt>
      <trkpt lat="46.17919" lon="6.6272">
        <ele>1614</ele>
        <time>2018-01-24T11:51:34Z</time>
      </trkpt>
      <trkpt lat="46.17919" lon="6.6272">
        <ele>1614</ele>
        <time>2018-01-24T11:51:35Z</time>
      </trkpt>
      <trkpt lat="46.1792" lon="6.6272">
        <ele>1614</ele>
        <time>2018-01-24T11:51:36Z</time>
      </trkpt>
      <trkpt lat="46.1794" lon="6.62725">
        <ele>1614</ele>
        <time>2018-01-24T11:51:57Z</time>
      </trkpt>
      <trkpt lat="46.1796" lon="6.62728">
        <ele>1615</ele>
        <time>2018-01-24T11:52:14Z</time>
      </trkpt>
      <trkpt lat="46.17977" lon="6.6273">
        <ele>1616</ele>
        <time>2018-01-24T11:52:29Z</time>
      </trkpt>
      <trkpt lat="46.17997" lon="6.62738">
        <ele>1620</ele>
        <time>2018-01-24T11:52:48Z</time>
      </trkpt>
      <trkpt lat="46.18003" lon="6.6274">
        <ele>1623</ele>
        <time>2018-01-24T11:52:54Z</time>
      </trkpt>
      <trkpt lat="46.18005" lon="6.62741">
        <ele>1623</ele>
        <time>2018-01-24T11:52:56Z</time>
      </trkpt>
      <trkpt lat="46.18006" lon="6.62741">
        <ele>1623</ele>
        <time>2018-01-24T11:52:57Z</time>
      </trkpt>
      <trkpt lat="46.18007" lon="6.62742">
        <ele>1623</ele>
        <time>2018-01-24T11:52:58Z</time>
      </trkpt>
      <trkpt lat="46.18008" lon="6.62743">
        <ele>1623</ele>
        <time>2018-01-24T11:52:59Z</time>
      </trkpt>
      <trkpt lat="46.18009" lon="6.62744">
        <ele>1623</ele>
        <time>2018-01-24T11:53:00Z</time>
      </trkpt>
      <trkpt lat="46.1801" lon="6.62745">
        <ele>1623</ele>
        <time>2018-01-24T11:53:01Z</time>
      </trkpt>
      <trkpt lat="46.18012" lon="6.62746">
        <ele>1623</ele>
        <time>2018-01-24T11:53:04Z</time>
      </trkpt>
      <trkpt lat="46.18014" lon="6.62747">
        <ele>1623</ele>
        <time>2018-01-24T11:53:06Z</time>
      </trkpt>
      <trkpt lat="46.18015" lon="6.62748">
        <ele>1623</ele>
        <time>2018-01-24T11:53:07Z</time>
      </trkpt>
      <trkpt lat="46.18016" lon="6.62748">
        <ele>1623</ele>
        <time>2018-01-24T11:53:08Z</time>
      </trkpt>
      <trkpt lat="46.18017" lon="6.62749">
        <ele>1623</ele>
        <time>2018-01-24T11:53:09Z</time>
      </trkpt>
      <trkpt lat="46.18018" lon="6.62749">
        <ele>1623</ele>
        <time>2018-01-24T11:53:10Z</time>
      </trkpt>
      <trkpt lat="46.18019" lon="6.62749">
        <ele>1623</ele>
        <time>2018-01-24T11:53:11Z</time>
      </trkpt>
      <trkpt lat="46.18037" lon="6.62756">
        <ele>1631</ele>
        <time>2018-01-24T11:53:27Z</time>
      </trkpt>
      <trkpt lat="46.18058" lon="6.62763">
        <ele>1632</ele>
        <time>2018-01-24T11:53:51Z</time>
      </trkpt>
      <trkpt lat="46.18081" lon="6.62768">
        <ele>1633</ele>
        <time>2018-01-24T11:54:12Z</time>
      </trkpt>
      <trkpt lat="46.18091" lon="6.62772">
        <ele>1632</ele>
        <time>2018-01-24T11:54:23Z</time>
      </trkpt>
      <trkpt lat="46.18112" lon="6.62779">
        <ele>1632</ele>
        <time>2018-01-24T11:54:43Z</time>
      </trkpt>
      <trkpt lat="46.18141" lon="6.6278">
        <ele>1632</ele>
        <time>2018-01-24T11:55:08Z</time>
      </trkpt>
      <trkpt lat="46.18152" lon="6.62779">
        <ele>1632</ele>
        <time>2018-01-24T11:55:18Z</time>
      </trkpt>
      <trkpt lat="46.18177" lon="6.62781">
        <ele>1634</ele>
        <time>2018-01-24T11:55:36Z</time>
      </trkpt>
      <trkpt lat="46.1819" lon="6.62782">
        <ele>1635</ele>
        <time>2018-01-24T11:55:47Z</time>
      </trkpt>
      <trkpt lat="46.18192" lon="6.62782">
        <ele>1635</ele>
        <time>2018-01-24T11:55:48Z</time>
      </trkpt>
      <trkpt lat="46.182" lon="6.62781">
        <ele>1635</ele>
        <time>2018-01-24T11:55:54Z</time>
      </trkpt>
      <trkpt lat="46.18222" lon="6.62783">
        <ele>1636</ele>
        <time>2018-01-24T11:56:17Z</time>
      </trkpt>
      <trkpt lat="46.18222" lon="6.62785">
        <ele>1636</ele>
        <time>2018-01-24T11:56:28Z</time>
      </trkpt>
      <trkpt lat="46.18224" lon="6.62785">
        <ele>1636</ele>
        <time>2018-01-24T11:56:36Z</time>
      </trkpt>
      <trkpt lat="46.18226" lon="6.62784">
        <ele>1636</ele>
        <time>2018-01-24T11:56:39Z</time>
      </trkpt>
      <trkpt lat="46.18225" lon="6.62783">
        <ele>1636</ele>
        <time>2018-01-24T11:56:42Z</time>
      </trkpt>
      <trkpt lat="46.18225" lon="6.62783">
        <ele>1636</ele>
        <time>2018-01-24T11:56:45Z</time>
      </trkpt>
      <trkpt lat="46.18225" lon="6.62782">
        <ele>1636</ele>
        <time>2018-01-24T11:56:51Z</time>
      </trkpt>
      <trkpt lat="46.18226" lon="6.62782">
        <ele>1636</ele>
        <time>2018-01-24T11:57:03Z</time>
      </trkpt>
      <trkpt lat="46.18225" lon="6.62783">
        <ele>1636</ele>
        <time>2018-01-24T11:57:07Z</time>
      </trkpt>
      <trkpt lat="46.18226" lon="6.62783">
        <ele>1636</ele>
        <time>2018-01-24T11:57:36Z</time>
      </trkpt>
      <trkpt lat="46.18228" lon="6.62783">
        <ele>1637</ele>
        <time>2018-01-24T11:57:39Z</time>
      </trkpt>
      <trkpt lat="46.18233" lon="6.62782">
        <ele>1637</ele>
        <time>2018-01-24T11:57:45Z</time>
      </trkpt>
      <trkpt lat="46.18234" lon="6.62782">
        <ele>1637</ele>
        <time>2018-01-24T11:57:46Z</time>
      </trkpt>
      <trkpt lat="46.18249" lon="6.6278">
        <ele>1638</ele>
        <time>2018-01-24T11:57:57Z</time>
      </trkpt>
      <trkpt lat="46.18254" lon="6.62779">
        <ele>1644</ele>
        <time>2018-01-24T11:58:02Z</time>
      </trkpt>
      <trkpt lat="46.1826" lon="6.62778">
        <ele>1645</ele>
        <time>2018-01-24T11:58:06Z</time>
      </trkpt>
      <trkpt lat="46.18265" lon="6.62777">
        <ele>1645</ele>
        <time>2018-01-24T11:58:10Z</time>
      </trkpt>
      <trkpt lat="46.18275" lon="6.62775">
        <ele>1645</ele>
        <time>2018-01-24T11:58:18Z</time>
      </trkpt>
      <trkpt lat="46.18284" lon="6.62773">
        <ele>1646</ele>
        <time>2018-01-24T11:58:28Z</time>
      </trkpt>
      <trkpt lat="46.18285" lon="6.62771">
        <ele>1646</ele>
        <time>2018-01-24T11:58:29Z</time>
      </trkpt>
      <trkpt lat="46.18286" lon="6.6277">
        <ele>1646</ele>
        <time>2018-01-24T11:58:30Z</time>
      </trkpt>
      <trkpt lat="46.18292" lon="6.62766">
        <ele>1647</ele>
        <time>2018-01-24T11:58:36Z</time>
      </trkpt>
      <trkpt lat="46.18298" lon="6.62762">
        <ele>1648</ele>
        <time>2018-01-24T11:58:42Z</time>
      </trkpt>
      <trkpt lat="46.18301" lon="6.6276">
        <ele>1649</ele>
        <time>2018-01-24T11:58:46Z</time>
      </trkpt>
      <trkpt lat="46.18308" lon="6.62757">
        <ele>1650</ele>
        <time>2018-01-24T11:58:52Z</time>
      </trkpt>
      <trkpt lat="46.18322" lon="6.6275">
        <ele>1657</ele>
        <time>2018-01-24T11:59:06Z</time>
      </trkpt>
      <trkpt lat="46.18335" lon="6.6274">
        <ele>1663</ele>
        <time>2018-01-24T11:59:22Z</time>
      </trkpt>
      <trkpt lat="46.18346" lon="6.6273">
        <ele>1666</ele>
        <time>2018-01-24T11:59:36Z</time>
      </trkpt>
      <trkpt lat="46.18357" lon="6.62721">
        <ele>1669</ele>
        <time>2018-01-24T11:59:49Z</time>
      </trkpt>
      <trkpt lat="46.18363" lon="6.62717">
        <ele>1669</ele>
        <time>2018-01-24T11:59:57Z</time>
      </trkpt>
      <trkpt lat="46.18374" lon="6.62708">
        <ele>1671</ele>
        <time>2018-01-24T12:00:13Z</time>
      </trkpt>
      <trkpt lat="46.18388" lon="6.62699">
        <ele>1673</ele>
        <time>2018-01-24T12:00:30Z</time>
      </trkpt>
      <trkpt lat="46.18398" lon="6.62694">
        <ele>1675</ele>
        <time>2018-01-24T12:00:41Z</time>
      </trkpt>
      <trkpt lat="46.18407" lon="6.6269">
        <ele>1677</ele>
        <time>2018-01-24T12:00:52Z</time>
      </trkpt>
      <trkpt lat="46.1841" lon="6.62688">
        <ele>1678</ele>
        <time>2018-01-24T12:00:57Z</time>
      </trkpt>
      <trkpt lat="46.18419" lon="6.62684">
        <ele>1690</ele>
        <time>2018-01-24T12:01:07Z</time>
      </trkpt>
      <trkpt lat="46.18427" lon="6.62678">
        <ele>1690</ele>
        <time>2018-01-24T12:01:17Z</time>
      </trkpt>
      <trkpt lat="46.18428" lon="6.62678">
        <ele>1690</ele>
        <time>2018-01-24T12:01:18Z</time>
      </trkpt>
      <trkpt lat="46.18429" lon="6.62678">
        <ele>1690</ele>
        <time>2018-01-24T12:01:19Z</time>
      </trkpt>
      <trkpt lat="46.18437" lon="6.62673">
        <ele>1691</ele>
        <time>2018-01-24T12:01:30Z</time>
      </trkpt>
      <trkpt lat="46.18448" lon="6.62667">
        <ele>1696</ele>
        <time>2018-01-24T12:01:42Z</time>
      </trkpt>
      <trkpt lat="46.18455" lon="6.62664">
        <ele>1698</ele>
        <time>2018-01-24T12:01:50Z</time>
      </trkpt>
      <trkpt lat="46.18466" lon="6.62659">
        <ele>1701</ele>
        <time>2018-01-24T12:02:04Z</time>
      </trkpt>
      <trkpt lat="46.18476" lon="6.62652">
        <ele>1703</ele>
        <time>2018-01-24T12:02:18Z</time>
      </trkpt>
      <trkpt lat="46.18485" lon="6.62649">
        <ele>1704</ele>
        <time>2018-01-24T12:02:29Z</time>
      </trkpt>
      <trkpt lat="46.18493" lon="6.62643">
        <ele>1705</ele>
        <time>2018-01-24T12:02:41Z</time>
      </trkpt>
      <trkpt lat="46.18501" lon="6.62637">
        <ele>1721</ele>
        <time>2018-01-24T12:02:51Z</time>
      </trkpt>
      <trkpt lat="46.18502" lon="6.62637">
        <ele>1721</ele>
        <time>2018-01-24T12:02:52Z</time>
      </trkpt>
      <trkpt lat="46.18503" lon="6.62637">
        <ele>1721</ele>
        <time>2018-01-24T12:02:53Z</time>
      </trkpt>
      <trkpt lat="46.18504" lon="6.62637">
        <ele>1721</ele>
        <time>2018-01-24T12:02:54Z</time>
      </trkpt>
      <trkpt lat="46.18505" lon="6.62637">
        <ele>1721</ele>
        <time>2018-01-24T12:02:55Z</time>
      </trkpt>
      <trkpt lat="46.18506" lon="6.62637">
        <ele>1721</ele>
        <time>2018-01-24T12:02:56Z</time>
      </trkpt>
      <trkpt lat="46.18515" lon="6.62635">
        <ele>1722</ele>
        <time>2018-01-24T12:03:09Z</time>
      </trkpt>
      <trkpt lat="46.18519" lon="6.62634">
        <ele>1723</ele>
        <time>2018-01-24T12:03:13Z</time>
      </trkpt>
      <trkpt lat="46.18519" lon="6.62634">
        <ele>1723</ele>
        <time>2018-01-24T12:03:14Z</time>
      </trkpt>
      <trkpt lat="46.1852" lon="6.62634">
        <ele>1723</ele>
        <time>2018-01-24T12:03:15Z</time>
      </trkpt>
      <trkpt lat="46.18522" lon="6.62635">
        <ele>1723</ele>
        <time>2018-01-24T12:03:17Z</time>
      </trkpt>
      <trkpt lat="46.18525" lon="6.62634">
        <ele>1724</ele>
        <time>2018-01-24T12:03:20Z</time>
      </trkpt>
      <trkpt lat="46.18525" lon="6.62634">
        <ele>1724</ele>
        <time>2018-01-24T12:03:21Z</time>
      </trkpt>
      <trkpt lat="46.18526" lon="6.62633">
        <ele>1724</ele>
        <time>2018-01-24T12:03:22Z</time>
      </trkpt>
      <trkpt lat="46.1853" lon="6.62632">
        <ele>1725</ele>
        <time>2018-01-24T12:03:28Z</time>
      </trkpt>
      <trkpt lat="46.18531" lon="6.62632">
        <ele>1725</ele>
        <time>2018-01-24T12:03:29Z</time>
      </trkpt>
      <trkpt lat="46.18531" lon="6.62632">
        <ele>1725</ele>
        <time>2018-01-24T12:03:30Z</time>
      </trkpt>
      <trkpt lat="46.18541" lon="6.6263">
        <ele>1727</ele>
        <time>2018-01-24T12:03:41Z</time>
      </trkpt>
      <trkpt lat="46.18552" lon="6.62628">
        <ele>1729</ele>
        <time>2018-01-24T12:03:54Z</time>
      </trkpt>
      <trkpt lat="46.18562" lon="6.62623">
        <ele>1730</ele>
        <time>2018-01-24T12:04:07Z</time>
      </trkpt>
      <trkpt lat="46.18572" lon="6.6262">
        <ele>1731</ele>
        <time>2018-01-24T12:04:17Z</time>
      </trkpt>
      <trkpt lat="46.18581" lon="6.62618">
        <ele>1732</ele>
        <time>2018-01-24T12:04:28Z</time>
      </trkpt>
      <trkpt lat="46.18592" lon="6.62616">
        <ele>1750</ele>
        <time>2018-01-24T12:04:41Z</time>
      </trkpt>
      <trkpt lat="46.18601" lon="6.62613">
        <ele>1751</ele>
        <time>2018-01-24T12:04:53Z</time>
      </trkpt>
      <trkpt lat="46.1861" lon="6.6261">
        <ele>1753</ele>
        <time>2018-01-24T12:05:04Z</time>
      </trkpt>
      <trkpt lat="46.18619" lon="6.62604">
        <ele>1754</ele>
        <time>2018-01-24T12:05:17Z</time>
      </trkpt>
      <trkpt lat="46.18628" lon="6.62599">
        <ele>1756</ele>
        <time>2018-01-24T12:05:29Z</time>
      </trkpt>
      <trkpt lat="46.18634" lon="6.62596">
        <ele>1758</ele>
        <time>2018-01-24T12:05:36Z</time>
      </trkpt>
      <trkpt lat="46.18644" lon="6.62587">
        <ele>1761</ele>
        <time>2018-01-24T12:05:51Z</time>
      </trkpt>
      <trkpt lat="46.18651" lon="6.62577">
        <ele>1764</ele>
        <time>2018-01-24T12:06:01Z</time>
      </trkpt>
      <trkpt lat="46.18659" lon="6.6257">
        <ele>1764</ele>
        <time>2018-01-24T12:06:12Z</time>
      </trkpt>
      <trkpt lat="46.18661" lon="6.6257">
        <ele>1765</ele>
        <time>2018-01-24T12:06:14Z</time>
      </trkpt>
      <trkpt lat="46.18664" lon="6.62571">
        <ele>1765</ele>
        <time>2018-01-24T12:06:17Z</time>
      </trkpt>
      <trkpt lat="46.18665" lon="6.62572">
        <ele>1766</ele>
        <time>2018-01-24T12:06:18Z</time>
      </trkpt>
      <trkpt lat="46.18668" lon="6.62573">
        <ele>1775</ele>
        <time>2018-01-24T12:06:22Z</time>
      </trkpt>
      <trkpt lat="46.18668" lon="6.62574">
        <ele>1774</ele>
        <time>2018-01-24T12:06:23Z</time>
      </trkpt>
      <trkpt lat="46.18678" lon="6.6258">
        <ele>1776</ele>
        <time>2018-01-24T12:06:35Z</time>
      </trkpt>
      <trkpt lat="46.18681" lon="6.6258">
        <ele>1777</ele>
        <time>2018-01-24T12:06:39Z</time>
      </trkpt>
      <trkpt lat="46.18682" lon="6.62579">
        <ele>1777</ele>
        <time>2018-01-24T12:06:40Z</time>
      </trkpt>
      <trkpt lat="46.18685" lon="6.62571">
        <ele>1779</ele>
        <time>2018-01-24T12:06:50Z</time>
      </trkpt>
      <trkpt lat="46.18686" lon="6.6257">
        <ele>1779</ele>
        <time>2018-01-24T12:06:51Z</time>
      </trkpt>
      <trkpt lat="46.1869" lon="6.62562">
        <ele>1781</ele>
        <time>2018-01-24T12:07:01Z</time>
      </trkpt>
      <trkpt lat="46.18691" lon="6.62559">
        <ele>1782</ele>
        <time>2018-01-24T12:07:04Z</time>
      </trkpt>
      <trkpt lat="46.18699" lon="6.62551">
        <ele>1783</ele>
        <time>2018-01-24T12:07:16Z</time>
      </trkpt>
      <trkpt lat="46.18707" lon="6.62546">
        <ele>1785</ele>
        <time>2018-01-24T12:07:29Z</time>
      </trkpt>
      <trkpt lat="46.18715" lon="6.62543">
        <ele>1786</ele>
        <time>2018-01-24T12:07:38Z</time>
      </trkpt>
      <trkpt lat="46.18727" lon="6.62541">
        <ele>1788</ele>
        <time>2018-01-24T12:07:50Z</time>
      </trkpt>
      <trkpt lat="46.18737" lon="6.62537">
        <ele>1789</ele>
        <time>2018-01-24T12:08:04Z</time>
      </trkpt>
      <trkpt lat="46.18751" lon="6.62532">
        <ele>1804</ele>
        <time>2018-01-24T12:08:19Z</time>
      </trkpt>
      <trkpt lat="46.18752" lon="6.62533">
        <ele>1804</ele>
        <time>2018-01-24T12:08:20Z</time>
      </trkpt>
      <trkpt lat="46.18752" lon="6.62533">
        <ele>1804</ele>
        <time>2018-01-24T12:08:21Z</time>
      </trkpt>
      <trkpt lat="46.18754" lon="6.62534">
        <ele>1804</ele>
        <time>2018-01-24T12:08:22Z</time>
      </trkpt>
      <trkpt lat="46.18754" lon="6.62534">
        <ele>1804</ele>
        <time>2018-01-24T12:08:23Z</time>
      </trkpt>
      <trkpt lat="46.18768" lon="6.62534">
        <ele>1805</ele>
        <time>2018-01-24T12:08:39Z</time>
      </trkpt>
      <trkpt lat="46.18781" lon="6.62537">
        <ele>1807</ele>
        <time>2018-01-24T12:08:53Z</time>
      </trkpt>
      <trkpt lat="46.18786" lon="6.62538">
        <ele>1808</ele>
        <time>2018-01-24T12:08:58Z</time>
      </trkpt>
      <trkpt lat="46.18787" lon="6.62538">
        <ele>1808</ele>
        <time>2018-01-24T12:08:59Z</time>
      </trkpt>
      <trkpt lat="46.18788" lon="6.62538">
        <ele>1808</ele>
        <time>2018-01-24T12:09:00Z</time>
      </trkpt>
      <trkpt lat="46.18789" lon="6.62538">
        <ele>1808</ele>
        <time>2018-01-24T12:09:01Z</time>
      </trkpt>
      <trkpt lat="46.18791" lon="6.62538">
        <ele>1808</ele>
        <time>2018-01-24T12:09:02Z</time>
      </trkpt>
      <trkpt lat="46.18791" lon="6.62538">
        <ele>1808</ele>
        <time>2018-01-24T12:09:03Z</time>
      </trkpt>
      <trkpt lat="46.18792" lon="6.62538">
        <ele>1808</ele>
        <time>2018-01-24T12:09:04Z</time>
      </trkpt>
      <trkpt lat="46.18801" lon="6.62539">
        <ele>1809</ele>
        <time>2018-01-24T12:09:14Z</time>
      </trkpt>
      <trkpt lat="46.18813" lon="6.62541">
        <ele>1811</ele>
        <time>2018-01-24T12:09:29Z</time>
      </trkpt>
      <trkpt lat="46.18819" lon="6.62543">
        <ele>1811</ele>
        <time>2018-01-24T12:09:37Z</time>
      </trkpt>
      <trkpt lat="46.18829" lon="6.62548">
        <ele>1812</ele>
        <time>2018-01-24T12:09:51Z</time>
      </trkpt>
      <trkpt lat="46.18838" lon="6.62552">
        <ele>1826</ele>
        <time>2018-01-24T12:10:00Z</time>
      </trkpt>
      <trkpt lat="46.1885" lon="6.6256">
        <ele>1827</ele>
        <time>2018-01-24T12:10:13Z</time>
      </trkpt>
      <trkpt lat="46.18855" lon="6.62564">
        <ele>1827</ele>
        <time>2018-01-24T12:10:20Z</time>
      </trkpt>
      <trkpt lat="46.18861" lon="6.62577">
        <ele>1828</ele>
        <time>2018-01-24T12:10:33Z</time>
      </trkpt>
      <trkpt lat="46.18866" lon="6.62588">
        <ele>1819</ele>
        <time>2018-01-24T12:10:44Z</time>
      </trkpt>
      <trkpt lat="46.18869" lon="6.62598">
        <ele>1819</ele>
        <time>2018-01-24T12:10:52Z</time>
      </trkpt>
      <trkpt lat="46.1887" lon="6.626">
        <ele>1819</ele>
        <time>2018-01-24T12:10:54Z</time>
      </trkpt>
      <trkpt lat="46.18875" lon="6.62606">
        <ele>1818</ele>
        <time>2018-01-24T12:11:06Z</time>
      </trkpt>
      <trkpt lat="46.18875" lon="6.62606">
        <ele>1818</ele>
        <time>2018-01-24T12:11:11Z</time>
      </trkpt>
      <trkpt lat="46.18876" lon="6.62605">
        <ele>1818</ele>
        <time>2018-01-24T12:11:23Z</time>
      </trkpt>
      <trkpt lat="46.18875" lon="6.62605">
        <ele>1818</ele>
        <time>2018-01-24T12:11:29Z</time>
      </trkpt>
      <trkpt lat="46.18875" lon="6.62605">
        <ele>1818</ele>
        <time>2018-01-24T12:11:32Z</time>
      </trkpt>
      <trkpt lat="46.18874" lon="6.62605">
        <ele>1818</ele>
        <time>2018-01-24T12:11:36Z</time>
      </trkpt>
      <trkpt lat="46.18874" lon="6.62604">
        <ele>1818</ele>
        <time>2018-01-24T12:11:37Z</time>
      </trkpt>
      <trkpt lat="46.18873" lon="6.62604">
        <ele>1818</ele>
        <time>2018-01-24T12:11:41Z</time>
      </trkpt>
      <trkpt lat="46.18874" lon="6.62604">
        <ele>1818</ele>
        <time>2018-01-24T12:11:45Z</time>
      </trkpt>
      <trkpt lat="46.18875" lon="6.62605">
        <ele>1818</ele>
        <time>2018-01-24T12:11:51Z</time>
      </trkpt>
      <trkpt lat="46.18873" lon="6.62605">
        <ele>1818</ele>
        <time>2018-01-24T12:11:57Z</time>
      </trkpt>
      <trkpt lat="46.18873" lon="6.62605">
        <ele>1818</ele>
        <time>2018-01-24T12:11:59Z</time>
      </trkpt>
      <trkpt lat="46.18877" lon="6.62601">
        <ele>1819</ele>
        <time>2018-01-24T12:12:05Z</time>
      </trkpt>
      <trkpt lat="46.1888" lon="6.62598">
        <ele>1820</ele>
        <time>2018-01-24T12:12:08Z</time>
      </trkpt>
      <trkpt lat="46.18886" lon="6.6259">
        <ele>1821</ele>
        <time>2018-01-24T12:12:17Z</time>
      </trkpt>
      <trkpt lat="46.18888" lon="6.62587">
        <ele>1822</ele>
        <time>2018-01-24T12:12:20Z</time>
      </trkpt>
      <trkpt lat="46.18891" lon="6.62583">
        <ele>1831</ele>
        <time>2018-01-24T12:12:25Z</time>
      </trkpt>
      <trkpt lat="46.18896" lon="6.62577">
        <ele>1832</ele>
        <time>2018-01-24T12:12:32Z</time>
      </trkpt>
      <trkpt lat="46.18903" lon="6.62572">
        <ele>1833</ele>
        <time>2018-01-24T12:12:41Z</time>
      </trkpt>
      <trkpt lat="46.18908" lon="6.62571">
        <ele>1833</ele>
        <time>2018-01-24T12:12:47Z</time>
      </trkpt>
      <trkpt lat="46.18912" lon="6.62567">
        <ele>1833</ele>
        <time>2018-01-24T12:12:53Z</time>
      </trkpt>
      <trkpt lat="46.18912" lon="6.62566">
        <ele>1833</ele>
        <time>2018-01-24T12:12:54Z</time>
      </trkpt>
      <trkpt lat="46.18915" lon="6.62562">
        <ele>1833</ele>
        <time>2018-01-24T12:12:59Z</time>
      </trkpt>
      <trkpt lat="46.18923" lon="6.62553">
        <ele>1839</ele>
        <time>2018-01-24T12:13:11Z</time>
      </trkpt>
      <trkpt lat="46.18926" lon="6.62546">
        <ele>1840</ele>
        <time>2018-01-24T12:13:19Z</time>
      </trkpt>
      <trkpt lat="46.18927" lon="6.62545">
        <ele>1840</ele>
        <time>2018-01-24T12:13:21Z</time>
      </trkpt>
      <trkpt lat="46.18928" lon="6.62544">
        <ele>1840</ele>
        <time>2018-01-24T12:13:22Z</time>
      </trkpt>
      <trkpt lat="46.18934" lon="6.62535">
        <ele>1842</ele>
        <time>2018-01-24T12:13:34Z</time>
      </trkpt>
      <trkpt lat="46.18936" lon="6.62532">
        <ele>1842</ele>
        <time>2018-01-24T12:13:39Z</time>
      </trkpt>
      <trkpt lat="46.18937" lon="6.6253">
        <ele>1843</ele>
        <time>2018-01-24T12:13:41Z</time>
      </trkpt>
      <trkpt lat="46.18942" lon="6.62522">
        <ele>1844</ele>
        <time>2018-01-24T12:13:52Z</time>
      </trkpt>
      <trkpt lat="46.18946" lon="6.62516">
        <ele>1845</ele>
        <time>2018-01-24T12:14:03Z</time>
      </trkpt>
      <trkpt lat="46.18947" lon="6.62515">
        <ele>1845</ele>
        <time>2018-01-24T12:14:05Z</time>
      </trkpt>
      <trkpt lat="46.18952" lon="6.62506">
        <ele>1846</ele>
        <time>2018-01-24T12:14:19Z</time>
      </trkpt>
      <trkpt lat="46.18957" lon="6.62498">
        <ele>1865</ele>
        <time>2018-01-24T12:14:35Z</time>
      </trkpt>
      <trkpt lat="46.18961" lon="6.6249">
        <ele>1866</ele>
        <time>2018-01-24T12:14:45Z</time>
      </trkpt>
      <trkpt lat="46.18966" lon="6.62483">
        <ele>1867</ele>
        <time>2018-01-24T12:14:57Z</time>
      </trkpt>
      <trkpt lat="46.18971" lon="6.62478">
        <ele>1868</ele>
        <time>2018-01-24T12:15:08Z</time>
      </trkpt>
      <trkpt lat="46.18977" lon="6.62469">
        <ele>1870</ele>
        <time>2018-01-24T12:15:22Z</time>
      </trkpt>
      <trkpt lat="46.18983" lon="6.62462">
        <ele>1871</ele>
        <time>2018-01-24T12:15:37Z</time>
      </trkpt>
      <trkpt lat="46.18991" lon="6.62457">
        <ele>1873</ele>
        <time>2018-01-24T12:15:48Z</time>
      </trkpt>
      <trkpt lat="46.18999" lon="6.62449">
        <ele>1875</ele>
        <time>2018-01-24T12:16:01Z</time>
      </trkpt>
      <trkpt lat="46.19007" lon="6.62432">
        <ele>1885</ele>
        <time>2018-01-24T12:16:18Z</time>
      </trkpt>
      <trkpt lat="46.19008" lon="6.62429">
        <ele>1885</ele>
        <time>2018-01-24T12:16:20Z</time>
      </trkpt>
      <trkpt lat="46.1901" lon="6.62421">
        <ele>1887</ele>
        <time>2018-01-24T12:16:26Z</time>
      </trkpt>
      <trkpt lat="46.1901" lon="6.62419">
        <ele>1887</ele>
        <time>2018-01-24T12:16:28Z</time>
      </trkpt>
      <trkpt lat="46.19011" lon="6.62417">
        <ele>1887</ele>
        <time>2018-01-24T12:16:29Z</time>
      </trkpt>
      <trkpt lat="46.19013" lon="6.62405">
        <ele>1885</ele>
        <time>2018-01-24T12:16:38Z</time>
      </trkpt>
      <trkpt lat="46.19013" lon="6.624">
        <ele>1884</ele>
        <time>2018-01-24T12:16:42Z</time>
      </trkpt>
      <trkpt lat="46.19014" lon="6.624">
        <ele>1884</ele>
        <time>2018-01-24T12:16:43Z</time>
      </trkpt>
      <trkpt lat="46.19023" lon="6.62383">
        <ele>1881</ele>
        <time>2018-01-24T12:17:00Z</time>
      </trkpt>
      <trkpt lat="46.19028" lon="6.62369">
        <ele>1879</ele>
        <time>2018-01-24T12:17:13Z</time>
      </trkpt>
      <trkpt lat="46.19029" lon="6.6236">
        <ele>1879</ele>
        <time>2018-01-24T12:17:23Z</time>
      </trkpt>
      <trkpt lat="46.19029" lon="6.62355">
        <ele>1879</ele>
        <time>2018-01-24T12:17:28Z</time>
      </trkpt>
      <trkpt lat="46.19028" lon="6.62354">
        <ele>1880</ele>
        <time>2018-01-24T12:17:29Z</time>
      </trkpt>
      <trkpt lat="46.19028" lon="6.62352">
        <ele>1880</ele>
        <time>2018-01-24T12:17:31Z</time>
      </trkpt>
      <trkpt lat="46.19027" lon="6.62351">
        <ele>1880</ele>
        <time>2018-01-24T12:17:32Z</time>
      </trkpt>
      <trkpt lat="46.19025" lon="6.62344">
        <ele>1881</ele>
        <time>2018-01-24T12:17:38Z</time>
      </trkpt>
      <trkpt lat="46.19021" lon="6.62331">
        <ele>1879</ele>
        <time>2018-01-24T12:17:49Z</time>
      </trkpt>
      <trkpt lat="46.1902" lon="6.6233">
        <ele>1879</ele>
        <time>2018-01-24T12:17:50Z</time>
      </trkpt>
      <trkpt lat="46.19015" lon="6.6231">
        <ele>1877</ele>
        <time>2018-01-24T12:18:06Z</time>
      </trkpt>
      <trkpt lat="46.1901" lon="6.62293">
        <ele>1876</ele>
        <time>2018-01-24T12:18:21Z</time>
      </trkpt>
      <trkpt lat="46.19007" lon="6.62283">
        <ele>1877</ele>
        <time>2018-01-24T12:18:29Z</time>
      </trkpt>
      <trkpt lat="46.19007" lon="6.62282">
        <ele>1877</ele>
        <time>2018-01-24T12:18:30Z</time>
      </trkpt>
      <trkpt lat="46.19006" lon="6.6228">
        <ele>1877</ele>
        <time>2018-01-24T12:18:31Z</time>
      </trkpt>
      <trkpt lat="46.19006" lon="6.62279">
        <ele>1878</ele>
        <time>2018-01-24T12:18:32Z</time>
      </trkpt>
      <trkpt lat="46.19005" lon="6.62278">
        <ele>1878</ele>
        <time>2018-01-24T12:18:33Z</time>
      </trkpt>
      <trkpt lat="46.19002" lon="6.62272">
        <ele>1880</ele>
        <time>2018-01-24T12:18:39Z</time>
      </trkpt>
      <trkpt lat="46.19001" lon="6.62271">
        <ele>1880</ele>
        <time>2018-01-24T12:18:40Z</time>
      </trkpt>
      <trkpt lat="46.19" lon="6.62268">
        <ele>1893</ele>
        <time>2018-01-24T12:18:43Z</time>
      </trkpt>
      <trkpt lat="46.18994" lon="6.62256">
        <ele>1893</ele>
        <time>2018-01-24T12:18:52Z</time>
      </trkpt>
      <trkpt lat="46.18992" lon="6.62248">
        <ele>1894</ele>
        <time>2018-01-24T12:18:57Z</time>
      </trkpt>
      <trkpt lat="46.1899" lon="6.62239">
        <ele>1894</ele>
        <time>2018-01-24T12:19:02Z</time>
      </trkpt>
      <trkpt lat="46.18986" lon="6.62231">
        <ele>1894</ele>
        <time>2018-01-24T12:19:08Z</time>
      </trkpt>
      <trkpt lat="46.18986" lon="6.6223">
        <ele>1894</ele>
        <time>2018-01-24T12:19:09Z</time>
      </trkpt>
      <trkpt lat="46.18985" lon="6.62227">
        <ele>1894</ele>
        <time>2018-01-24T12:19:12Z</time>
      </trkpt>
      <trkpt lat="46.18985" lon="6.62225">
        <ele>1894</ele>
        <time>2018-01-24T12:19:17Z</time>
      </trkpt>
      <trkpt lat="46.18982" lon="6.6222">
        <ele>1894</ele>
        <time>2018-01-24T12:19:28Z</time>
      </trkpt>
      <trkpt lat="46.18981" lon="6.62218">
        <ele>1894</ele>
        <time>2018-01-24T12:19:29Z</time>
      </trkpt>
      <trkpt lat="46.1898" lon="6.62217">
        <ele>1894</ele>
        <time>2018-01-24T12:19:30Z</time>
      </trkpt>
      <trkpt lat="46.18979" lon="6.62215">
        <ele>1894</ele>
        <time>2018-01-24T12:19:31Z</time>
      </trkpt>
      <trkpt lat="46.18978" lon="6.62214">
        <ele>1894</ele>
        <time>2018-01-24T12:19:32Z</time>
      </trkpt>
      <trkpt lat="46.18977" lon="6.62212">
        <ele>1894</ele>
        <time>2018-01-24T12:19:33Z</time>
      </trkpt>
      <trkpt lat="46.18973" lon="6.62206">
        <ele>1894</ele>
        <time>2018-01-24T12:19:37Z</time>
      </trkpt>
      <trkpt lat="46.18959" lon="6.62176">
        <ele>1894</ele>
        <time>2018-01-24T12:19:57Z</time>
      </trkpt>
      <trkpt lat="46.18951" lon="6.62151">
        <ele>1893</ele>
        <time>2018-01-24T12:20:05Z</time>
      </trkpt>
      <trkpt lat="46.18948" lon="6.62143">
        <ele>1893</ele>
        <time>2018-01-24T12:20:08Z</time>
      </trkpt>
      <trkpt lat="46.18946" lon="6.62135">
        <ele>1893</ele>
        <time>2018-01-24T12:20:11Z</time>
      </trkpt>
      <trkpt lat="46.18944" lon="6.62128">
        <ele>1893</ele>
        <time>2018-01-24T12:20:15Z</time>
      </trkpt>
      <trkpt lat="46.18939" lon="6.62093">
        <ele>1893</ele>
        <time>2018-01-24T12:20:35Z</time>
      </trkpt>
      <trkpt lat="46.18938" lon="6.62091">
        <ele>1894</ele>
        <time>2018-01-24T12:20:37Z</time>
      </trkpt>
      <trkpt lat="46.18936" lon="6.62085">
        <ele>1894</ele>
        <time>2018-01-24T12:20:45Z</time>
      </trkpt>
      <trkpt lat="46.18937" lon="6.62083">
        <ele>1892</ele>
        <time>2018-01-24T12:20:46Z</time>
      </trkpt>
      <trkpt lat="46.18938" lon="6.62081">
        <ele>1892</ele>
        <time>2018-01-24T12:20:49Z</time>
      </trkpt>
      <trkpt lat="46.18939" lon="6.6208">
        <ele>1892</ele>
        <time>2018-01-24T12:20:50Z</time>
      </trkpt>
      <trkpt lat="46.18939" lon="6.62078">
        <ele>1892</ele>
        <time>2018-01-24T12:20:52Z</time>
      </trkpt>
      <trkpt lat="46.1894" lon="6.62076">
        <ele>1892</ele>
        <time>2018-01-24T12:20:53Z</time>
      </trkpt>
      <trkpt lat="46.1894" lon="6.62073">
        <ele>1891</ele>
        <time>2018-01-24T12:20:54Z</time>
      </trkpt>
      <trkpt lat="46.18941" lon="6.62071">
        <ele>1891</ele>
        <time>2018-01-24T12:20:55Z</time>
      </trkpt>
      <trkpt lat="46.18942" lon="6.62068">
        <ele>1891</ele>
        <time>2018-01-24T12:20:56Z</time>
      </trkpt>
      <trkpt lat="46.18944" lon="6.62064">
        <ele>1890</ele>
        <time>2018-01-24T12:20:57Z</time>
      </trkpt>
      <trkpt lat="46.18947" lon="6.62062">
        <ele>1890</ele>
        <time>2018-01-24T12:20:58Z</time>
      </trkpt>
      <trkpt lat="46.18948" lon="6.62061">
        <ele>1890</ele>
        <time>2018-01-24T12:20:59Z</time>
      </trkpt>
      <trkpt lat="46.1895" lon="6.6206">
        <ele>1889</ele>
        <time>2018-01-24T12:21:00Z</time>
      </trkpt>
      <trkpt lat="46.18953" lon="6.62063">
        <ele>1889</ele>
        <time>2018-01-24T12:21:04Z</time>
      </trkpt>
      <trkpt lat="46.18952" lon="6.62064">
        <ele>1889</ele>
        <time>2018-01-24T12:21:06Z</time>
      </trkpt>
      <trkpt lat="46.1895" lon="6.62067">
        <ele>1889</ele>
        <time>2018-01-24T12:21:15Z</time>
      </trkpt>
      <trkpt lat="46.1895" lon="6.62068">
        <ele>1890</ele>
        <time>2018-01-24T12:21:19Z</time>
      </trkpt>
      <trkpt lat="46.1895" lon="6.62068">
        <ele>1890</ele>
        <time>2018-01-24T12:21:22Z</time>
      </trkpt>
      <trkpt lat="46.1895" lon="6.62069">
        <ele>1890</ele>
        <time>2018-01-24T12:21:23Z</time>
      </trkpt>
      <trkpt lat="46.1895" lon="6.62068">
        <ele>1890</ele>
        <time>2018-01-24T12:21:28Z</time>
      </trkpt>
      <trkpt lat="46.18951" lon="6.62069">
        <ele>1889</ele>
        <time>2018-01-24T12:21:34Z</time>
      </trkpt>
      <trkpt lat="46.18951" lon="6.62071">
        <ele>1890</ele>
        <time>2018-01-24T12:21:41Z</time>
      </trkpt>
      <trkpt lat="46.18951" lon="6.62072">
        <ele>1889</ele>
        <time>2018-01-24T12:21:45Z</time>
      </trkpt>
      <trkpt lat="46.18951" lon="6.62073">
        <ele>1889</ele>
        <time>2018-01-24T12:21:51Z</time>
      </trkpt>
      <trkpt lat="46.1895" lon="6.62072">
        <ele>1890</ele>
        <time>2018-01-24T12:22:01Z</time>
      </trkpt>
      <trkpt lat="46.1895" lon="6.62073">
        <ele>1890</ele>
        <time>2018-01-24T12:22:03Z</time>
      </trkpt>
      <trkpt lat="46.18951" lon="6.62075">
        <ele>1890</ele>
        <time>2018-01-24T12:22:05Z</time>
      </trkpt>
      <trkpt lat="46.1895" lon="6.62071">
        <ele>1890</ele>
        <time>2018-01-24T12:22:24Z</time>
      </trkpt>
      <trkpt lat="46.1895" lon="6.62072">
        <ele>1890</ele>
        <time>2018-01-24T12:22:25Z</time>
      </trkpt>
      <trkpt lat="46.1895" lon="6.62072">
        <ele>1890</ele>
        <time>2018-01-24T12:22:30Z</time>
      </trkpt>
      <trkpt lat="46.1895" lon="6.6207">
        <ele>1890</ele>
        <time>2018-01-24T12:22:44Z</time>
      </trkpt>
      <trkpt lat="46.1895" lon="6.62069">
        <ele>1890</ele>
        <time>2018-01-24T12:22:46Z</time>
      </trkpt>
      <trkpt lat="46.18951" lon="6.62069">
        <ele>1889</ele>
        <time>2018-01-24T12:23:00Z</time>
      </trkpt>
      <trkpt lat="46.1895" lon="6.62069">
        <ele>1890</ele>
        <time>2018-01-24T12:23:04Z</time>
      </trkpt>
      <trkpt lat="46.1895" lon="6.62069">
        <ele>1890</ele>
        <time>2018-01-24T12:23:08Z</time>
      </trkpt>
      <trkpt lat="46.1895" lon="6.6207">
        <ele>1890</ele>
        <time>2018-01-24T12:23:12Z</time>
      </trkpt>
      <trkpt lat="46.1895" lon="6.62068">
        <ele>1890</ele>
        <time>2018-01-24T12:23:21Z</time>
      </trkpt>
      <trkpt lat="46.1895" lon="6.62069">
        <ele>1890</ele>
        <time>2018-01-24T12:23:27Z</time>
      </trkpt>
      <trkpt lat="46.1895" lon="6.6207">
        <ele>1890</ele>
        <time>2018-01-24T12:23:45Z</time>
      </trkpt>
      <trkpt lat="46.1895" lon="6.62071">
        <ele>1890</ele>
        <time>2018-01-24T12:23:50Z</time>
      </trkpt>
      <trkpt lat="46.18949" lon="6.62071">
        <ele>1890</ele>
        <time>2018-01-24T12:23:52Z</time>
      </trkpt>
      <trkpt lat="46.1895" lon="6.62071">
        <ele>1890</ele>
        <time>2018-01-24T12:23:55Z</time>
      </trkpt>
      <trkpt lat="46.18949" lon="6.62068">
        <ele>1890</ele>
        <time>2018-01-24T12:24:46Z</time>
      </trkpt>
      <trkpt lat="46.1895" lon="6.6207">
        <ele>1890</ele>
        <time>2018-01-24T12:24:52Z</time>
      </trkpt>
      <trkpt lat="46.18949" lon="6.62069">
        <ele>1890</ele>
        <time>2018-01-24T12:24:53Z</time>
      </trkpt>
      <trkpt lat="46.18948" lon="6.62069">
        <ele>1890</ele>
        <time>2018-01-24T12:24:58Z</time>
      </trkpt>
      <trkpt lat="46.1895" lon="6.62067">
        <ele>1889</ele>
        <time>2018-01-24T12:25:11Z</time>
      </trkpt>
      <trkpt lat="46.18949" lon="6.62066">
        <ele>1890</ele>
        <time>2018-01-24T12:25:15Z</time>
      </trkpt>
      <trkpt lat="46.18946" lon="6.62065">
        <ele>1890</ele>
        <time>2018-01-24T12:25:27Z</time>
      </trkpt>
      <trkpt lat="46.18945" lon="6.62062">
        <ele>1890</ele>
        <time>2018-01-24T12:25:41Z</time>
      </trkpt>
      <trkpt lat="46.18948" lon="6.62065">
        <ele>1890</ele>
        <time>2018-01-24T12:25:55Z</time>
      </trkpt>
      <trkpt lat="46.18949" lon="6.62065">
        <ele>1890</ele>
        <time>2018-01-24T12:25:56Z</time>
      </trkpt>
      <trkpt lat="46.18949" lon="6.62065">
        <ele>1890</ele>
        <time>2018-01-24T12:26:01Z</time>
      </trkpt>
      <trkpt lat="46.18951" lon="6.62067">
        <ele>1889</ele>
        <time>2018-01-24T12:26:04Z</time>
      </trkpt>
      <trkpt lat="46.18951" lon="6.62066">
        <ele>1889</ele>
        <time>2018-01-24T12:26:09Z</time>
      </trkpt>
      <trkpt lat="46.1895" lon="6.62066">
        <ele>1889</ele>
        <time>2018-01-24T12:26:10Z</time>
      </trkpt>
      <trkpt lat="46.18949" lon="6.62066">
        <ele>1890</ele>
        <time>2018-01-24T12:26:14Z</time>
      </trkpt>
      <trkpt lat="46.18949" lon="6.62066">
        <ele>1890</ele>
        <time>2018-01-24T12:26:17Z</time>
      </trkpt>
      <trkpt lat="46.18949" lon="6.62067">
        <ele>1890</ele>
        <time>2018-01-24T12:26:32Z</time>
      </trkpt>
      <trkpt lat="46.18948" lon="6.62066">
        <ele>1890</ele>
        <time>2018-01-24T12:26:33Z</time>
      </trkpt>
      <trkpt lat="46.1895" lon="6.62064">
        <ele>1890</ele>
        <time>2018-01-24T12:26:39Z</time>
      </trkpt>
      <trkpt lat="46.18948" lon="6.62062">
        <ele>1890</ele>
        <time>2018-01-24T12:26:47Z</time>
      </trkpt>
      <trkpt lat="46.18946" lon="6.6206">
        <ele>1890</ele>
        <time>2018-01-24T12:26:51Z</time>
      </trkpt>
      <trkpt lat="46.18947" lon="6.62062">
        <ele>1890</ele>
        <time>2018-01-24T12:26:57Z</time>
      </trkpt>
      <trkpt lat="46.18948" lon="6.62062">
        <ele>1890</ele>
        <time>2018-01-24T12:26:59Z</time>
      </trkpt>
      <trkpt lat="46.18948" lon="6.62062">
        <ele>1890</ele>
        <time>2018-01-24T12:27:08Z</time>
      </trkpt>
      <trkpt lat="46.18948" lon="6.62063">
        <ele>1890</ele>
        <time>2018-01-24T12:27:14Z</time>
      </trkpt>
      <trkpt lat="46.18948" lon="6.62063">
        <ele>1890</ele>
        <time>2018-01-24T12:27:17Z</time>
      </trkpt>
      <trkpt lat="46.18948" lon="6.62063">
        <ele>1890</ele>
        <time>2018-01-24T12:27:20Z</time>
      </trkpt>
      <trkpt lat="46.18949" lon="6.62064">
        <ele>1890</ele>
        <time>2018-01-24T12:27:22Z</time>
      </trkpt>
      <trkpt lat="46.18951" lon="6.62065">
        <ele>1889</ele>
        <time>2018-01-24T12:27:30Z</time>
      </trkpt>
      <trkpt lat="46.18952" lon="6.62065">
        <ele>1889</ele>
        <time>2018-01-24T12:27:42Z</time>
      </trkpt>
      <trkpt lat="46.18951" lon="6.62068">
        <ele>1889</ele>
        <time>2018-01-24T12:27:50Z</time>
      </trkpt>
      <trkpt lat="46.18951" lon="6.6207">
        <ele>1889</ele>
        <time>2018-01-24T12:27:54Z</time>
      </trkpt>
      <trkpt lat="46.18951" lon="6.6207">
        <ele>1890</ele>
        <time>2018-01-24T12:27:58Z</time>
      </trkpt>
      <trkpt lat="46.1895" lon="6.6207">
        <ele>1890</ele>
        <time>2018-01-24T12:28:01Z</time>
      </trkpt>
      <trkpt lat="46.18951" lon="6.6207">
        <ele>1890</ele>
        <time>2018-01-24T12:28:03Z</time>
      </trkpt>
      <trkpt lat="46.18951" lon="6.6207">
        <ele>1889</ele>
        <time>2018-01-24T12:28:08Z</time>
      </trkpt>
      <trkpt lat="46.1895" lon="6.6207">
        <ele>1890</ele>
        <time>2018-01-24T12:28:23Z</time>
      </trkpt>
      <trkpt lat="46.1895" lon="6.6207">
        <ele>1890</ele>
        <time>2018-01-24T12:28:26Z</time>
      </trkpt>
      <trkpt lat="46.1895" lon="6.62069">
        <ele>1890</ele>
        <time>2018-01-24T12:28:32Z</time>
      </trkpt>
      <trkpt lat="46.18951" lon="6.62066">
        <ele>1889</ele>
        <time>2018-01-24T12:28:44Z</time>
      </trkpt>
      <trkpt lat="46.18949" lon="6.62065">
        <ele>1890</ele>
        <time>2018-01-24T12:28:51Z</time>
      </trkpt>
      <trkpt lat="46.18949" lon="6.62065">
        <ele>1890</ele>
        <time>2018-01-24T12:28:59Z</time>
      </trkpt>
      <trkpt lat="46.18948" lon="6.62064">
        <ele>1890</ele>
        <time>2018-01-24T12:29:05Z</time>
      </trkpt>
      <trkpt lat="46.18947" lon="6.62063">
        <ele>1890</ele>
        <time>2018-01-24T12:29:07Z</time>
      </trkpt>
      <trkpt lat="46.18946" lon="6.62062">
        <ele>1890</ele>
        <time>2018-01-24T12:29:08Z</time>
      </trkpt>
      <trkpt lat="46.18945" lon="6.62059">
        <ele>1890</ele>
        <time>2018-01-24T12:29:09Z</time>
      </trkpt>
      <trkpt lat="46.18943" lon="6.62053">
        <ele>1890</ele>
        <time>2018-01-24T12:29:10Z</time>
      </trkpt>
      <trkpt lat="46.18937" lon="6.62035">
        <ele>1891</ele>
        <time>2018-01-24T12:29:12Z</time>
      </trkpt>
      <trkpt lat="46.18932" lon="6.62019">
        <ele>1892</ele>
        <time>2018-01-24T12:29:14Z</time>
      </trkpt>
      <trkpt lat="46.18932" lon="6.62013">
        <ele>1893</ele>
        <time>2018-01-24T12:29:15Z</time>
      </trkpt>
      <trkpt lat="46.18933" lon="6.6201">
        <ele>1893</ele>
        <time>2018-01-24T12:29:16Z</time>
      </trkpt>
      <trkpt lat="46.18936" lon="6.62007">
        <ele>1893</ele>
        <time>2018-01-24T12:29:17Z</time>
      </trkpt>
      <trkpt lat="46.18939" lon="6.62003">
        <ele>1892</ele>
        <time>2018-01-24T12:29:18Z</time>
      </trkpt>
      <trkpt lat="46.18939" lon="6.61999">
        <ele>1894</ele>
        <time>2018-01-24T12:29:19Z</time>
      </trkpt>
      <trkpt lat="46.18939" lon="6.61996">
        <ele>1894</ele>
        <time>2018-01-24T12:29:20Z</time>
      </trkpt>
      <trkpt lat="46.18939" lon="6.61993">
        <ele>1894</ele>
        <time>2018-01-24T12:29:21Z</time>
      </trkpt>
      <trkpt lat="46.18938" lon="6.6199">
        <ele>1894</ele>
        <time>2018-01-24T12:29:22Z</time>
      </trkpt>
      <trkpt lat="46.18938" lon="6.61984">
        <ele>1894</ele>
        <time>2018-01-24T12:29:28Z</time>
      </trkpt>
      <trkpt lat="46.18938" lon="6.61983">
        <ele>1893</ele>
        <time>2018-01-24T12:29:34Z</time>
      </trkpt>
      <trkpt lat="46.18938" lon="6.6198">
        <ele>1893</ele>
        <time>2018-01-24T12:29:37Z</time>
      </trkpt>
      <trkpt lat="46.18935" lon="6.61967">
        <ele>1894</ele>
        <time>2018-01-24T12:29:43Z</time>
      </trkpt>
      <trkpt lat="46.18934" lon="6.61965">
        <ele>1894</ele>
        <time>2018-01-24T12:29:44Z</time>
      </trkpt>
      <trkpt lat="46.18935" lon="6.61962">
        <ele>1894</ele>
        <time>2018-01-24T12:29:45Z</time>
      </trkpt>
      <trkpt lat="46.18937" lon="6.61959">
        <ele>1894</ele>
        <time>2018-01-24T12:29:46Z</time>
      </trkpt>
      <trkpt lat="46.1894" lon="6.61958">
        <ele>1893</ele>
        <time>2018-01-24T12:29:47Z</time>
      </trkpt>
      <trkpt lat="46.18942" lon="6.6196">
        <ele>1893</ele>
        <time>2018-01-24T12:29:48Z</time>
      </trkpt>
      <trkpt lat="46.18945" lon="6.61962">
        <ele>1892</ele>
        <time>2018-01-24T12:29:49Z</time>
      </trkpt>
      <trkpt lat="46.1895" lon="6.61961">
        <ele>1892</ele>
        <time>2018-01-24T12:29:51Z</time>
      </trkpt>
      <trkpt lat="46.18958" lon="6.61955">
        <ele>1891</ele>
        <time>2018-01-24T12:29:53Z</time>
      </trkpt>
      <trkpt lat="46.18962" lon="6.61958">
        <ele>1890</ele>
        <time>2018-01-24T12:29:54Z</time>
      </trkpt>
      <trkpt lat="46.18965" lon="6.61962">
        <ele>1889</ele>
        <time>2018-01-24T12:29:55Z</time>
      </trkpt>
      <trkpt lat="46.18967" lon="6.61967">
        <ele>1889</ele>
        <time>2018-01-24T12:29:56Z</time>
      </trkpt>
      <trkpt lat="46.18969" lon="6.6197">
        <ele>1888</ele>
        <time>2018-01-24T12:29:57Z</time>
      </trkpt>
      <trkpt lat="46.18972" lon="6.61973">
        <ele>1888</ele>
        <time>2018-01-24T12:29:58Z</time>
      </trkpt>
      <trkpt lat="46.1899" lon="6.62002">
        <ele>1879</ele>
        <time>2018-01-24T12:30:04Z</time>
      </trkpt>
      <trkpt lat="46.19007" lon="6.62026">
        <ele>1872</ele>
        <time>2018-01-24T12:30:11Z</time>
      </trkpt>
      <trkpt lat="46.19013" lon="6.62037">
        <ele>1871</ele>
        <time>2018-01-24T12:30:15Z</time>
      </trkpt>
      <trkpt lat="46.19015" lon="6.6204">
        <ele>1871</ele>
        <time>2018-01-24T12:30:16Z</time>
      </trkpt>
      <trkpt lat="46.19025" lon="6.62065">
        <ele>1871</ele>
        <time>2018-01-24T12:30:23Z</time>
      </trkpt>
      <trkpt lat="46.19029" lon="6.62065">
        <ele>1870</ele>
        <time>2018-01-24T12:30:24Z</time>
      </trkpt>
      <trkpt lat="46.19032" lon="6.62068">
        <ele>1869</ele>
        <time>2018-01-24T12:30:25Z</time>
      </trkpt>
      <trkpt lat="46.19036" lon="6.62073">
        <ele>1868</ele>
        <time>2018-01-24T12:30:26Z</time>
      </trkpt>
      <trkpt lat="46.1904" lon="6.62075">
        <ele>1867</ele>
        <time>2018-01-24T12:30:27Z</time>
      </trkpt>
      <trkpt lat="46.19046" lon="6.62073">
        <ele>1866</ele>
        <time>2018-01-24T12:30:28Z</time>
      </trkpt>
      <trkpt lat="46.19052" lon="6.62073">
        <ele>1864</ele>
        <time>2018-01-24T12:30:29Z</time>
      </trkpt>
      <trkpt lat="46.19058" lon="6.62077">
        <ele>1862</ele>
        <time>2018-01-24T12:30:30Z</time>
      </trkpt>
      <trkpt lat="46.19065" lon="6.62078">
        <ele>1859</ele>
        <time>2018-01-24T12:30:31Z</time>
      </trkpt>
      <trkpt lat="46.19071" lon="6.62079">
        <ele>1856</ele>
        <time>2018-01-24T12:30:32Z</time>
      </trkpt>
      <trkpt lat="46.19075" lon="6.62083">
        <ele>1853</ele>
        <time>2018-01-24T12:30:33Z</time>
      </trkpt>
      <trkpt lat="46.19078" lon="6.6209">
        <ele>1850</ele>
        <time>2018-01-24T12:30:34Z</time>
      </trkpt>
      <trkpt lat="46.19081" lon="6.62098">
        <ele>1852</ele>
        <time>2018-01-24T12:30:35Z</time>
      </trkpt>
      <trkpt lat="46.19086" lon="6.62101">
        <ele>1837</ele>
        <time>2018-01-24T12:30:36Z</time>
      </trkpt>
      <trkpt lat="46.19089" lon="6.62105">
        <ele>1836</ele>
        <time>2018-01-24T12:30:37Z</time>
      </trkpt>
      <trkpt lat="46.19088" lon="6.62113">
        <ele>1834</ele>
        <time>2018-01-24T12:30:38Z</time>
      </trkpt>
      <trkpt lat="46.19089" lon="6.62119">
        <ele>1833</ele>
        <time>2018-01-24T12:30:39Z</time>
      </trkpt>
      <trkpt lat="46.19093" lon="6.62123">
        <ele>1832</ele>
        <time>2018-01-24T12:30:40Z</time>
      </trkpt>
      <trkpt lat="46.19094" lon="6.62129">
        <ele>1831</ele>
        <time>2018-01-24T12:30:41Z</time>
      </trkpt>
      <trkpt lat="46.19093" lon="6.62135">
        <ele>1830</ele>
        <time>2018-01-24T12:30:42Z</time>
      </trkpt>
      <trkpt lat="46.19091" lon="6.6214">
        <ele>1830</ele>
        <time>2018-01-24T12:30:43Z</time>
      </trkpt>
      <trkpt lat="46.19089" lon="6.62143">
        <ele>1830</ele>
        <time>2018-01-24T12:30:44Z</time>
      </trkpt>
      <trkpt lat="46.19088" lon="6.62146">
        <ele>1830</ele>
        <time>2018-01-24T12:30:45Z</time>
      </trkpt>
      <trkpt lat="46.19087" lon="6.6215">
        <ele>1830</ele>
        <time>2018-01-24T12:30:46Z</time>
      </trkpt>
      <trkpt lat="46.19087" lon="6.62154">
        <ele>1830</ele>
        <time>2018-01-24T12:30:47Z</time>
      </trkpt>
      <trkpt lat="46.19088" lon="6.6216">
        <ele>1830</ele>
        <time>2018-01-24T12:30:48Z</time>
      </trkpt>
      <trkpt lat="46.19089" lon="6.62166">
        <ele>1830</ele>
        <time>2018-01-24T12:30:49Z</time>
      </trkpt>
      <trkpt lat="46.19093" lon="6.6217">
        <ele>1826</ele>
        <time>2018-01-24T12:30:50Z</time>
      </trkpt>
      <trkpt lat="46.19096" lon="6.62175">
        <ele>1824</ele>
        <time>2018-01-24T12:30:51Z</time>
      </trkpt>
      <trkpt lat="46.19098" lon="6.62181">
        <ele>1822</ele>
        <time>2018-01-24T12:30:52Z</time>
      </trkpt>
      <trkpt lat="46.19101" lon="6.62184">
        <ele>1821</ele>
        <time>2018-01-24T12:30:53Z</time>
      </trkpt>
      <trkpt lat="46.19104" lon="6.62189">
        <ele>1819</ele>
        <time>2018-01-24T12:30:54Z</time>
      </trkpt>
      <trkpt lat="46.19106" lon="6.62194">
        <ele>1819</ele>
        <time>2018-01-24T12:30:55Z</time>
      </trkpt>
      <trkpt lat="46.19109" lon="6.62199">
        <ele>1818</ele>
        <time>2018-01-24T12:30:56Z</time>
      </trkpt>
      <trkpt lat="46.19112" lon="6.62204">
        <ele>1817</ele>
        <time>2018-01-24T12:30:57Z</time>
      </trkpt>
      <trkpt lat="46.19116" lon="6.62208">
        <ele>1816</ele>
        <time>2018-01-24T12:30:58Z</time>
      </trkpt>
      <trkpt lat="46.19118" lon="6.62214">
        <ele>1815</ele>
        <time>2018-01-24T12:30:59Z</time>
      </trkpt>
      <trkpt lat="46.1912" lon="6.62219">
        <ele>1815</ele>
        <time>2018-01-24T12:31:00Z</time>
      </trkpt>
      <trkpt lat="46.19124" lon="6.62223">
        <ele>1814</ele>
        <time>2018-01-24T12:31:01Z</time>
      </trkpt>
      <trkpt lat="46.19127" lon="6.62229">
        <ele>1813</ele>
        <time>2018-01-24T12:31:02Z</time>
      </trkpt>
      <trkpt lat="46.19131" lon="6.62234">
        <ele>1811</ele>
        <time>2018-01-24T12:31:03Z</time>
      </trkpt>
      <trkpt lat="46.19135" lon="6.62237">
        <ele>1809</ele>
        <time>2018-01-24T12:31:04Z</time>
      </trkpt>
      <trkpt lat="46.19139" lon="6.62236">
        <ele>1808</ele>
        <time>2018-01-24T12:31:05Z</time>
      </trkpt>
      <trkpt lat="46.19143" lon="6.62235">
        <ele>1807</ele>
        <time>2018-01-24T12:31:06Z</time>
      </trkpt>
      <trkpt lat="46.19147" lon="6.62233">
        <ele>1806</ele>
        <time>2018-01-24T12:31:07Z</time>
      </trkpt>
      <trkpt lat="46.19151" lon="6.6223">
        <ele>1805</ele>
        <time>2018-01-24T12:31:08Z</time>
      </trkpt>
      <trkpt lat="46.19161" lon="6.62225">
        <ele>1804</ele>
        <time>2018-01-24T12:31:10Z</time>
      </trkpt>
      <trkpt lat="46.19199" lon="6.62213">
        <ele>1788</ele>
        <time>2018-01-24T12:31:19Z</time>
      </trkpt>
      <trkpt lat="46.19209" lon="6.62213">
        <ele>1786</ele>
        <time>2018-01-24T12:31:21Z</time>
      </trkpt>
      <trkpt lat="46.19215" lon="6.62213">
        <ele>1786</ele>
        <time>2018-01-24T12:31:22Z</time>
      </trkpt>
      <trkpt lat="46.1922" lon="6.62211">
        <ele>1785</ele>
        <time>2018-01-24T12:31:23Z</time>
      </trkpt>
      <trkpt lat="46.19224" lon="6.62208">
        <ele>1785</ele>
        <time>2018-01-24T12:31:24Z</time>
      </trkpt>
      <trkpt lat="46.19228" lon="6.62205">
        <ele>1785</ele>
        <time>2018-01-24T12:31:25Z</time>
      </trkpt>
      <trkpt lat="46.19233" lon="6.62204">
        <ele>1785</ele>
        <time>2018-01-24T12:31:26Z</time>
      </trkpt>
      <trkpt lat="46.19237" lon="6.62204">
        <ele>1785</ele>
        <time>2018-01-24T12:31:27Z</time>
      </trkpt>
      <trkpt lat="46.19241" lon="6.62206">
        <ele>1784</ele>
        <time>2018-01-24T12:31:28Z</time>
      </trkpt>
      <trkpt lat="46.19245" lon="6.62208">
        <ele>1784</ele>
        <time>2018-01-24T12:31:29Z</time>
      </trkpt>
      <trkpt lat="46.19248" lon="6.62208">
        <ele>1784</ele>
        <time>2018-01-24T12:31:30Z</time>
      </trkpt>
      <trkpt lat="46.19253" lon="6.62208">
        <ele>1770</ele>
        <time>2018-01-24T12:31:31Z</time>
      </trkpt>
      <trkpt lat="46.19256" lon="6.6221">
        <ele>1770</ele>
        <time>2018-01-24T12:31:32Z</time>
      </trkpt>
      <trkpt lat="46.19259" lon="6.62214">
        <ele>1769</ele>
        <time>2018-01-24T12:31:33Z</time>
      </trkpt>
      <trkpt lat="46.1926" lon="6.62215">
        <ele>1769</ele>
        <time>2018-01-24T12:31:34Z</time>
      </trkpt>
      <trkpt lat="46.19262" lon="6.62214">
        <ele>1768</ele>
        <time>2018-01-24T12:31:35Z</time>
      </trkpt>
      <trkpt lat="46.19264" lon="6.62213">
        <ele>1768</ele>
        <time>2018-01-24T12:31:36Z</time>
      </trkpt>
      <trkpt lat="46.19266" lon="6.62212">
        <ele>1769</ele>
        <time>2018-01-24T12:31:37Z</time>
      </trkpt>
      <trkpt lat="46.19267" lon="6.62211">
        <ele>1769</ele>
        <time>2018-01-24T12:31:38Z</time>
      </trkpt>
      <trkpt lat="46.19268" lon="6.62211">
        <ele>1769</ele>
        <time>2018-01-24T12:31:39Z</time>
      </trkpt>
      <trkpt lat="46.19269" lon="6.62211">
        <ele>1768</ele>
        <time>2018-01-24T12:31:40Z</time>
      </trkpt>
      <trkpt lat="46.19271" lon="6.62211">
        <ele>1768</ele>
        <time>2018-01-24T12:31:41Z</time>
      </trkpt>
      <trkpt lat="46.19276" lon="6.62209">
        <ele>1768</ele>
        <time>2018-01-24T12:31:54Z</time>
      </trkpt>
      <trkpt lat="46.19277" lon="6.62209">
        <ele>1768</ele>
        <time>2018-01-24T12:31:58Z</time>
      </trkpt>
      <trkpt lat="46.19282" lon="6.62207">
        <ele>1767</ele>
        <time>2018-01-24T12:32:04Z</time>
      </trkpt>
      <trkpt lat="46.19291" lon="6.62208">
        <ele>1766</ele>
        <time>2018-01-24T12:32:15Z</time>
      </trkpt>
      <trkpt lat="46.19295" lon="6.62207">
        <ele>1765</ele>
        <time>2018-01-24T12:32:18Z</time>
      </trkpt>
      <trkpt lat="46.19305" lon="6.62207">
        <ele>1764</ele>
        <time>2018-01-24T12:32:32Z</time>
      </trkpt>
      <trkpt lat="46.19304" lon="6.62212">
        <ele>1763</ele>
        <time>2018-01-24T12:32:35Z</time>
      </trkpt>
      <trkpt lat="46.19303" lon="6.62216">
        <ele>1763</ele>
        <time>2018-01-24T12:32:37Z</time>
      </trkpt>
      <trkpt lat="46.19303" lon="6.62218">
        <ele>1762</ele>
        <time>2018-01-24T12:32:38Z</time>
      </trkpt>
      <trkpt lat="46.19303" lon="6.6222">
        <ele>1762</ele>
        <time>2018-01-24T12:32:39Z</time>
      </trkpt>
      <trkpt lat="46.19302" lon="6.62224">
        <ele>1761</ele>
        <time>2018-01-24T12:32:43Z</time>
      </trkpt>
      <trkpt lat="46.19301" lon="6.62225">
        <ele>1761</ele>
        <time>2018-01-24T12:32:44Z</time>
      </trkpt>
      <trkpt lat="46.193" lon="6.62225">
        <ele>1761</ele>
        <time>2018-01-24T12:32:45Z</time>
      </trkpt>
      <trkpt lat="46.19299" lon="6.62228">
        <ele>1761</ele>
        <time>2018-01-24T12:32:47Z</time>
      </trkpt>
      <trkpt lat="46.19299" lon="6.62231">
        <ele>1760</ele>
        <time>2018-01-24T12:32:48Z</time>
      </trkpt>
      <trkpt lat="46.193" lon="6.62234">
        <ele>1760</ele>
        <time>2018-01-24T12:32:49Z</time>
      </trkpt>
      <trkpt lat="46.19303" lon="6.62237">
        <ele>1758</ele>
        <time>2018-01-24T12:32:53Z</time>
      </trkpt>
      <trkpt lat="46.19305" lon="6.6224">
        <ele>1757</ele>
        <time>2018-01-24T12:32:56Z</time>
      </trkpt>
      <trkpt lat="46.19305" lon="6.62244">
        <ele>1757</ele>
        <time>2018-01-24T12:32:58Z</time>
      </trkpt>
      <trkpt lat="46.19303" lon="6.62244">
        <ele>1757</ele>
        <time>2018-01-24T12:32:59Z</time>
      </trkpt>
      <trkpt lat="46.193" lon="6.62244">
        <ele>1758</ele>
        <time>2018-01-24T12:33:00Z</time>
      </trkpt>
      <trkpt lat="46.19298" lon="6.62244">
        <ele>1759</ele>
        <time>2018-01-24T12:33:01Z</time>
      </trkpt>
      <trkpt lat="46.19297" lon="6.62244">
        <ele>1759</ele>
        <time>2018-01-24T12:33:02Z</time>
      </trkpt>
      <trkpt lat="46.19297" lon="6.62244">
        <ele>1759</ele>
        <time>2018-01-24T12:33:04Z</time>
      </trkpt>
      <trkpt lat="46.19299" lon="6.62244">
        <ele>1759</ele>
        <time>2018-01-24T12:33:11Z</time>
      </trkpt>
      <trkpt lat="46.19297" lon="6.6225">
        <ele>1759</ele>
        <time>2018-01-24T12:33:20Z</time>
      </trkpt>
      <trkpt lat="46.19297" lon="6.62252">
        <ele>1742</ele>
        <time>2018-01-24T12:33:21Z</time>
      </trkpt>
      <trkpt lat="46.19299" lon="6.62255">
        <ele>1742</ele>
        <time>2018-01-24T12:33:22Z</time>
      </trkpt>
      <trkpt lat="46.19299" lon="6.62256">
        <ele>1741</ele>
        <time>2018-01-24T12:33:23Z</time>
      </trkpt>
      <trkpt lat="46.193" lon="6.62257">
        <ele>1741</ele>
        <time>2018-01-24T12:33:24Z</time>
      </trkpt>
      <trkpt lat="46.19298" lon="6.6226">
        <ele>1741</ele>
        <time>2018-01-24T12:33:26Z</time>
      </trkpt>
      <trkpt lat="46.19297" lon="6.62261">
        <ele>1742</ele>
        <time>2018-01-24T12:33:27Z</time>
      </trkpt>
      <trkpt lat="46.19289" lon="6.62261">
        <ele>1744</ele>
        <time>2018-01-24T12:33:31Z</time>
      </trkpt>
      <trkpt lat="46.19287" lon="6.62262">
        <ele>1744</ele>
        <time>2018-01-24T12:33:32Z</time>
      </trkpt>
      <trkpt lat="46.19285" lon="6.62264">
        <ele>1745</ele>
        <time>2018-01-24T12:33:33Z</time>
      </trkpt>
      <trkpt lat="46.19283" lon="6.62265">
        <ele>1745</ele>
        <time>2018-01-24T12:33:34Z</time>
      </trkpt>
      <trkpt lat="46.19281" lon="6.62266">
        <ele>1746</ele>
        <time>2018-01-24T12:33:35Z</time>
      </trkpt>
      <trkpt lat="46.19279" lon="6.62268">
        <ele>1746</ele>
        <time>2018-01-24T12:33:36Z</time>
      </trkpt>
      <trkpt lat="46.19277" lon="6.6227">
        <ele>1747</ele>
        <time>2018-01-24T12:33:37Z</time>
      </trkpt>
      <trkpt lat="46.19275" lon="6.62272">
        <ele>1747</ele>
        <time>2018-01-24T12:33:38Z</time>
      </trkpt>
      <trkpt lat="46.19274" lon="6.62273">
        <ele>1747</ele>
        <time>2018-01-24T12:33:39Z</time>
      </trkpt>
      <trkpt lat="46.19273" lon="6.62274">
        <ele>1747</ele>
        <time>2018-01-24T12:33:40Z</time>
      </trkpt>
      <trkpt lat="46.19272" lon="6.62275">
        <ele>1747</ele>
        <time>2018-01-24T12:33:41Z</time>
      </trkpt>
      <trkpt lat="46.19271" lon="6.62277">
        <ele>1747</ele>
        <time>2018-01-24T12:33:42Z</time>
      </trkpt>
      <trkpt lat="46.19269" lon="6.62279">
        <ele>1747</ele>
        <time>2018-01-24T12:33:43Z</time>
      </trkpt>
      <trkpt lat="46.19268" lon="6.6228">
        <ele>1747</ele>
        <time>2018-01-24T12:33:44Z</time>
      </trkpt>
      <trkpt lat="46.19267" lon="6.62282">
        <ele>1747</ele>
        <time>2018-01-24T12:33:45Z</time>
      </trkpt>
      <trkpt lat="46.19266" lon="6.62283">
        <ele>1747</ele>
        <time>2018-01-24T12:33:46Z</time>
      </trkpt>
      <trkpt lat="46.19265" lon="6.62284">
        <ele>1747</ele>
        <time>2018-01-24T12:33:47Z</time>
      </trkpt>
      <trkpt lat="46.19263" lon="6.62288">
        <ele>1746</ele>
        <time>2018-01-24T12:33:53Z</time>
      </trkpt>
      <trkpt lat="46.19263" lon="6.6229">
        <ele>1746</ele>
        <time>2018-01-24T12:33:59Z</time>
      </trkpt>
      <trkpt lat="46.19264" lon="6.62293">
        <ele>1745</ele>
        <time>2018-01-24T12:34:03Z</time>
      </trkpt>
      <trkpt lat="46.19264" lon="6.62295">
        <ele>1745</ele>
        <time>2018-01-24T12:34:04Z</time>
      </trkpt>
      <trkpt lat="46.19256" lon="6.62312">
        <ele>1746</ele>
        <time>2018-01-24T12:34:10Z</time>
      </trkpt>
      <trkpt lat="46.19249" lon="6.62327">
        <ele>1757</ele>
        <time>2018-01-24T12:34:17Z</time>
      </trkpt>
      <trkpt lat="46.19244" lon="6.62334">
        <ele>1756</ele>
        <time>2018-01-24T12:34:22Z</time>
      </trkpt>
      <trkpt lat="46.19247" lon="6.62341">
        <ele>1757</ele>
        <time>2018-01-24T12:34:29Z</time>
      </trkpt>
      <trkpt lat="46.19249" lon="6.62339">
        <ele>1756</ele>
        <time>2018-01-24T12:34:37Z</time>
      </trkpt>
      <trkpt lat="46.1925" lon="6.62338">
        <ele>1755</ele>
        <time>2018-01-24T12:34:42Z</time>
      </trkpt>
      <trkpt lat="46.19253" lon="6.62337">
        <ele>1745</ele>
        <time>2018-01-24T12:34:51Z</time>
      </trkpt>
      <trkpt lat="46.19252" lon="6.6234">
        <ele>1742</ele>
        <time>2018-01-24T12:34:55Z</time>
      </trkpt>
      <trkpt lat="46.19252" lon="6.62345">
        <ele>1737</ele>
        <time>2018-01-24T12:34:57Z</time>
      </trkpt>
      <trkpt lat="46.19256" lon="6.62347">
        <ele>1734</ele>
        <time>2018-01-24T12:35:00Z</time>
      </trkpt>
      <trkpt lat="46.19261" lon="6.62345">
        <ele>1732</ele>
        <time>2018-01-24T12:35:01Z</time>
      </trkpt>
      <trkpt lat="46.19267" lon="6.62343">
        <ele>1729</ele>
        <time>2018-01-24T12:35:02Z</time>
      </trkpt>
      <trkpt lat="46.19283" lon="6.62339">
        <ele>1719</ele>
        <time>2018-01-24T12:35:03Z</time>
      </trkpt>
      <trkpt lat="46.19293" lon="6.62336">
        <ele>1713</ele>
        <time>2018-01-24T12:35:04Z</time>
      </trkpt>
      <trkpt lat="46.19289" lon="6.62338">
        <ele>1716</ele>
        <time>2018-01-24T12:35:05Z</time>
      </trkpt>
      <trkpt lat="46.19282" lon="6.62336">
        <ele>1720</ele>
        <time>2018-01-24T12:35:09Z</time>
      </trkpt>
      <trkpt lat="46.19285" lon="6.62336">
        <ele>1718</ele>
        <time>2018-01-24T12:35:14Z</time>
      </trkpt>
      <trkpt lat="46.19279" lon="6.62346">
        <ele>1720</ele>
        <time>2018-01-24T12:35:22Z</time>
      </trkpt>
      <trkpt lat="46.19282" lon="6.62353">
        <ele>1716</ele>
        <time>2018-01-24T12:35:35Z</time>
      </trkpt>
      <trkpt lat="46.19278" lon="6.62356">
        <ele>1717</ele>
        <time>2018-01-24T12:35:42Z</time>
      </trkpt>
      <trkpt lat="46.19278" lon="6.62357">
        <ele>1717</ele>
        <time>2018-01-24T12:35:44Z</time>
      </trkpt>
      <trkpt lat="46.19281" lon="6.62358">
        <ele>1716</ele>
        <time>2018-01-24T12:35:47Z</time>
      </trkpt>
      <trkpt lat="46.19282" lon="6.62357">
        <ele>1715</ele>
        <time>2018-01-24T12:35:48Z</time>
      </trkpt>
      <trkpt lat="46.19283" lon="6.62356">
        <ele>1715</ele>
        <time>2018-01-24T12:35:49Z</time>
      </trkpt>
      <trkpt lat="46.19283" lon="6.62355">
        <ele>1715</ele>
        <time>2018-01-24T12:35:50Z</time>
      </trkpt>
      <trkpt lat="46.19283" lon="6.62354">
        <ele>1715</ele>
        <time>2018-01-24T12:35:51Z</time>
      </trkpt>
      <trkpt lat="46.19283" lon="6.62353">
        <ele>1716</ele>
        <time>2018-01-24T12:35:53Z</time>
      </trkpt>
      <trkpt lat="46.19285" lon="6.62352">
        <ele>1715</ele>
        <time>2018-01-24T12:35:56Z</time>
      </trkpt>
      <trkpt lat="46.19286" lon="6.62351">
        <ele>1715</ele>
        <time>2018-01-24T12:35:57Z</time>
      </trkpt>
      <trkpt lat="46.19289" lon="6.6235">
        <ele>1714</ele>
        <time>2018-01-24T12:35:58Z</time>
      </trkpt>
      <trkpt lat="46.19291" lon="6.62352">
        <ele>1712</ele>
        <time>2018-01-24T12:35:59Z</time>
      </trkpt>
      <trkpt lat="46.19292" lon="6.62355">
        <ele>1711</ele>
        <time>2018-01-24T12:36:00Z</time>
      </trkpt>
      <trkpt lat="46.19291" lon="6.62357">
        <ele>1711</ele>
        <time>2018-01-24T12:36:01Z</time>
      </trkpt>
      <trkpt lat="46.19292" lon="6.62358">
        <ele>1711</ele>
        <time>2018-01-24T12:36:02Z</time>
      </trkpt>
      <trkpt lat="46.19293" lon="6.62359">
        <ele>1710</ele>
        <time>2018-01-24T12:36:03Z</time>
      </trkpt>
      <trkpt lat="46.19295" lon="6.6236">
        <ele>1709</ele>
        <time>2018-01-24T12:36:04Z</time>
      </trkpt>
      <trkpt lat="46.19292" lon="6.62365">
        <ele>1709</ele>
        <time>2018-01-24T12:36:05Z</time>
      </trkpt>
      <trkpt lat="46.19293" lon="6.62368">
        <ele>1708</ele>
        <time>2018-01-24T12:36:06Z</time>
      </trkpt>
      <trkpt lat="46.19293" lon="6.6237">
        <ele>1707</ele>
        <time>2018-01-24T12:36:07Z</time>
      </trkpt>
      <trkpt lat="46.19293" lon="6.62374">
        <ele>1706</ele>
        <time>2018-01-24T12:36:09Z</time>
      </trkpt>
      <trkpt lat="46.19291" lon="6.62378">
        <ele>1707</ele>
        <time>2018-01-24T12:36:10Z</time>
      </trkpt>
      <trkpt lat="46.19289" lon="6.62381">
        <ele>1707</ele>
        <time>2018-01-24T12:36:11Z</time>
      </trkpt>
      <trkpt lat="46.19286" lon="6.62388">
        <ele>1707</ele>
        <time>2018-01-24T12:36:17Z</time>
      </trkpt>
      <trkpt lat="46.19287" lon="6.6239">
        <ele>1706</ele>
        <time>2018-01-24T12:36:18Z</time>
      </trkpt>
      <trkpt lat="46.19288" lon="6.62393">
        <ele>1705</ele>
        <time>2018-01-24T12:36:20Z</time>
      </trkpt>
      <trkpt lat="46.19289" lon="6.62393">
        <ele>1704</ele>
        <time>2018-01-24T12:36:21Z</time>
      </trkpt>
      <trkpt lat="46.1929" lon="6.62394">
        <ele>1704</ele>
        <time>2018-01-24T12:36:22Z</time>
      </trkpt>
      <trkpt lat="46.1929" lon="6.62397">
        <ele>1703</ele>
        <time>2018-01-24T12:36:23Z</time>
      </trkpt>
      <trkpt lat="46.1929" lon="6.62399">
        <ele>1702</ele>
        <time>2018-01-24T12:36:24Z</time>
      </trkpt>
      <trkpt lat="46.19291" lon="6.62401">
        <ele>1702</ele>
        <time>2018-01-24T12:36:25Z</time>
      </trkpt>
      <trkpt lat="46.19293" lon="6.624">
        <ele>1700</ele>
        <time>2018-01-24T12:36:26Z</time>
      </trkpt>
      <trkpt lat="46.19295" lon="6.62402">
        <ele>1698</ele>
        <time>2018-01-24T12:36:29Z</time>
      </trkpt>
      <trkpt lat="46.19295" lon="6.62405">
        <ele>1697</ele>
        <time>2018-01-24T12:36:30Z</time>
      </trkpt>
      <trkpt lat="46.19295" lon="6.62407">
        <ele>1697</ele>
        <time>2018-01-24T12:36:31Z</time>
      </trkpt>
      <trkpt lat="46.19294" lon="6.6241">
        <ele>1698</ele>
        <time>2018-01-24T12:36:32Z</time>
      </trkpt>
      <trkpt lat="46.19293" lon="6.62412">
        <ele>1698</ele>
        <time>2018-01-24T12:36:33Z</time>
      </trkpt>
      <trkpt lat="46.19294" lon="6.62412">
        <ele>1698</ele>
        <time>2018-01-24T12:36:34Z</time>
      </trkpt>
      <trkpt lat="46.19295" lon="6.62413">
        <ele>1697</ele>
        <time>2018-01-24T12:36:35Z</time>
      </trkpt>
      <trkpt lat="46.19297" lon="6.62415">
        <ele>1695</ele>
        <time>2018-01-24T12:36:41Z</time>
      </trkpt>
      <trkpt lat="46.19294" lon="6.62415">
        <ele>1697</ele>
        <time>2018-01-24T12:37:03Z</time>
      </trkpt>
      <trkpt lat="46.19294" lon="6.62418">
        <ele>1680</ele>
        <time>2018-01-24T12:37:10Z</time>
      </trkpt>
      <trkpt lat="46.19294" lon="6.62423">
        <ele>1680</ele>
        <time>2018-01-24T12:37:14Z</time>
      </trkpt>
      <trkpt lat="46.19294" lon="6.62426">
        <ele>1680</ele>
        <time>2018-01-24T12:37:15Z</time>
      </trkpt>
      <trkpt lat="46.19294" lon="6.62428">
        <ele>1680</ele>
        <time>2018-01-24T12:37:16Z</time>
      </trkpt>
      <trkpt lat="46.19292" lon="6.62432">
        <ele>1681</ele>
        <time>2018-01-24T12:37:17Z</time>
      </trkpt>
      <trkpt lat="46.19292" lon="6.62435">
        <ele>1681</ele>
        <time>2018-01-24T12:37:18Z</time>
      </trkpt>
      <trkpt lat="46.19291" lon="6.62437">
        <ele>1681</ele>
        <time>2018-01-24T12:37:19Z</time>
      </trkpt>
      <trkpt lat="46.19291" lon="6.6244">
        <ele>1682</ele>
        <time>2018-01-24T12:37:20Z</time>
      </trkpt>
      <trkpt lat="46.1929" lon="6.6245">
        <ele>1681</ele>
        <time>2018-01-24T12:37:25Z</time>
      </trkpt>
      <trkpt lat="46.19291" lon="6.62452">
        <ele>1680</ele>
        <time>2018-01-24T12:37:34Z</time>
      </trkpt>
      <trkpt lat="46.19293" lon="6.62452">
        <ele>1679</ele>
        <time>2018-01-24T12:37:35Z</time>
      </trkpt>
      <trkpt lat="46.19296" lon="6.62451">
        <ele>1677</ele>
        <time>2018-01-24T12:37:36Z</time>
      </trkpt>
      <trkpt lat="46.19299" lon="6.6245">
        <ele>1675</ele>
        <time>2018-01-24T12:37:37Z</time>
      </trkpt>
      <trkpt lat="46.19303" lon="6.62453">
        <ele>1673</ele>
        <time>2018-01-24T12:37:38Z</time>
      </trkpt>
      <trkpt lat="46.19304" lon="6.62458">
        <ele>1672</ele>
        <time>2018-01-24T12:37:39Z</time>
      </trkpt>
      <trkpt lat="46.19305" lon="6.62461">
        <ele>1671</ele>
        <time>2018-01-24T12:37:40Z</time>
      </trkpt>
      <trkpt lat="46.19306" lon="6.62466">
        <ele>1669</ele>
        <time>2018-01-24T12:37:43Z</time>
      </trkpt>
      <trkpt lat="46.19307" lon="6.62467">
        <ele>1668</ele>
        <time>2018-01-24T12:37:44Z</time>
      </trkpt>
      <trkpt lat="46.19311" lon="6.62468">
        <ele>1666</ele>
        <time>2018-01-24T12:37:45Z</time>
      </trkpt>
      <trkpt lat="46.1931" lon="6.62472">
        <ele>1665</ele>
        <time>2018-01-24T12:37:46Z</time>
      </trkpt>
      <trkpt lat="46.19311" lon="6.62475">
        <ele>1663</ele>
        <time>2018-01-24T12:37:47Z</time>
      </trkpt>
      <trkpt lat="46.19313" lon="6.62479">
        <ele>1660</ele>
        <time>2018-01-24T12:37:48Z</time>
      </trkpt>
      <trkpt lat="46.19314" lon="6.62482">
        <ele>1658</ele>
        <time>2018-01-24T12:37:49Z</time>
      </trkpt>
      <trkpt lat="46.19317" lon="6.62481">
        <ele>1656</ele>
        <time>2018-01-24T12:37:50Z</time>
      </trkpt>
      <trkpt lat="46.1932" lon="6.62482">
        <ele>1653</ele>
        <time>2018-01-24T12:37:51Z</time>
      </trkpt>
      <trkpt lat="46.1932" lon="6.62487">
        <ele>1650</ele>
        <time>2018-01-24T12:37:52Z</time>
      </trkpt>
      <trkpt lat="46.19319" lon="6.62491">
        <ele>1648</ele>
        <time>2018-01-24T12:37:53Z</time>
      </trkpt>
      <trkpt lat="46.19319" lon="6.62492">
        <ele>1646</ele>
        <time>2018-01-24T12:37:54Z</time>
      </trkpt>
      <trkpt lat="46.19319" lon="6.62494">
        <ele>1646</ele>
        <time>2018-01-24T12:37:55Z</time>
      </trkpt>
      <trkpt lat="46.19319" lon="6.62496">
        <ele>1645</ele>
        <time>2018-01-24T12:37:56Z</time>
      </trkpt>
      <trkpt lat="46.19318" lon="6.62498">
        <ele>1646</ele>
        <time>2018-01-24T12:37:57Z</time>
      </trkpt>
      <trkpt lat="46.19318" lon="6.62499">
        <ele>1646</ele>
        <time>2018-01-24T12:38:08Z</time>
      </trkpt>
      <trkpt lat="46.19318" lon="6.625">
        <ele>1639</ele>
        <time>2018-01-24T12:38:09Z</time>
      </trkpt>
      <trkpt lat="46.19318" lon="6.62502">
        <ele>1638</ele>
        <time>2018-01-24T12:38:10Z</time>
      </trkpt>
      <trkpt lat="46.19318" lon="6.62505">
        <ele>1639</ele>
        <time>2018-01-24T12:38:11Z</time>
      </trkpt>
      <trkpt lat="46.19319" lon="6.62508">
        <ele>1640</ele>
        <time>2018-01-24T12:38:12Z</time>
      </trkpt>
      <trkpt lat="46.19319" lon="6.62511">
        <ele>1641</ele>
        <time>2018-01-24T12:38:13Z</time>
      </trkpt>
      <trkpt lat="46.19319" lon="6.62512">
        <ele>1641</ele>
        <time>2018-01-24T12:38:14Z</time>
      </trkpt>
      <trkpt lat="46.19322" lon="6.62513">
        <ele>1639</ele>
        <time>2018-01-24T12:38:15Z</time>
      </trkpt>
      <trkpt lat="46.19324" lon="6.62515">
        <ele>1639</ele>
        <time>2018-01-24T12:38:16Z</time>
      </trkpt>
      <trkpt lat="46.19329" lon="6.62518">
        <ele>1638</ele>
        <time>2018-01-24T12:38:19Z</time>
      </trkpt>
      <trkpt lat="46.19331" lon="6.62522">
        <ele>1639</ele>
        <time>2018-01-24T12:38:20Z</time>
      </trkpt>
      <trkpt lat="46.19331" lon="6.62525">
        <ele>1640</ele>
        <time>2018-01-24T12:38:21Z</time>
      </trkpt>
      <trkpt lat="46.19332" lon="6.62528">
        <ele>1641</ele>
        <time>2018-01-24T12:38:22Z</time>
      </trkpt>
      <trkpt lat="46.19333" lon="6.6253">
        <ele>1641</ele>
        <time>2018-01-24T12:38:23Z</time>
      </trkpt>
      <trkpt lat="46.19336" lon="6.6253">
        <ele>1606</ele>
        <time>2018-01-24T12:38:24Z</time>
      </trkpt>
      <trkpt lat="46.19338" lon="6.62533">
        <ele>1605</ele>
        <time>2018-01-24T12:38:25Z</time>
      </trkpt>
      <trkpt lat="46.1934" lon="6.62538">
        <ele>1604</ele>
        <time>2018-01-24T12:38:26Z</time>
      </trkpt>
      <trkpt lat="46.1934" lon="6.62543">
        <ele>1603</ele>
        <time>2018-01-24T12:38:27Z</time>
      </trkpt>
      <trkpt lat="46.19341" lon="6.62546">
        <ele>1602</ele>
        <time>2018-01-24T12:38:28Z</time>
      </trkpt>
      <trkpt lat="46.19345" lon="6.62553">
        <ele>1601</ele>
        <time>2018-01-24T12:38:31Z</time>
      </trkpt>
      <trkpt lat="46.19346" lon="6.62557">
        <ele>1600</ele>
        <time>2018-01-24T12:38:32Z</time>
      </trkpt>
      <trkpt lat="46.19347" lon="6.62561">
        <ele>1599</ele>
        <time>2018-01-24T12:38:33Z</time>
      </trkpt>
      <trkpt lat="46.19347" lon="6.62565">
        <ele>1598</ele>
        <time>2018-01-24T12:38:34Z</time>
      </trkpt>
      <trkpt lat="46.19347" lon="6.62568">
        <ele>1598</ele>
        <time>2018-01-24T12:38:35Z</time>
      </trkpt>
      <trkpt lat="46.19347" lon="6.6258">
        <ele>1595</ele>
        <time>2018-01-24T12:38:39Z</time>
      </trkpt>
      <trkpt lat="46.19348" lon="6.62585">
        <ele>1588</ele>
        <time>2018-01-24T12:38:41Z</time>
      </trkpt>
      <trkpt lat="46.1935" lon="6.62586">
        <ele>1587</ele>
        <time>2018-01-24T12:38:42Z</time>
      </trkpt>
      <trkpt lat="46.19352" lon="6.62589">
        <ele>1587</ele>
        <time>2018-01-24T12:38:43Z</time>
      </trkpt>
      <trkpt lat="46.19354" lon="6.62593">
        <ele>1587</ele>
        <time>2018-01-24T12:38:44Z</time>
      </trkpt>
      <trkpt lat="46.19355" lon="6.62597">
        <ele>1587</ele>
        <time>2018-01-24T12:38:45Z</time>
      </trkpt>
      <trkpt lat="46.19356" lon="6.626">
        <ele>1586</ele>
        <time>2018-01-24T12:38:46Z</time>
      </trkpt>
      <trkpt lat="46.19356" lon="6.62609">
        <ele>1585</ele>
        <time>2018-01-24T12:38:49Z</time>
      </trkpt>
      <trkpt lat="46.19357" lon="6.62612">
        <ele>1585</ele>
        <time>2018-01-24T12:38:50Z</time>
      </trkpt>
      <trkpt lat="46.19359" lon="6.62614">
        <ele>1585</ele>
        <time>2018-01-24T12:38:51Z</time>
      </trkpt>
      <trkpt lat="46.19362" lon="6.62615">
        <ele>1585</ele>
        <time>2018-01-24T12:38:52Z</time>
      </trkpt>
      <trkpt lat="46.19364" lon="6.62618">
        <ele>1585</ele>
        <time>2018-01-24T12:38:53Z</time>
      </trkpt>
      <trkpt lat="46.19365" lon="6.62622">
        <ele>1584</ele>
        <time>2018-01-24T12:38:54Z</time>
      </trkpt>
      <trkpt lat="46.19367" lon="6.62626">
        <ele>1584</ele>
        <time>2018-01-24T12:38:55Z</time>
      </trkpt>
      <trkpt lat="46.19369" lon="6.62628">
        <ele>1584</ele>
        <time>2018-01-24T12:38:56Z</time>
      </trkpt>
      <trkpt lat="46.19372" lon="6.62627">
        <ele>1584</ele>
        <time>2018-01-24T12:38:57Z</time>
      </trkpt>
      <trkpt lat="46.19376" lon="6.62626">
        <ele>1584</ele>
        <time>2018-01-24T12:38:58Z</time>
      </trkpt>
      <trkpt lat="46.1938" lon="6.62626">
        <ele>1584</ele>
        <time>2018-01-24T12:38:59Z</time>
      </trkpt>
      <trkpt lat="46.19383" lon="6.62628">
        <ele>1583</ele>
        <time>2018-01-24T12:39:00Z</time>
      </trkpt>
      <trkpt lat="46.19383" lon="6.62629">
        <ele>1583</ele>
        <time>2018-01-24T12:39:01Z</time>
      </trkpt>
      <trkpt lat="46.19384" lon="6.62632">
        <ele>1583</ele>
        <time>2018-01-24T12:39:02Z</time>
      </trkpt>
      <trkpt lat="46.19382" lon="6.62638">
        <ele>1582</ele>
        <time>2018-01-24T12:39:03Z</time>
      </trkpt>
      <trkpt lat="46.19382" lon="6.62643">
        <ele>1582</ele>
        <time>2018-01-24T12:39:04Z</time>
      </trkpt>
      <trkpt lat="46.19382" lon="6.62649">
        <ele>1581</ele>
        <time>2018-01-24T12:39:05Z</time>
      </trkpt>
      <trkpt lat="46.19384" lon="6.62653">
        <ele>1581</ele>
        <time>2018-01-24T12:39:06Z</time>
      </trkpt>
      <trkpt lat="46.19386" lon="6.62655">
        <ele>1580</ele>
        <time>2018-01-24T12:39:07Z</time>
      </trkpt>
      <trkpt lat="46.19389" lon="6.62656">
        <ele>1580</ele>
        <time>2018-01-24T12:39:08Z</time>
      </trkpt>
      <trkpt lat="46.19393" lon="6.62657">
        <ele>1579</ele>
        <time>2018-01-24T12:39:09Z</time>
      </trkpt>
      <trkpt lat="46.19398" lon="6.6266">
        <ele>1578</ele>
        <time>2018-01-24T12:39:10Z</time>
      </trkpt>
      <trkpt lat="46.19402" lon="6.62665">
        <ele>1577</ele>
        <time>2018-01-24T12:39:11Z</time>
      </trkpt>
      <trkpt lat="46.19404" lon="6.6267">
        <ele>1570</ele>
        <time>2018-01-24T12:39:12Z</time>
      </trkpt>
      <trkpt lat="46.19408" lon="6.62679">
        <ele>1570</ele>
        <time>2018-01-24T12:39:14Z</time>
      </trkpt>
      <trkpt lat="46.1943" lon="6.62708">
        <ele>1573</ele>
        <time>2018-01-24T12:39:24Z</time>
      </trkpt>
      <trkpt lat="46.19432" lon="6.62712">
        <ele>1573</ele>
        <time>2018-01-24T12:39:25Z</time>
      </trkpt>
      <trkpt lat="46.19434" lon="6.62717">
        <ele>1572</ele>
        <time>2018-01-24T12:39:26Z</time>
      </trkpt>
      <trkpt lat="46.1944" lon="6.62742">
        <ele>1569</ele>
        <time>2018-01-24T12:39:33Z</time>
      </trkpt>
      <trkpt lat="46.1944" lon="6.62744">
        <ele>1569</ele>
        <time>2018-01-24T12:39:34Z</time>
      </trkpt>
      <trkpt lat="46.19439" lon="6.62748">
        <ele>1568</ele>
        <time>2018-01-24T12:39:35Z</time>
      </trkpt>
      <trkpt lat="46.19436" lon="6.62759">
        <ele>1559</ele>
        <time>2018-01-24T12:39:37Z</time>
      </trkpt>
      <trkpt lat="46.19436" lon="6.62766">
        <ele>1559</ele>
        <time>2018-01-24T12:39:38Z</time>
      </trkpt>
      <trkpt lat="46.19438" lon="6.62773">
        <ele>1560</ele>
        <time>2018-01-24T12:39:39Z</time>
      </trkpt>
      <trkpt lat="46.1944" lon="6.62779">
        <ele>1560</ele>
        <time>2018-01-24T12:39:40Z</time>
      </trkpt>
      <trkpt lat="46.19442" lon="6.62783">
        <ele>1560</ele>
        <time>2018-01-24T12:39:41Z</time>
      </trkpt>
      <trkpt lat="46.19444" lon="6.62786">
        <ele>1560</ele>
        <time>2018-01-24T12:39:42Z</time>
      </trkpt>
      <trkpt lat="46.19445" lon="6.62789">
        <ele>1560</ele>
        <time>2018-01-24T12:39:43Z</time>
      </trkpt>
      <trkpt lat="46.19445" lon="6.62791">
        <ele>1559</ele>
        <time>2018-01-24T12:39:44Z</time>
      </trkpt>
      <trkpt lat="46.19446" lon="6.62794">
        <ele>1559</ele>
        <time>2018-01-24T12:39:45Z</time>
      </trkpt>
      <trkpt lat="46.19456" lon="6.62822">
        <ele>1558</ele>
        <time>2018-01-24T12:39:53Z</time>
      </trkpt>
      <trkpt lat="46.19477" lon="6.62844">
        <ele>1551</ele>
        <time>2018-01-24T12:40:05Z</time>
      </trkpt>
      <trkpt lat="46.19481" lon="6.62846">
        <ele>1551</ele>
        <time>2018-01-24T12:40:06Z</time>
      </trkpt>
      <trkpt lat="46.19484" lon="6.62848">
        <ele>1551</ele>
        <time>2018-01-24T12:40:07Z</time>
      </trkpt>
      <trkpt lat="46.19487" lon="6.6285">
        <ele>1551</ele>
        <time>2018-01-24T12:40:08Z</time>
      </trkpt>
      <trkpt lat="46.19521" lon="6.62882">
        <ele>1545</ele>
        <time>2018-01-24T12:40:21Z</time>
      </trkpt>
      <trkpt lat="46.19545" lon="6.62898">
        <ele>1543</ele>
        <time>2018-01-24T12:40:31Z</time>
      </trkpt>
      <trkpt lat="46.19562" lon="6.6291">
        <ele>1540</ele>
        <time>2018-01-24T12:40:36Z</time>
      </trkpt>
      <trkpt lat="46.1959" lon="6.62927">
        <ele>1523</ele>
        <time>2018-01-24T12:40:46Z</time>
      </trkpt>
      <trkpt lat="46.19594" lon="6.62927">
        <ele>1521</ele>
        <time>2018-01-24T12:40:48Z</time>
      </trkpt>
      <trkpt lat="46.196" lon="6.62927">
        <ele>1520</ele>
        <time>2018-01-24T12:40:51Z</time>
      </trkpt>
      <trkpt lat="46.19601" lon="6.62927">
        <ele>1519</ele>
        <time>2018-01-24T12:40:52Z</time>
      </trkpt>
      <trkpt lat="46.19603" lon="6.62929">
        <ele>1518</ele>
        <time>2018-01-24T12:40:58Z</time>
      </trkpt>
      <trkpt lat="46.19605" lon="6.62929">
        <ele>1518</ele>
        <time>2018-01-24T12:40:59Z</time>
      </trkpt>
      <trkpt lat="46.19606" lon="6.6293">
        <ele>1517</ele>
        <time>2018-01-24T12:41:00Z</time>
      </trkpt>
      <trkpt lat="46.19607" lon="6.62931">
        <ele>1517</ele>
        <time>2018-01-24T12:41:01Z</time>
      </trkpt>
      <trkpt lat="46.19606" lon="6.62936">
        <ele>1516</ele>
        <time>2018-01-24T12:41:02Z</time>
      </trkpt>
      <trkpt lat="46.19605" lon="6.6294">
        <ele>1514</ele>
        <time>2018-01-24T12:41:03Z</time>
      </trkpt>
      <trkpt lat="46.19607" lon="6.62944">
        <ele>1513</ele>
        <time>2018-01-24T12:41:04Z</time>
      </trkpt>
      <trkpt lat="46.19609" lon="6.62947">
        <ele>1512</ele>
        <time>2018-01-24T12:41:05Z</time>
      </trkpt>
      <trkpt lat="46.19612" lon="6.62949">
        <ele>1512</ele>
        <time>2018-01-24T12:41:06Z</time>
      </trkpt>
      <trkpt lat="46.19614" lon="6.62949">
        <ele>1511</ele>
        <time>2018-01-24T12:41:07Z</time>
      </trkpt>
      <trkpt lat="46.19616" lon="6.62948">
        <ele>1511</ele>
        <time>2018-01-24T12:41:08Z</time>
      </trkpt>
      <trkpt lat="46.19618" lon="6.62948">
        <ele>1511</ele>
        <time>2018-01-24T12:41:09Z</time>
      </trkpt>
      <trkpt lat="46.19621" lon="6.62948">
        <ele>1511</ele>
        <time>2018-01-24T12:41:10Z</time>
      </trkpt>
      <trkpt lat="46.19631" lon="6.62945">
        <ele>1512</ele>
        <time>2018-01-24T12:41:14Z</time>
      </trkpt>
      <trkpt lat="46.19652" lon="6.6295">
        <ele>1511</ele>
        <time>2018-01-24T12:41:27Z</time>
      </trkpt>
      <trkpt lat="46.19653" lon="6.6295">
        <ele>1511</ele>
        <time>2018-01-24T12:41:28Z</time>
      </trkpt>
      <trkpt lat="46.19655" lon="6.62951">
        <ele>1510</ele>
        <time>2018-01-24T12:41:29Z</time>
      </trkpt>
      <trkpt lat="46.19668" lon="6.62952">
        <ele>1510</ele>
        <time>2018-01-24T12:41:37Z</time>
      </trkpt>
      <trkpt lat="46.19678" lon="6.62955">
        <ele>1509</ele>
        <time>2018-01-24T12:41:42Z</time>
      </trkpt>
      <trkpt lat="46.19682" lon="6.62956">
        <ele>1509</ele>
        <time>2018-01-24T12:41:45Z</time>
      </trkpt>
      <trkpt lat="46.19683" lon="6.62956">
        <ele>1509</ele>
        <time>2018-01-24T12:41:48Z</time>
      </trkpt>
      <trkpt lat="46.19685" lon="6.6296">
        <ele>1507</ele>
        <time>2018-01-24T12:41:52Z</time>
      </trkpt>
      <trkpt lat="46.19686" lon="6.62963">
        <ele>1507</ele>
        <time>2018-01-24T12:41:53Z</time>
      </trkpt>
      <trkpt lat="46.19685" lon="6.62966">
        <ele>1506</ele>
        <time>2018-01-24T12:41:54Z</time>
      </trkpt>
      <trkpt lat="46.19685" lon="6.62969">
        <ele>1504</ele>
        <time>2018-01-24T12:41:55Z</time>
      </trkpt>
      <trkpt lat="46.19686" lon="6.62972">
        <ele>1504</ele>
        <time>2018-01-24T12:41:56Z</time>
      </trkpt>
      <trkpt lat="46.19688" lon="6.62975">
        <ele>1503</ele>
        <time>2018-01-24T12:41:57Z</time>
      </trkpt>
      <trkpt lat="46.19692" lon="6.62983">
        <ele>1502</ele>
        <time>2018-01-24T12:42:00Z</time>
      </trkpt>
      <trkpt lat="46.19691" lon="6.62987">
        <ele>1501</ele>
        <time>2018-01-24T12:42:01Z</time>
      </trkpt>
      <trkpt lat="46.1969" lon="6.62991">
        <ele>1499</ele>
        <time>2018-01-24T12:42:02Z</time>
      </trkpt>
      <trkpt lat="46.19691" lon="6.62997">
        <ele>1499</ele>
        <time>2018-01-24T12:42:03Z</time>
      </trkpt>
      <trkpt lat="46.19692" lon="6.63002">
        <ele>1479</ele>
        <time>2018-01-24T12:42:04Z</time>
      </trkpt>
      <trkpt lat="46.19693" lon="6.63005">
        <ele>1479</ele>
        <time>2018-01-24T12:42:05Z</time>
      </trkpt>
      <trkpt lat="46.19693" lon="6.63008">
        <ele>1479</ele>
        <time>2018-01-24T12:42:08Z</time>
      </trkpt>
      <trkpt lat="46.19697" lon="6.63014">
        <ele>1478</ele>
        <time>2018-01-24T12:42:12Z</time>
      </trkpt>
      <trkpt lat="46.19704" lon="6.63021">
        <ele>1476</ele>
        <time>2018-01-24T12:42:18Z</time>
      </trkpt>
      <trkpt lat="46.19709" lon="6.63026">
        <ele>1476</ele>
        <time>2018-01-24T12:42:23Z</time>
      </trkpt>
      <trkpt lat="46.19708" lon="6.63027">
        <ele>1476</ele>
        <time>2018-01-24T12:42:24Z</time>
      </trkpt>
      <trkpt lat="46.19708" lon="6.63028">
        <ele>1475</ele>
        <time>2018-01-24T12:42:25Z</time>
      </trkpt>
      <trkpt lat="46.19708" lon="6.63031">
        <ele>1475</ele>
        <time>2018-01-24T12:42:26Z</time>
      </trkpt>
      <trkpt lat="46.19709" lon="6.63034">
        <ele>1474</ele>
        <time>2018-01-24T12:42:27Z</time>
      </trkpt>
      <trkpt lat="46.19711" lon="6.63038">
        <ele>1474</ele>
        <time>2018-01-24T12:42:28Z</time>
      </trkpt>
      <trkpt lat="46.19712" lon="6.63039">
        <ele>1473</ele>
        <time>2018-01-24T12:42:29Z</time>
      </trkpt>
      <trkpt lat="46.19712" lon="6.63041">
        <ele>1473</ele>
        <time>2018-01-24T12:42:30Z</time>
      </trkpt>
      <trkpt lat="46.19714" lon="6.63042">
        <ele>1473</ele>
        <time>2018-01-24T12:42:31Z</time>
      </trkpt>
      <trkpt lat="46.19715" lon="6.63043">
        <ele>1473</ele>
        <time>2018-01-24T12:42:32Z</time>
      </trkpt>
      <trkpt lat="46.19717" lon="6.63044">
        <ele>1473</ele>
        <time>2018-01-24T12:42:33Z</time>
      </trkpt>
      <trkpt lat="46.19728" lon="6.63047">
        <ele>1472</ele>
        <time>2018-01-24T12:42:40Z</time>
      </trkpt>
      <trkpt lat="46.1973" lon="6.63047">
        <ele>1472</ele>
        <time>2018-01-24T12:42:42Z</time>
      </trkpt>
      <trkpt lat="46.19732" lon="6.63048">
        <ele>1472</ele>
        <time>2018-01-24T12:42:46Z</time>
      </trkpt>
      <trkpt lat="46.19738" lon="6.63051">
        <ele>1471</ele>
        <time>2018-01-24T12:43:08Z</time>
      </trkpt>
      <trkpt lat="46.19744" lon="6.63056">
        <ele>1469</ele>
        <time>2018-01-24T12:43:19Z</time>
      </trkpt>
      <trkpt lat="46.19745" lon="6.63057">
        <ele>1469</ele>
        <time>2018-01-24T12:43:20Z</time>
      </trkpt>
      <trkpt lat="46.19751" lon="6.63064">
        <ele>1469</ele>
        <time>2018-01-24T12:44:30Z</time>
      </trkpt>
      <trkpt lat="46.19755" lon="6.6307">
        <ele>1467</ele>
        <time>2018-01-24T12:44:56Z</time>
      </trkpt>
      <trkpt lat="46.19758" lon="6.63072">
        <ele>1466</ele>
        <time>2018-01-24T12:45:02Z</time>
      </trkpt>
      <trkpt lat="46.19768" lon="6.6308">
        <ele>1467</ele>
        <time>2018-01-24T12:45:12Z</time>
      </trkpt>
      <trkpt lat="46.1977" lon="6.63082">
        <ele>1468</ele>
        <time>2018-01-24T12:45:14Z</time>
      </trkpt>
      <trkpt lat="46.19771" lon="6.63083">
        <ele>1468</ele>
        <time>2018-01-24T12:45:18Z</time>
      </trkpt>
      <trkpt lat="46.19771" lon="6.63083">
        <ele>1468</ele>
        <time>2018-01-24T12:45:21Z</time>
      </trkpt>
      <trkpt lat="46.19775" lon="6.63085">
        <ele>1451</ele>
        <time>2018-01-24T12:45:30Z</time>
      </trkpt>
      <trkpt lat="46.19791" lon="6.63102">
        <ele>1449</ele>
        <time>2018-01-24T12:45:44Z</time>
      </trkpt>
      <trkpt lat="46.19799" lon="6.63117">
        <ele>1447</ele>
        <time>2018-01-24T12:45:50Z</time>
      </trkpt>
      <trkpt lat="46.19796" lon="6.6312">
        <ele>1446</ele>
        <time>2018-01-24T12:45:51Z</time>
      </trkpt>
      <trkpt lat="46.19793" lon="6.63124">
        <ele>1446</ele>
        <time>2018-01-24T12:45:52Z</time>
      </trkpt>
      <trkpt lat="46.19793" lon="6.63127">
        <ele>1445</ele>
        <time>2018-01-24T12:45:53Z</time>
      </trkpt>
      <trkpt lat="46.19794" lon="6.63132">
        <ele>1444</ele>
        <time>2018-01-24T12:45:54Z</time>
      </trkpt>
      <trkpt lat="46.19796" lon="6.63135">
        <ele>1444</ele>
        <time>2018-01-24T12:45:55Z</time>
      </trkpt>
      <trkpt lat="46.19796" lon="6.6314">
        <ele>1443</ele>
        <time>2018-01-24T12:45:56Z</time>
      </trkpt>
      <trkpt lat="46.19794" lon="6.63143">
        <ele>1443</ele>
        <time>2018-01-24T12:45:57Z</time>
      </trkpt>
      <trkpt lat="46.19792" lon="6.63147">
        <ele>1442</ele>
        <time>2018-01-24T12:45:58Z</time>
      </trkpt>
      <trkpt lat="46.19793" lon="6.63152">
        <ele>1441</ele>
        <time>2018-01-24T12:45:59Z</time>
      </trkpt>
      <trkpt lat="46.19794" lon="6.63157">
        <ele>1441</ele>
        <time>2018-01-24T12:46:00Z</time>
      </trkpt>
      <trkpt lat="46.19793" lon="6.63162">
        <ele>1440</ele>
        <time>2018-01-24T12:46:01Z</time>
      </trkpt>
      <trkpt lat="46.19792" lon="6.63168">
        <ele>1427</ele>
        <time>2018-01-24T12:46:02Z</time>
      </trkpt>
      <trkpt lat="46.19793" lon="6.63174">
        <ele>1426</ele>
        <time>2018-01-24T12:46:03Z</time>
      </trkpt>
      <trkpt lat="46.19796" lon="6.63185">
        <ele>1426</ele>
        <time>2018-01-24T12:46:05Z</time>
      </trkpt>
      <trkpt lat="46.19799" lon="6.63187">
        <ele>1426</ele>
        <time>2018-01-24T12:46:06Z</time>
      </trkpt>
      <trkpt lat="46.19802" lon="6.63189">
        <ele>1425</ele>
        <time>2018-01-24T12:46:07Z</time>
      </trkpt>
      <trkpt lat="46.1983" lon="6.63205">
        <ele>1424</ele>
        <time>2018-01-24T12:46:16Z</time>
      </trkpt>
      <trkpt lat="46.19844" lon="6.6321">
        <ele>1424</ele>
        <time>2018-01-24T12:46:20Z</time>
      </trkpt>
      <trkpt lat="46.19872" lon="6.6321">
        <ele>1424</ele>
        <time>2018-01-24T12:46:25Z</time>
      </trkpt>
      <trkpt lat="46.19878" lon="6.63211">
        <ele>1424</ele>
        <time>2018-01-24T12:46:26Z</time>
      </trkpt>
      <trkpt lat="46.19884" lon="6.63214">
        <ele>1424</ele>
        <time>2018-01-24T12:46:27Z</time>
      </trkpt>
      <trkpt lat="46.19889" lon="6.63217">
        <ele>1423</ele>
        <time>2018-01-24T12:46:28Z</time>
      </trkpt>
      <trkpt lat="46.19916" lon="6.63235">
        <ele>1417</ele>
        <time>2018-01-24T12:46:35Z</time>
      </trkpt>
      <trkpt lat="46.19929" lon="6.63244">
        <ele>1415</ele>
        <time>2018-01-24T12:46:39Z</time>
      </trkpt>
      <trkpt lat="46.19974" lon="6.63248">
        <ele>1414</ele>
        <time>2018-01-24T12:46:55Z</time>
      </trkpt>
      <trkpt lat="46.19985" lon="6.63241">
        <ele>1412</ele>
        <time>2018-01-24T12:46:59Z</time>
      </trkpt>
      <trkpt lat="46.2" lon="6.63207">
        <ele>1419</ele>
        <time>2018-01-24T12:47:06Z</time>
      </trkpt>
      <trkpt lat="46.20003" lon="6.63203">
        <ele>1415</ele>
        <time>2018-01-24T12:47:07Z</time>
      </trkpt>
      <trkpt lat="46.20006" lon="6.63201">
        <ele>1415</ele>
        <time>2018-01-24T12:47:08Z</time>
      </trkpt>
      <trkpt lat="46.20009" lon="6.632">
        <ele>1415</ele>
        <time>2018-01-24T12:47:09Z</time>
      </trkpt>
      <trkpt lat="46.20012" lon="6.63199">
        <ele>1415</ele>
        <time>2018-01-24T12:47:10Z</time>
      </trkpt>
      <trkpt lat="46.20016" lon="6.63198">
        <ele>1415</ele>
        <time>2018-01-24T12:47:11Z</time>
      </trkpt>
      <trkpt lat="46.20035" lon="6.63197">
        <ele>1414</ele>
        <time>2018-01-24T12:47:15Z</time>
      </trkpt>
      <trkpt lat="46.20039" lon="6.63198">
        <ele>1414</ele>
        <time>2018-01-24T12:47:16Z</time>
      </trkpt>
      <trkpt lat="46.20043" lon="6.63199">
        <ele>1413</ele>
        <time>2018-01-24T12:47:17Z</time>
      </trkpt>
      <trkpt lat="46.20047" lon="6.632">
        <ele>1413</ele>
        <time>2018-01-24T12:47:18Z</time>
      </trkpt>
      <trkpt lat="46.20051" lon="6.63201">
        <ele>1413</ele>
        <time>2018-01-24T12:47:19Z</time>
      </trkpt>
      <trkpt lat="46.20071" lon="6.63208">
        <ele>1411</ele>
        <time>2018-01-24T12:47:30Z</time>
      </trkpt>
      <trkpt lat="46.2007" lon="6.63209">
        <ele>1411</ele>
        <time>2018-01-24T12:47:38Z</time>
      </trkpt>
      <trkpt lat="46.2007" lon="6.63208">
        <ele>1411</ele>
        <time>2018-01-24T12:47:45Z</time>
      </trkpt>
      <trkpt lat="46.20069" lon="6.6321">
        <ele>1411</ele>
        <time>2018-01-24T12:48:02Z</time>
      </trkpt>
      <trkpt lat="46.20069" lon="6.6321">
        <ele>1411</ele>
        <time>2018-01-24T12:48:03Z</time>
      </trkpt>
      <trkpt lat="46.20069" lon="6.6321">
        <ele>1410</ele>
        <time>2018-01-24T12:48:06Z</time>
      </trkpt>
      <trkpt lat="46.20071" lon="6.63211">
        <ele>1410</ele>
        <time>2018-01-24T12:48:19Z</time>
      </trkpt>
      <trkpt lat="46.20073" lon="6.6321">
        <ele>1410</ele>
        <time>2018-01-24T12:48:26Z</time>
      </trkpt>
      <trkpt lat="46.20071" lon="6.63208">
        <ele>1411</ele>
        <time>2018-01-24T12:48:38Z</time>
      </trkpt>
      <trkpt lat="46.20071" lon="6.63207">
        <ele>1411</ele>
        <time>2018-01-24T12:48:42Z</time>
      </trkpt>
      <trkpt lat="46.20072" lon="6.63207">
        <ele>1411</ele>
        <time>2018-01-24T12:48:51Z</time>
      </trkpt>
      <trkpt lat="46.20069" lon="6.63208">
        <ele>1411</ele>
        <time>2018-01-24T12:49:09Z</time>
      </trkpt>
      <trkpt lat="46.2007" lon="6.63207">
        <ele>1411</ele>
        <time>2018-01-24T12:49:12Z</time>
      </trkpt>
      <trkpt lat="46.20069" lon="6.63207">
        <ele>1411</ele>
        <time>2018-01-24T12:49:20Z</time>
      </trkpt>
      <trkpt lat="46.20069" lon="6.63207">
        <ele>1411</ele>
        <time>2018-01-24T12:49:24Z</time>
      </trkpt>
      <trkpt lat="46.20069" lon="6.63207">
        <ele>1411</ele>
        <time>2018-01-24T12:49:27Z</time>
      </trkpt>
      <trkpt lat="46.20068" lon="6.63208">
        <ele>1411</ele>
        <time>2018-01-24T12:49:57Z</time>
      </trkpt>
      <trkpt lat="46.20068" lon="6.6321">
        <ele>1411</ele>
        <time>2018-01-24T12:50:29Z</time>
      </trkpt>
      <trkpt lat="46.20068" lon="6.63208">
        <ele>1411</ele>
        <time>2018-01-24T12:51:08Z</time>
      </trkpt>
      <trkpt lat="46.20069" lon="6.63207">
        <ele>1411</ele>
        <time>2018-01-24T12:51:19Z</time>
      </trkpt>
      <trkpt lat="46.2007" lon="6.63208">
        <ele>1411</ele>
        <time>2018-01-24T12:51:22Z</time>
      </trkpt>
      <trkpt lat="46.2007" lon="6.63208">
        <ele>1411</ele>
        <time>2018-01-24T12:51:25Z</time>
      </trkpt>
      <trkpt lat="46.20069" lon="6.63208">
        <ele>1411</ele>
        <time>2018-01-24T12:51:33Z</time>
      </trkpt>
      <trkpt lat="46.20069" lon="6.63209">
        <ele>1411</ele>
        <time>2018-01-24T12:51:41Z</time>
      </trkpt>
      <trkpt lat="46.20068" lon="6.63209">
        <ele>1411</ele>
        <time>2018-01-24T12:52:00Z</time>
      </trkpt>
      <trkpt lat="46.20068" lon="6.63208">
        <ele>1411</ele>
        <time>2018-01-24T12:52:08Z</time>
      </trkpt>
      <trkpt lat="46.20068" lon="6.63208">
        <ele>1411</ele>
        <time>2018-01-24T12:52:12Z</time>
      </trkpt>
      <trkpt lat="46.20067" lon="6.6321">
        <ele>1411</ele>
        <time>2018-01-24T12:52:27Z</time>
      </trkpt>
      <trkpt lat="46.20067" lon="6.6321">
        <ele>1411</ele>
        <time>2018-01-24T12:52:29Z</time>
      </trkpt>
      <trkpt lat="46.20067" lon="6.63211">
        <ele>1410</ele>
        <time>2018-01-24T12:52:37Z</time>
      </trkpt>
      <trkpt lat="46.20068" lon="6.6321">
        <ele>1411</ele>
        <time>2018-01-24T12:52:44Z</time>
      </trkpt>
      <trkpt lat="46.20067" lon="6.63209">
        <ele>1411</ele>
        <time>2018-01-24T12:52:47Z</time>
      </trkpt>
      <trkpt lat="46.20066" lon="6.63208">
        <ele>1411</ele>
        <time>2018-01-24T12:52:54Z</time>
      </trkpt>
      <trkpt lat="46.20067" lon="6.63209">
        <ele>1411</ele>
        <time>2018-01-24T12:53:00Z</time>
      </trkpt>
      <trkpt lat="46.20066" lon="6.63209">
        <ele>1411</ele>
        <time>2018-01-24T12:53:27Z</time>
      </trkpt>
      <trkpt lat="46.20066" lon="6.63209">
        <ele>1411</ele>
        <time>2018-01-24T12:53:31Z</time>
      </trkpt>
      <trkpt lat="46.20067" lon="6.6321">
        <ele>1411</ele>
        <time>2018-01-24T12:53:32Z</time>
      </trkpt>
      <trkpt lat="46.20067" lon="6.6321">
        <ele>1411</ele>
        <time>2018-01-24T12:53:36Z</time>
      </trkpt>
      <trkpt lat="46.20067" lon="6.63209">
        <ele>1411</ele>
        <time>2018-01-24T12:53:42Z</time>
      </trkpt>
      <trkpt lat="46.20068" lon="6.63209">
        <ele>1411</ele>
        <time>2018-01-24T12:53:49Z</time>
      </trkpt>
      <trkpt lat="46.2007" lon="6.63209">
        <ele>1411</ele>
        <time>2018-01-24T12:54:04Z</time>
      </trkpt>
      <trkpt lat="46.20069" lon="6.63207">
        <ele>1411</ele>
        <time>2018-01-24T12:54:16Z</time>
      </trkpt>
      <trkpt lat="46.20068" lon="6.63208">
        <ele>1411</ele>
        <time>2018-01-24T12:54:23Z</time>
      </trkpt>
      <trkpt lat="46.20068" lon="6.63209">
        <ele>1411</ele>
        <time>2018-01-24T12:54:50Z</time>
      </trkpt>
      <trkpt lat="46.20068" lon="6.63209">
        <ele>1411</ele>
        <time>2018-01-24T12:55:01Z</time>
      </trkpt>
      <trkpt lat="46.20069" lon="6.6321">
        <ele>1411</ele>
        <time>2018-01-24T12:55:18Z</time>
      </trkpt>
      <trkpt lat="46.20069" lon="6.6321">
        <ele>1411</ele>
        <time>2018-01-24T12:55:21Z</time>
      </trkpt>
      <trkpt lat="46.20069" lon="6.6321">
        <ele>1411</ele>
        <time>2018-01-24T12:55:24Z</time>
      </trkpt>
      <trkpt lat="46.20069" lon="6.63209">
        <ele>1411</ele>
        <time>2018-01-24T12:55:30Z</time>
      </trkpt>
      <trkpt lat="46.20069" lon="6.63209">
        <ele>1411</ele>
        <time>2018-01-24T12:55:33Z</time>
      </trkpt>
      <trkpt lat="46.2007" lon="6.63209">
        <ele>1411</ele>
        <time>2018-01-24T12:55:46Z</time>
      </trkpt>
      <trkpt lat="46.20071" lon="6.63209">
        <ele>1411</ele>
        <time>2018-01-24T12:55:47Z</time>
      </trkpt>
      <trkpt lat="46.20072" lon="6.63209">
        <ele>1411</ele>
        <time>2018-01-24T12:55:48Z</time>
      </trkpt>
      <trkpt lat="46.20075" lon="6.63207">
        <ele>1411</ele>
        <time>2018-01-24T12:55:52Z</time>
      </trkpt>
      <trkpt lat="46.20078" lon="6.63206">
        <ele>1411</ele>
        <time>2018-01-24T12:55:55Z</time>
      </trkpt>
      <trkpt lat="46.20091" lon="6.63206">
        <ele>1411</ele>
        <time>2018-01-24T12:56:10Z</time>
      </trkpt>
      <trkpt lat="46.20094" lon="6.63206">
        <ele>1411</ele>
        <time>2018-01-24T12:56:14Z</time>
      </trkpt>
      <trkpt lat="46.20097" lon="6.63205">
        <ele>1412</ele>
        <time>2018-01-24T12:56:18Z</time>
      </trkpt>
      <trkpt lat="46.201" lon="6.63205">
        <ele>1412</ele>
        <time>2018-01-24T12:56:21Z</time>
      </trkpt>
      <trkpt lat="46.20102" lon="6.63204">
        <ele>1412</ele>
        <time>2018-01-24T12:56:24Z</time>
      </trkpt>
      <trkpt lat="46.20105" lon="6.63202">
        <ele>1412</ele>
        <time>2018-01-24T12:56:28Z</time>
      </trkpt>
      <trkpt lat="46.20109" lon="6.63199">
        <ele>1413</ele>
        <time>2018-01-24T12:56:32Z</time>
      </trkpt>
      <trkpt lat="46.20112" lon="6.63196">
        <ele>1413</ele>
        <time>2018-01-24T12:56:36Z</time>
      </trkpt>
      <trkpt lat="46.20117" lon="6.63191">
        <ele>1414</ele>
        <time>2018-01-24T12:56:42Z</time>
      </trkpt>
      <trkpt lat="46.20118" lon="6.63191">
        <ele>1414</ele>
        <time>2018-01-24T12:56:43Z</time>
      </trkpt>
      <trkpt lat="46.20119" lon="6.6319">
        <ele>1414</ele>
        <time>2018-01-24T12:56:44Z</time>
      </trkpt>
      <trkpt lat="46.20133" lon="6.63179">
        <ele>1416</ele>
        <time>2018-01-24T12:57:01Z</time>
      </trkpt>
      <trkpt lat="46.20158" lon="6.63164">
        <ele>1426</ele>
        <time>2018-01-24T12:57:27Z</time>
      </trkpt>
      <trkpt lat="46.20168" lon="6.63159">
        <ele>1426</ele>
        <time>2018-01-24T12:57:40Z</time>
      </trkpt>
      <trkpt lat="46.20174" lon="6.63153">
        <ele>1428</ele>
        <time>2018-01-24T12:57:48Z</time>
      </trkpt>
      <trkpt lat="46.20174" lon="6.63151">
        <ele>1428</ele>
        <time>2018-01-24T12:57:49Z</time>
      </trkpt>
      <trkpt lat="46.20182" lon="6.63126">
        <ele>1432</ele>
        <time>2018-01-24T12:58:09Z</time>
      </trkpt>
      <trkpt lat="46.20187" lon="6.6311">
        <ele>1434</ele>
        <time>2018-01-24T12:58:22Z</time>
      </trkpt>
      <trkpt lat="46.20188" lon="6.63108">
        <ele>1435</ele>
        <time>2018-01-24T12:58:23Z</time>
      </trkpt>
      <trkpt lat="46.20198" lon="6.63072">
        <ele>1444</ele>
        <time>2018-01-24T12:58:47Z</time>
      </trkpt>
      <trkpt lat="46.20199" lon="6.6307">
        <ele>1444</ele>
        <time>2018-01-24T12:58:48Z</time>
      </trkpt>
      <trkpt lat="46.202" lon="6.63068">
        <ele>1444</ele>
        <time>2018-01-24T12:58:49Z</time>
      </trkpt>
      <trkpt lat="46.202" lon="6.63066">
        <ele>1444</ele>
        <time>2018-01-24T12:58:50Z</time>
      </trkpt>
      <trkpt lat="46.202" lon="6.63065">
        <ele>1444</ele>
        <time>2018-01-24T12:58:51Z</time>
      </trkpt>
      <trkpt lat="46.20201" lon="6.63063">
        <ele>1444</ele>
        <time>2018-01-24T12:58:52Z</time>
      </trkpt>
      <trkpt lat="46.20206" lon="6.63045">
        <ele>1445</ele>
        <time>2018-01-24T12:59:03Z</time>
      </trkpt>
      <trkpt lat="46.20207" lon="6.63043">
        <ele>1445</ele>
        <time>2018-01-24T12:59:04Z</time>
      </trkpt>
      <trkpt lat="46.20207" lon="6.63042">
        <ele>1445</ele>
        <time>2018-01-24T12:59:05Z</time>
      </trkpt>
      <trkpt lat="46.20207" lon="6.6304">
        <ele>1445</ele>
        <time>2018-01-24T12:59:06Z</time>
      </trkpt>
      <trkpt lat="46.20208" lon="6.63039">
        <ele>1445</ele>
        <time>2018-01-24T12:59:07Z</time>
      </trkpt>
      <trkpt lat="46.20209" lon="6.63038">
        <ele>1446</ele>
        <time>2018-01-24T12:59:08Z</time>
      </trkpt>
      <trkpt lat="46.20209" lon="6.63036">
        <ele>1446</ele>
        <time>2018-01-24T12:59:09Z</time>
      </trkpt>
      <trkpt lat="46.2021" lon="6.63035">
        <ele>1446</ele>
        <time>2018-01-24T12:59:10Z</time>
      </trkpt>
      <trkpt lat="46.20211" lon="6.6303">
        <ele>1446</ele>
        <time>2018-01-24T12:59:13Z</time>
      </trkpt>
      <trkpt lat="46.20212" lon="6.63029">
        <ele>1446</ele>
        <time>2018-01-24T12:59:14Z</time>
      </trkpt>
      <trkpt lat="46.20212" lon="6.63028">
        <ele>1446</ele>
        <time>2018-01-24T12:59:15Z</time>
      </trkpt>
      <trkpt lat="46.20222" lon="6.62976">
        <ele>1452</ele>
        <time>2018-01-24T12:59:44Z</time>
      </trkpt>
      <trkpt lat="46.20226" lon="6.6296">
        <ele>1453</ele>
        <time>2018-01-24T12:59:53Z</time>
      </trkpt>
      <trkpt lat="46.20226" lon="6.62958">
        <ele>1453</ele>
        <time>2018-01-24T12:59:54Z</time>
      </trkpt>
      <trkpt lat="46.20226" lon="6.62957">
        <ele>1453</ele>
        <time>2018-01-24T12:59:55Z</time>
      </trkpt>
      <trkpt lat="46.20226" lon="6.62955">
        <ele>1453</ele>
        <time>2018-01-24T12:59:56Z</time>
      </trkpt>
      <trkpt lat="46.20227" lon="6.62953">
        <ele>1453</ele>
        <time>2018-01-24T12:59:57Z</time>
      </trkpt>
      <trkpt lat="46.20227" lon="6.62951">
        <ele>1453</ele>
        <time>2018-01-24T12:59:58Z</time>
      </trkpt>
      <trkpt lat="46.20227" lon="6.62949">
        <ele>1453</ele>
        <time>2018-01-24T12:59:59Z</time>
      </trkpt>
      <trkpt lat="46.20235" lon="6.6292">
        <ele>1451</ele>
        <time>2018-01-24T13:00:17Z</time>
      </trkpt>
      <trkpt lat="46.20235" lon="6.62918">
        <ele>1451</ele>
        <time>2018-01-24T13:00:18Z</time>
      </trkpt>
      <trkpt lat="46.20236" lon="6.6291">
        <ele>1456</ele>
        <time>2018-01-24T13:00:22Z</time>
      </trkpt>
      <trkpt lat="46.20236" lon="6.62908">
        <ele>1457</ele>
        <time>2018-01-24T13:00:23Z</time>
      </trkpt>
      <trkpt lat="46.20236" lon="6.62907">
        <ele>1457</ele>
        <time>2018-01-24T13:00:24Z</time>
      </trkpt>
      <trkpt lat="46.20237" lon="6.62906">
        <ele>1457</ele>
        <time>2018-01-24T13:00:25Z</time>
      </trkpt>
      <trkpt lat="46.20237" lon="6.62904">
        <ele>1457</ele>
        <time>2018-01-24T13:00:26Z</time>
      </trkpt>
      <trkpt lat="46.20238" lon="6.62902">
        <ele>1458</ele>
        <time>2018-01-24T13:00:27Z</time>
      </trkpt>
      <trkpt lat="46.20241" lon="6.6289">
        <ele>1460</ele>
        <time>2018-01-24T13:00:35Z</time>
      </trkpt>
      <trkpt lat="46.20242" lon="6.62887">
        <ele>1461</ele>
        <time>2018-01-24T13:00:37Z</time>
      </trkpt>
      <trkpt lat="46.20242" lon="6.62884">
        <ele>1461</ele>
        <time>2018-01-24T13:00:39Z</time>
      </trkpt>
      <trkpt lat="46.20247" lon="6.62865">
        <ele>1463</ele>
        <time>2018-01-24T13:00:52Z</time>
      </trkpt>
      <trkpt lat="46.20247" lon="6.62864">
        <ele>1463</ele>
        <time>2018-01-24T13:00:53Z</time>
      </trkpt>
      <trkpt lat="46.20248" lon="6.62862">
        <ele>1463</ele>
        <time>2018-01-24T13:00:54Z</time>
      </trkpt>
      <trkpt lat="46.20248" lon="6.62861">
        <ele>1463</ele>
        <time>2018-01-24T13:00:55Z</time>
      </trkpt>
      <trkpt lat="46.20248" lon="6.62859">
        <ele>1464</ele>
        <time>2018-01-24T13:00:56Z</time>
      </trkpt>
      <trkpt lat="46.20249" lon="6.62858">
        <ele>1464</ele>
        <time>2018-01-24T13:00:57Z</time>
      </trkpt>
      <trkpt lat="46.2025" lon="6.62853">
        <ele>1464</ele>
        <time>2018-01-24T13:01:00Z</time>
      </trkpt>
      <trkpt lat="46.20252" lon="6.62843">
        <ele>1463</ele>
        <time>2018-01-24T13:01:07Z</time>
      </trkpt>
      <trkpt lat="46.20253" lon="6.62841">
        <ele>1463</ele>
        <time>2018-01-24T13:01:08Z</time>
      </trkpt>
      <trkpt lat="46.20253" lon="6.6284">
        <ele>1463</ele>
        <time>2018-01-24T13:01:09Z</time>
      </trkpt>
      <trkpt lat="46.20254" lon="6.62839">
        <ele>1463</ele>
        <time>2018-01-24T13:01:10Z</time>
      </trkpt>
      <trkpt lat="46.20254" lon="6.62837">
        <ele>1462</ele>
        <time>2018-01-24T13:01:11Z</time>
      </trkpt>
      <trkpt lat="46.20254" lon="6.62835">
        <ele>1462</ele>
        <time>2018-01-24T13:01:12Z</time>
      </trkpt>
      <trkpt lat="46.20254" lon="6.62833">
        <ele>1462</ele>
        <time>2018-01-24T13:01:13Z</time>
      </trkpt>
      <trkpt lat="46.20254" lon="6.62831">
        <ele>1464</ele>
        <time>2018-01-24T13:01:14Z</time>
      </trkpt>
      <trkpt lat="46.20254" lon="6.6283">
        <ele>1465</ele>
        <time>2018-01-24T13:01:15Z</time>
      </trkpt>
      <trkpt lat="46.20254" lon="6.62828">
        <ele>1465</ele>
        <time>2018-01-24T13:01:16Z</time>
      </trkpt>
      <trkpt lat="46.20254" lon="6.62826">
        <ele>1466</ele>
        <time>2018-01-24T13:01:17Z</time>
      </trkpt>
      <trkpt lat="46.20254" lon="6.62824">
        <ele>1467</ele>
        <time>2018-01-24T13:01:18Z</time>
      </trkpt>
      <trkpt lat="46.20254" lon="6.62823">
        <ele>1468</ele>
        <time>2018-01-24T13:01:19Z</time>
      </trkpt>
      <trkpt lat="46.20254" lon="6.62821">
        <ele>1468</ele>
        <time>2018-01-24T13:01:20Z</time>
      </trkpt>
      <trkpt lat="46.20255" lon="6.62819">
        <ele>1469</ele>
        <time>2018-01-24T13:01:21Z</time>
      </trkpt>
      <trkpt lat="46.20257" lon="6.62813">
        <ele>1471</ele>
        <time>2018-01-24T13:01:25Z</time>
      </trkpt>
      <trkpt lat="46.20259" lon="6.62811">
        <ele>1471</ele>
        <time>2018-01-24T13:01:27Z</time>
      </trkpt>
      <trkpt lat="46.20261" lon="6.6281">
        <ele>1472</ele>
        <time>2018-01-24T13:01:28Z</time>
      </trkpt>
      <trkpt lat="46.20268" lon="6.62803">
        <ele>1474</ele>
        <time>2018-01-24T13:01:35Z</time>
      </trkpt>
      <trkpt lat="46.20279" lon="6.62796">
        <ele>1476</ele>
        <time>2018-01-24T13:01:47Z</time>
      </trkpt>
      <trkpt lat="46.20281" lon="6.62795">
        <ele>1476</ele>
        <time>2018-01-24T13:01:49Z</time>
      </trkpt>
      <trkpt lat="46.20282" lon="6.62794">
        <ele>1476</ele>
        <time>2018-01-24T13:01:50Z</time>
      </trkpt>
      <trkpt lat="46.20292" lon="6.62791">
        <ele>1477</ele>
        <time>2018-01-24T13:02:00Z</time>
      </trkpt>
      <trkpt lat="46.20293" lon="6.6279">
        <ele>1477</ele>
        <time>2018-01-24T13:02:01Z</time>
      </trkpt>
      <trkpt lat="46.20294" lon="6.6279">
        <ele>1477</ele>
        <time>2018-01-24T13:02:03Z</time>
      </trkpt>
      <trkpt lat="46.20296" lon="6.6279">
        <ele>1477</ele>
        <time>2018-01-24T13:02:04Z</time>
      </trkpt>
      <trkpt lat="46.203" lon="6.62788">
        <ele>1477</ele>
        <time>2018-01-24T13:02:09Z</time>
      </trkpt>
      <trkpt lat="46.20301" lon="6.62788">
        <ele>1478</ele>
        <time>2018-01-24T13:02:10Z</time>
      </trkpt>
      <trkpt lat="46.20305" lon="6.62786">
        <ele>1478</ele>
        <time>2018-01-24T13:02:14Z</time>
      </trkpt>
      <trkpt lat="46.20307" lon="6.62786">
        <ele>1478</ele>
        <time>2018-01-24T13:02:16Z</time>
      </trkpt>
      <trkpt lat="46.2031" lon="6.62785">
        <ele>1478</ele>
        <time>2018-01-24T13:02:20Z</time>
      </trkpt>
      <trkpt lat="46.20311" lon="6.62784">
        <ele>1478</ele>
        <time>2018-01-24T13:02:21Z</time>
      </trkpt>
      <trkpt lat="46.20313" lon="6.62785">
        <ele>1478</ele>
        <time>2018-01-24T13:02:22Z</time>
      </trkpt>
      <trkpt lat="46.20316" lon="6.62785">
        <ele>1478</ele>
        <time>2018-01-24T13:02:25Z</time>
      </trkpt>
      <trkpt lat="46.20317" lon="6.62785">
        <ele>1478</ele>
        <time>2018-01-24T13:02:26Z</time>
      </trkpt>
      <trkpt lat="46.20318" lon="6.62785">
        <ele>1479</ele>
        <time>2018-01-24T13:02:27Z</time>
      </trkpt>
      <trkpt lat="46.20319" lon="6.62781">
        <ele>1479</ele>
        <time>2018-01-24T13:02:31Z</time>
      </trkpt>
      <trkpt lat="46.2032" lon="6.62777">
        <ele>1480</ele>
        <time>2018-01-24T13:02:35Z</time>
      </trkpt>
      <trkpt lat="46.2032" lon="6.62771">
        <ele>1480</ele>
        <time>2018-01-24T13:02:40Z</time>
      </trkpt>
      <trkpt lat="46.20319" lon="6.6276">
        <ele>1482</ele>
        <time>2018-01-24T13:02:49Z</time>
      </trkpt>
      <trkpt lat="46.20319" lon="6.62759">
        <ele>1482</ele>
        <time>2018-01-24T13:02:50Z</time>
      </trkpt>
      <trkpt lat="46.20319" lon="6.62758">
        <ele>1482</ele>
        <time>2018-01-24T13:02:51Z</time>
      </trkpt>
      <trkpt lat="46.20319" lon="6.62756">
        <ele>1482</ele>
        <time>2018-01-24T13:02:52Z</time>
      </trkpt>
      <trkpt lat="46.20319" lon="6.62754">
        <ele>1482</ele>
        <time>2018-01-24T13:02:54Z</time>
      </trkpt>
      <trkpt lat="46.20319" lon="6.62752">
        <ele>1482</ele>
        <time>2018-01-24T13:02:55Z</time>
      </trkpt>
      <trkpt lat="46.20319" lon="6.62751">
        <ele>1482</ele>
        <time>2018-01-24T13:02:56Z</time>
      </trkpt>
      <trkpt lat="46.20319" lon="6.62749">
        <ele>1490</ele>
        <time>2018-01-24T13:02:57Z</time>
      </trkpt>
      <trkpt lat="46.20319" lon="6.62747">
        <ele>1490</ele>
        <time>2018-01-24T13:02:59Z</time>
      </trkpt>
      <trkpt lat="46.20319" lon="6.62745">
        <ele>1490</ele>
        <time>2018-01-24T13:03:00Z</time>
      </trkpt>
      <trkpt lat="46.2032" lon="6.62741">
        <ele>1491</ele>
        <time>2018-01-24T13:03:04Z</time>
      </trkpt>
      <trkpt lat="46.2032" lon="6.6274">
        <ele>1491</ele>
        <time>2018-01-24T13:03:05Z</time>
      </trkpt>
      <trkpt lat="46.20322" lon="6.62728">
        <ele>1493</ele>
        <time>2018-01-24T13:03:15Z</time>
      </trkpt>
      <trkpt lat="46.20323" lon="6.62718">
        <ele>1495</ele>
        <time>2018-01-24T13:03:23Z</time>
      </trkpt>
      <trkpt lat="46.20323" lon="6.62713">
        <ele>1496</ele>
        <time>2018-01-24T13:03:28Z</time>
      </trkpt>
      <trkpt lat="46.20324" lon="6.62695">
        <ele>1499</ele>
        <time>2018-01-24T13:03:42Z</time>
      </trkpt>
      <trkpt lat="46.20327" lon="6.62684">
        <ele>1501</ele>
        <time>2018-01-24T13:03:52Z</time>
      </trkpt>
      <trkpt lat="46.20332" lon="6.6267">
        <ele>1505</ele>
        <time>2018-01-24T13:04:05Z</time>
      </trkpt>
      <trkpt lat="46.20339" lon="6.62659">
        <ele>1513</ele>
        <time>2018-01-24T13:04:17Z</time>
      </trkpt>
      <trkpt lat="46.20339" lon="6.62649">
        <ele>1517</ele>
        <time>2018-01-24T13:04:26Z</time>
      </trkpt>
      <trkpt lat="46.20339" lon="6.62647">
        <ele>1518</ele>
        <time>2018-01-24T13:04:28Z</time>
      </trkpt>
      <trkpt lat="46.20336" lon="6.6263">
        <ele>1522</ele>
        <time>2018-01-24T13:04:43Z</time>
      </trkpt>
      <trkpt lat="46.20339" lon="6.6263">
        <ele>1522</ele>
        <time>2018-01-24T13:04:48Z</time>
      </trkpt>
      <trkpt lat="46.2034" lon="6.62631">
        <ele>1522</ele>
        <time>2018-01-24T13:04:49Z</time>
      </trkpt>
      <trkpt lat="46.20348" lon="6.62628">
        <ele>1523</ele>
        <time>2018-01-24T13:04:58Z</time>
      </trkpt>
      <trkpt lat="46.20348" lon="6.62616">
        <ele>1524</ele>
        <time>2018-01-24T13:05:09Z</time>
      </trkpt>
      <trkpt lat="46.20344" lon="6.62611">
        <ele>1524</ele>
        <time>2018-01-24T13:05:15Z</time>
      </trkpt>
      <trkpt lat="46.20342" lon="6.62605">
        <ele>1524</ele>
        <time>2018-01-24T13:05:21Z</time>
      </trkpt>
      <trkpt lat="46.20342" lon="6.62604">
        <ele>1524</ele>
        <time>2018-01-24T13:05:22Z</time>
      </trkpt>
      <trkpt lat="46.2034" lon="6.62582">
        <ele>1527</ele>
        <time>2018-01-24T13:05:39Z</time>
      </trkpt>
      <trkpt lat="46.20339" lon="6.62563">
        <ele>1532</ele>
        <time>2018-01-24T13:05:56Z</time>
      </trkpt>
      <trkpt lat="46.20339" lon="6.62546">
        <ele>1536</ele>
        <time>2018-01-24T13:06:11Z</time>
      </trkpt>
      <trkpt lat="46.20339" lon="6.62534">
        <ele>1537</ele>
        <time>2018-01-24T13:06:24Z</time>
      </trkpt>
      <trkpt lat="46.2034" lon="6.62527">
        <ele>1538</ele>
        <time>2018-01-24T13:06:30Z</time>
      </trkpt>
      <trkpt lat="46.20342" lon="6.62514">
        <ele>1538</ele>
        <time>2018-01-24T13:06:42Z</time>
      </trkpt>
      <trkpt lat="46.20342" lon="6.62509">
        <ele>1538</ele>
        <time>2018-01-24T13:06:47Z</time>
      </trkpt>
      <trkpt lat="46.20338" lon="6.62479">
        <ele>1544</ele>
        <time>2018-01-24T13:07:15Z</time>
      </trkpt>
      <trkpt lat="46.20335" lon="6.62466">
        <ele>1546</ele>
        <time>2018-01-24T13:07:29Z</time>
      </trkpt>
      <trkpt lat="46.20333" lon="6.62462">
        <ele>1544</ele>
        <time>2018-01-24T13:07:34Z</time>
      </trkpt>
      <trkpt lat="46.20332" lon="6.6246">
        <ele>1544</ele>
        <time>2018-01-24T13:07:36Z</time>
      </trkpt>
      <trkpt lat="46.20326" lon="6.62451">
        <ele>1545</ele>
        <time>2018-01-24T13:07:48Z</time>
      </trkpt>
      <trkpt lat="46.2032" lon="6.6244">
        <ele>1545</ele>
        <time>2018-01-24T13:08:03Z</time>
      </trkpt>
      <trkpt lat="46.20319" lon="6.62432">
        <ele>1545</ele>
        <time>2018-01-24T13:08:11Z</time>
      </trkpt>
      <trkpt lat="46.20319" lon="6.62426">
        <ele>1545</ele>
        <time>2018-01-24T13:08:24Z</time>
      </trkpt>
      <trkpt lat="46.2032" lon="6.62425">
        <ele>1545</ele>
        <time>2018-01-24T13:08:29Z</time>
      </trkpt>
      <trkpt lat="46.20319" lon="6.62425">
        <ele>1545</ele>
        <time>2018-01-24T13:08:32Z</time>
      </trkpt>
      <trkpt lat="46.20319" lon="6.62425">
        <ele>1545</ele>
        <time>2018-01-24T13:08:34Z</time>
      </trkpt>
      <trkpt lat="46.20318" lon="6.62425">
        <ele>1545</ele>
        <time>2018-01-24T13:08:36Z</time>
      </trkpt>
      <trkpt lat="46.20318" lon="6.62424">
        <ele>1545</ele>
        <time>2018-01-24T13:08:39Z</time>
      </trkpt>
      <trkpt lat="46.20318" lon="6.62424">
        <ele>1545</ele>
        <time>2018-01-24T13:08:42Z</time>
      </trkpt>
      <trkpt lat="46.20318" lon="6.62424">
        <ele>1545</ele>
        <time>2018-01-24T13:08:45Z</time>
      </trkpt>
      <trkpt lat="46.20317" lon="6.62424">
        <ele>1545</ele>
        <time>2018-01-24T13:08:47Z</time>
      </trkpt>
      <trkpt lat="46.20317" lon="6.62424">
        <ele>1545</ele>
        <time>2018-01-24T13:08:51Z</time>
      </trkpt>
      <trkpt lat="46.20318" lon="6.62423">
        <ele>1545</ele>
        <time>2018-01-24T13:08:56Z</time>
      </trkpt>
      <trkpt lat="46.20318" lon="6.62423">
        <ele>1545</ele>
        <time>2018-01-24T13:08:59Z</time>
      </trkpt>
      <trkpt lat="46.20318" lon="6.62423">
        <ele>1545</ele>
        <time>2018-01-24T13:09:02Z</time>
      </trkpt>
      <trkpt lat="46.2032" lon="6.62423">
        <ele>1545</ele>
        <time>2018-01-24T13:09:07Z</time>
      </trkpt>
      <trkpt lat="46.20322" lon="6.62424">
        <ele>1544</ele>
        <time>2018-01-24T13:09:12Z</time>
      </trkpt>
      <trkpt lat="46.20322" lon="6.62426">
        <ele>1544</ele>
        <time>2018-01-24T13:09:20Z</time>
      </trkpt>
      <trkpt lat="46.20321" lon="6.62426">
        <ele>1545</ele>
        <time>2018-01-24T13:09:26Z</time>
      </trkpt>
      <trkpt lat="46.20319" lon="6.62423">
        <ele>1545</ele>
        <time>2018-01-24T13:09:29Z</time>
      </trkpt>
      <trkpt lat="46.20318" lon="6.62422">
        <ele>1545</ele>
        <time>2018-01-24T13:09:31Z</time>
      </trkpt>
      <trkpt lat="46.20316" lon="6.62421">
        <ele>1545</ele>
        <time>2018-01-24T13:09:38Z</time>
      </trkpt>
      <trkpt lat="46.20315" lon="6.6242">
        <ele>1545</ele>
        <time>2018-01-24T13:09:42Z</time>
      </trkpt>
      <trkpt lat="46.20316" lon="6.62421">
        <ele>1545</ele>
        <time>2018-01-24T13:09:43Z</time>
      </trkpt>
      <trkpt lat="46.20318" lon="6.62422">
        <ele>1545</ele>
        <time>2018-01-24T13:09:48Z</time>
      </trkpt>
      <trkpt lat="46.20319" lon="6.62423">
        <ele>1545</ele>
        <time>2018-01-24T13:09:50Z</time>
      </trkpt>
      <trkpt lat="46.20319" lon="6.62424">
        <ele>1545</ele>
        <time>2018-01-24T13:09:55Z</time>
      </trkpt>
      <trkpt lat="46.20319" lon="6.62425">
        <ele>1545</ele>
        <time>2018-01-24T13:09:58Z</time>
      </trkpt>
      <trkpt lat="46.2032" lon="6.62426">
        <ele>1545</ele>
        <time>2018-01-24T13:10:03Z</time>
      </trkpt>
      <trkpt lat="46.20318" lon="6.62426">
        <ele>1545</ele>
        <time>2018-01-24T13:10:20Z</time>
      </trkpt>
      <trkpt lat="46.20317" lon="6.62426">
        <ele>1545</ele>
        <time>2018-01-24T13:10:23Z</time>
      </trkpt>
      <trkpt lat="46.20317" lon="6.62426">
        <ele>1545</ele>
        <time>2018-01-24T13:10:26Z</time>
      </trkpt>
      <trkpt lat="46.20315" lon="6.62426">
        <ele>1545</ele>
        <time>2018-01-24T13:10:43Z</time>
      </trkpt>
      <trkpt lat="46.20319" lon="6.62427">
        <ele>1545</ele>
        <time>2018-01-24T13:11:00Z</time>
      </trkpt>
      <trkpt lat="46.2032" lon="6.62425">
        <ele>1545</ele>
        <time>2018-01-24T13:11:13Z</time>
      </trkpt>
      <trkpt lat="46.20321" lon="6.62426">
        <ele>1545</ele>
        <time>2018-01-24T13:11:17Z</time>
      </trkpt>
      <trkpt lat="46.20322" lon="6.62421">
        <ele>1544</ele>
        <time>2018-01-24T13:11:22Z</time>
      </trkpt>
      <trkpt lat="46.20322" lon="6.6242">
        <ele>1544</ele>
        <time>2018-01-24T13:11:23Z</time>
      </trkpt>
      <trkpt lat="46.20321" lon="6.62419">
        <ele>1544</ele>
        <time>2018-01-24T13:11:24Z</time>
      </trkpt>
      <trkpt lat="46.20321" lon="6.62417">
        <ele>1544</ele>
        <time>2018-01-24T13:11:25Z</time>
      </trkpt>
      <trkpt lat="46.20321" lon="6.62416">
        <ele>1547</ele>
        <time>2018-01-24T13:11:26Z</time>
      </trkpt>
      <trkpt lat="46.20313" lon="6.62398">
        <ele>1551</ele>
        <time>2018-01-24T13:11:39Z</time>
      </trkpt>
      <trkpt lat="46.20311" lon="6.62395">
        <ele>1551</ele>
        <time>2018-01-24T13:11:41Z</time>
      </trkpt>
      <trkpt lat="46.20311" lon="6.62394">
        <ele>1552</ele>
        <time>2018-01-24T13:11:42Z</time>
      </trkpt>
      <trkpt lat="46.2031" lon="6.62393">
        <ele>1552</ele>
        <time>2018-01-24T13:11:43Z</time>
      </trkpt>
      <trkpt lat="46.20309" lon="6.62392">
        <ele>1552</ele>
        <time>2018-01-24T13:11:44Z</time>
      </trkpt>
      <trkpt lat="46.20308" lon="6.62391">
        <ele>1552</ele>
        <time>2018-01-24T13:11:45Z</time>
      </trkpt>
      <trkpt lat="46.20308" lon="6.62389">
        <ele>1552</ele>
        <time>2018-01-24T13:11:46Z</time>
      </trkpt>
      <trkpt lat="46.20307" lon="6.62388">
        <ele>1553</ele>
        <time>2018-01-24T13:11:47Z</time>
      </trkpt>
      <trkpt lat="46.20306" lon="6.62386">
        <ele>1553</ele>
        <time>2018-01-24T13:11:48Z</time>
      </trkpt>
      <trkpt lat="46.20305" lon="6.62385">
        <ele>1553</ele>
        <time>2018-01-24T13:11:49Z</time>
      </trkpt>
      <trkpt lat="46.20305" lon="6.62384">
        <ele>1553</ele>
        <time>2018-01-24T13:11:50Z</time>
      </trkpt>
      <trkpt lat="46.20304" lon="6.62383">
        <ele>1553</ele>
        <time>2018-01-24T13:11:51Z</time>
      </trkpt>
      <trkpt lat="46.20303" lon="6.62382">
        <ele>1553</ele>
        <time>2018-01-24T13:11:52Z</time>
      </trkpt>
      <trkpt lat="46.20302" lon="6.62381">
        <ele>1554</ele>
        <time>2018-01-24T13:11:53Z</time>
      </trkpt>
      <trkpt lat="46.20301" lon="6.6238">
        <ele>1554</ele>
        <time>2018-01-24T13:11:54Z</time>
      </trkpt>
      <trkpt lat="46.203" lon="6.6238">
        <ele>1554</ele>
        <time>2018-01-24T13:11:55Z</time>
      </trkpt>
      <trkpt lat="46.20299" lon="6.62379">
        <ele>1554</ele>
        <time>2018-01-24T13:11:56Z</time>
      </trkpt>
      <trkpt lat="46.20298" lon="6.62378">
        <ele>1554</ele>
        <time>2018-01-24T13:11:57Z</time>
      </trkpt>
      <trkpt lat="46.20297" lon="6.62378">
        <ele>1554</ele>
        <time>2018-01-24T13:11:58Z</time>
      </trkpt>
      <trkpt lat="46.20296" lon="6.62377">
        <ele>1554</ele>
        <time>2018-01-24T13:11:59Z</time>
      </trkpt>
      <trkpt lat="46.20295" lon="6.62377">
        <ele>1554</ele>
        <time>2018-01-24T13:12:00Z</time>
      </trkpt>
      <trkpt lat="46.20293" lon="6.62377">
        <ele>1555</ele>
        <time>2018-01-24T13:12:02Z</time>
      </trkpt>
      <trkpt lat="46.20291" lon="6.62376">
        <ele>1555</ele>
        <time>2018-01-24T13:12:03Z</time>
      </trkpt>
      <trkpt lat="46.2029" lon="6.62376">
        <ele>1555</ele>
        <time>2018-01-24T13:12:04Z</time>
      </trkpt>
      <trkpt lat="46.20289" lon="6.62375">
        <ele>1555</ele>
        <time>2018-01-24T13:12:05Z</time>
      </trkpt>
      <trkpt lat="46.20288" lon="6.62375">
        <ele>1555</ele>
        <time>2018-01-24T13:12:06Z</time>
      </trkpt>
      <trkpt lat="46.20287" lon="6.62374">
        <ele>1555</ele>
        <time>2018-01-24T13:12:07Z</time>
      </trkpt>
      <trkpt lat="46.20286" lon="6.62374">
        <ele>1555</ele>
        <time>2018-01-24T13:12:08Z</time>
      </trkpt>
      <trkpt lat="46.20284" lon="6.62374">
        <ele>1555</ele>
        <time>2018-01-24T13:12:09Z</time>
      </trkpt>
      <trkpt lat="46.20283" lon="6.62373">
        <ele>1555</ele>
        <time>2018-01-24T13:12:10Z</time>
      </trkpt>
      <trkpt lat="46.20282" lon="6.62373">
        <ele>1556</ele>
        <time>2018-01-24T13:12:11Z</time>
      </trkpt>
      <trkpt lat="46.2028" lon="6.62371">
        <ele>1556</ele>
        <time>2018-01-24T13:12:14Z</time>
      </trkpt>
      <trkpt lat="46.20279" lon="6.62372">
        <ele>1556</ele>
        <time>2018-01-24T13:12:15Z</time>
      </trkpt>
      <trkpt lat="46.20278" lon="6.62372">
        <ele>1556</ele>
        <time>2018-01-24T13:12:16Z</time>
      </trkpt>
      <trkpt lat="46.20276" lon="6.62372">
        <ele>1556</ele>
        <time>2018-01-24T13:12:17Z</time>
      </trkpt>
      <trkpt lat="46.20275" lon="6.62372">
        <ele>1556</ele>
        <time>2018-01-24T13:12:18Z</time>
      </trkpt>
      <trkpt lat="46.20266" lon="6.62376">
        <ele>1556</ele>
        <time>2018-01-24T13:12:29Z</time>
      </trkpt>
      <trkpt lat="46.20263" lon="6.62378">
        <ele>1556</ele>
        <time>2018-01-24T13:12:32Z</time>
      </trkpt>
      <trkpt lat="46.20261" lon="6.62381">
        <ele>1556</ele>
        <time>2018-01-24T13:12:37Z</time>
      </trkpt>
      <trkpt lat="46.2026" lon="6.62382">
        <ele>1556</ele>
        <time>2018-01-24T13:12:38Z</time>
      </trkpt>
      <trkpt lat="46.20251" lon="6.62391">
        <ele>1557</ele>
        <time>2018-01-24T13:12:49Z</time>
      </trkpt>
      <trkpt lat="46.20241" lon="6.62399">
        <ele>1567</ele>
        <time>2018-01-24T13:13:03Z</time>
      </trkpt>
      <trkpt lat="46.20229" lon="6.62404">
        <ele>1569</ele>
        <time>2018-01-24T13:13:17Z</time>
      </trkpt>
      <trkpt lat="46.20217" lon="6.62402">
        <ele>1573</ele>
        <time>2018-01-24T13:13:32Z</time>
      </trkpt>
      <trkpt lat="46.20214" lon="6.62403">
        <ele>1573</ele>
        <time>2018-01-24T13:13:36Z</time>
      </trkpt>
      <trkpt lat="46.20212" lon="6.62404">
        <ele>1574</ele>
        <time>2018-01-24T13:13:39Z</time>
      </trkpt>
      <trkpt lat="46.20209" lon="6.62404">
        <ele>1574</ele>
        <time>2018-01-24T13:13:42Z</time>
      </trkpt>
      <trkpt lat="46.20199" lon="6.62397">
        <ele>1577</ele>
        <time>2018-01-24T13:13:55Z</time>
      </trkpt>
      <trkpt lat="46.20195" lon="6.6238">
        <ele>1578</ele>
        <time>2018-01-24T13:14:12Z</time>
      </trkpt>
      <trkpt lat="46.20192" lon="6.62366">
        <ele>1579</ele>
        <time>2018-01-24T13:14:25Z</time>
      </trkpt>
      <trkpt lat="46.2019" lon="6.62351">
        <ele>1581</ele>
        <time>2018-01-24T13:14:42Z</time>
      </trkpt>
      <trkpt lat="46.20185" lon="6.62352">
        <ele>1582</ele>
        <time>2018-01-24T13:14:53Z</time>
      </trkpt>
      <trkpt lat="46.20177" lon="6.62356">
        <ele>1583</ele>
        <time>2018-01-24T13:15:08Z</time>
      </trkpt>
      <trkpt lat="46.20175" lon="6.62357">
        <ele>1583</ele>
        <time>2018-01-24T13:15:09Z</time>
      </trkpt>
      <trkpt lat="46.20174" lon="6.62359">
        <ele>1583</ele>
        <time>2018-01-24T13:15:11Z</time>
      </trkpt>
      <trkpt lat="46.20173" lon="6.6236">
        <ele>1583</ele>
        <time>2018-01-24T13:15:12Z</time>
      </trkpt>
      <trkpt lat="46.2016" lon="6.62374">
        <ele>1597</ele>
        <time>2018-01-24T13:15:26Z</time>
      </trkpt>
      <trkpt lat="46.20151" lon="6.62377">
        <ele>1597</ele>
        <time>2018-01-24T13:15:38Z</time>
      </trkpt>
      <trkpt lat="46.20135" lon="6.62381">
        <ele>1599</ele>
        <time>2018-01-24T13:15:53Z</time>
      </trkpt>
      <trkpt lat="46.20135" lon="6.62381">
        <ele>1599</ele>
        <time>2018-01-24T13:15:54Z</time>
      </trkpt>
      <trkpt lat="46.20134" lon="6.6238">
        <ele>1599</ele>
        <time>2018-01-24T13:15:55Z</time>
      </trkpt>
      <trkpt lat="46.20133" lon="6.6238">
        <ele>1599</ele>
        <time>2018-01-24T13:15:56Z</time>
      </trkpt>
      <trkpt lat="46.20132" lon="6.6238">
        <ele>1599</ele>
        <time>2018-01-24T13:15:57Z</time>
      </trkpt>
      <trkpt lat="46.20111" lon="6.62368">
        <ele>1602</ele>
        <time>2018-01-24T13:16:19Z</time>
      </trkpt>
      <trkpt lat="46.20102" lon="6.62357">
        <ele>1603</ele>
        <time>2018-01-24T13:16:30Z</time>
      </trkpt>
      <trkpt lat="46.20101" lon="6.62354">
        <ele>1604</ele>
        <time>2018-01-24T13:16:33Z</time>
      </trkpt>
      <trkpt lat="46.201" lon="6.62354">
        <ele>1604</ele>
        <time>2018-01-24T13:16:34Z</time>
      </trkpt>
      <trkpt lat="46.20089" lon="6.62344">
        <ele>1607</ele>
        <time>2018-01-24T13:16:47Z</time>
      </trkpt>
      <trkpt lat="46.20086" lon="6.62341">
        <ele>1607</ele>
        <time>2018-01-24T13:16:51Z</time>
      </trkpt>
      <trkpt lat="46.20085" lon="6.62341">
        <ele>1608</ele>
        <time>2018-01-24T13:16:52Z</time>
      </trkpt>
      <trkpt lat="46.20085" lon="6.6234">
        <ele>1608</ele>
        <time>2018-01-24T13:16:53Z</time>
      </trkpt>
      <trkpt lat="46.20083" lon="6.62338">
        <ele>1613</ele>
        <time>2018-01-24T13:16:56Z</time>
      </trkpt>
      <trkpt lat="46.20075" lon="6.62332">
        <ele>1614</ele>
        <time>2018-01-24T13:17:06Z</time>
      </trkpt>
      <trkpt lat="46.20067" lon="6.62319">
        <ele>1618</ele>
        <time>2018-01-24T13:17:20Z</time>
      </trkpt>
      <trkpt lat="46.20062" lon="6.62299">
        <ele>1621</ele>
        <time>2018-01-24T13:17:35Z</time>
      </trkpt>
      <trkpt lat="46.20059" lon="6.62279">
        <ele>1622</ele>
        <time>2018-01-24T13:17:50Z</time>
      </trkpt>
      <trkpt lat="46.20055" lon="6.62258">
        <ele>1622</ele>
        <time>2018-01-24T13:18:04Z</time>
      </trkpt>
      <trkpt lat="46.20052" lon="6.62238">
        <ele>1624</ele>
        <time>2018-01-24T13:18:17Z</time>
      </trkpt>
      <trkpt lat="46.20046" lon="6.6222">
        <ele>1624</ele>
        <time>2018-01-24T13:18:33Z</time>
      </trkpt>
      <trkpt lat="46.20044" lon="6.6221">
        <ele>1624</ele>
        <time>2018-01-24T13:18:41Z</time>
      </trkpt>
      <trkpt lat="46.20044" lon="6.62209">
        <ele>1624</ele>
        <time>2018-01-24T13:18:42Z</time>
      </trkpt>
      <trkpt lat="46.20044" lon="6.62207">
        <ele>1624</ele>
        <time>2018-01-24T13:18:43Z</time>
      </trkpt>
      <trkpt lat="46.20043" lon="6.62157">
        <ele>1627</ele>
        <time>2018-01-24T13:19:12Z</time>
      </trkpt>
      <trkpt lat="46.20043" lon="6.62152">
        <ele>1627</ele>
        <time>2018-01-24T13:19:15Z</time>
      </trkpt>
      <trkpt lat="46.20043" lon="6.62151">
        <ele>1627</ele>
        <time>2018-01-24T13:19:16Z</time>
      </trkpt>
      <trkpt lat="46.20042" lon="6.62144">
        <ele>1628</ele>
        <time>2018-01-24T13:19:20Z</time>
      </trkpt>
      <trkpt lat="46.20042" lon="6.62137">
        <ele>1628</ele>
        <time>2018-01-24T13:19:25Z</time>
      </trkpt>
      <trkpt lat="46.20042" lon="6.62136">
        <ele>1628</ele>
        <time>2018-01-24T13:19:26Z</time>
      </trkpt>
      <trkpt lat="46.20042" lon="6.62131">
        <ele>1628</ele>
        <time>2018-01-24T13:19:30Z</time>
      </trkpt>
      <trkpt lat="46.20043" lon="6.62122">
        <ele>1628</ele>
        <time>2018-01-24T13:19:39Z</time>
      </trkpt>
      <trkpt lat="46.20041" lon="6.62113">
        <ele>1629</ele>
        <time>2018-01-24T13:19:45Z</time>
      </trkpt>
      <trkpt lat="46.20041" lon="6.62112">
        <ele>1629</ele>
        <time>2018-01-24T13:19:46Z</time>
      </trkpt>
      <trkpt lat="46.2004" lon="6.62101">
        <ele>1629</ele>
        <time>2018-01-24T13:19:54Z</time>
      </trkpt>
      <trkpt lat="46.2004" lon="6.62099">
        <ele>1629</ele>
        <time>2018-01-24T13:19:55Z</time>
      </trkpt>
      <trkpt lat="46.20033" lon="6.62067">
        <ele>1636</ele>
        <time>2018-01-24T13:20:16Z</time>
      </trkpt>
      <trkpt lat="46.20031" lon="6.62062">
        <ele>1636</ele>
        <time>2018-01-24T13:20:20Z</time>
      </trkpt>
      <trkpt lat="46.2003" lon="6.62061">
        <ele>1636</ele>
        <time>2018-01-24T13:20:21Z</time>
      </trkpt>
      <trkpt lat="46.20023" lon="6.62046">
        <ele>1637</ele>
        <time>2018-01-24T13:20:31Z</time>
      </trkpt>
      <trkpt lat="46.20018" lon="6.62037">
        <ele>1638</ele>
        <time>2018-01-24T13:20:37Z</time>
      </trkpt>
      <trkpt lat="46.20012" lon="6.62028">
        <ele>1640</ele>
        <time>2018-01-24T13:20:44Z</time>
      </trkpt>
      <trkpt lat="46.20011" lon="6.62027">
        <ele>1640</ele>
        <time>2018-01-24T13:20:45Z</time>
      </trkpt>
      <trkpt lat="46.2001" lon="6.62026">
        <ele>1640</ele>
        <time>2018-01-24T13:20:46Z</time>
      </trkpt>
      <trkpt lat="46.20009" lon="6.62025">
        <ele>1640</ele>
        <time>2018-01-24T13:20:47Z</time>
      </trkpt>
      <trkpt lat="46.20008" lon="6.62024">
        <ele>1641</ele>
        <time>2018-01-24T13:20:48Z</time>
      </trkpt>
      <trkpt lat="46.20007" lon="6.62023">
        <ele>1641</ele>
        <time>2018-01-24T13:20:49Z</time>
      </trkpt>
      <trkpt lat="46.20006" lon="6.62022">
        <ele>1641</ele>
        <time>2018-01-24T13:20:50Z</time>
      </trkpt>
      <trkpt lat="46.19991" lon="6.62002">
        <ele>1649</ele>
        <time>2018-01-24T13:21:06Z</time>
      </trkpt>
      <trkpt lat="46.19979" lon="6.61983">
        <ele>1654</ele>
        <time>2018-01-24T13:21:25Z</time>
      </trkpt>
      <trkpt lat="46.19976" lon="6.61983">
        <ele>1654</ele>
        <time>2018-01-24T13:21:29Z</time>
      </trkpt>
      <trkpt lat="46.19975" lon="6.61983">
        <ele>1654</ele>
        <time>2018-01-24T13:21:30Z</time>
      </trkpt>
      <trkpt lat="46.19975" lon="6.61982">
        <ele>1655</ele>
        <time>2018-01-24T13:21:31Z</time>
      </trkpt>
      <trkpt lat="46.19974" lon="6.61972">
        <ele>1655</ele>
        <time>2018-01-24T13:21:39Z</time>
      </trkpt>
      <trkpt lat="46.19974" lon="6.61965">
        <ele>1655</ele>
        <time>2018-01-24T13:21:45Z</time>
      </trkpt>
      <trkpt lat="46.19973" lon="6.61955">
        <ele>1656</ele>
        <time>2018-01-24T13:21:53Z</time>
      </trkpt>
      <trkpt lat="46.19971" lon="6.61945">
        <ele>1656</ele>
        <time>2018-01-24T13:22:01Z</time>
      </trkpt>
      <trkpt lat="46.19971" lon="6.61944">
        <ele>1656</ele>
        <time>2018-01-24T13:22:02Z</time>
      </trkpt>
      <trkpt lat="46.19971" lon="6.61943">
        <ele>1656</ele>
        <time>2018-01-24T13:22:03Z</time>
      </trkpt>
      <trkpt lat="46.19962" lon="6.61918">
        <ele>1657</ele>
        <time>2018-01-24T13:22:26Z</time>
      </trkpt>
      <trkpt lat="46.19957" lon="6.61903">
        <ele>1660</ele>
        <time>2018-01-24T13:22:38Z</time>
      </trkpt>
      <trkpt lat="46.19957" lon="6.61902">
        <ele>1660</ele>
        <time>2018-01-24T13:22:39Z</time>
      </trkpt>
      <trkpt lat="46.19957" lon="6.619">
        <ele>1660</ele>
        <time>2018-01-24T13:22:40Z</time>
      </trkpt>
      <trkpt lat="46.19957" lon="6.61891">
        <ele>1661</ele>
        <time>2018-01-24T13:22:45Z</time>
      </trkpt>
      <trkpt lat="46.19957" lon="6.6189">
        <ele>1661</ele>
        <time>2018-01-24T13:22:46Z</time>
      </trkpt>
      <trkpt lat="46.19956" lon="6.61888">
        <ele>1661</ele>
        <time>2018-01-24T13:22:47Z</time>
      </trkpt>
      <trkpt lat="46.19956" lon="6.61883">
        <ele>1661</ele>
        <time>2018-01-24T13:22:50Z</time>
      </trkpt>
      <trkpt lat="46.19956" lon="6.61881">
        <ele>1661</ele>
        <time>2018-01-24T13:22:51Z</time>
      </trkpt>
      <trkpt lat="46.19955" lon="6.6188">
        <ele>1661</ele>
        <time>2018-01-24T13:22:52Z</time>
      </trkpt>
      <trkpt lat="46.19955" lon="6.61878">
        <ele>1661</ele>
        <time>2018-01-24T13:22:53Z</time>
      </trkpt>
      <trkpt lat="46.19955" lon="6.61876">
        <ele>1661</ele>
        <time>2018-01-24T13:22:54Z</time>
      </trkpt>
      <trkpt lat="46.19955" lon="6.61874">
        <ele>1661</ele>
        <time>2018-01-24T13:22:55Z</time>
      </trkpt>
      <trkpt lat="46.19954" lon="6.61873">
        <ele>1661</ele>
        <time>2018-01-24T13:22:56Z</time>
      </trkpt>
      <trkpt lat="46.19952" lon="6.61851">
        <ele>1662</ele>
        <time>2018-01-24T13:23:10Z</time>
      </trkpt>
      <trkpt lat="46.1995" lon="6.61841">
        <ele>1662</ele>
        <time>2018-01-24T13:23:16Z</time>
      </trkpt>
      <trkpt lat="46.19948" lon="6.61827">
        <ele>1667</ele>
        <time>2018-01-24T13:23:25Z</time>
      </trkpt>
      <trkpt lat="46.19948" lon="6.61825">
        <ele>1667</ele>
        <time>2018-01-24T13:23:26Z</time>
      </trkpt>
      <trkpt lat="46.19948" lon="6.61823">
        <ele>1667</ele>
        <time>2018-01-24T13:23:27Z</time>
      </trkpt>
      <trkpt lat="46.19948" lon="6.61822">
        <ele>1667</ele>
        <time>2018-01-24T13:23:28Z</time>
      </trkpt>
      <trkpt lat="46.19948" lon="6.61821">
        <ele>1667</ele>
        <time>2018-01-24T13:23:29Z</time>
      </trkpt>
      <trkpt lat="46.19948" lon="6.61819">
        <ele>1667</ele>
        <time>2018-01-24T13:23:30Z</time>
      </trkpt>
      <trkpt lat="46.19948" lon="6.61818">
        <ele>1667</ele>
        <time>2018-01-24T13:23:31Z</time>
      </trkpt>
      <trkpt lat="46.19947" lon="6.61816">
        <ele>1667</ele>
        <time>2018-01-24T13:23:32Z</time>
      </trkpt>
      <trkpt lat="46.19947" lon="6.61815">
        <ele>1667</ele>
        <time>2018-01-24T13:23:33Z</time>
      </trkpt>
      <trkpt lat="46.19947" lon="6.61813">
        <ele>1667</ele>
        <time>2018-01-24T13:23:34Z</time>
      </trkpt>
      <trkpt lat="46.19947" lon="6.61811">
        <ele>1667</ele>
        <time>2018-01-24T13:23:35Z</time>
      </trkpt>
      <trkpt lat="46.19946" lon="6.6181">
        <ele>1667</ele>
        <time>2018-01-24T13:23:36Z</time>
      </trkpt>
      <trkpt lat="46.19945" lon="6.61805">
        <ele>1668</ele>
        <time>2018-01-24T13:23:39Z</time>
      </trkpt>
      <trkpt lat="46.19945" lon="6.61804">
        <ele>1668</ele>
        <time>2018-01-24T13:23:40Z</time>
      </trkpt>
      <trkpt lat="46.19945" lon="6.61802">
        <ele>1668</ele>
        <time>2018-01-24T13:23:41Z</time>
      </trkpt>
      <trkpt lat="46.19944" lon="6.61801">
        <ele>1668</ele>
        <time>2018-01-24T13:23:42Z</time>
      </trkpt>
      <trkpt lat="46.19944" lon="6.61799">
        <ele>1668</ele>
        <time>2018-01-24T13:23:43Z</time>
      </trkpt>
      <trkpt lat="46.19944" lon="6.61797">
        <ele>1668</ele>
        <time>2018-01-24T13:23:44Z</time>
      </trkpt>
      <trkpt lat="46.19943" lon="6.61796">
        <ele>1668</ele>
        <time>2018-01-24T13:23:45Z</time>
      </trkpt>
      <trkpt lat="46.19941" lon="6.61786">
        <ele>1668</ele>
        <time>2018-01-24T13:23:51Z</time>
      </trkpt>
      <trkpt lat="46.19941" lon="6.61784">
        <ele>1668</ele>
        <time>2018-01-24T13:23:52Z</time>
      </trkpt>
      <trkpt lat="46.19938" lon="6.61766">
        <ele>1669</ele>
        <time>2018-01-24T13:24:04Z</time>
      </trkpt>
      <trkpt lat="46.19932" lon="6.61742">
        <ele>1675</ele>
        <time>2018-01-24T13:24:21Z</time>
      </trkpt>
      <trkpt lat="46.19931" lon="6.61739">
        <ele>1675</ele>
        <time>2018-01-24T13:24:23Z</time>
      </trkpt>
      <trkpt lat="46.19931" lon="6.61738">
        <ele>1675</ele>
        <time>2018-01-24T13:24:24Z</time>
      </trkpt>
      <trkpt lat="46.1993" lon="6.61728">
        <ele>1677</ele>
        <time>2018-01-24T13:24:31Z</time>
      </trkpt>
      <trkpt lat="46.19926" lon="6.61707">
        <ele>1679</ele>
        <time>2018-01-24T13:24:47Z</time>
      </trkpt>
      <trkpt lat="46.19926" lon="6.61705">
        <ele>1680</ele>
        <time>2018-01-24T13:24:48Z</time>
      </trkpt>
      <trkpt lat="46.19915" lon="6.6167">
        <ele>1681</ele>
        <time>2018-01-24T13:25:16Z</time>
      </trkpt>
      <trkpt lat="46.19908" lon="6.61654">
        <ele>1689</ele>
        <time>2018-01-24T13:25:30Z</time>
      </trkpt>
      <trkpt lat="46.19906" lon="6.61647">
        <ele>1692</ele>
        <time>2018-01-24T13:25:36Z</time>
      </trkpt>
      <trkpt lat="46.19904" lon="6.61644">
        <ele>1693</ele>
        <time>2018-01-24T13:25:39Z</time>
      </trkpt>
      <trkpt lat="46.19901" lon="6.61636">
        <ele>1695</ele>
        <time>2018-01-24T13:25:46Z</time>
      </trkpt>
      <trkpt lat="46.19899" lon="6.61628">
        <ele>1697</ele>
        <time>2018-01-24T13:25:54Z</time>
      </trkpt>
      <trkpt lat="46.19896" lon="6.6162">
        <ele>1699</ele>
        <time>2018-01-24T13:26:01Z</time>
      </trkpt>
      <trkpt lat="46.19896" lon="6.61618">
        <ele>1699</ele>
        <time>2018-01-24T13:26:03Z</time>
      </trkpt>
      <trkpt lat="46.19894" lon="6.61615">
        <ele>1700</ele>
        <time>2018-01-24T13:26:06Z</time>
      </trkpt>
      <trkpt lat="46.19892" lon="6.61613">
        <ele>1700</ele>
        <time>2018-01-24T13:26:08Z</time>
      </trkpt>
      <trkpt lat="46.19891" lon="6.61609">
        <ele>1701</ele>
        <time>2018-01-24T13:26:12Z</time>
      </trkpt>
      <trkpt lat="46.19891" lon="6.61608">
        <ele>1701</ele>
        <time>2018-01-24T13:26:13Z</time>
      </trkpt>
      <trkpt lat="46.1989" lon="6.61606">
        <ele>1701</ele>
        <time>2018-01-24T13:26:15Z</time>
      </trkpt>
      <trkpt lat="46.19888" lon="6.61602">
        <ele>1702</ele>
        <time>2018-01-24T13:26:20Z</time>
      </trkpt>
      <trkpt lat="46.19886" lon="6.61597">
        <ele>1702</ele>
        <time>2018-01-24T13:26:27Z</time>
      </trkpt>
      <trkpt lat="46.19885" lon="6.61594">
        <ele>1702</ele>
        <time>2018-01-24T13:26:31Z</time>
      </trkpt>
      <trkpt lat="46.1988" lon="6.61586">
        <ele>1702</ele>
        <time>2018-01-24T13:26:40Z</time>
      </trkpt>
      <trkpt lat="46.19876" lon="6.61581">
        <ele>1717</ele>
        <time>2018-01-24T13:26:47Z</time>
      </trkpt>
      <trkpt lat="46.19867" lon="6.61565">
        <ele>1717</ele>
        <time>2018-01-24T13:27:05Z</time>
      </trkpt>
      <trkpt lat="46.19866" lon="6.61563">
        <ele>1717</ele>
        <time>2018-01-24T13:27:07Z</time>
      </trkpt>
      <trkpt lat="46.19861" lon="6.61554">
        <ele>1718</ele>
        <time>2018-01-24T13:27:17Z</time>
      </trkpt>
      <trkpt lat="46.19859" lon="6.61549">
        <ele>1719</ele>
        <time>2018-01-24T13:27:23Z</time>
      </trkpt>
      <trkpt lat="46.19856" lon="6.61541">
        <ele>1720</ele>
        <time>2018-01-24T13:27:32Z</time>
      </trkpt>
      <trkpt lat="46.19854" lon="6.61538">
        <ele>1720</ele>
        <time>2018-01-24T13:27:36Z</time>
      </trkpt>
      <trkpt lat="46.19851" lon="6.6153">
        <ele>1721</ele>
        <time>2018-01-24T13:27:45Z</time>
      </trkpt>
      <trkpt lat="46.19848" lon="6.61522">
        <ele>1722</ele>
        <time>2018-01-24T13:27:54Z</time>
      </trkpt>
      <trkpt lat="46.19844" lon="6.61513">
        <ele>1723</ele>
        <time>2018-01-24T13:28:03Z</time>
      </trkpt>
      <trkpt lat="46.19842" lon="6.61511">
        <ele>1723</ele>
        <time>2018-01-24T13:28:05Z</time>
      </trkpt>
      <trkpt lat="46.1984" lon="6.61507">
        <ele>1724</ele>
        <time>2018-01-24T13:28:10Z</time>
      </trkpt>
      <trkpt lat="46.19837" lon="6.61503">
        <ele>1724</ele>
        <time>2018-01-24T13:28:16Z</time>
      </trkpt>
      <trkpt lat="46.19833" lon="6.61496">
        <ele>1727</ele>
        <time>2018-01-24T13:28:25Z</time>
      </trkpt>
      <trkpt lat="46.1983" lon="6.61493">
        <ele>1728</ele>
        <time>2018-01-24T13:28:29Z</time>
      </trkpt>
      <trkpt lat="46.19825" lon="6.61485">
        <ele>1731</ele>
        <time>2018-01-24T13:28:43Z</time>
      </trkpt>
      <trkpt lat="46.19824" lon="6.61484">
        <ele>1732</ele>
        <time>2018-01-24T13:28:45Z</time>
      </trkpt>
      <trkpt lat="46.19823" lon="6.61482">
        <ele>1733</ele>
        <time>2018-01-24T13:28:47Z</time>
      </trkpt>
      <trkpt lat="46.1982" lon="6.61477">
        <ele>1734</ele>
        <time>2018-01-24T13:28:51Z</time>
      </trkpt>
      <trkpt lat="46.19817" lon="6.61469">
        <ele>1736</ele>
        <time>2018-01-24T13:29:00Z</time>
      </trkpt>
      <trkpt lat="46.19816" lon="6.61465">
        <ele>1736</ele>
        <time>2018-01-24T13:29:06Z</time>
      </trkpt>
      <trkpt lat="46.19812" lon="6.61456">
        <ele>1738</ele>
        <time>2018-01-24T13:29:17Z</time>
      </trkpt>
      <trkpt lat="46.19813" lon="6.61448">
        <ele>1740</ele>
        <time>2018-01-24T13:29:35Z</time>
      </trkpt>
      <trkpt lat="46.19828" lon="6.6145">
        <ele>1740</ele>
        <time>2018-01-24T13:29:58Z</time>
      </trkpt>
      <trkpt lat="46.1984" lon="6.6145">
        <ele>1746</ele>
        <time>2018-01-24T13:30:15Z</time>
      </trkpt>
      <trkpt lat="46.19843" lon="6.61449">
        <ele>1747</ele>
        <time>2018-01-24T13:30:27Z</time>
      </trkpt>
      <trkpt lat="46.19841" lon="6.61446">
        <ele>1747</ele>
        <time>2018-01-24T13:30:33Z</time>
      </trkpt>
      <trkpt lat="46.19838" lon="6.61443">
        <ele>1748</ele>
        <time>2018-01-24T13:30:38Z</time>
      </trkpt>
      <trkpt lat="46.19834" lon="6.61434">
        <ele>1750</ele>
        <time>2018-01-24T13:30:48Z</time>
      </trkpt>
      <trkpt lat="46.19834" lon="6.61433">
        <ele>1750</ele>
        <time>2018-01-24T13:30:49Z</time>
      </trkpt>
      <trkpt lat="46.19826" lon="6.61425">
        <ele>1749</ele>
        <time>2018-01-24T13:31:04Z</time>
      </trkpt>
      <trkpt lat="46.19825" lon="6.61423">
        <ele>1749</ele>
        <time>2018-01-24T13:31:06Z</time>
      </trkpt>
      <trkpt lat="46.19825" lon="6.61422">
        <ele>1749</ele>
        <time>2018-01-24T13:31:07Z</time>
      </trkpt>
      <trkpt lat="46.19823" lon="6.61419">
        <ele>1749</ele>
        <time>2018-01-24T13:31:11Z</time>
      </trkpt>
      <trkpt lat="46.19815" lon="6.61405">
        <ele>1758</ele>
        <time>2018-01-24T13:31:31Z</time>
      </trkpt>
      <trkpt lat="46.1981" lon="6.61395">
        <ele>1758</ele>
        <time>2018-01-24T13:31:45Z</time>
      </trkpt>
      <trkpt lat="46.19801" lon="6.6138">
        <ele>1760</ele>
        <time>2018-01-24T13:32:04Z</time>
      </trkpt>
      <trkpt lat="46.198" lon="6.61378">
        <ele>1760</ele>
        <time>2018-01-24T13:32:06Z</time>
      </trkpt>
      <trkpt lat="46.19796" lon="6.61369">
        <ele>1761</ele>
        <time>2018-01-24T13:32:17Z</time>
      </trkpt>
      <trkpt lat="46.19795" lon="6.61369">
        <ele>1761</ele>
        <time>2018-01-24T13:32:18Z</time>
      </trkpt>
      <trkpt lat="46.19795" lon="6.61367">
        <ele>1761</ele>
        <time>2018-01-24T13:32:21Z</time>
      </trkpt>
      <trkpt lat="46.19794" lon="6.61365">
        <ele>1761</ele>
        <time>2018-01-24T13:32:23Z</time>
      </trkpt>
      <trkpt lat="46.19791" lon="6.61362">
        <ele>1761</ele>
        <time>2018-01-24T13:32:29Z</time>
      </trkpt>
      <trkpt lat="46.19789" lon="6.61356">
        <ele>1762</ele>
        <time>2018-01-24T13:32:36Z</time>
      </trkpt>
      <trkpt lat="46.19787" lon="6.61353">
        <ele>1762</ele>
        <time>2018-01-24T13:32:40Z</time>
      </trkpt>
      <trkpt lat="46.19784" lon="6.61347">
        <ele>1763</ele>
        <time>2018-01-24T13:32:48Z</time>
      </trkpt>
      <trkpt lat="46.19784" lon="6.61345">
        <ele>1763</ele>
        <time>2018-01-24T13:32:50Z</time>
      </trkpt>
      <trkpt lat="46.19782" lon="6.61341">
        <ele>1763</ele>
        <time>2018-01-24T13:32:54Z</time>
      </trkpt>
      <trkpt lat="46.19781" lon="6.6134">
        <ele>1763</ele>
        <time>2018-01-24T13:32:55Z</time>
      </trkpt>
      <trkpt lat="46.19781" lon="6.61339">
        <ele>1763</ele>
        <time>2018-01-24T13:32:56Z</time>
      </trkpt>
      <trkpt lat="46.19779" lon="6.61332">
        <ele>1773</ele>
        <time>2018-01-24T13:33:03Z</time>
      </trkpt>
      <trkpt lat="46.19778" lon="6.61329">
        <ele>1773</ele>
        <time>2018-01-24T13:33:07Z</time>
      </trkpt>
      <trkpt lat="46.19775" lon="6.61323">
        <ele>1773</ele>
        <time>2018-01-24T13:33:12Z</time>
      </trkpt>
      <trkpt lat="46.19774" lon="6.61321">
        <ele>1773</ele>
        <time>2018-01-24T13:33:14Z</time>
      </trkpt>
      <trkpt lat="46.19774" lon="6.61316">
        <ele>1773</ele>
        <time>2018-01-24T13:33:18Z</time>
      </trkpt>
      <trkpt lat="46.19774" lon="6.61314">
        <ele>1773</ele>
        <time>2018-01-24T13:33:19Z</time>
      </trkpt>
      <trkpt lat="46.19773" lon="6.61312">
        <ele>1773</ele>
        <time>2018-01-24T13:33:21Z</time>
      </trkpt>
      <trkpt lat="46.19773" lon="6.61307">
        <ele>1774</ele>
        <time>2018-01-24T13:33:25Z</time>
      </trkpt>
      <trkpt lat="46.19773" lon="6.61302">
        <ele>1774</ele>
        <time>2018-01-24T13:33:30Z</time>
      </trkpt>
      <trkpt lat="46.19772" lon="6.61299">
        <ele>1775</ele>
        <time>2018-01-24T13:33:32Z</time>
      </trkpt>
      <trkpt lat="46.1977" lon="6.61276">
        <ele>1777</ele>
        <time>2018-01-24T13:33:48Z</time>
      </trkpt>
      <trkpt lat="46.19769" lon="6.61274">
        <ele>1777</ele>
        <time>2018-01-24T13:33:49Z</time>
      </trkpt>
      <trkpt lat="46.19768" lon="6.61263">
        <ele>1777</ele>
        <time>2018-01-24T13:33:56Z</time>
      </trkpt>
      <trkpt lat="46.19769" lon="6.61262">
        <ele>1777</ele>
        <time>2018-01-24T13:33:57Z</time>
      </trkpt>
      <trkpt lat="46.19769" lon="6.61261">
        <ele>1778</ele>
        <time>2018-01-24T13:33:58Z</time>
      </trkpt>
      <trkpt lat="46.19771" lon="6.61249">
        <ele>1776</ele>
        <time>2018-01-24T13:34:09Z</time>
      </trkpt>
      <trkpt lat="46.19775" lon="6.61227">
        <ele>1775</ele>
        <time>2018-01-24T13:34:28Z</time>
      </trkpt>
      <trkpt lat="46.19775" lon="6.61225">
        <ele>1774</ele>
        <time>2018-01-24T13:34:35Z</time>
      </trkpt>
      <trkpt lat="46.19775" lon="6.61226">
        <ele>1775</ele>
        <time>2018-01-24T13:34:39Z</time>
      </trkpt>
      <trkpt lat="46.19777" lon="6.61229">
        <ele>1775</ele>
        <time>2018-01-24T13:34:45Z</time>
      </trkpt>
      <trkpt lat="46.19778" lon="6.61229">
        <ele>1775</ele>
        <time>2018-01-24T13:34:46Z</time>
      </trkpt>
      <trkpt lat="46.19778" lon="6.6123">
        <ele>1775</ele>
        <time>2018-01-24T13:34:47Z</time>
      </trkpt>
      <trkpt lat="46.19779" lon="6.6123">
        <ele>1775</ele>
        <time>2018-01-24T13:34:48Z</time>
      </trkpt>
      <trkpt lat="46.19781" lon="6.6123">
        <ele>1775</ele>
        <time>2018-01-24T13:34:51Z</time>
      </trkpt>
      <trkpt lat="46.19781" lon="6.6123">
        <ele>1775</ele>
        <time>2018-01-24T13:34:54Z</time>
      </trkpt>
      <trkpt lat="46.19781" lon="6.6123">
        <ele>1775</ele>
        <time>2018-01-24T13:35:03Z</time>
      </trkpt>
      <trkpt lat="46.19781" lon="6.6123">
        <ele>1775</ele>
        <time>2018-01-24T13:35:05Z</time>
      </trkpt>
      <trkpt lat="46.19781" lon="6.6123">
        <ele>1775</ele>
        <time>2018-01-24T13:35:06Z</time>
      </trkpt>
      <trkpt lat="46.19781" lon="6.6123">
        <ele>1775</ele>
        <time>2018-01-24T13:35:07Z</time>
      </trkpt>
      <trkpt lat="46.19781" lon="6.6123">
        <ele>1775</ele>
        <time>2018-01-24T13:35:09Z</time>
      </trkpt>
      <trkpt lat="46.19781" lon="6.6123">
        <ele>1775</ele>
        <time>2018-01-24T13:35:12Z</time>
      </trkpt>
      <trkpt lat="46.19781" lon="6.6123">
        <ele>1775</ele>
        <time>2018-01-24T13:35:17Z</time>
      </trkpt>
      <trkpt lat="46.19781" lon="6.6123">
        <ele>1775</ele>
        <time>2018-01-24T13:35:20Z</time>
      </trkpt>
      <trkpt lat="46.19781" lon="6.6123">
        <ele>1775</ele>
        <time>2018-01-24T13:35:22Z</time>
      </trkpt>
      <trkpt lat="46.19781" lon="6.61232">
        <ele>1775</ele>
        <time>2018-01-24T13:35:41Z</time>
      </trkpt>
      <trkpt lat="46.19781" lon="6.61232">
        <ele>1775</ele>
        <time>2018-01-24T13:35:44Z</time>
      </trkpt>
      <trkpt lat="46.1978" lon="6.61232">
        <ele>1775</ele>
        <time>2018-01-24T13:35:52Z</time>
      </trkpt>
      <trkpt lat="46.1978" lon="6.61231">
        <ele>1775</ele>
        <time>2018-01-24T13:35:55Z</time>
      </trkpt>
      <trkpt lat="46.1978" lon="6.61231">
        <ele>1775</ele>
        <time>2018-01-24T13:36:05Z</time>
      </trkpt>
      <trkpt lat="46.19781" lon="6.61231">
        <ele>1775</ele>
        <time>2018-01-24T13:36:28Z</time>
      </trkpt>
      <trkpt lat="46.19782" lon="6.61228">
        <ele>1775</ele>
        <time>2018-01-24T13:37:20Z</time>
      </trkpt>
      <trkpt lat="46.19783" lon="6.61228">
        <ele>1775</ele>
        <time>2018-01-24T13:37:25Z</time>
      </trkpt>
      <trkpt lat="46.19783" lon="6.61231">
        <ele>1775</ele>
        <time>2018-01-24T13:37:33Z</time>
      </trkpt>
      <trkpt lat="46.19783" lon="6.61232">
        <ele>1775</ele>
        <time>2018-01-24T13:37:37Z</time>
      </trkpt>
      <trkpt lat="46.19782" lon="6.61231">
        <ele>1775</ele>
        <time>2018-01-24T13:37:52Z</time>
      </trkpt>
      <trkpt lat="46.19782" lon="6.61231">
        <ele>1775</ele>
        <time>2018-01-24T13:37:59Z</time>
      </trkpt>
      <trkpt lat="46.19781" lon="6.61232">
        <ele>1775</ele>
        <time>2018-01-24T13:38:09Z</time>
      </trkpt>
      <trkpt lat="46.19781" lon="6.61232">
        <ele>1775</ele>
        <time>2018-01-24T13:38:12Z</time>
      </trkpt>
      <trkpt lat="46.19781" lon="6.61231">
        <ele>1775</ele>
        <time>2018-01-24T13:38:17Z</time>
      </trkpt>
      <trkpt lat="46.19781" lon="6.61231">
        <ele>1775</ele>
        <time>2018-01-24T13:38:32Z</time>
      </trkpt>
      <trkpt lat="46.19781" lon="6.61231">
        <ele>1775</ele>
        <time>2018-01-24T13:38:35Z</time>
      </trkpt>
      <trkpt lat="46.19781" lon="6.61231">
        <ele>1775</ele>
        <time>2018-01-24T13:38:59Z</time>
      </trkpt>
      <trkpt lat="46.19781" lon="6.61231">
        <ele>1775</ele>
        <time>2018-01-24T13:39:01Z</time>
      </trkpt>
      <trkpt lat="46.19782" lon="6.61231">
        <ele>1775</ele>
        <time>2018-01-24T13:39:04Z</time>
      </trkpt>
      <trkpt lat="46.19782" lon="6.61232">
        <ele>1775</ele>
        <time>2018-01-24T13:39:21Z</time>
      </trkpt>
      <trkpt lat="46.19781" lon="6.61232">
        <ele>1775</ele>
        <time>2018-01-24T13:39:25Z</time>
      </trkpt>
      <trkpt lat="46.19781" lon="6.61232">
        <ele>1775</ele>
        <time>2018-01-24T13:39:26Z</time>
      </trkpt>
      <trkpt lat="46.19781" lon="6.61232">
        <ele>1775</ele>
        <time>2018-01-24T13:39:29Z</time>
      </trkpt>
      <trkpt lat="46.1978" lon="6.61232">
        <ele>1775</ele>
        <time>2018-01-24T13:39:31Z</time>
      </trkpt>
      <trkpt lat="46.19781" lon="6.61231">
        <ele>1775</ele>
        <time>2018-01-24T13:39:45Z</time>
      </trkpt>
      <trkpt lat="46.19781" lon="6.61231">
        <ele>1775</ele>
        <time>2018-01-24T13:39:49Z</time>
      </trkpt>
      <trkpt lat="46.19781" lon="6.6123">
        <ele>1775</ele>
        <time>2018-01-24T13:40:04Z</time>
      </trkpt>
      <trkpt lat="46.19781" lon="6.6123">
        <ele>1775</ele>
        <time>2018-01-24T13:40:07Z</time>
      </trkpt>
      <trkpt lat="46.1978" lon="6.61231">
        <ele>1775</ele>
        <time>2018-01-24T13:40:15Z</time>
      </trkpt>
      <trkpt lat="46.1978" lon="6.6123">
        <ele>1775</ele>
        <time>2018-01-24T13:40:18Z</time>
      </trkpt>
      <trkpt lat="46.1978" lon="6.61231">
        <ele>1775</ele>
        <time>2018-01-24T13:40:21Z</time>
      </trkpt>
      <trkpt lat="46.1978" lon="6.61231">
        <ele>1775</ele>
        <time>2018-01-24T13:40:24Z</time>
      </trkpt>
      <trkpt lat="46.19781" lon="6.61231">
        <ele>1775</ele>
        <time>2018-01-24T13:40:37Z</time>
      </trkpt>
      <trkpt lat="46.19781" lon="6.61231">
        <ele>1775</ele>
        <time>2018-01-24T13:40:50Z</time>
      </trkpt>
      <trkpt lat="46.19781" lon="6.61232">
        <ele>1775</ele>
        <time>2018-01-24T13:40:52Z</time>
      </trkpt>
      <trkpt lat="46.19781" lon="6.61232">
        <ele>1775</ele>
        <time>2018-01-24T13:40:59Z</time>
      </trkpt>
      <trkpt lat="46.19781" lon="6.61232">
        <ele>1775</ele>
        <time>2018-01-24T13:41:05Z</time>
      </trkpt>
      <trkpt lat="46.19782" lon="6.61232">
        <ele>1775</ele>
        <time>2018-01-24T13:41:07Z</time>
      </trkpt>
      <trkpt lat="46.19782" lon="6.61232">
        <ele>1775</ele>
        <time>2018-01-24T13:41:10Z</time>
      </trkpt>
      <trkpt lat="46.19781" lon="6.61232">
        <ele>1775</ele>
        <time>2018-01-24T13:41:22Z</time>
      </trkpt>
      <trkpt lat="46.19781" lon="6.61232">
        <ele>1775</ele>
        <time>2018-01-24T13:41:25Z</time>
      </trkpt>
      <trkpt lat="46.19781" lon="6.61232">
        <ele>1775</ele>
        <time>2018-01-24T13:41:49Z</time>
      </trkpt>
      <trkpt lat="46.19781" lon="6.61231">
        <ele>1775</ele>
        <time>2018-01-24T13:41:56Z</time>
      </trkpt>
      <trkpt lat="46.19781" lon="6.61232">
        <ele>1775</ele>
        <time>2018-01-24T13:42:00Z</time>
      </trkpt>
      <trkpt lat="46.1978" lon="6.61231">
        <ele>1775</ele>
        <time>2018-01-24T13:42:03Z</time>
      </trkpt>
      <trkpt lat="46.19778" lon="6.6123">
        <ele>1775</ele>
        <time>2018-01-24T13:42:17Z</time>
      </trkpt>
      <trkpt lat="46.19777" lon="6.61229">
        <ele>1775</ele>
        <time>2018-01-24T13:42:19Z</time>
      </trkpt>
      <trkpt lat="46.19767" lon="6.61228">
        <ele>1775</ele>
        <time>2018-01-24T13:42:30Z</time>
      </trkpt>
      <trkpt lat="46.19767" lon="6.61228">
        <ele>1775</ele>
        <time>2018-01-24T13:42:31Z</time>
      </trkpt>
      <trkpt lat="46.19765" lon="6.61228">
        <ele>1775</ele>
        <time>2018-01-24T13:42:32Z</time>
      </trkpt>
      <trkpt lat="46.19764" lon="6.61229">
        <ele>1775</ele>
        <time>2018-01-24T13:42:33Z</time>
      </trkpt>
      <trkpt lat="46.19762" lon="6.6123">
        <ele>1775</ele>
        <time>2018-01-24T13:42:34Z</time>
      </trkpt>
      <trkpt lat="46.19755" lon="6.61232">
        <ele>1776</ele>
        <time>2018-01-24T13:42:38Z</time>
      </trkpt>
      <trkpt lat="46.19753" lon="6.61232">
        <ele>1776</ele>
        <time>2018-01-24T13:42:39Z</time>
      </trkpt>
      <trkpt lat="46.19751" lon="6.61232">
        <ele>1776</ele>
        <time>2018-01-24T13:42:40Z</time>
      </trkpt>
      <trkpt lat="46.19749" lon="6.61232">
        <ele>1774</ele>
        <time>2018-01-24T13:42:41Z</time>
      </trkpt>
      <trkpt lat="46.19746" lon="6.61233">
        <ele>1774</ele>
        <time>2018-01-24T13:42:42Z</time>
      </trkpt>
      <trkpt lat="46.19744" lon="6.61233">
        <ele>1774</ele>
        <time>2018-01-24T13:42:43Z</time>
      </trkpt>
      <trkpt lat="46.19723" lon="6.61248">
        <ele>1774</ele>
        <time>2018-01-24T13:42:55Z</time>
      </trkpt>
      <trkpt lat="46.19721" lon="6.61249">
        <ele>1773</ele>
        <time>2018-01-24T13:42:56Z</time>
      </trkpt>
      <trkpt lat="46.19718" lon="6.61249">
        <ele>1773</ele>
        <time>2018-01-24T13:43:02Z</time>
      </trkpt>
      <trkpt lat="46.19714" lon="6.61247">
        <ele>1773</ele>
        <time>2018-01-24T13:43:07Z</time>
      </trkpt>
      <trkpt lat="46.19712" lon="6.61245">
        <ele>1773</ele>
        <time>2018-01-24T13:43:08Z</time>
      </trkpt>
      <trkpt lat="46.19705" lon="6.61235">
        <ele>1772</ele>
        <time>2018-01-24T13:43:11Z</time>
      </trkpt>
      <trkpt lat="46.19705" lon="6.61233">
        <ele>1772</ele>
        <time>2018-01-24T13:43:12Z</time>
      </trkpt>
      <trkpt lat="46.19705" lon="6.61233">
        <ele>1772</ele>
        <time>2018-01-24T13:43:14Z</time>
      </trkpt>
      <trkpt lat="46.19702" lon="6.61232">
        <ele>1772</ele>
        <time>2018-01-24T13:43:17Z</time>
      </trkpt>
      <trkpt lat="46.19701" lon="6.61232">
        <ele>1772</ele>
        <time>2018-01-24T13:43:18Z</time>
      </trkpt>
      <trkpt lat="46.19698" lon="6.61231">
        <ele>1772</ele>
        <time>2018-01-24T13:43:19Z</time>
      </trkpt>
      <trkpt lat="46.19697" lon="6.61231">
        <ele>1772</ele>
        <time>2018-01-24T13:43:20Z</time>
      </trkpt>
      <trkpt lat="46.19695" lon="6.61231">
        <ele>1772</ele>
        <time>2018-01-24T13:43:21Z</time>
      </trkpt>
      <trkpt lat="46.1969" lon="6.61231">
        <ele>1772</ele>
        <time>2018-01-24T13:43:24Z</time>
      </trkpt>
      <trkpt lat="46.19689" lon="6.6123">
        <ele>1772</ele>
        <time>2018-01-24T13:43:25Z</time>
      </trkpt>
      <trkpt lat="46.19678" lon="6.61227">
        <ele>1772</ele>
        <time>2018-01-24T13:43:30Z</time>
      </trkpt>
      <trkpt lat="46.19676" lon="6.61222">
        <ele>1771</ele>
        <time>2018-01-24T13:43:32Z</time>
      </trkpt>
      <trkpt lat="46.19676" lon="6.61219">
        <ele>1771</ele>
        <time>2018-01-24T13:43:33Z</time>
      </trkpt>
      <trkpt lat="46.19676" lon="6.61216">
        <ele>1770</ele>
        <time>2018-01-24T13:43:34Z</time>
      </trkpt>
      <trkpt lat="46.19676" lon="6.61214">
        <ele>1770</ele>
        <time>2018-01-24T13:43:35Z</time>
      </trkpt>
      <trkpt lat="46.19674" lon="6.61212">
        <ele>1769</ele>
        <time>2018-01-24T13:43:36Z</time>
      </trkpt>
      <trkpt lat="46.19671" lon="6.6121">
        <ele>1769</ele>
        <time>2018-01-24T13:43:37Z</time>
      </trkpt>
      <trkpt lat="46.19671" lon="6.61207">
        <ele>1768</ele>
        <time>2018-01-24T13:43:38Z</time>
      </trkpt>
      <trkpt lat="46.19671" lon="6.61204">
        <ele>1768</ele>
        <time>2018-01-24T13:43:39Z</time>
      </trkpt>
      <trkpt lat="46.19671" lon="6.61203">
        <ele>1768</ele>
        <time>2018-01-24T13:43:40Z</time>
      </trkpt>
      <trkpt lat="46.1967" lon="6.61202">
        <ele>1767</ele>
        <time>2018-01-24T13:43:41Z</time>
      </trkpt>
      <trkpt lat="46.19668" lon="6.61201">
        <ele>1767</ele>
        <time>2018-01-24T13:43:42Z</time>
      </trkpt>
      <trkpt lat="46.19667" lon="6.612">
        <ele>1767</ele>
        <time>2018-01-24T13:43:43Z</time>
      </trkpt>
      <trkpt lat="46.19666" lon="6.612">
        <ele>1771</ele>
        <time>2018-01-24T13:43:44Z</time>
      </trkpt>
      <trkpt lat="46.19663" lon="6.61198">
        <ele>1771</ele>
        <time>2018-01-24T13:43:50Z</time>
      </trkpt>
      <trkpt lat="46.19662" lon="6.61196">
        <ele>1770</ele>
        <time>2018-01-24T13:43:52Z</time>
      </trkpt>
      <trkpt lat="46.1966" lon="6.61194">
        <ele>1770</ele>
        <time>2018-01-24T13:43:53Z</time>
      </trkpt>
      <trkpt lat="46.19659" lon="6.61193">
        <ele>1770</ele>
        <time>2018-01-24T13:43:54Z</time>
      </trkpt>
      <trkpt lat="46.19658" lon="6.61192">
        <ele>1770</ele>
        <time>2018-01-24T13:43:55Z</time>
      </trkpt>
      <trkpt lat="46.19657" lon="6.61192">
        <ele>1770</ele>
        <time>2018-01-24T13:43:56Z</time>
      </trkpt>
      <trkpt lat="46.19655" lon="6.61191">
        <ele>1770</ele>
        <time>2018-01-24T13:43:57Z</time>
      </trkpt>
      <trkpt lat="46.19652" lon="6.6119">
        <ele>1770</ele>
        <time>2018-01-24T13:43:58Z</time>
      </trkpt>
      <trkpt lat="46.1965" lon="6.6119">
        <ele>1770</ele>
        <time>2018-01-24T13:43:59Z</time>
      </trkpt>
      <trkpt lat="46.19648" lon="6.6119">
        <ele>1771</ele>
        <time>2018-01-24T13:44:00Z</time>
      </trkpt>
      <trkpt lat="46.19646" lon="6.6119">
        <ele>1771</ele>
        <time>2018-01-24T13:44:01Z</time>
      </trkpt>
      <trkpt lat="46.19646" lon="6.61191">
        <ele>1771</ele>
        <time>2018-01-24T13:44:03Z</time>
      </trkpt>
      <trkpt lat="46.19641" lon="6.61187">
        <ele>1771</ele>
        <time>2018-01-24T13:44:10Z</time>
      </trkpt>
      <trkpt lat="46.19639" lon="6.61186">
        <ele>1772</ele>
        <time>2018-01-24T13:44:11Z</time>
      </trkpt>
      <trkpt lat="46.19637" lon="6.61183">
        <ele>1772</ele>
        <time>2018-01-24T13:44:12Z</time>
      </trkpt>
      <trkpt lat="46.19638" lon="6.61179">
        <ele>1771</ele>
        <time>2018-01-24T13:44:13Z</time>
      </trkpt>
      <trkpt lat="46.1964" lon="6.61175">
        <ele>1770</ele>
        <time>2018-01-24T13:44:14Z</time>
      </trkpt>
      <trkpt lat="46.19642" lon="6.61173">
        <ele>1769</ele>
        <time>2018-01-24T13:44:15Z</time>
      </trkpt>
      <trkpt lat="46.19644" lon="6.61172">
        <ele>1768</ele>
        <time>2018-01-24T13:44:16Z</time>
      </trkpt>
      <trkpt lat="46.19646" lon="6.61168">
        <ele>1767</ele>
        <time>2018-01-24T13:44:17Z</time>
      </trkpt>
      <trkpt lat="46.19646" lon="6.61163">
        <ele>1752</ele>
        <time>2018-01-24T13:44:18Z</time>
      </trkpt>
      <trkpt lat="46.19643" lon="6.6116">
        <ele>1751</ele>
        <time>2018-01-24T13:44:19Z</time>
      </trkpt>
      <trkpt lat="46.1964" lon="6.61157">
        <ele>1751</ele>
        <time>2018-01-24T13:44:20Z</time>
      </trkpt>
      <trkpt lat="46.19638" lon="6.61154">
        <ele>1751</ele>
        <time>2018-01-24T13:44:21Z</time>
      </trkpt>
      <trkpt lat="46.19636" lon="6.61151">
        <ele>1750</ele>
        <time>2018-01-24T13:44:22Z</time>
      </trkpt>
      <trkpt lat="46.19638" lon="6.61148">
        <ele>1750</ele>
        <time>2018-01-24T13:44:23Z</time>
      </trkpt>
      <trkpt lat="46.1964" lon="6.61147">
        <ele>1749</ele>
        <time>2018-01-24T13:44:24Z</time>
      </trkpt>
      <trkpt lat="46.19643" lon="6.61144">
        <ele>1749</ele>
        <time>2018-01-24T13:44:25Z</time>
      </trkpt>
      <trkpt lat="46.19645" lon="6.6114">
        <ele>1748</ele>
        <time>2018-01-24T13:44:26Z</time>
      </trkpt>
      <trkpt lat="46.19644" lon="6.61135">
        <ele>1747</ele>
        <time>2018-01-24T13:44:27Z</time>
      </trkpt>
      <trkpt lat="46.19644" lon="6.61128">
        <ele>1745</ele>
        <time>2018-01-24T13:44:28Z</time>
      </trkpt>
      <trkpt lat="46.19646" lon="6.61123">
        <ele>1743</ele>
        <time>2018-01-24T13:44:29Z</time>
      </trkpt>
      <trkpt lat="46.19647" lon="6.61118">
        <ele>1742</ele>
        <time>2018-01-24T13:44:30Z</time>
      </trkpt>
      <trkpt lat="46.19647" lon="6.61113">
        <ele>1740</ele>
        <time>2018-01-24T13:44:31Z</time>
      </trkpt>
      <trkpt lat="46.19648" lon="6.61109">
        <ele>1738</ele>
        <time>2018-01-24T13:44:32Z</time>
      </trkpt>
      <trkpt lat="46.1965" lon="6.61107">
        <ele>1737</ele>
        <time>2018-01-24T13:44:33Z</time>
      </trkpt>
      <trkpt lat="46.19652" lon="6.61106">
        <ele>1736</ele>
        <time>2018-01-24T13:44:34Z</time>
      </trkpt>
      <trkpt lat="46.19654" lon="6.61105">
        <ele>1736</ele>
        <time>2018-01-24T13:44:35Z</time>
      </trkpt>
      <trkpt lat="46.19656" lon="6.61104">
        <ele>1735</ele>
        <time>2018-01-24T13:44:36Z</time>
      </trkpt>
      <trkpt lat="46.19662" lon="6.61103">
        <ele>1733</ele>
        <time>2018-01-24T13:44:39Z</time>
      </trkpt>
      <trkpt lat="46.19682" lon="6.61097">
        <ele>1729</ele>
        <time>2018-01-24T13:44:45Z</time>
      </trkpt>
      <trkpt lat="46.19687" lon="6.61095">
        <ele>1730</ele>
        <time>2018-01-24T13:44:47Z</time>
      </trkpt>
      <trkpt lat="46.19689" lon="6.61092">
        <ele>1730</ele>
        <time>2018-01-24T13:44:49Z</time>
      </trkpt>
      <trkpt lat="46.19689" lon="6.6109">
        <ele>1729</ele>
        <time>2018-01-24T13:44:50Z</time>
      </trkpt>
      <trkpt lat="46.19688" lon="6.61087">
        <ele>1729</ele>
        <time>2018-01-24T13:44:51Z</time>
      </trkpt>
      <trkpt lat="46.19688" lon="6.61084">
        <ele>1728</ele>
        <time>2018-01-24T13:44:52Z</time>
      </trkpt>
      <trkpt lat="46.19689" lon="6.61082">
        <ele>1709</ele>
        <time>2018-01-24T13:44:53Z</time>
      </trkpt>
      <trkpt lat="46.1969" lon="6.61081">
        <ele>1708</ele>
        <time>2018-01-24T13:44:54Z</time>
      </trkpt>
      <trkpt lat="46.19692" lon="6.61079">
        <ele>1708</ele>
        <time>2018-01-24T13:44:55Z</time>
      </trkpt>
      <trkpt lat="46.19694" lon="6.61077">
        <ele>1708</ele>
        <time>2018-01-24T13:44:56Z</time>
      </trkpt>
      <trkpt lat="46.19695" lon="6.61074">
        <ele>1707</ele>
        <time>2018-01-24T13:44:57Z</time>
      </trkpt>
      <trkpt lat="46.19696" lon="6.61072">
        <ele>1707</ele>
        <time>2018-01-24T13:44:58Z</time>
      </trkpt>
      <trkpt lat="46.19695" lon="6.6107">
        <ele>1707</ele>
        <time>2018-01-24T13:44:59Z</time>
      </trkpt>
      <trkpt lat="46.19695" lon="6.61067">
        <ele>1706</ele>
        <time>2018-01-24T13:45:00Z</time>
      </trkpt>
      <trkpt lat="46.19695" lon="6.61064">
        <ele>1706</ele>
        <time>2018-01-24T13:45:01Z</time>
      </trkpt>
      <trkpt lat="46.19696" lon="6.61061">
        <ele>1705</ele>
        <time>2018-01-24T13:45:02Z</time>
      </trkpt>
      <trkpt lat="46.19697" lon="6.61058">
        <ele>1704</ele>
        <time>2018-01-24T13:45:03Z</time>
      </trkpt>
      <trkpt lat="46.19697" lon="6.61054">
        <ele>1704</ele>
        <time>2018-01-24T13:45:05Z</time>
      </trkpt>
      <trkpt lat="46.19694" lon="6.61052">
        <ele>1703</ele>
        <time>2018-01-24T13:45:06Z</time>
      </trkpt>
      <trkpt lat="46.19692" lon="6.6105">
        <ele>1703</ele>
        <time>2018-01-24T13:45:07Z</time>
      </trkpt>
      <trkpt lat="46.19691" lon="6.61047">
        <ele>1702</ele>
        <time>2018-01-24T13:45:08Z</time>
      </trkpt>
      <trkpt lat="46.19689" lon="6.61044">
        <ele>1701</ele>
        <time>2018-01-24T13:45:09Z</time>
      </trkpt>
      <trkpt lat="46.19687" lon="6.61041">
        <ele>1700</ele>
        <time>2018-01-24T13:45:10Z</time>
      </trkpt>
      <trkpt lat="46.19686" lon="6.61037">
        <ele>1699</ele>
        <time>2018-01-24T13:45:11Z</time>
      </trkpt>
      <trkpt lat="46.19685" lon="6.61034">
        <ele>1698</ele>
        <time>2018-01-24T13:45:12Z</time>
      </trkpt>
      <trkpt lat="46.19686" lon="6.61032">
        <ele>1698</ele>
        <time>2018-01-24T13:45:13Z</time>
      </trkpt>
      <trkpt lat="46.19686" lon="6.61031">
        <ele>1697</ele>
        <time>2018-01-24T13:45:14Z</time>
      </trkpt>
      <trkpt lat="46.19686" lon="6.61023">
        <ele>1695</ele>
        <time>2018-01-24T13:45:18Z</time>
      </trkpt>
      <trkpt lat="46.19684" lon="6.61021">
        <ele>1694</ele>
        <time>2018-01-24T13:45:19Z</time>
      </trkpt>
      <trkpt lat="46.19683" lon="6.61018">
        <ele>1693</ele>
        <time>2018-01-24T13:45:20Z</time>
      </trkpt>
      <trkpt lat="46.19682" lon="6.61015">
        <ele>1692</ele>
        <time>2018-01-24T13:45:21Z</time>
      </trkpt>
      <trkpt lat="46.19682" lon="6.61012">
        <ele>1691</ele>
        <time>2018-01-24T13:45:22Z</time>
      </trkpt>
      <trkpt lat="46.19682" lon="6.6101">
        <ele>1691</ele>
        <time>2018-01-24T13:45:23Z</time>
      </trkpt>
      <trkpt lat="46.19682" lon="6.61008">
        <ele>1690</ele>
        <time>2018-01-24T13:45:24Z</time>
      </trkpt>
      <trkpt lat="46.19683" lon="6.61007">
        <ele>1690</ele>
        <time>2018-01-24T13:45:25Z</time>
      </trkpt>
      <trkpt lat="46.19683" lon="6.61006">
        <ele>1690</ele>
        <time>2018-01-24T13:45:26Z</time>
      </trkpt>
      <trkpt lat="46.19684" lon="6.61004">
        <ele>1690</ele>
        <time>2018-01-24T13:45:27Z</time>
      </trkpt>
      <trkpt lat="46.19683" lon="6.61004">
        <ele>1690</ele>
        <time>2018-01-24T13:45:36Z</time>
      </trkpt>
      <trkpt lat="46.19684" lon="6.61006">
        <ele>1691</ele>
        <time>2018-01-24T13:45:45Z</time>
      </trkpt>
      <trkpt lat="46.19685" lon="6.61009">
        <ele>1691</ele>
        <time>2018-01-24T13:45:54Z</time>
      </trkpt>
      <trkpt lat="46.19684" lon="6.61009">
        <ele>1691</ele>
        <time>2018-01-24T13:46:04Z</time>
      </trkpt>
      <trkpt lat="46.19679" lon="6.61003">
        <ele>1688</ele>
        <time>2018-01-24T13:46:22Z</time>
      </trkpt>
      <trkpt lat="46.19678" lon="6.61002">
        <ele>1688</ele>
        <time>2018-01-24T13:46:23Z</time>
      </trkpt>
      <trkpt lat="46.19677" lon="6.61001">
        <ele>1687</ele>
        <time>2018-01-24T13:46:24Z</time>
      </trkpt>
      <trkpt lat="46.19677" lon="6.61001">
        <ele>1687</ele>
        <time>2018-01-24T13:46:25Z</time>
      </trkpt>
      <trkpt lat="46.19674" lon="6.60999">
        <ele>1676</ele>
        <time>2018-01-24T13:46:38Z</time>
      </trkpt>
      <trkpt lat="46.19675" lon="6.60999">
        <ele>1676</ele>
        <time>2018-01-24T13:46:52Z</time>
      </trkpt>
      <trkpt lat="46.19675" lon="6.60999">
        <ele>1676</ele>
        <time>2018-01-24T13:46:58Z</time>
      </trkpt>
      <trkpt lat="46.19675" lon="6.61">
        <ele>1676</ele>
        <time>2018-01-24T13:47:26Z</time>
      </trkpt>
      <trkpt lat="46.19675" lon="6.61">
        <ele>1676</ele>
        <time>2018-01-24T13:47:30Z</time>
      </trkpt>
      <trkpt lat="46.19672" lon="6.60997">
        <ele>1677</ele>
        <time>2018-01-24T13:47:42Z</time>
      </trkpt>
      <trkpt lat="46.19668" lon="6.60989">
        <ele>1675</ele>
        <time>2018-01-24T13:47:46Z</time>
      </trkpt>
      <trkpt lat="46.19668" lon="6.60987">
        <ele>1674</ele>
        <time>2018-01-24T13:47:47Z</time>
      </trkpt>
      <trkpt lat="46.19667" lon="6.60985">
        <ele>1673</ele>
        <time>2018-01-24T13:47:48Z</time>
      </trkpt>
      <trkpt lat="46.19667" lon="6.60981">
        <ele>1680</ele>
        <time>2018-01-24T13:47:49Z</time>
      </trkpt>
      <trkpt lat="46.19666" lon="6.60978">
        <ele>1680</ele>
        <time>2018-01-24T13:47:50Z</time>
      </trkpt>
      <trkpt lat="46.19665" lon="6.60975">
        <ele>1680</ele>
        <time>2018-01-24T13:47:51Z</time>
      </trkpt>
      <trkpt lat="46.19654" lon="6.60949">
        <ele>1675</ele>
        <time>2018-01-24T13:47:59Z</time>
      </trkpt>
      <trkpt lat="46.19648" lon="6.60929">
        <ele>1670</ele>
        <time>2018-01-24T13:48:08Z</time>
      </trkpt>
      <trkpt lat="46.19646" lon="6.60924">
        <ele>1670</ele>
        <time>2018-01-24T13:48:13Z</time>
      </trkpt>
      <trkpt lat="46.19645" lon="6.60919">
        <ele>1670</ele>
        <time>2018-01-24T13:48:18Z</time>
      </trkpt>
      <trkpt lat="46.19645" lon="6.60917">
        <ele>1670</ele>
        <time>2018-01-24T13:48:19Z</time>
      </trkpt>
      <trkpt lat="46.19644" lon="6.60916">
        <ele>1660</ele>
        <time>2018-01-24T13:48:20Z</time>
      </trkpt>
      <trkpt lat="46.19644" lon="6.60914">
        <ele>1660</ele>
        <time>2018-01-24T13:48:21Z</time>
      </trkpt>
      <trkpt lat="46.19644" lon="6.60912">
        <ele>1660</ele>
        <time>2018-01-24T13:48:22Z</time>
      </trkpt>
      <trkpt lat="46.19642" lon="6.60909">
        <ele>1661</ele>
        <time>2018-01-24T13:48:23Z</time>
      </trkpt>
      <trkpt lat="46.19642" lon="6.60906">
        <ele>1661</ele>
        <time>2018-01-24T13:48:24Z</time>
      </trkpt>
      <trkpt lat="46.1964" lon="6.60905">
        <ele>1662</ele>
        <time>2018-01-24T13:48:38Z</time>
      </trkpt>
      <trkpt lat="46.19639" lon="6.60905">
        <ele>1662</ele>
        <time>2018-01-24T13:48:56Z</time>
      </trkpt>
      <trkpt lat="46.19639" lon="6.60905">
        <ele>1662</ele>
        <time>2018-01-24T13:49:00Z</time>
      </trkpt>
      <trkpt lat="46.19639" lon="6.60904">
        <ele>1662</ele>
        <time>2018-01-24T13:49:03Z</time>
      </trkpt>
      <trkpt lat="46.1963" lon="6.60878">
        <ele>1664</ele>
        <time>2018-01-24T13:49:13Z</time>
      </trkpt>
      <trkpt lat="46.19629" lon="6.60858">
        <ele>1662</ele>
        <time>2018-01-24T13:49:19Z</time>
      </trkpt>
      <trkpt lat="46.19632" lon="6.60857">
        <ele>1661</ele>
        <time>2018-01-24T13:49:20Z</time>
      </trkpt>
      <trkpt lat="46.19635" lon="6.60858">
        <ele>1660</ele>
        <time>2018-01-24T13:49:21Z</time>
      </trkpt>
      <trkpt lat="46.19638" lon="6.60859">
        <ele>1659</ele>
        <time>2018-01-24T13:49:22Z</time>
      </trkpt>
      <trkpt lat="46.1964" lon="6.60857">
        <ele>1658</ele>
        <time>2018-01-24T13:49:23Z</time>
      </trkpt>
      <trkpt lat="46.19643" lon="6.60853">
        <ele>1656</ele>
        <time>2018-01-24T13:49:24Z</time>
      </trkpt>
      <trkpt lat="46.19647" lon="6.60851">
        <ele>1654</ele>
        <time>2018-01-24T13:49:25Z</time>
      </trkpt>
      <trkpt lat="46.1965" lon="6.60852">
        <ele>1653</ele>
        <time>2018-01-24T13:49:26Z</time>
      </trkpt>
      <trkpt lat="46.19654" lon="6.60851">
        <ele>1651</ele>
        <time>2018-01-24T13:49:27Z</time>
      </trkpt>
      <trkpt lat="46.19657" lon="6.60846">
        <ele>1647</ele>
        <time>2018-01-24T13:49:28Z</time>
      </trkpt>
      <trkpt lat="46.1966" lon="6.60844">
        <ele>1645</ele>
        <time>2018-01-24T13:49:29Z</time>
      </trkpt>
      <trkpt lat="46.19663" lon="6.60844">
        <ele>1643</ele>
        <time>2018-01-24T13:49:30Z</time>
      </trkpt>
      <trkpt lat="46.19667" lon="6.60844">
        <ele>1632</ele>
        <time>2018-01-24T13:49:31Z</time>
      </trkpt>
      <trkpt lat="46.19669" lon="6.6084">
        <ele>1632</ele>
        <time>2018-01-24T13:49:32Z</time>
      </trkpt>
      <trkpt lat="46.19671" lon="6.60838">
        <ele>1631</ele>
        <time>2018-01-24T13:49:33Z</time>
      </trkpt>
      <trkpt lat="46.19675" lon="6.60838">
        <ele>1632</ele>
        <time>2018-01-24T13:49:34Z</time>
      </trkpt>
      <trkpt lat="46.1968" lon="6.60838">
        <ele>1632</ele>
        <time>2018-01-24T13:49:35Z</time>
      </trkpt>
      <trkpt lat="46.19683" lon="6.60836">
        <ele>1631</ele>
        <time>2018-01-24T13:49:36Z</time>
      </trkpt>
      <trkpt lat="46.19684" lon="6.60832">
        <ele>1623</ele>
        <time>2018-01-24T13:49:37Z</time>
      </trkpt>
      <trkpt lat="46.19686" lon="6.60828">
        <ele>1623</ele>
        <time>2018-01-24T13:49:38Z</time>
      </trkpt>
      <trkpt lat="46.19688" lon="6.60825">
        <ele>1622</ele>
        <time>2018-01-24T13:49:39Z</time>
      </trkpt>
      <trkpt lat="46.19692" lon="6.60825">
        <ele>1621</ele>
        <time>2018-01-24T13:49:40Z</time>
      </trkpt>
      <trkpt lat="46.19694" lon="6.60823">
        <ele>1620</ele>
        <time>2018-01-24T13:49:41Z</time>
      </trkpt>
      <trkpt lat="46.19697" lon="6.60817">
        <ele>1619</ele>
        <time>2018-01-24T13:49:42Z</time>
      </trkpt>
      <trkpt lat="46.19699" lon="6.60814">
        <ele>1618</ele>
        <time>2018-01-24T13:49:43Z</time>
      </trkpt>
      <trkpt lat="46.19702" lon="6.60813">
        <ele>1618</ele>
        <time>2018-01-24T13:49:44Z</time>
      </trkpt>
      <trkpt lat="46.19704" lon="6.60809">
        <ele>1617</ele>
        <time>2018-01-24T13:49:45Z</time>
      </trkpt>
      <trkpt lat="46.19704" lon="6.60804">
        <ele>1617</ele>
        <time>2018-01-24T13:49:46Z</time>
      </trkpt>
      <trkpt lat="46.19705" lon="6.60799">
        <ele>1616</ele>
        <time>2018-01-24T13:49:47Z</time>
      </trkpt>
      <trkpt lat="46.19706" lon="6.60794">
        <ele>1616</ele>
        <time>2018-01-24T13:49:48Z</time>
      </trkpt>
      <trkpt lat="46.19708" lon="6.6079">
        <ele>1615</ele>
        <time>2018-01-24T13:49:49Z</time>
      </trkpt>
      <trkpt lat="46.19711" lon="6.60788">
        <ele>1614</ele>
        <time>2018-01-24T13:49:50Z</time>
      </trkpt>
      <trkpt lat="46.19713" lon="6.60786">
        <ele>1614</ele>
        <time>2018-01-24T13:49:51Z</time>
      </trkpt>
      <trkpt lat="46.19715" lon="6.60783">
        <ele>1613</ele>
        <time>2018-01-24T13:49:52Z</time>
      </trkpt>
      <trkpt lat="46.19716" lon="6.60779">
        <ele>1612</ele>
        <time>2018-01-24T13:49:53Z</time>
      </trkpt>
      <trkpt lat="46.19718" lon="6.60775">
        <ele>1612</ele>
        <time>2018-01-24T13:49:54Z</time>
      </trkpt>
      <trkpt lat="46.1972" lon="6.60773">
        <ele>1611</ele>
        <time>2018-01-24T13:49:55Z</time>
      </trkpt>
      <trkpt lat="46.19722" lon="6.60772">
        <ele>1610</ele>
        <time>2018-01-24T13:49:56Z</time>
      </trkpt>
      <trkpt lat="46.19724" lon="6.6077">
        <ele>1609</ele>
        <time>2018-01-24T13:49:57Z</time>
      </trkpt>
      <trkpt lat="46.19727" lon="6.60767">
        <ele>1607</ele>
        <time>2018-01-24T13:49:58Z</time>
      </trkpt>
      <trkpt lat="46.19731" lon="6.60766">
        <ele>1606</ele>
        <time>2018-01-24T13:49:59Z</time>
      </trkpt>
      <trkpt lat="46.19733" lon="6.60763">
        <ele>1604</ele>
        <time>2018-01-24T13:50:00Z</time>
      </trkpt>
      <trkpt lat="46.19735" lon="6.60759">
        <ele>1602</ele>
        <time>2018-01-24T13:50:01Z</time>
      </trkpt>
      <trkpt lat="46.19738" lon="6.60756">
        <ele>1599</ele>
        <time>2018-01-24T13:50:02Z</time>
      </trkpt>
      <trkpt lat="46.1974" lon="6.60754">
        <ele>1597</ele>
        <time>2018-01-24T13:50:03Z</time>
      </trkpt>
      <trkpt lat="46.19743" lon="6.6075">
        <ele>1594</ele>
        <time>2018-01-24T13:50:04Z</time>
      </trkpt>
      <trkpt lat="46.19746" lon="6.60749">
        <ele>1591</ele>
        <time>2018-01-24T13:50:05Z</time>
      </trkpt>
      <trkpt lat="46.19748" lon="6.60746">
        <ele>1591</ele>
        <time>2018-01-24T13:50:06Z</time>
      </trkpt>
      <trkpt lat="46.19751" lon="6.60742">
        <ele>1584</ele>
        <time>2018-01-24T13:50:07Z</time>
      </trkpt>
      <trkpt lat="46.19753" lon="6.6074">
        <ele>1583</ele>
        <time>2018-01-24T13:50:08Z</time>
      </trkpt>
      <trkpt lat="46.19755" lon="6.6074">
        <ele>1583</ele>
        <time>2018-01-24T13:50:09Z</time>
      </trkpt>
      <trkpt lat="46.19756" lon="6.60739">
        <ele>1582</ele>
        <time>2018-01-24T13:50:10Z</time>
      </trkpt>
      <trkpt lat="46.1976" lon="6.60735">
        <ele>1581</ele>
        <time>2018-01-24T13:50:14Z</time>
      </trkpt>
      <trkpt lat="46.19761" lon="6.60734">
        <ele>1580</ele>
        <time>2018-01-24T13:50:15Z</time>
      </trkpt>
      <trkpt lat="46.19762" lon="6.60732">
        <ele>1580</ele>
        <time>2018-01-24T13:50:16Z</time>
      </trkpt>
      <trkpt lat="46.19762" lon="6.6073">
        <ele>1580</ele>
        <time>2018-01-24T13:50:17Z</time>
      </trkpt>
      <trkpt lat="46.19761" lon="6.60728">
        <ele>1579</ele>
        <time>2018-01-24T13:50:18Z</time>
      </trkpt>
      <trkpt lat="46.19761" lon="6.60726">
        <ele>1579</ele>
        <time>2018-01-24T13:50:19Z</time>
      </trkpt>
      <trkpt lat="46.19761" lon="6.60723">
        <ele>1578</ele>
        <time>2018-01-24T13:50:20Z</time>
      </trkpt>
      <trkpt lat="46.19763" lon="6.60721">
        <ele>1578</ele>
        <time>2018-01-24T13:50:21Z</time>
      </trkpt>
      <trkpt lat="46.19765" lon="6.60722">
        <ele>1578</ele>
        <time>2018-01-24T13:50:22Z</time>
      </trkpt>
      <trkpt lat="46.19766" lon="6.60724">
        <ele>1578</ele>
        <time>2018-01-24T13:50:23Z</time>
      </trkpt>
      <trkpt lat="46.19769" lon="6.60725">
        <ele>1578</ele>
        <time>2018-01-24T13:50:27Z</time>
      </trkpt>
      <trkpt lat="46.1977" lon="6.6072">
        <ele>1577</ele>
        <time>2018-01-24T13:50:29Z</time>
      </trkpt>
      <trkpt lat="46.19771" lon="6.60718">
        <ele>1577</ele>
        <time>2018-01-24T13:50:30Z</time>
      </trkpt>
      <trkpt lat="46.19772" lon="6.60718">
        <ele>1577</ele>
        <time>2018-01-24T13:50:31Z</time>
      </trkpt>
      <trkpt lat="46.19773" lon="6.60718">
        <ele>1577</ele>
        <time>2018-01-24T13:50:32Z</time>
      </trkpt>
      <trkpt lat="46.19775" lon="6.60716">
        <ele>1576</ele>
        <time>2018-01-24T13:50:33Z</time>
      </trkpt>
      <trkpt lat="46.19776" lon="6.60714">
        <ele>1576</ele>
        <time>2018-01-24T13:50:34Z</time>
      </trkpt>
      <trkpt lat="46.19778" lon="6.60714">
        <ele>1576</ele>
        <time>2018-01-24T13:50:35Z</time>
      </trkpt>
      <trkpt lat="46.19779" lon="6.60714">
        <ele>1576</ele>
        <time>2018-01-24T13:50:36Z</time>
      </trkpt>
      <trkpt lat="46.1978" lon="6.60713">
        <ele>1575</ele>
        <time>2018-01-24T13:50:37Z</time>
      </trkpt>
      <trkpt lat="46.19785" lon="6.60723">
        <ele>1576</ele>
        <time>2018-01-24T13:50:45Z</time>
      </trkpt>
      <trkpt lat="46.19786" lon="6.60723">
        <ele>1576</ele>
        <time>2018-01-24T13:50:47Z</time>
      </trkpt>
      <trkpt lat="46.19785" lon="6.60718">
        <ele>1576</ele>
        <time>2018-01-24T13:50:51Z</time>
      </trkpt>
      <trkpt lat="46.19785" lon="6.60715">
        <ele>1575</ele>
        <time>2018-01-24T13:50:52Z</time>
      </trkpt>
      <trkpt lat="46.19786" lon="6.60712">
        <ele>1575</ele>
        <time>2018-01-24T13:50:53Z</time>
      </trkpt>
      <trkpt lat="46.19787" lon="6.60709">
        <ele>1574</ele>
        <time>2018-01-24T13:50:54Z</time>
      </trkpt>
      <trkpt lat="46.19788" lon="6.60706">
        <ele>1574</ele>
        <time>2018-01-24T13:50:55Z</time>
      </trkpt>
      <trkpt lat="46.1979" lon="6.60702">
        <ele>1573</ele>
        <time>2018-01-24T13:50:56Z</time>
      </trkpt>
      <trkpt lat="46.19792" lon="6.60697">
        <ele>1572</ele>
        <time>2018-01-24T13:50:57Z</time>
      </trkpt>
      <trkpt lat="46.19795" lon="6.60694">
        <ele>1571</ele>
        <time>2018-01-24T13:50:58Z</time>
      </trkpt>
      <trkpt lat="46.19798" lon="6.60693">
        <ele>1571</ele>
        <time>2018-01-24T13:50:59Z</time>
      </trkpt>
      <trkpt lat="46.19802" lon="6.60694">
        <ele>1570</ele>
        <time>2018-01-24T13:51:00Z</time>
      </trkpt>
      <trkpt lat="46.19805" lon="6.60694">
        <ele>1569</ele>
        <time>2018-01-24T13:51:01Z</time>
      </trkpt>
      <trkpt lat="46.19807" lon="6.60691">
        <ele>1568</ele>
        <time>2018-01-24T13:51:02Z</time>
      </trkpt>
      <trkpt lat="46.19809" lon="6.60687">
        <ele>1567</ele>
        <time>2018-01-24T13:51:03Z</time>
      </trkpt>
      <trkpt lat="46.19812" lon="6.60685">
        <ele>1566</ele>
        <time>2018-01-24T13:51:04Z</time>
      </trkpt>
      <trkpt lat="46.19815" lon="6.60683">
        <ele>1564</ele>
        <time>2018-01-24T13:51:05Z</time>
      </trkpt>
      <trkpt lat="46.19816" lon="6.60679">
        <ele>1563</ele>
        <time>2018-01-24T13:51:06Z</time>
      </trkpt>
      <trkpt lat="46.19817" lon="6.60675">
        <ele>1561</ele>
        <time>2018-01-24T13:51:07Z</time>
      </trkpt>
      <trkpt lat="46.19818" lon="6.60669">
        <ele>1559</ele>
        <time>2018-01-24T13:51:08Z</time>
      </trkpt>
      <trkpt lat="46.19821" lon="6.60666">
        <ele>1551</ele>
        <time>2018-01-24T13:51:09Z</time>
      </trkpt>
      <trkpt lat="46.19824" lon="6.60663">
        <ele>1550</ele>
        <time>2018-01-24T13:51:10Z</time>
      </trkpt>
      <trkpt lat="46.19828" lon="6.60662">
        <ele>1549</ele>
        <time>2018-01-24T13:51:11Z</time>
      </trkpt>
      <trkpt lat="46.1983" lon="6.6066">
        <ele>1549</ele>
        <time>2018-01-24T13:51:12Z</time>
      </trkpt>
      <trkpt lat="46.19832" lon="6.60657">
        <ele>1549</ele>
        <time>2018-01-24T13:51:13Z</time>
      </trkpt>
      <trkpt lat="46.19832" lon="6.60654">
        <ele>1550</ele>
        <time>2018-01-24T13:51:14Z</time>
      </trkpt>
      <trkpt lat="46.19832" lon="6.6065">
        <ele>1550</ele>
        <time>2018-01-24T13:51:15Z</time>
      </trkpt>
      <trkpt lat="46.19834" lon="6.60649">
        <ele>1546</ele>
        <time>2018-01-24T13:51:16Z</time>
      </trkpt>
      <trkpt lat="46.19836" lon="6.60647">
        <ele>1546</ele>
        <time>2018-01-24T13:51:17Z</time>
      </trkpt>
      <trkpt lat="46.19838" lon="6.60644">
        <ele>1546</ele>
        <time>2018-01-24T13:51:18Z</time>
      </trkpt>
      <trkpt lat="46.1985" lon="6.60635">
        <ele>1546</ele>
        <time>2018-01-24T13:51:23Z</time>
      </trkpt>
      <trkpt lat="46.19852" lon="6.60634">
        <ele>1546</ele>
        <time>2018-01-24T13:51:24Z</time>
      </trkpt>
      <trkpt lat="46.19868" lon="6.60622">
        <ele>1546</ele>
        <time>2018-01-24T13:51:29Z</time>
      </trkpt>
      <trkpt lat="46.19868" lon="6.60618">
        <ele>1546</ele>
        <time>2018-01-24T13:51:30Z</time>
      </trkpt>
      <trkpt lat="46.19866" lon="6.60614">
        <ele>1545</ele>
        <time>2018-01-24T13:51:31Z</time>
      </trkpt>
      <trkpt lat="46.19864" lon="6.6061">
        <ele>1544</ele>
        <time>2018-01-24T13:51:32Z</time>
      </trkpt>
      <trkpt lat="46.19862" lon="6.60606">
        <ele>1543</ele>
        <time>2018-01-24T13:51:33Z</time>
      </trkpt>
      <trkpt lat="46.19862" lon="6.60601">
        <ele>1542</ele>
        <time>2018-01-24T13:51:34Z</time>
      </trkpt>
      <trkpt lat="46.19861" lon="6.60596">
        <ele>1542</ele>
        <time>2018-01-24T13:51:35Z</time>
      </trkpt>
      <trkpt lat="46.1986" lon="6.60593">
        <ele>1541</ele>
        <time>2018-01-24T13:51:36Z</time>
      </trkpt>
      <trkpt lat="46.19859" lon="6.6059">
        <ele>1540</ele>
        <time>2018-01-24T13:51:37Z</time>
      </trkpt>
      <trkpt lat="46.19857" lon="6.60585">
        <ele>1539</ele>
        <time>2018-01-24T13:51:38Z</time>
      </trkpt>
      <trkpt lat="46.19857" lon="6.60579">
        <ele>1532</ele>
        <time>2018-01-24T13:51:39Z</time>
      </trkpt>
      <trkpt lat="46.19858" lon="6.60575">
        <ele>1532</ele>
        <time>2018-01-24T13:51:40Z</time>
      </trkpt>
      <trkpt lat="46.19859" lon="6.60571">
        <ele>1532</ele>
        <time>2018-01-24T13:51:41Z</time>
      </trkpt>
      <trkpt lat="46.19859" lon="6.60566">
        <ele>1533</ele>
        <time>2018-01-24T13:51:42Z</time>
      </trkpt>
      <trkpt lat="46.19859" lon="6.60562">
        <ele>1533</ele>
        <time>2018-01-24T13:51:43Z</time>
      </trkpt>
      <trkpt lat="46.19859" lon="6.60558">
        <ele>1533</ele>
        <time>2018-01-24T13:51:44Z</time>
      </trkpt>
      <trkpt lat="46.19859" lon="6.60553">
        <ele>1533</ele>
        <time>2018-01-24T13:51:45Z</time>
      </trkpt>
      <trkpt lat="46.19859" lon="6.60549">
        <ele>1532</ele>
        <time>2018-01-24T13:51:46Z</time>
      </trkpt>
      <trkpt lat="46.1986" lon="6.60544">
        <ele>1532</ele>
        <time>2018-01-24T13:51:47Z</time>
      </trkpt>
      <trkpt lat="46.19861" lon="6.6054">
        <ele>1532</ele>
        <time>2018-01-24T13:51:48Z</time>
      </trkpt>
      <trkpt lat="46.19865" lon="6.60484">
        <ele>1525</ele>
        <time>2018-01-24T13:51:59Z</time>
      </trkpt>
      <trkpt lat="46.19866" lon="6.60478">
        <ele>1524</ele>
        <time>2018-01-24T13:52:00Z</time>
      </trkpt>
      <trkpt lat="46.19868" lon="6.60472">
        <ele>1524</ele>
        <time>2018-01-24T13:52:01Z</time>
      </trkpt>
      <trkpt lat="46.1987" lon="6.60453">
        <ele>1523</ele>
        <time>2018-01-24T13:52:05Z</time>
      </trkpt>
      <trkpt lat="46.19868" lon="6.6045">
        <ele>1522</ele>
        <time>2018-01-24T13:52:06Z</time>
      </trkpt>
      <trkpt lat="46.19866" lon="6.60445">
        <ele>1522</ele>
        <time>2018-01-24T13:52:07Z</time>
      </trkpt>
      <trkpt lat="46.19866" lon="6.6044">
        <ele>1521</ele>
        <time>2018-01-24T13:52:08Z</time>
      </trkpt>
      <trkpt lat="46.19867" lon="6.60436">
        <ele>1521</ele>
        <time>2018-01-24T13:52:09Z</time>
      </trkpt>
      <trkpt lat="46.19867" lon="6.60433">
        <ele>1521</ele>
        <time>2018-01-24T13:52:10Z</time>
      </trkpt>
      <trkpt lat="46.19868" lon="6.60431">
        <ele>1521</ele>
        <time>2018-01-24T13:52:11Z</time>
      </trkpt>
      <trkpt lat="46.19869" lon="6.60429">
        <ele>1521</ele>
        <time>2018-01-24T13:52:12Z</time>
      </trkpt>
      <trkpt lat="46.19867" lon="6.60432">
        <ele>1521</ele>
        <time>2018-01-24T13:52:18Z</time>
      </trkpt>
      <trkpt lat="46.19866" lon="6.60429">
        <ele>1520</ele>
        <time>2018-01-24T13:52:19Z</time>
      </trkpt>
      <trkpt lat="46.19864" lon="6.60422">
        <ele>1520</ele>
        <time>2018-01-24T13:52:21Z</time>
      </trkpt>
      <trkpt lat="46.19865" lon="6.60418">
        <ele>1519</ele>
        <time>2018-01-24T13:52:22Z</time>
      </trkpt>
      <trkpt lat="46.19865" lon="6.60414">
        <ele>1514</ele>
        <time>2018-01-24T13:52:23Z</time>
      </trkpt>
      <trkpt lat="46.19866" lon="6.60411">
        <ele>1514</ele>
        <time>2018-01-24T13:52:24Z</time>
      </trkpt>
      <trkpt lat="46.19866" lon="6.60409">
        <ele>1514</ele>
        <time>2018-01-24T13:52:25Z</time>
      </trkpt>
      <trkpt lat="46.19867" lon="6.60407">
        <ele>1514</ele>
        <time>2018-01-24T13:52:26Z</time>
      </trkpt>
      <trkpt lat="46.19867" lon="6.60404">
        <ele>1514</ele>
        <time>2018-01-24T13:52:27Z</time>
      </trkpt>
      <trkpt lat="46.19867" lon="6.60391">
        <ele>1514</ele>
        <time>2018-01-24T13:52:32Z</time>
      </trkpt>
      <trkpt lat="46.19865" lon="6.60372">
        <ele>1513</ele>
        <time>2018-01-24T13:52:36Z</time>
      </trkpt>
      <trkpt lat="46.19863" lon="6.60371">
        <ele>1513</ele>
        <time>2018-01-24T13:52:37Z</time>
      </trkpt>
      <trkpt lat="46.1986" lon="6.6037">
        <ele>1513</ele>
        <time>2018-01-24T13:52:38Z</time>
      </trkpt>
      <trkpt lat="46.19858" lon="6.60366">
        <ele>1512</ele>
        <time>2018-01-24T13:52:39Z</time>
      </trkpt>
      <trkpt lat="46.19856" lon="6.60361">
        <ele>1512</ele>
        <time>2018-01-24T13:52:40Z</time>
      </trkpt>
      <trkpt lat="46.19855" lon="6.60356">
        <ele>1512</ele>
        <time>2018-01-24T13:52:41Z</time>
      </trkpt>
      <trkpt lat="46.19855" lon="6.60353">
        <ele>1511</ele>
        <time>2018-01-24T13:52:42Z</time>
      </trkpt>
      <trkpt lat="46.19854" lon="6.6035">
        <ele>1511</ele>
        <time>2018-01-24T13:52:43Z</time>
      </trkpt>
      <trkpt lat="46.19853" lon="6.60347">
        <ele>1511</ele>
        <time>2018-01-24T13:52:44Z</time>
      </trkpt>
      <trkpt lat="46.19851" lon="6.60345">
        <ele>1510</ele>
        <time>2018-01-24T13:52:45Z</time>
      </trkpt>
      <trkpt lat="46.19849" lon="6.60342">
        <ele>1510</ele>
        <time>2018-01-24T13:52:46Z</time>
      </trkpt>
      <trkpt lat="46.19848" lon="6.60339">
        <ele>1509</ele>
        <time>2018-01-24T13:52:47Z</time>
      </trkpt>
      <trkpt lat="46.19846" lon="6.60336">
        <ele>1509</ele>
        <time>2018-01-24T13:52:48Z</time>
      </trkpt>
      <trkpt lat="46.19843" lon="6.60335">
        <ele>1508</ele>
        <time>2018-01-24T13:52:49Z</time>
      </trkpt>
      <trkpt lat="46.19842" lon="6.60334">
        <ele>1508</ele>
        <time>2018-01-24T13:52:50Z</time>
      </trkpt>
      <trkpt lat="46.1984" lon="6.60332">
        <ele>1506</ele>
        <time>2018-01-24T13:52:51Z</time>
      </trkpt>
      <trkpt lat="46.19837" lon="6.6033">
        <ele>1506</ele>
        <time>2018-01-24T13:52:52Z</time>
      </trkpt>
      <trkpt lat="46.19834" lon="6.60328">
        <ele>1506</ele>
        <time>2018-01-24T13:52:53Z</time>
      </trkpt>
      <trkpt lat="46.19832" lon="6.60323">
        <ele>1524</ele>
        <time>2018-01-24T13:52:54Z</time>
      </trkpt>
      <trkpt lat="46.1983" lon="6.60319">
        <ele>1530</ele>
        <time>2018-01-24T13:52:55Z</time>
      </trkpt>
      <trkpt lat="46.19827" lon="6.60316">
        <ele>1534</ele>
        <time>2018-01-24T13:52:56Z</time>
      </trkpt>
      <trkpt lat="46.19826" lon="6.60312">
        <ele>1538</ele>
        <time>2018-01-24T13:52:57Z</time>
      </trkpt>
      <trkpt lat="46.19825" lon="6.60307">
        <ele>1540</ele>
        <time>2018-01-24T13:52:58Z</time>
      </trkpt>
      <trkpt lat="46.19825" lon="6.60302">
        <ele>1542</ele>
        <time>2018-01-24T13:52:59Z</time>
      </trkpt>
      <trkpt lat="46.19825" lon="6.60298">
        <ele>1543</ele>
        <time>2018-01-24T13:53:00Z</time>
      </trkpt>
      <trkpt lat="46.19824" lon="6.60295">
        <ele>1543</ele>
        <time>2018-01-24T13:53:01Z</time>
      </trkpt>
      <trkpt lat="46.19825" lon="6.60288">
        <ele>1543</ele>
        <time>2018-01-24T13:53:06Z</time>
      </trkpt>
      <trkpt lat="46.19825" lon="6.60286">
        <ele>1542</ele>
        <time>2018-01-24T13:53:07Z</time>
      </trkpt>
      <trkpt lat="46.19825" lon="6.60284">
        <ele>1542</ele>
        <time>2018-01-24T13:53:08Z</time>
      </trkpt>
      <trkpt lat="46.19824" lon="6.60281">
        <ele>1541</ele>
        <time>2018-01-24T13:53:09Z</time>
      </trkpt>
      <trkpt lat="46.19821" lon="6.6028">
        <ele>1542</ele>
        <time>2018-01-24T13:53:10Z</time>
      </trkpt>
      <trkpt lat="46.1982" lon="6.60279">
        <ele>1542</ele>
        <time>2018-01-24T13:53:11Z</time>
      </trkpt>
      <trkpt lat="46.19819" lon="6.60278">
        <ele>1543</ele>
        <time>2018-01-24T13:53:12Z</time>
      </trkpt>
      <trkpt lat="46.19817" lon="6.60278">
        <ele>1543</ele>
        <time>2018-01-24T13:53:13Z</time>
      </trkpt>
      <trkpt lat="46.19817" lon="6.60277">
        <ele>1543</ele>
        <time>2018-01-24T13:53:14Z</time>
      </trkpt>
      <trkpt lat="46.19816" lon="6.60276">
        <ele>1543</ele>
        <time>2018-01-24T13:53:15Z</time>
      </trkpt>
      <trkpt lat="46.19816" lon="6.60275">
        <ele>1543</ele>
        <time>2018-01-24T13:53:16Z</time>
      </trkpt>
      <trkpt lat="46.19815" lon="6.60272">
        <ele>1542</ele>
        <time>2018-01-24T13:53:17Z</time>
      </trkpt>
      <trkpt lat="46.19813" lon="6.6027">
        <ele>1543</ele>
        <time>2018-01-24T13:53:18Z</time>
      </trkpt>
      <trkpt lat="46.19812" lon="6.60268">
        <ele>1543</ele>
        <time>2018-01-24T13:53:19Z</time>
      </trkpt>
      <trkpt lat="46.19811" lon="6.60267">
        <ele>1543</ele>
        <time>2018-01-24T13:53:20Z</time>
      </trkpt>
      <trkpt lat="46.19811" lon="6.60266">
        <ele>1543</ele>
        <time>2018-01-24T13:53:21Z</time>
      </trkpt>
      <trkpt lat="46.1981" lon="6.60265">
        <ele>1544</ele>
        <time>2018-01-24T13:53:23Z</time>
      </trkpt>
      <trkpt lat="46.1981" lon="6.60264">
        <ele>1543</ele>
        <time>2018-01-24T13:53:24Z</time>
      </trkpt>
      <trkpt lat="46.19809" lon="6.60262">
        <ele>1543</ele>
        <time>2018-01-24T13:53:25Z</time>
      </trkpt>
      <trkpt lat="46.19809" lon="6.6026">
        <ele>1543</ele>
        <time>2018-01-24T13:53:26Z</time>
      </trkpt>
      <trkpt lat="46.19808" lon="6.60258">
        <ele>1543</ele>
        <time>2018-01-24T13:53:27Z</time>
      </trkpt>
      <trkpt lat="46.19805" lon="6.60256">
        <ele>1546</ele>
        <time>2018-01-24T13:53:28Z</time>
      </trkpt>
      <trkpt lat="46.19804" lon="6.60255">
        <ele>1547</ele>
        <time>2018-01-24T13:53:29Z</time>
      </trkpt>
      <trkpt lat="46.19802" lon="6.60253">
        <ele>1548</ele>
        <time>2018-01-24T13:53:30Z</time>
      </trkpt>
      <trkpt lat="46.19801" lon="6.60253">
        <ele>1549</ele>
        <time>2018-01-24T13:53:31Z</time>
      </trkpt>
      <trkpt lat="46.19801" lon="6.60253">
        <ele>1549</ele>
        <time>2018-01-24T13:53:32Z</time>
      </trkpt>
      <trkpt lat="46.19801" lon="6.60252">
        <ele>1550</ele>
        <time>2018-01-24T13:53:33Z</time>
      </trkpt>
      <trkpt lat="46.198" lon="6.60251">
        <ele>1550</ele>
        <time>2018-01-24T13:53:34Z</time>
      </trkpt>
      <trkpt lat="46.19799" lon="6.60251">
        <ele>1551</ele>
        <time>2018-01-24T13:53:35Z</time>
      </trkpt>
      <trkpt lat="46.19799" lon="6.6025">
        <ele>1535</ele>
        <time>2018-01-24T13:53:36Z</time>
      </trkpt>
      <trkpt lat="46.19799" lon="6.60248">
        <ele>1535</ele>
        <time>2018-01-24T13:53:37Z</time>
      </trkpt>
      <trkpt lat="46.19797" lon="6.60246">
        <ele>1537</ele>
        <time>2018-01-24T13:53:38Z</time>
      </trkpt>
      <trkpt lat="46.19795" lon="6.60242">
        <ele>1538</ele>
        <time>2018-01-24T13:53:39Z</time>
      </trkpt>
      <trkpt lat="46.19794" lon="6.60237">
        <ele>1539</ele>
        <time>2018-01-24T13:53:40Z</time>
      </trkpt>
      <trkpt lat="46.19793" lon="6.60234">
        <ele>1539</ele>
        <time>2018-01-24T13:53:41Z</time>
      </trkpt>
      <trkpt lat="46.1979" lon="6.60233">
        <ele>1541</ele>
        <time>2018-01-24T13:53:42Z</time>
      </trkpt>
      <trkpt lat="46.19789" lon="6.60232">
        <ele>1542</ele>
        <time>2018-01-24T13:53:43Z</time>
      </trkpt>
      <trkpt lat="46.19799" lon="6.60227">
        <ele>1535</ele>
        <time>2018-01-24T13:54:01Z</time>
      </trkpt>
      <trkpt lat="46.19801" lon="6.60226">
        <ele>1533</ele>
        <time>2018-01-24T13:54:03Z</time>
      </trkpt>
      <trkpt lat="46.19806" lon="6.60226">
        <ele>1531</ele>
        <time>2018-01-24T13:54:08Z</time>
      </trkpt>
      <trkpt lat="46.19807" lon="6.60226">
        <ele>1530</ele>
        <time>2018-01-24T13:54:10Z</time>
      </trkpt>
      <trkpt lat="46.19807" lon="6.60228">
        <ele>1530</ele>
        <time>2018-01-24T13:54:17Z</time>
      </trkpt>
      <trkpt lat="46.19798" lon="6.60221">
        <ele>1535</ele>
        <time>2018-01-24T13:54:39Z</time>
      </trkpt>
      <trkpt lat="46.19799" lon="6.60219">
        <ele>1534</ele>
        <time>2018-01-24T13:54:40Z</time>
      </trkpt>
      <trkpt lat="46.19796" lon="6.60211">
        <ele>1534</ele>
        <time>2018-01-24T13:54:49Z</time>
      </trkpt>
      <trkpt lat="46.19797" lon="6.60206">
        <ele>1533</ele>
        <time>2018-01-24T13:55:06Z</time>
      </trkpt>
      <trkpt lat="46.19793" lon="6.60187">
        <ele>1532</ele>
        <time>2018-01-24T13:55:11Z</time>
      </trkpt>
      <trkpt lat="46.19792" lon="6.60181">
        <ele>1532</ele>
        <time>2018-01-24T13:55:12Z</time>
      </trkpt>
      <trkpt lat="46.19792" lon="6.60176">
        <ele>1531</ele>
        <time>2018-01-24T13:55:13Z</time>
      </trkpt>
      <trkpt lat="46.19791" lon="6.60173">
        <ele>1532</ele>
        <time>2018-01-24T13:55:14Z</time>
      </trkpt>
      <trkpt lat="46.1979" lon="6.6017">
        <ele>1532</ele>
        <time>2018-01-24T13:55:15Z</time>
      </trkpt>
      <trkpt lat="46.1979" lon="6.60166">
        <ele>1511</ele>
        <time>2018-01-24T13:55:16Z</time>
      </trkpt>
      <trkpt lat="46.19791" lon="6.60164">
        <ele>1511</ele>
        <time>2018-01-24T13:55:17Z</time>
      </trkpt>
      <trkpt lat="46.19791" lon="6.60162">
        <ele>1510</ele>
        <time>2018-01-24T13:55:18Z</time>
      </trkpt>
      <trkpt lat="46.1979" lon="6.60156">
        <ele>1510</ele>
        <time>2018-01-24T13:55:25Z</time>
      </trkpt>
      <trkpt lat="46.1979" lon="6.60155">
        <ele>1510</ele>
        <time>2018-01-24T13:55:26Z</time>
      </trkpt>
      <trkpt lat="46.19784" lon="6.60136">
        <ele>1507</ele>
        <time>2018-01-24T13:55:42Z</time>
      </trkpt>
      <trkpt lat="46.19784" lon="6.60127">
        <ele>1505</ele>
        <time>2018-01-24T13:55:46Z</time>
      </trkpt>
      <trkpt lat="46.19783" lon="6.60125">
        <ele>1505</ele>
        <time>2018-01-24T13:55:47Z</time>
      </trkpt>
      <trkpt lat="46.19783" lon="6.60122">
        <ele>1504</ele>
        <time>2018-01-24T13:55:48Z</time>
      </trkpt>
      <trkpt lat="46.1978" lon="6.60111">
        <ele>1501</ele>
        <time>2018-01-24T13:55:51Z</time>
      </trkpt>
      <trkpt lat="46.19779" lon="6.60107">
        <ele>1500</ele>
        <time>2018-01-24T13:55:52Z</time>
      </trkpt>
      <trkpt lat="46.19778" lon="6.60103">
        <ele>1499</ele>
        <time>2018-01-24T13:55:53Z</time>
      </trkpt>
      <trkpt lat="46.19773" lon="6.60078">
        <ele>1479</ele>
        <time>2018-01-24T13:55:59Z</time>
      </trkpt>
      <trkpt lat="46.19773" lon="6.60075">
        <ele>1479</ele>
        <time>2018-01-24T13:56:00Z</time>
      </trkpt>
      <trkpt lat="46.19771" lon="6.60073">
        <ele>1479</ele>
        <time>2018-01-24T13:56:01Z</time>
      </trkpt>
      <trkpt lat="46.19766" lon="6.60048">
        <ele>1475</ele>
        <time>2018-01-24T13:56:08Z</time>
      </trkpt>
      <trkpt lat="46.19767" lon="6.60026">
        <ele>1472</ele>
        <time>2018-01-24T13:56:18Z</time>
      </trkpt>
      <trkpt lat="46.19761" lon="6.60003">
        <ele>1470</ele>
        <time>2018-01-24T13:56:23Z</time>
      </trkpt>
      <trkpt lat="46.19759" lon="6.59995">
        <ele>1464</ele>
        <time>2018-01-24T13:56:27Z</time>
      </trkpt>
      <trkpt lat="46.19758" lon="6.5998">
        <ele>1460</ele>
        <time>2018-01-24T13:56:34Z</time>
      </trkpt>
      <trkpt lat="46.19758" lon="6.59971">
        <ele>1458</ele>
        <time>2018-01-24T13:56:39Z</time>
      </trkpt>
      <trkpt lat="46.19758" lon="6.5997">
        <ele>1458</ele>
        <time>2018-01-24T13:56:46Z</time>
      </trkpt>
      <trkpt lat="46.19757" lon="6.59969">
        <ele>1458</ele>
        <time>2018-01-24T13:56:56Z</time>
      </trkpt>
      <trkpt lat="46.19757" lon="6.59968">
        <ele>1458</ele>
        <time>2018-01-24T13:57:02Z</time>
      </trkpt>
      <trkpt lat="46.1976" lon="6.59968">
        <ele>1457</ele>
        <time>2018-01-24T13:57:20Z</time>
      </trkpt>
      <trkpt lat="46.19759" lon="6.59968">
        <ele>1457</ele>
        <time>2018-01-24T13:57:25Z</time>
      </trkpt>
      <trkpt lat="46.19759" lon="6.59968">
        <ele>1457</ele>
        <time>2018-01-24T13:57:27Z</time>
      </trkpt>
      <trkpt lat="46.1976" lon="6.59968">
        <ele>1457</ele>
        <time>2018-01-24T13:57:29Z</time>
      </trkpt>
      <trkpt lat="46.1976" lon="6.59967">
        <ele>1457</ele>
        <time>2018-01-24T13:57:31Z</time>
      </trkpt>
      <trkpt lat="46.19759" lon="6.59965">
        <ele>1457</ele>
        <time>2018-01-24T13:57:55Z</time>
      </trkpt>
      <trkpt lat="46.19758" lon="6.59965">
        <ele>1457</ele>
        <time>2018-01-24T13:57:56Z</time>
      </trkpt>
      <trkpt lat="46.19755" lon="6.59963">
        <ele>1457</ele>
        <time>2018-01-24T13:58:05Z</time>
      </trkpt>
      <trkpt lat="46.19755" lon="6.59963">
        <ele>1457</ele>
        <time>2018-01-24T13:58:09Z</time>
      </trkpt>
      <trkpt lat="46.19755" lon="6.59963">
        <ele>1457</ele>
        <time>2018-01-24T13:58:11Z</time>
      </trkpt>
      <trkpt lat="46.19755" lon="6.59964">
        <ele>1457</ele>
        <time>2018-01-24T13:58:13Z</time>
      </trkpt>
      <trkpt lat="46.19754" lon="6.59965">
        <ele>1457</ele>
        <time>2018-01-24T13:58:16Z</time>
      </trkpt>
      <trkpt lat="46.19753" lon="6.59966">
        <ele>1458</ele>
        <time>2018-01-24T13:58:19Z</time>
      </trkpt>
      <trkpt lat="46.19752" lon="6.59967">
        <ele>1458</ele>
        <time>2018-01-24T13:58:25Z</time>
      </trkpt>
      <trkpt lat="46.19751" lon="6.59968">
        <ele>1458</ele>
        <time>2018-01-24T13:58:34Z</time>
      </trkpt>
      <trkpt lat="46.19752" lon="6.59967">
        <ele>1458</ele>
        <time>2018-01-24T13:58:39Z</time>
      </trkpt>
      <trkpt lat="46.19755" lon="6.59967">
        <ele>1458</ele>
        <time>2018-01-24T13:58:42Z</time>
      </trkpt>
      <trkpt lat="46.19758" lon="6.59966">
        <ele>1457</ele>
        <time>2018-01-24T13:58:45Z</time>
      </trkpt>
      <trkpt lat="46.19759" lon="6.59966">
        <ele>1457</ele>
        <time>2018-01-24T13:58:46Z</time>
      </trkpt>
      <trkpt lat="46.19759" lon="6.59966">
        <ele>1457</ele>
        <time>2018-01-24T13:58:48Z</time>
      </trkpt>
      <trkpt lat="46.19762" lon="6.59967">
        <ele>1457</ele>
        <time>2018-01-24T13:58:54Z</time>
      </trkpt>
      <trkpt lat="46.19765" lon="6.59965">
        <ele>1456</ele>
        <time>2018-01-24T13:58:57Z</time>
      </trkpt>
      <trkpt lat="46.19767" lon="6.59963">
        <ele>1456</ele>
        <time>2018-01-24T13:58:58Z</time>
      </trkpt>
      <trkpt lat="46.19774" lon="6.59961">
        <ele>1455</ele>
        <time>2018-01-24T13:59:06Z</time>
      </trkpt>
      <trkpt lat="46.19773" lon="6.59957">
        <ele>1455</ele>
        <time>2018-01-24T13:59:08Z</time>
      </trkpt>
      <trkpt lat="46.19773" lon="6.59955">
        <ele>1455</ele>
        <time>2018-01-24T13:59:09Z</time>
      </trkpt>
      <trkpt lat="46.19774" lon="6.59953">
        <ele>1454</ele>
        <time>2018-01-24T13:59:13Z</time>
      </trkpt>
      <trkpt lat="46.19776" lon="6.59952">
        <ele>1454</ele>
        <time>2018-01-24T13:59:17Z</time>
      </trkpt>
      <trkpt lat="46.19777" lon="6.59951">
        <ele>1454</ele>
        <time>2018-01-24T13:59:18Z</time>
      </trkpt>
      <trkpt lat="46.19777" lon="6.5995">
        <ele>1454</ele>
        <time>2018-01-24T13:59:22Z</time>
      </trkpt>
      <trkpt lat="46.19777" lon="6.59945">
        <ele>1453</ele>
        <time>2018-01-24T13:59:26Z</time>
      </trkpt>
      <trkpt lat="46.19776" lon="6.59942">
        <ele>1453</ele>
        <time>2018-01-24T13:59:31Z</time>
      </trkpt>
      <trkpt lat="46.19777" lon="6.59941">
        <ele>1453</ele>
        <time>2018-01-24T13:59:34Z</time>
      </trkpt>
      <trkpt lat="46.19783" lon="6.59938">
        <ele>1452</ele>
        <time>2018-01-24T13:59:39Z</time>
      </trkpt>
      <trkpt lat="46.19783" lon="6.59936">
        <ele>1452</ele>
        <time>2018-01-24T13:59:40Z</time>
      </trkpt>
      <trkpt lat="46.19784" lon="6.59935">
        <ele>1452</ele>
        <time>2018-01-24T13:59:41Z</time>
      </trkpt>
      <trkpt lat="46.19784" lon="6.59934">
        <ele>1451</ele>
        <time>2018-01-24T13:59:42Z</time>
      </trkpt>
      <trkpt lat="46.19784" lon="6.59933">
        <ele>1451</ele>
        <time>2018-01-24T13:59:43Z</time>
      </trkpt>
      <trkpt lat="46.19784" lon="6.59932">
        <ele>1451</ele>
        <time>2018-01-24T13:59:44Z</time>
      </trkpt>
      <trkpt lat="46.19784" lon="6.59923">
        <ele>1451</ele>
        <time>2018-01-24T13:59:50Z</time>
      </trkpt>
      <trkpt lat="46.19784" lon="6.59912">
        <ele>1437</ele>
        <time>2018-01-24T13:59:56Z</time>
      </trkpt>
      <trkpt lat="46.19784" lon="6.59911">
        <ele>1437</ele>
        <time>2018-01-24T13:59:58Z</time>
      </trkpt>
      <trkpt lat="46.19783" lon="6.59909">
        <ele>1437</ele>
        <time>2018-01-24T13:59:59Z</time>
      </trkpt>
      <trkpt lat="46.19778" lon="6.59895">
        <ele>1437</ele>
        <time>2018-01-24T14:00:05Z</time>
      </trkpt>
      <trkpt lat="46.19772" lon="6.59881">
        <ele>1435</ele>
        <time>2018-01-24T14:00:10Z</time>
      </trkpt>
      <trkpt lat="46.19771" lon="6.59877">
        <ele>1434</ele>
        <time>2018-01-24T14:00:13Z</time>
      </trkpt>
      <trkpt lat="46.1977" lon="6.59875">
        <ele>1434</ele>
        <time>2018-01-24T14:00:14Z</time>
      </trkpt>
      <trkpt lat="46.19769" lon="6.59874">
        <ele>1434</ele>
        <time>2018-01-24T14:00:15Z</time>
      </trkpt>
      <trkpt lat="46.1977" lon="6.59871">
        <ele>1433</ele>
        <time>2018-01-24T14:00:18Z</time>
      </trkpt>
      <trkpt lat="46.19768" lon="6.59868">
        <ele>1433</ele>
        <time>2018-01-24T14:00:19Z</time>
      </trkpt>
      <trkpt lat="46.19766" lon="6.59865">
        <ele>1433</ele>
        <time>2018-01-24T14:00:20Z</time>
      </trkpt>
      <trkpt lat="46.19762" lon="6.59851">
        <ele>1432</ele>
        <time>2018-01-24T14:00:25Z</time>
      </trkpt>
      <trkpt lat="46.19756" lon="6.59842">
        <ele>1432</ele>
        <time>2018-01-24T14:00:28Z</time>
      </trkpt>
      <trkpt lat="46.19754" lon="6.59837">
        <ele>1432</ele>
        <time>2018-01-24T14:00:29Z</time>
      </trkpt>
      <trkpt lat="46.19753" lon="6.59834">
        <ele>1432</ele>
        <time>2018-01-24T14:00:30Z</time>
      </trkpt>
      <trkpt lat="46.19752" lon="6.59831">
        <ele>1429</ele>
        <time>2018-01-24T14:00:31Z</time>
      </trkpt>
      <trkpt lat="46.19751" lon="6.5983">
        <ele>1429</ele>
        <time>2018-01-24T14:00:32Z</time>
      </trkpt>
      <trkpt lat="46.19752" lon="6.59829">
        <ele>1428</ele>
        <time>2018-01-24T14:00:39Z</time>
      </trkpt>
      <trkpt lat="46.19753" lon="6.59828">
        <ele>1427</ele>
        <time>2018-01-24T14:00:42Z</time>
      </trkpt>
      <trkpt lat="46.19752" lon="6.59823">
        <ele>1423</ele>
        <time>2018-01-24T14:00:49Z</time>
      </trkpt>
      <trkpt lat="46.19754" lon="6.59821">
        <ele>1422</ele>
        <time>2018-01-24T14:00:56Z</time>
      </trkpt>
      <trkpt lat="46.19754" lon="6.5982">
        <ele>1422</ele>
        <time>2018-01-24T14:01:00Z</time>
      </trkpt>
      <trkpt lat="46.19755" lon="6.59818">
        <ele>1421</ele>
        <time>2018-01-24T14:01:08Z</time>
      </trkpt>
      <trkpt lat="46.19758" lon="6.59818">
        <ele>1420</ele>
        <time>2018-01-24T14:01:10Z</time>
      </trkpt>
      <trkpt lat="46.19763" lon="6.59816">
        <ele>1418</ele>
        <time>2018-01-24T14:01:16Z</time>
      </trkpt>
      <trkpt lat="46.19764" lon="6.59815">
        <ele>1417</ele>
        <time>2018-01-24T14:01:17Z</time>
      </trkpt>
      <trkpt lat="46.19765" lon="6.59813">
        <ele>1417</ele>
        <time>2018-01-24T14:01:18Z</time>
      </trkpt>
      <trkpt lat="46.19765" lon="6.59812">
        <ele>1416</ele>
        <time>2018-01-24T14:01:19Z</time>
      </trkpt>
      <trkpt lat="46.19765" lon="6.59811">
        <ele>1416</ele>
        <time>2018-01-24T14:01:20Z</time>
      </trkpt>
      <trkpt lat="46.19764" lon="6.59809">
        <ele>1416</ele>
        <time>2018-01-24T14:01:22Z</time>
      </trkpt>
      <trkpt lat="46.19764" lon="6.59808">
        <ele>1415</ele>
        <time>2018-01-24T14:01:23Z</time>
      </trkpt>
      <trkpt lat="46.19763" lon="6.59807">
        <ele>1415</ele>
        <time>2018-01-24T14:01:24Z</time>
      </trkpt>
      <trkpt lat="46.19758" lon="6.59804">
        <ele>1415</ele>
        <time>2018-01-24T14:01:30Z</time>
      </trkpt>
      <trkpt lat="46.19756" lon="6.59803">
        <ele>1415</ele>
        <time>2018-01-24T14:01:33Z</time>
      </trkpt>
      <trkpt lat="46.19753" lon="6.59801">
        <ele>1415</ele>
        <time>2018-01-24T14:01:36Z</time>
      </trkpt>
      <trkpt lat="46.1974" lon="6.59791">
        <ele>1425</ele>
        <time>2018-01-24T14:01:43Z</time>
      </trkpt>
      <trkpt lat="46.19726" lon="6.59777">
        <ele>1423</ele>
        <time>2018-01-24T14:01:46Z</time>
      </trkpt>
      <trkpt lat="46.19708" lon="6.5976">
        <ele>1423</ele>
        <time>2018-01-24T14:01:51Z</time>
      </trkpt>
      <trkpt lat="46.19706" lon="6.59758">
        <ele>1423</ele>
        <time>2018-01-24T14:01:53Z</time>
      </trkpt>
      <trkpt lat="46.19702" lon="6.59755">
        <ele>1423</ele>
        <time>2018-01-24T14:01:59Z</time>
      </trkpt>
      <trkpt lat="46.197" lon="6.59749">
        <ele>1406</ele>
        <time>2018-01-24T14:02:02Z</time>
      </trkpt>
      <trkpt lat="46.19699" lon="6.59747">
        <ele>1406</ele>
        <time>2018-01-24T14:02:04Z</time>
      </trkpt>
      <trkpt lat="46.19695" lon="6.59741">
        <ele>1406</ele>
        <time>2018-01-24T14:02:28Z</time>
      </trkpt>
      <trkpt lat="46.19695" lon="6.59742">
        <ele>1407</ele>
        <time>2018-01-24T14:02:29Z</time>
      </trkpt>
      <trkpt lat="46.19695" lon="6.59744">
        <ele>1407</ele>
        <time>2018-01-24T14:02:34Z</time>
      </trkpt>
      <trkpt lat="46.19696" lon="6.59745">
        <ele>1407</ele>
        <time>2018-01-24T14:02:40Z</time>
      </trkpt>
      <trkpt lat="46.19696" lon="6.59744">
        <ele>1407</ele>
        <time>2018-01-24T14:02:45Z</time>
      </trkpt>
      <trkpt lat="46.19696" lon="6.59743">
        <ele>1406</ele>
        <time>2018-01-24T14:02:48Z</time>
      </trkpt>
      <trkpt lat="46.19697" lon="6.59743">
        <ele>1406</ele>
        <time>2018-01-24T14:02:51Z</time>
      </trkpt>
      <trkpt lat="46.19697" lon="6.59742">
        <ele>1406</ele>
        <time>2018-01-24T14:02:56Z</time>
      </trkpt>
      <trkpt lat="46.19698" lon="6.59741">
        <ele>1406</ele>
        <time>2018-01-24T14:03:00Z</time>
      </trkpt>
      <trkpt lat="46.19699" lon="6.59741">
        <ele>1406</ele>
        <time>2018-01-24T14:03:09Z</time>
      </trkpt>
      <trkpt lat="46.19699" lon="6.5974">
        <ele>1406</ele>
        <time>2018-01-24T14:03:13Z</time>
      </trkpt>
      <trkpt lat="46.19699" lon="6.59741">
        <ele>1406</ele>
        <time>2018-01-24T14:03:18Z</time>
      </trkpt>
      <trkpt lat="46.19698" lon="6.59743">
        <ele>1406</ele>
        <time>2018-01-24T14:03:25Z</time>
      </trkpt>
      <trkpt lat="46.19698" lon="6.59744">
        <ele>1406</ele>
        <time>2018-01-24T14:03:32Z</time>
      </trkpt>
      <trkpt lat="46.19698" lon="6.59745">
        <ele>1406</ele>
        <time>2018-01-24T14:03:37Z</time>
      </trkpt>
      <trkpt lat="46.19696" lon="6.59743">
        <ele>1406</ele>
        <time>2018-01-24T14:03:46Z</time>
      </trkpt>
      <trkpt lat="46.19696" lon="6.59741">
        <ele>1406</ele>
        <time>2018-01-24T14:03:50Z</time>
      </trkpt>
      <trkpt lat="46.19693" lon="6.59737">
        <ele>1406</ele>
        <time>2018-01-24T14:04:04Z</time>
      </trkpt>
      <trkpt lat="46.19693" lon="6.59738">
        <ele>1406</ele>
        <time>2018-01-24T14:04:21Z</time>
      </trkpt>
      <trkpt lat="46.19695" lon="6.59741">
        <ele>1406</ele>
        <time>2018-01-24T14:04:32Z</time>
      </trkpt>
      <trkpt lat="46.19695" lon="6.59739">
        <ele>1406</ele>
        <time>2018-01-24T14:05:04Z</time>
      </trkpt>
      <trkpt lat="46.19695" lon="6.59739">
        <ele>1406</ele>
        <time>2018-01-24T14:05:05Z</time>
      </trkpt>
      <trkpt lat="46.19695" lon="6.59739">
        <ele>1406</ele>
        <time>2018-01-24T14:05:07Z</time>
      </trkpt>
      <trkpt lat="46.19694" lon="6.5974">
        <ele>1407</ele>
        <time>2018-01-24T14:05:14Z</time>
      </trkpt>
      <trkpt lat="46.19694" lon="6.59744">
        <ele>1407</ele>
        <time>2018-01-24T14:05:24Z</time>
      </trkpt>
      <trkpt lat="46.19694" lon="6.59744">
        <ele>1407</ele>
        <time>2018-01-24T14:05:34Z</time>
      </trkpt>
      <trkpt lat="46.19693" lon="6.59744">
        <ele>1407</ele>
        <time>2018-01-24T14:05:42Z</time>
      </trkpt>
      <trkpt lat="46.19693" lon="6.5974">
        <ele>1407</ele>
        <time>2018-01-24T14:05:53Z</time>
      </trkpt>
      <trkpt lat="46.19693" lon="6.5974">
        <ele>1407</ele>
        <time>2018-01-24T14:05:55Z</time>
      </trkpt>
      <trkpt lat="46.19694" lon="6.59742">
        <ele>1407</ele>
        <time>2018-01-24T14:06:28Z</time>
      </trkpt>
      <trkpt lat="46.19694" lon="6.59743">
        <ele>1407</ele>
        <time>2018-01-24T14:06:34Z</time>
      </trkpt>
      <trkpt lat="46.19697" lon="6.59748">
        <ele>1407</ele>
        <time>2018-01-24T14:06:47Z</time>
      </trkpt>
      <trkpt lat="46.19697" lon="6.59749">
        <ele>1407</ele>
        <time>2018-01-24T14:06:55Z</time>
      </trkpt>
      <trkpt lat="46.19698" lon="6.5975">
        <ele>1423</ele>
        <time>2018-01-24T14:06:56Z</time>
      </trkpt>
      <trkpt lat="46.19697" lon="6.59751">
        <ele>1423</ele>
        <time>2018-01-24T14:07:01Z</time>
      </trkpt>
      <trkpt lat="46.19697" lon="6.59747">
        <ele>1407</ele>
        <time>2018-01-24T14:07:14Z</time>
      </trkpt>
      <trkpt lat="46.19697" lon="6.59745">
        <ele>1406</ele>
        <time>2018-01-24T14:07:18Z</time>
      </trkpt>
      <trkpt lat="46.19696" lon="6.59745">
        <ele>1407</ele>
        <time>2018-01-24T14:07:30Z</time>
      </trkpt>
      <trkpt lat="46.19697" lon="6.59743">
        <ele>1406</ele>
        <time>2018-01-24T14:07:40Z</time>
      </trkpt>
      <trkpt lat="46.19697" lon="6.5974">
        <ele>1406</ele>
        <time>2018-01-24T14:07:46Z</time>
      </trkpt>
      <trkpt lat="46.19695" lon="6.59741">
        <ele>1406</ele>
        <time>2018-01-24T14:07:57Z</time>
      </trkpt>
      <trkpt lat="46.19692" lon="6.59741">
        <ele>1407</ele>
        <time>2018-01-24T14:08:02Z</time>
      </trkpt>
      <trkpt lat="46.1969" lon="6.59741">
        <ele>1408</ele>
        <time>2018-01-24T14:08:15Z</time>
      </trkpt>
      <trkpt lat="46.19688" lon="6.5974">
        <ele>1408</ele>
        <time>2018-01-24T14:08:19Z</time>
      </trkpt>
      <trkpt lat="46.19685" lon="6.59741">
        <ele>1409</ele>
        <time>2018-01-24T14:08:23Z</time>
      </trkpt>
      <trkpt lat="46.19684" lon="6.59742">
        <ele>1410</ele>
        <time>2018-01-24T14:08:26Z</time>
      </trkpt>
      <trkpt lat="46.19682" lon="6.59743">
        <ele>1410</ele>
        <time>2018-01-24T14:08:29Z</time>
      </trkpt>
      <trkpt lat="46.19679" lon="6.59743">
        <ele>1411</ele>
        <time>2018-01-24T14:08:33Z</time>
      </trkpt>
      <trkpt lat="46.19677" lon="6.59743">
        <ele>1412</ele>
        <time>2018-01-24T14:08:36Z</time>
      </trkpt>
      <trkpt lat="46.19674" lon="6.59743">
        <ele>1413</ele>
        <time>2018-01-24T14:08:41Z</time>
      </trkpt>
      <trkpt lat="46.19671" lon="6.59744">
        <ele>1415</ele>
        <time>2018-01-24T14:08:46Z</time>
      </trkpt>
      <trkpt lat="46.19667" lon="6.59745">
        <ele>1417</ele>
        <time>2018-01-24T14:08:52Z</time>
      </trkpt>
      <trkpt lat="46.19654" lon="6.59747">
        <ele>1420</ele>
        <time>2018-01-24T14:09:06Z</time>
      </trkpt>
      <trkpt lat="46.19653" lon="6.59748">
        <ele>1420</ele>
        <time>2018-01-24T14:09:12Z</time>
      </trkpt>
      <trkpt lat="46.1963" lon="6.59745">
        <ele>1422</ele>
        <time>2018-01-24T14:09:37Z</time>
      </trkpt>
      <trkpt lat="46.19618" lon="6.59746">
        <ele>1425</ele>
        <time>2018-01-24T14:09:54Z</time>
      </trkpt>
      <trkpt lat="46.19606" lon="6.59743">
        <ele>1427</ele>
        <time>2018-01-24T14:10:09Z</time>
      </trkpt>
      <trkpt lat="46.19584" lon="6.59733">
        <ele>1430</ele>
        <time>2018-01-24T14:10:34Z</time>
      </trkpt>
      <trkpt lat="46.19572" lon="6.59725">
        <ele>1443</ele>
        <time>2018-01-24T14:10:47Z</time>
      </trkpt>
      <trkpt lat="46.19554" lon="6.59721">
        <ele>1445</ele>
        <time>2018-01-24T14:11:04Z</time>
      </trkpt>
      <trkpt lat="46.1955" lon="6.59719">
        <ele>1446</ele>
        <time>2018-01-24T14:11:12Z</time>
      </trkpt>
      <trkpt lat="46.19551" lon="6.59706">
        <ele>1445</ele>
        <time>2018-01-24T14:11:24Z</time>
      </trkpt>
      <trkpt lat="46.19549" lon="6.59685">
        <ele>1443</ele>
        <time>2018-01-24T14:11:42Z</time>
      </trkpt>
      <trkpt lat="46.19545" lon="6.59686">
        <ele>1444</ele>
        <time>2018-01-24T14:11:50Z</time>
      </trkpt>
      <trkpt lat="46.19536" lon="6.59692">
        <ele>1446</ele>
        <time>2018-01-24T14:12:05Z</time>
      </trkpt>
      <trkpt lat="46.19527" lon="6.59703">
        <ele>1448</ele>
        <time>2018-01-24T14:12:19Z</time>
      </trkpt>
      <trkpt lat="46.19525" lon="6.59705">
        <ele>1449</ele>
        <time>2018-01-24T14:12:24Z</time>
      </trkpt>
      <trkpt lat="46.19513" lon="6.59696">
        <ele>1450</ele>
        <time>2018-01-24T14:12:39Z</time>
      </trkpt>
      <trkpt lat="46.19503" lon="6.59689">
        <ele>1451</ele>
        <time>2018-01-24T14:12:52Z</time>
      </trkpt>
      <trkpt lat="46.195" lon="6.59688">
        <ele>1464</ele>
        <time>2018-01-24T14:12:56Z</time>
      </trkpt>
      <trkpt lat="46.19484" lon="6.59685">
        <ele>1465</ele>
        <time>2018-01-24T14:13:14Z</time>
      </trkpt>
      <trkpt lat="46.19471" lon="6.59686">
        <ele>1467</ele>
        <time>2018-01-24T14:13:30Z</time>
      </trkpt>
      <trkpt lat="46.1946" lon="6.59675">
        <ele>1468</ele>
        <time>2018-01-24T14:13:47Z</time>
      </trkpt>
      <trkpt lat="46.19452" lon="6.59667">
        <ele>1470</ele>
        <time>2018-01-24T14:14:02Z</time>
      </trkpt>
      <trkpt lat="46.19448" lon="6.59664">
        <ele>1472</ele>
        <time>2018-01-24T14:14:08Z</time>
      </trkpt>
      <trkpt lat="46.19433" lon="6.59662">
        <ele>1474</ele>
        <time>2018-01-24T14:14:24Z</time>
      </trkpt>
      <trkpt lat="46.19419" lon="6.59654">
        <ele>1474</ele>
        <time>2018-01-24T14:14:42Z</time>
      </trkpt>
      <trkpt lat="46.19415" lon="6.59656">
        <ele>1482</ele>
        <time>2018-01-24T14:14:47Z</time>
      </trkpt>
      <trkpt lat="46.19407" lon="6.59656">
        <ele>1484</ele>
        <time>2018-01-24T14:14:59Z</time>
      </trkpt>
      <trkpt lat="46.19396" lon="6.5966">
        <ele>1486</ele>
        <time>2018-01-24T14:15:14Z</time>
      </trkpt>
      <trkpt lat="46.1939" lon="6.59662">
        <ele>1488</ele>
        <time>2018-01-24T14:15:22Z</time>
      </trkpt>
      <trkpt lat="46.1939" lon="6.59661">
        <ele>1488</ele>
        <time>2018-01-24T14:15:23Z</time>
      </trkpt>
      <trkpt lat="46.19389" lon="6.59659">
        <ele>1489</ele>
        <time>2018-01-24T14:15:25Z</time>
      </trkpt>
      <trkpt lat="46.19388" lon="6.59658">
        <ele>1489</ele>
        <time>2018-01-24T14:15:27Z</time>
      </trkpt>
      <trkpt lat="46.19386" lon="6.59656">
        <ele>1490</ele>
        <time>2018-01-24T14:15:30Z</time>
      </trkpt>
      <trkpt lat="46.19386" lon="6.59655">
        <ele>1490</ele>
        <time>2018-01-24T14:15:31Z</time>
      </trkpt>
      <trkpt lat="46.19385" lon="6.59655">
        <ele>1490</ele>
        <time>2018-01-24T14:15:32Z</time>
      </trkpt>
      <trkpt lat="46.19377" lon="6.59645">
        <ele>1492</ele>
        <time>2018-01-24T14:15:46Z</time>
      </trkpt>
      <trkpt lat="46.19372" lon="6.59645">
        <ele>1493</ele>
        <time>2018-01-24T14:15:51Z</time>
      </trkpt>
      <trkpt lat="46.19361" lon="6.59642">
        <ele>1495</ele>
        <time>2018-01-24T14:16:05Z</time>
      </trkpt>
      <trkpt lat="46.19351" lon="6.59639">
        <ele>1497</ele>
        <time>2018-01-24T14:16:19Z</time>
      </trkpt>
      <trkpt lat="46.19348" lon="6.59635">
        <ele>1497</ele>
        <time>2018-01-24T14:16:25Z</time>
      </trkpt>
      <trkpt lat="46.19339" lon="6.59623">
        <ele>1498</ele>
        <time>2018-01-24T14:16:37Z</time>
      </trkpt>
      <trkpt lat="46.19332" lon="6.5961">
        <ele>1512</ele>
        <time>2018-01-24T14:16:48Z</time>
      </trkpt>
      <trkpt lat="46.19331" lon="6.59608">
        <ele>1512</ele>
        <time>2018-01-24T14:16:49Z</time>
      </trkpt>
      <trkpt lat="46.19331" lon="6.59607">
        <ele>1511</ele>
        <time>2018-01-24T14:16:50Z</time>
      </trkpt>
      <trkpt lat="46.1933" lon="6.59606">
        <ele>1511</ele>
        <time>2018-01-24T14:16:51Z</time>
      </trkpt>
      <trkpt lat="46.19329" lon="6.59605">
        <ele>1511</ele>
        <time>2018-01-24T14:16:52Z</time>
      </trkpt>
      <trkpt lat="46.1933" lon="6.59603">
        <ele>1511</ele>
        <time>2018-01-24T14:16:53Z</time>
      </trkpt>
      <trkpt lat="46.1933" lon="6.59602">
        <ele>1511</ele>
        <time>2018-01-24T14:16:54Z</time>
      </trkpt>
      <trkpt lat="46.19329" lon="6.59601">
        <ele>1510</ele>
        <time>2018-01-24T14:16:56Z</time>
      </trkpt>
      <trkpt lat="46.19328" lon="6.596">
        <ele>1510</ele>
        <time>2018-01-24T14:16:57Z</time>
      </trkpt>
      <trkpt lat="46.19328" lon="6.59592">
        <ele>1509</ele>
        <time>2018-01-24T14:17:06Z</time>
      </trkpt>
      <trkpt lat="46.19326" lon="6.59591">
        <ele>1509</ele>
        <time>2018-01-24T14:17:07Z</time>
      </trkpt>
      <trkpt lat="46.19325" lon="6.59589">
        <ele>1509</ele>
        <time>2018-01-24T14:17:09Z</time>
      </trkpt>
      <trkpt lat="46.19324" lon="6.59587">
        <ele>1509</ele>
        <time>2018-01-24T14:17:12Z</time>
      </trkpt>
      <trkpt lat="46.19312" lon="6.5958">
        <ele>1515</ele>
        <time>2018-01-24T14:17:27Z</time>
      </trkpt>
      <trkpt lat="46.19308" lon="6.59578">
        <ele>1516</ele>
        <time>2018-01-24T14:17:31Z</time>
      </trkpt>
      <trkpt lat="46.19307" lon="6.59577">
        <ele>1517</ele>
        <time>2018-01-24T14:17:32Z</time>
      </trkpt>
      <trkpt lat="46.1929" lon="6.59574">
        <ele>1520</ele>
        <time>2018-01-24T14:17:50Z</time>
      </trkpt>
      <trkpt lat="46.19277" lon="6.5957">
        <ele>1522</ele>
        <time>2018-01-24T14:18:04Z</time>
      </trkpt>
      <trkpt lat="46.19267" lon="6.59567">
        <ele>1522</ele>
        <time>2018-01-24T14:18:16Z</time>
      </trkpt>
      <trkpt lat="46.19253" lon="6.59564">
        <ele>1523</ele>
        <time>2018-01-24T14:18:34Z</time>
      </trkpt>
      <trkpt lat="46.1924" lon="6.59561">
        <ele>1531</ele>
        <time>2018-01-24T14:18:49Z</time>
      </trkpt>
      <trkpt lat="46.19221" lon="6.59556">
        <ele>1534</ele>
        <time>2018-01-24T14:19:10Z</time>
      </trkpt>
      <trkpt lat="46.19206" lon="6.59545">
        <ele>1536</ele>
        <time>2018-01-24T14:19:28Z</time>
      </trkpt>
      <trkpt lat="46.19194" lon="6.59536">
        <ele>1537</ele>
        <time>2018-01-24T14:19:46Z</time>
      </trkpt>
      <trkpt lat="46.1918" lon="6.59529">
        <ele>1537</ele>
        <time>2018-01-24T14:20:02Z</time>
      </trkpt>
      <trkpt lat="46.19166" lon="6.59517">
        <ele>1550</ele>
        <time>2018-01-24T14:20:16Z</time>
      </trkpt>
      <trkpt lat="46.19145" lon="6.59492">
        <ele>1552</ele>
        <time>2018-01-24T14:20:42Z</time>
      </trkpt>
      <trkpt lat="46.19134" lon="6.59484">
        <ele>1556</ele>
        <time>2018-01-24T14:20:54Z</time>
      </trkpt>
      <trkpt lat="46.19128" lon="6.59477">
        <ele>1558</ele>
        <time>2018-01-24T14:21:05Z</time>
      </trkpt>
      <trkpt lat="46.19116" lon="6.59463">
        <ele>1560</ele>
        <time>2018-01-24T14:21:23Z</time>
      </trkpt>
      <trkpt lat="46.1911" lon="6.59453">
        <ele>1561</ele>
        <time>2018-01-24T14:21:35Z</time>
      </trkpt>
      <trkpt lat="46.19103" lon="6.59454">
        <ele>1561</ele>
        <time>2018-01-24T14:21:49Z</time>
      </trkpt>
      <trkpt lat="46.19102" lon="6.59456">
        <ele>1561</ele>
        <time>2018-01-24T14:21:52Z</time>
      </trkpt>
      <trkpt lat="46.19099" lon="6.59457">
        <ele>1562</ele>
        <time>2018-01-24T14:21:55Z</time>
      </trkpt>
      <trkpt lat="46.19098" lon="6.59457">
        <ele>1562</ele>
        <time>2018-01-24T14:21:56Z</time>
      </trkpt>
      <trkpt lat="46.19089" lon="6.59456">
        <ele>1562</ele>
        <time>2018-01-24T14:22:10Z</time>
      </trkpt>
      <trkpt lat="46.19079" lon="6.59451">
        <ele>1573</ele>
        <time>2018-01-24T14:22:24Z</time>
      </trkpt>
      <trkpt lat="46.19066" lon="6.59449">
        <ele>1574</ele>
        <time>2018-01-24T14:22:41Z</time>
      </trkpt>
      <trkpt lat="46.1905" lon="6.59446">
        <ele>1576</ele>
        <time>2018-01-24T14:23:00Z</time>
      </trkpt>
      <trkpt lat="46.19049" lon="6.59446">
        <ele>1576</ele>
        <time>2018-01-24T14:23:01Z</time>
      </trkpt>
      <trkpt lat="46.19033" lon="6.59445">
        <ele>1577</ele>
        <time>2018-01-24T14:23:18Z</time>
      </trkpt>
      <trkpt lat="46.19022" lon="6.59444">
        <ele>1578</ele>
        <time>2018-01-24T14:23:30Z</time>
      </trkpt>
      <trkpt lat="46.19003" lon="6.59447">
        <ele>1579</ele>
        <time>2018-01-24T14:23:50Z</time>
      </trkpt>
      <trkpt lat="46.19001" lon="6.59448">
        <ele>1579</ele>
        <time>2018-01-24T14:23:52Z</time>
      </trkpt>
      <trkpt lat="46.18999" lon="6.59448">
        <ele>1589</ele>
        <time>2018-01-24T14:23:53Z</time>
      </trkpt>
      <trkpt lat="46.1898" lon="6.59452">
        <ele>1591</ele>
        <time>2018-01-24T14:24:15Z</time>
      </trkpt>
      <trkpt lat="46.18959" lon="6.59454">
        <ele>1594</ele>
        <time>2018-01-24T14:24:39Z</time>
      </trkpt>
      <trkpt lat="46.18947" lon="6.59451">
        <ele>1594</ele>
        <time>2018-01-24T14:24:55Z</time>
      </trkpt>
      <trkpt lat="46.18941" lon="6.59448">
        <ele>1594</ele>
        <time>2018-01-24T14:25:02Z</time>
      </trkpt>
      <trkpt lat="46.18924" lon="6.59446">
        <ele>1595</ele>
        <time>2018-01-24T14:25:18Z</time>
      </trkpt>
      <trkpt lat="46.18907" lon="6.59439">
        <ele>1603</ele>
        <time>2018-01-24T14:25:39Z</time>
      </trkpt>
      <trkpt lat="46.18898" lon="6.59437">
        <ele>1604</ele>
        <time>2018-01-24T14:25:50Z</time>
      </trkpt>
      <trkpt lat="46.18878" lon="6.59433">
        <ele>1607</ele>
        <time>2018-01-24T14:26:13Z</time>
      </trkpt>
      <trkpt lat="46.18848" lon="6.59433">
        <ele>1609</ele>
        <time>2018-01-24T14:26:43Z</time>
      </trkpt>
      <trkpt lat="46.18838" lon="6.59432">
        <ele>1609</ele>
        <time>2018-01-24T14:26:56Z</time>
      </trkpt>
      <trkpt lat="46.1882" lon="6.59433">
        <ele>1618</ele>
        <time>2018-01-24T14:27:15Z</time>
      </trkpt>
      <trkpt lat="46.18807" lon="6.59437">
        <ele>1620</ele>
        <time>2018-01-24T14:27:32Z</time>
      </trkpt>
      <trkpt lat="46.18791" lon="6.5944">
        <ele>1623</ele>
        <time>2018-01-24T14:27:51Z</time>
      </trkpt>
      <trkpt lat="46.18775" lon="6.59444">
        <ele>1624</ele>
        <time>2018-01-24T14:28:09Z</time>
      </trkpt>
      <trkpt lat="46.1876" lon="6.59445">
        <ele>1625</ele>
        <time>2018-01-24T14:28:26Z</time>
      </trkpt>
      <trkpt lat="46.18756" lon="6.59447">
        <ele>1626</ele>
        <time>2018-01-24T14:28:32Z</time>
      </trkpt>
      <trkpt lat="46.18743" lon="6.5945">
        <ele>1635</ele>
        <time>2018-01-24T14:28:47Z</time>
      </trkpt>
      <trkpt lat="46.18729" lon="6.59453">
        <ele>1636</ele>
        <time>2018-01-24T14:29:04Z</time>
      </trkpt>
      <trkpt lat="46.18727" lon="6.59452">
        <ele>1636</ele>
        <time>2018-01-24T14:29:07Z</time>
      </trkpt>
      <trkpt lat="46.18726" lon="6.59452">
        <ele>1636</ele>
        <time>2018-01-24T14:29:08Z</time>
      </trkpt>
      <trkpt lat="46.18717" lon="6.59454">
        <ele>1637</ele>
        <time>2018-01-24T14:29:21Z</time>
      </trkpt>
      <trkpt lat="46.18711" lon="6.59454">
        <ele>1638</ele>
        <time>2018-01-24T14:29:30Z</time>
      </trkpt>
      <trkpt lat="46.18705" lon="6.59455">
        <ele>1638</ele>
        <time>2018-01-24T14:29:38Z</time>
      </trkpt>
      <trkpt lat="46.18695" lon="6.59463">
        <ele>1640</ele>
        <time>2018-01-24T14:29:53Z</time>
      </trkpt>
      <trkpt lat="46.18685" lon="6.59472">
        <ele>1642</ele>
        <time>2018-01-24T14:30:05Z</time>
      </trkpt>
      <trkpt lat="46.18671" lon="6.59479">
        <ele>1645</ele>
        <time>2018-01-24T14:30:22Z</time>
      </trkpt>
      <trkpt lat="46.18658" lon="6.59478">
        <ele>1656</ele>
        <time>2018-01-24T14:30:36Z</time>
      </trkpt>
      <trkpt lat="46.18641" lon="6.5948">
        <ele>1659</ele>
        <time>2018-01-24T14:30:56Z</time>
      </trkpt>
      <trkpt lat="46.18618" lon="6.59475">
        <ele>1663</ele>
        <time>2018-01-24T14:31:21Z</time>
      </trkpt>
      <trkpt lat="46.1861" lon="6.59469">
        <ele>1664</ele>
        <time>2018-01-24T14:31:33Z</time>
      </trkpt>
      <trkpt lat="46.18598" lon="6.59464">
        <ele>1665</ele>
        <time>2018-01-24T14:31:47Z</time>
      </trkpt>
      <trkpt lat="46.18584" lon="6.59464">
        <ele>1666</ele>
        <time>2018-01-24T14:31:59Z</time>
      </trkpt>
      <trkpt lat="46.18575" lon="6.59457">
        <ele>1687</ele>
        <time>2018-01-24T14:32:13Z</time>
      </trkpt>
      <trkpt lat="46.18568" lon="6.59452">
        <ele>1687</ele>
        <time>2018-01-24T14:32:29Z</time>
      </trkpt>
      <trkpt lat="46.18566" lon="6.59452">
        <ele>1687</ele>
        <time>2018-01-24T14:32:31Z</time>
      </trkpt>
      <trkpt lat="46.18557" lon="6.59444">
        <ele>1688</ele>
        <time>2018-01-24T14:32:54Z</time>
      </trkpt>
      <trkpt lat="46.18553" lon="6.59433">
        <ele>1687</ele>
        <time>2018-01-24T14:33:07Z</time>
      </trkpt>
      <trkpt lat="46.18544" lon="6.59416">
        <ele>1682</ele>
        <time>2018-01-24T14:33:24Z</time>
      </trkpt>
      <trkpt lat="46.18537" lon="6.59406">
        <ele>1685</ele>
        <time>2018-01-24T14:33:40Z</time>
      </trkpt>
      <trkpt lat="46.18536" lon="6.59391">
        <ele>1685</ele>
        <time>2018-01-24T14:33:55Z</time>
      </trkpt>
      <trkpt lat="46.18528" lon="6.59382">
        <ele>1686</ele>
        <time>2018-01-24T14:34:08Z</time>
      </trkpt>
      <trkpt lat="46.18523" lon="6.59375">
        <ele>1687</ele>
        <time>2018-01-24T14:34:19Z</time>
      </trkpt>
      <trkpt lat="46.18521" lon="6.59372">
        <ele>1687</ele>
        <time>2018-01-24T14:34:24Z</time>
      </trkpt>
      <trkpt lat="46.1852" lon="6.59371">
        <ele>1687</ele>
        <time>2018-01-24T14:34:26Z</time>
      </trkpt>
      <trkpt lat="46.18519" lon="6.59371">
        <ele>1687</ele>
        <time>2018-01-24T14:34:27Z</time>
      </trkpt>
      <trkpt lat="46.18519" lon="6.5937">
        <ele>1687</ele>
        <time>2018-01-24T14:34:28Z</time>
      </trkpt>
      <trkpt lat="46.18517" lon="6.59368">
        <ele>1687</ele>
        <time>2018-01-24T14:34:31Z</time>
      </trkpt>
      <trkpt lat="46.18511" lon="6.59364">
        <ele>1688</ele>
        <time>2018-01-24T14:34:39Z</time>
      </trkpt>
      <trkpt lat="46.1851" lon="6.59363">
        <ele>1688</ele>
        <time>2018-01-24T14:34:40Z</time>
      </trkpt>
      <trkpt lat="46.18506" lon="6.59362">
        <ele>1689</ele>
        <time>2018-01-24T14:34:44Z</time>
      </trkpt>
      <trkpt lat="46.18499" lon="6.59358">
        <ele>1701</ele>
        <time>2018-01-24T14:34:54Z</time>
      </trkpt>
      <trkpt lat="46.18486" lon="6.59356">
        <ele>1701</ele>
        <time>2018-01-24T14:35:06Z</time>
      </trkpt>
      <trkpt lat="46.18475" lon="6.59354">
        <ele>1702</ele>
        <time>2018-01-24T14:35:15Z</time>
      </trkpt>
      <trkpt lat="46.18468" lon="6.59352">
        <ele>1702</ele>
        <time>2018-01-24T14:35:23Z</time>
      </trkpt>
      <trkpt lat="46.18467" lon="6.59352">
        <ele>1702</ele>
        <time>2018-01-24T14:35:24Z</time>
      </trkpt>
      <trkpt lat="46.18466" lon="6.59352">
        <ele>1702</ele>
        <time>2018-01-24T14:35:25Z</time>
      </trkpt>
      <trkpt lat="46.18459" lon="6.59346">
        <ele>1702</ele>
        <time>2018-01-24T14:35:35Z</time>
      </trkpt>
      <trkpt lat="46.18447" lon="6.59335">
        <ele>1702</ele>
        <time>2018-01-24T14:35:49Z</time>
      </trkpt>
      <trkpt lat="46.18445" lon="6.59332">
        <ele>1700</ele>
        <time>2018-01-24T14:35:53Z</time>
      </trkpt>
      <trkpt lat="46.18448" lon="6.59331">
        <ele>1700</ele>
        <time>2018-01-24T14:36:21Z</time>
      </trkpt>
      <trkpt lat="46.18447" lon="6.59331">
        <ele>1700</ele>
        <time>2018-01-24T14:36:24Z</time>
      </trkpt>
      <trkpt lat="46.18446" lon="6.59332">
        <ele>1700</ele>
        <time>2018-01-24T14:36:26Z</time>
      </trkpt>
      <trkpt lat="46.18443" lon="6.59334">
        <ele>1702</ele>
        <time>2018-01-24T14:36:30Z</time>
      </trkpt>
      <trkpt lat="46.18442" lon="6.59335">
        <ele>1702</ele>
        <time>2018-01-24T14:36:32Z</time>
      </trkpt>
      <trkpt lat="46.1844" lon="6.59335">
        <ele>1702</ele>
        <time>2018-01-24T14:36:42Z</time>
      </trkpt>
      <trkpt lat="46.18448" lon="6.59331">
        <ele>1700</ele>
        <time>2018-01-24T14:36:49Z</time>
      </trkpt>
      <trkpt lat="46.18449" lon="6.5933">
        <ele>1700</ele>
        <time>2018-01-24T14:36:53Z</time>
      </trkpt>
      <trkpt lat="46.18446" lon="6.59333">
        <ele>1700</ele>
        <time>2018-01-24T14:36:57Z</time>
      </trkpt>
      <trkpt lat="46.18445" lon="6.59334">
        <ele>1702</ele>
        <time>2018-01-24T14:37:03Z</time>
      </trkpt>
      <trkpt lat="46.18444" lon="6.59333">
        <ele>1700</ele>
        <time>2018-01-24T14:37:07Z</time>
      </trkpt>
      <trkpt lat="46.18444" lon="6.59333">
        <ele>1700</ele>
        <time>2018-01-24T14:37:09Z</time>
      </trkpt>
      <trkpt lat="46.18442" lon="6.59333">
        <ele>1700</ele>
        <time>2018-01-24T14:37:13Z</time>
      </trkpt>
      <trkpt lat="46.18441" lon="6.59334">
        <ele>1702</ele>
        <time>2018-01-24T14:37:14Z</time>
      </trkpt>
      <trkpt lat="46.1844" lon="6.59333">
        <ele>1700</ele>
        <time>2018-01-24T14:37:21Z</time>
      </trkpt>
      <trkpt lat="46.18442" lon="6.59332">
        <ele>1700</ele>
        <time>2018-01-24T14:37:33Z</time>
      </trkpt>
      <trkpt lat="46.1844" lon="6.59332">
        <ele>1700</ele>
        <time>2018-01-24T14:37:41Z</time>
      </trkpt>
      <trkpt lat="46.18436" lon="6.59336">
        <ele>1702</ele>
        <time>2018-01-24T14:38:10Z</time>
      </trkpt>
      <trkpt lat="46.18436" lon="6.59336">
        <ele>1702</ele>
        <time>2018-01-24T14:38:17Z</time>
      </trkpt>
      <trkpt lat="46.18435" lon="6.59337">
        <ele>1702</ele>
        <time>2018-01-24T14:38:18Z</time>
      </trkpt>
      <trkpt lat="46.18435" lon="6.59336">
        <ele>1702</ele>
        <time>2018-01-24T14:38:28Z</time>
      </trkpt>
      <trkpt lat="46.18436" lon="6.59335">
        <ele>1702</ele>
        <time>2018-01-24T14:38:39Z</time>
      </trkpt>
      <trkpt lat="46.18434" lon="6.59335">
        <ele>1702</ele>
        <time>2018-01-24T14:38:46Z</time>
      </trkpt>
      <trkpt lat="46.18434" lon="6.59334">
        <ele>1702</ele>
        <time>2018-01-24T14:38:53Z</time>
      </trkpt>
      <trkpt lat="46.18432" lon="6.59329">
        <ele>1700</ele>
        <time>2018-01-24T14:39:02Z</time>
      </trkpt>
      <trkpt lat="46.18432" lon="6.59328">
        <ele>1700</ele>
        <time>2018-01-24T14:39:03Z</time>
      </trkpt>
      <trkpt lat="46.18421" lon="6.59312">
        <ele>1700</ele>
        <time>2018-01-24T14:39:20Z</time>
      </trkpt>
      <trkpt lat="46.18417" lon="6.59309">
        <ele>1700</ele>
        <time>2018-01-24T14:39:24Z</time>
      </trkpt>
      <trkpt lat="46.18411" lon="6.59307">
        <ele>1704</ele>
        <time>2018-01-24T14:39:30Z</time>
      </trkpt>
      <trkpt lat="46.18389" lon="6.59287">
        <ele>1705</ele>
        <time>2018-01-24T14:39:55Z</time>
      </trkpt>
      <trkpt lat="46.18388" lon="6.59286">
        <ele>1705</ele>
        <time>2018-01-24T14:39:56Z</time>
      </trkpt>
      <trkpt lat="46.18386" lon="6.59285">
        <ele>1705</ele>
        <time>2018-01-24T14:39:57Z</time>
      </trkpt>
      <trkpt lat="46.18386" lon="6.59284">
        <ele>1705</ele>
        <time>2018-01-24T14:39:58Z</time>
      </trkpt>
      <trkpt lat="46.18385" lon="6.59283">
        <ele>1705</ele>
        <time>2018-01-24T14:39:59Z</time>
      </trkpt>
      <trkpt lat="46.18384" lon="6.59282">
        <ele>1705</ele>
        <time>2018-01-24T14:40:00Z</time>
      </trkpt>
      <trkpt lat="46.18383" lon="6.59281">
        <ele>1705</ele>
        <time>2018-01-24T14:40:01Z</time>
      </trkpt>
      <trkpt lat="46.18375" lon="6.5927">
        <ele>1706</ele>
        <time>2018-01-24T14:40:12Z</time>
      </trkpt>
      <trkpt lat="46.18373" lon="6.59265">
        <ele>1706</ele>
        <time>2018-01-24T14:40:16Z</time>
      </trkpt>
      <trkpt lat="46.18372" lon="6.59264">
        <ele>1706</ele>
        <time>2018-01-24T14:40:17Z</time>
      </trkpt>
      <trkpt lat="46.1837" lon="6.5926">
        <ele>1706</ele>
        <time>2018-01-24T14:40:21Z</time>
      </trkpt>
      <trkpt lat="46.18369" lon="6.59259">
        <ele>1706</ele>
        <time>2018-01-24T14:40:22Z</time>
      </trkpt>
      <trkpt lat="46.18369" lon="6.59258">
        <ele>1706</ele>
        <time>2018-01-24T14:40:23Z</time>
      </trkpt>
      <trkpt lat="46.18369" lon="6.59254">
        <ele>1706</ele>
        <time>2018-01-24T14:40:26Z</time>
      </trkpt>
      <trkpt lat="46.18368" lon="6.59253">
        <ele>1706</ele>
        <time>2018-01-24T14:40:27Z</time>
      </trkpt>
      <trkpt lat="46.18367" lon="6.59252">
        <ele>1706</ele>
        <time>2018-01-24T14:40:28Z</time>
      </trkpt>
      <trkpt lat="46.18367" lon="6.5925">
        <ele>1709</ele>
        <time>2018-01-24T14:40:29Z</time>
      </trkpt>
      <trkpt lat="46.18366" lon="6.59248">
        <ele>1709</ele>
        <time>2018-01-24T14:40:31Z</time>
      </trkpt>
      <trkpt lat="46.18365" lon="6.59245">
        <ele>1709</ele>
        <time>2018-01-24T14:40:33Z</time>
      </trkpt>
      <trkpt lat="46.18364" lon="6.59239">
        <ele>1710</ele>
        <time>2018-01-24T14:40:38Z</time>
      </trkpt>
      <trkpt lat="46.18363" lon="6.59237">
        <ele>1710</ele>
        <time>2018-01-24T14:40:41Z</time>
      </trkpt>
      <trkpt lat="46.18362" lon="6.59236">
        <ele>1710</ele>
        <time>2018-01-24T14:40:42Z</time>
      </trkpt>
      <trkpt lat="46.18362" lon="6.59235">
        <ele>1710</ele>
        <time>2018-01-24T14:40:43Z</time>
      </trkpt>
      <trkpt lat="46.18362" lon="6.59233">
        <ele>1710</ele>
        <time>2018-01-24T14:40:44Z</time>
      </trkpt>
      <trkpt lat="46.18361" lon="6.59231">
        <ele>1710</ele>
        <time>2018-01-24T14:40:46Z</time>
      </trkpt>
      <trkpt lat="46.1836" lon="6.59231">
        <ele>1710</ele>
        <time>2018-01-24T14:40:47Z</time>
      </trkpt>
      <trkpt lat="46.18361" lon="6.59228">
        <ele>1711</ele>
        <time>2018-01-24T14:40:49Z</time>
      </trkpt>
      <trkpt lat="46.18357" lon="6.59219">
        <ele>1711</ele>
        <time>2018-01-24T14:40:57Z</time>
      </trkpt>
      <trkpt lat="46.18357" lon="6.59219">
        <ele>1711</ele>
        <time>2018-01-24T14:40:58Z</time>
      </trkpt>
      <trkpt lat="46.18357" lon="6.59216">
        <ele>1712</ele>
        <time>2018-01-24T14:41:00Z</time>
      </trkpt>
      <trkpt lat="46.18357" lon="6.59214">
        <ele>1712</ele>
        <time>2018-01-24T14:41:02Z</time>
      </trkpt>
      <trkpt lat="46.18355" lon="6.59212">
        <ele>1712</ele>
        <time>2018-01-24T14:41:04Z</time>
      </trkpt>
      <trkpt lat="46.18349" lon="6.59208">
        <ele>1713</ele>
        <time>2018-01-24T14:41:12Z</time>
      </trkpt>
      <trkpt lat="46.18347" lon="6.59205">
        <ele>1713</ele>
        <time>2018-01-24T14:41:18Z</time>
      </trkpt>
      <trkpt lat="46.18346" lon="6.59203">
        <ele>1713</ele>
        <time>2018-01-24T14:41:21Z</time>
      </trkpt>
      <trkpt lat="46.18348" lon="6.59202">
        <ele>1713</ele>
        <time>2018-01-24T14:41:22Z</time>
      </trkpt>
      <trkpt lat="46.18348" lon="6.59201">
        <ele>1714</ele>
        <time>2018-01-24T14:41:23Z</time>
      </trkpt>
      <trkpt lat="46.1835" lon="6.59193">
        <ele>1714</ele>
        <time>2018-01-24T14:41:29Z</time>
      </trkpt>
      <trkpt lat="46.18349" lon="6.59192">
        <ele>1714</ele>
        <time>2018-01-24T14:41:30Z</time>
      </trkpt>
      <trkpt lat="46.18343" lon="6.59187">
        <ele>1715</ele>
        <time>2018-01-24T14:41:38Z</time>
      </trkpt>
      <trkpt lat="46.18341" lon="6.59187">
        <ele>1715</ele>
        <time>2018-01-24T14:41:39Z</time>
      </trkpt>
      <trkpt lat="46.18339" lon="6.59187">
        <ele>1716</ele>
        <time>2018-01-24T14:41:40Z</time>
      </trkpt>
      <trkpt lat="46.18336" lon="6.59182">
        <ele>1716</ele>
        <time>2018-01-24T14:41:48Z</time>
      </trkpt>
      <trkpt lat="46.18336" lon="6.59179">
        <ele>1717</ele>
        <time>2018-01-24T14:41:51Z</time>
      </trkpt>
      <trkpt lat="46.18336" lon="6.59179">
        <ele>1717</ele>
        <time>2018-01-24T14:41:52Z</time>
      </trkpt>
      <trkpt lat="46.18335" lon="6.59178">
        <ele>1717</ele>
        <time>2018-01-24T14:41:53Z</time>
      </trkpt>
      <trkpt lat="46.18335" lon="6.59176">
        <ele>1718</ele>
        <time>2018-01-24T14:41:55Z</time>
      </trkpt>
      <trkpt lat="46.18335" lon="6.59174">
        <ele>1718</ele>
        <time>2018-01-24T14:41:57Z</time>
      </trkpt>
      <trkpt lat="46.18334" lon="6.59173">
        <ele>1718</ele>
        <time>2018-01-24T14:41:58Z</time>
      </trkpt>
      <trkpt lat="46.18331" lon="6.5917">
        <ele>1722</ele>
        <time>2018-01-24T14:42:02Z</time>
      </trkpt>
      <trkpt lat="46.1833" lon="6.59168">
        <ele>1722</ele>
        <time>2018-01-24T14:42:04Z</time>
      </trkpt>
      <trkpt lat="46.18327" lon="6.59168">
        <ele>1723</ele>
        <time>2018-01-24T14:42:06Z</time>
      </trkpt>
      <trkpt lat="46.18325" lon="6.59168">
        <ele>1724</ele>
        <time>2018-01-24T14:42:08Z</time>
      </trkpt>
      <trkpt lat="46.18323" lon="6.59169">
        <ele>1724</ele>
        <time>2018-01-24T14:42:09Z</time>
      </trkpt>
      <trkpt lat="46.18321" lon="6.59168">
        <ele>1725</ele>
        <time>2018-01-24T14:42:10Z</time>
      </trkpt>
      <trkpt lat="46.1832" lon="6.59168">
        <ele>1725</ele>
        <time>2018-01-24T14:42:11Z</time>
      </trkpt>
      <trkpt lat="46.18319" lon="6.59168">
        <ele>1726</ele>
        <time>2018-01-24T14:42:12Z</time>
      </trkpt>
      <trkpt lat="46.18318" lon="6.59167">
        <ele>1726</ele>
        <time>2018-01-24T14:42:13Z</time>
      </trkpt>
      <trkpt lat="46.18316" lon="6.59167">
        <ele>1731</ele>
        <time>2018-01-24T14:42:15Z</time>
      </trkpt>
      <trkpt lat="46.18314" lon="6.59166">
        <ele>1732</ele>
        <time>2018-01-24T14:42:17Z</time>
      </trkpt>
      <trkpt lat="46.18308" lon="6.59164">
        <ele>1734</ele>
        <time>2018-01-24T14:42:25Z</time>
      </trkpt>
      <trkpt lat="46.18307" lon="6.59163">
        <ele>1734</ele>
        <time>2018-01-24T14:42:28Z</time>
      </trkpt>
      <trkpt lat="46.18304" lon="6.59159">
        <ele>1736</ele>
        <time>2018-01-24T14:42:34Z</time>
      </trkpt>
      <trkpt lat="46.18302" lon="6.59159">
        <ele>1736</ele>
        <time>2018-01-24T14:42:35Z</time>
      </trkpt>
      <trkpt lat="46.18301" lon="6.59159">
        <ele>1736</ele>
        <time>2018-01-24T14:42:36Z</time>
      </trkpt>
      <trkpt lat="46.18299" lon="6.59158">
        <ele>1737</ele>
        <time>2018-01-24T14:42:38Z</time>
      </trkpt>
      <trkpt lat="46.18296" lon="6.59157">
        <ele>1738</ele>
        <time>2018-01-24T14:42:41Z</time>
      </trkpt>
      <trkpt lat="46.18295" lon="6.59157">
        <ele>1738</ele>
        <time>2018-01-24T14:42:42Z</time>
      </trkpt>
      <trkpt lat="46.18293" lon="6.59157">
        <ele>1738</ele>
        <time>2018-01-24T14:42:43Z</time>
      </trkpt>
      <trkpt lat="46.18292" lon="6.59156">
        <ele>1739</ele>
        <time>2018-01-24T14:42:45Z</time>
      </trkpt>
      <trkpt lat="46.18289" lon="6.59153">
        <ele>1739</ele>
        <time>2018-01-24T14:42:49Z</time>
      </trkpt>
      <trkpt lat="46.18288" lon="6.59153">
        <ele>1740</ele>
        <time>2018-01-24T14:42:51Z</time>
      </trkpt>
      <trkpt lat="46.18287" lon="6.59152">
        <ele>1740</ele>
        <time>2018-01-24T14:42:53Z</time>
      </trkpt>
      <trkpt lat="46.18279" lon="6.59144">
        <ele>1741</ele>
        <time>2018-01-24T14:43:06Z</time>
      </trkpt>
      <trkpt lat="46.18276" lon="6.59139">
        <ele>1742</ele>
        <time>2018-01-24T14:43:10Z</time>
      </trkpt>
      <trkpt lat="46.18273" lon="6.59134">
        <ele>1742</ele>
        <time>2018-01-24T14:43:16Z</time>
      </trkpt>
      <trkpt lat="46.18266" lon="6.59115">
        <ele>1744</ele>
        <time>2018-01-24T14:43:39Z</time>
      </trkpt>
      <trkpt lat="46.18264" lon="6.59109">
        <ele>1745</ele>
        <time>2018-01-24T14:43:48Z</time>
      </trkpt>
      <trkpt lat="46.18264" lon="6.59108">
        <ele>1745</ele>
        <time>2018-01-24T14:43:49Z</time>
      </trkpt>
      <trkpt lat="46.18269" lon="6.59085">
        <ele>1746</ele>
        <time>2018-01-24T14:44:15Z</time>
      </trkpt>
      <trkpt lat="46.18269" lon="6.5907">
        <ele>1757</ele>
        <time>2018-01-24T14:44:28Z</time>
      </trkpt>
      <trkpt lat="46.18266" lon="6.59058">
        <ele>1759</ele>
        <time>2018-01-24T14:44:43Z</time>
      </trkpt>
      <trkpt lat="46.18264" lon="6.59056">
        <ele>1760</ele>
        <time>2018-01-24T14:44:46Z</time>
      </trkpt>
      <trkpt lat="46.18262" lon="6.59052">
        <ele>1760</ele>
        <time>2018-01-24T14:44:51Z</time>
      </trkpt>
      <trkpt lat="46.18252" lon="6.59048">
        <ele>1761</ele>
        <time>2018-01-24T14:45:04Z</time>
      </trkpt>
      <trkpt lat="46.18241" lon="6.59044">
        <ele>1773</ele>
        <time>2018-01-24T14:45:18Z</time>
      </trkpt>
      <trkpt lat="46.18234" lon="6.59037">
        <ele>1775</ele>
        <time>2018-01-24T14:45:31Z</time>
      </trkpt>
      <trkpt lat="46.18226" lon="6.59034">
        <ele>1776</ele>
        <time>2018-01-24T14:45:43Z</time>
      </trkpt>
      <trkpt lat="46.18226" lon="6.59034">
        <ele>1776</ele>
        <time>2018-01-24T14:45:44Z</time>
      </trkpt>
      <trkpt lat="46.18222" lon="6.59028">
        <ele>1777</ele>
        <time>2018-01-24T14:45:55Z</time>
      </trkpt>
      <trkpt lat="46.18215" lon="6.59021">
        <ele>1779</ele>
        <time>2018-01-24T14:46:09Z</time>
      </trkpt>
      <trkpt lat="46.1821" lon="6.59002">
        <ele>1781</ele>
        <time>2018-01-24T14:46:24Z</time>
      </trkpt>
      <trkpt lat="46.18209" lon="6.5899">
        <ele>1802</ele>
        <time>2018-01-24T14:46:35Z</time>
      </trkpt>
      <trkpt lat="46.18211" lon="6.58987">
        <ele>1802</ele>
        <time>2018-01-24T14:46:42Z</time>
      </trkpt>
      <trkpt lat="46.18211" lon="6.58989">
        <ele>1801</ele>
        <time>2018-01-24T14:47:02Z</time>
      </trkpt>
      <trkpt lat="46.18213" lon="6.58989">
        <ele>1801</ele>
        <time>2018-01-24T14:47:07Z</time>
      </trkpt>
      <trkpt lat="46.18217" lon="6.58996">
        <ele>1799</ele>
        <time>2018-01-24T14:47:16Z</time>
      </trkpt>
      <trkpt lat="46.18219" lon="6.59002">
        <ele>1779</ele>
        <time>2018-01-24T14:47:17Z</time>
      </trkpt>
      <trkpt lat="46.18223" lon="6.59009">
        <ele>1778</ele>
        <time>2018-01-24T14:47:19Z</time>
      </trkpt>
      <trkpt lat="46.18225" lon="6.59013">
        <ele>1777</ele>
        <time>2018-01-24T14:47:20Z</time>
      </trkpt>
      <trkpt lat="46.18227" lon="6.59015">
        <ele>1777</ele>
        <time>2018-01-24T14:47:21Z</time>
      </trkpt>
      <trkpt lat="46.18229" lon="6.59016">
        <ele>1777</ele>
        <time>2018-01-24T14:47:25Z</time>
      </trkpt>
      <trkpt lat="46.18229" lon="6.59017">
        <ele>1777</ele>
        <time>2018-01-24T14:47:33Z</time>
      </trkpt>
      <trkpt lat="46.18229" lon="6.59018">
        <ele>1777</ele>
        <time>2018-01-24T14:47:38Z</time>
      </trkpt>
      <trkpt lat="46.18226" lon="6.59017">
        <ele>1777</ele>
        <time>2018-01-24T14:47:53Z</time>
      </trkpt>
      <trkpt lat="46.18221" lon="6.59018">
        <ele>1778</ele>
        <time>2018-01-24T14:48:06Z</time>
      </trkpt>
      <trkpt lat="46.1822" lon="6.59021">
        <ele>1778</ele>
        <time>2018-01-24T14:48:17Z</time>
      </trkpt>
      <trkpt lat="46.18219" lon="6.59022">
        <ele>1778</ele>
        <time>2018-01-24T14:48:19Z</time>
      </trkpt>
      <trkpt lat="46.18212" lon="6.59026">
        <ele>1779</ele>
        <time>2018-01-24T14:48:34Z</time>
      </trkpt>
      <trkpt lat="46.18208" lon="6.59027">
        <ele>1780</ele>
        <time>2018-01-24T14:48:46Z</time>
      </trkpt>
      <trkpt lat="46.18203" lon="6.59024">
        <ele>1781</ele>
        <time>2018-01-24T14:49:05Z</time>
      </trkpt>
      <trkpt lat="46.18201" lon="6.59024">
        <ele>1782</ele>
        <time>2018-01-24T14:49:11Z</time>
      </trkpt>
      <trkpt lat="46.18199" lon="6.59025">
        <ele>1782</ele>
        <time>2018-01-24T14:49:17Z</time>
      </trkpt>
      <trkpt lat="46.18199" lon="6.59025">
        <ele>1782</ele>
        <time>2018-01-24T14:49:19Z</time>
      </trkpt>
      <trkpt lat="46.18199" lon="6.59026">
        <ele>1782</ele>
        <time>2018-01-24T14:49:23Z</time>
      </trkpt>
      <trkpt lat="46.182" lon="6.59025">
        <ele>1782</ele>
        <time>2018-01-24T14:49:30Z</time>
      </trkpt>
      <trkpt lat="46.18202" lon="6.59023">
        <ele>1782</ele>
        <time>2018-01-24T14:49:39Z</time>
      </trkpt>
      <trkpt lat="46.18202" lon="6.59023">
        <ele>1782</ele>
        <time>2018-01-24T14:49:41Z</time>
      </trkpt>
      <trkpt lat="46.18196" lon="6.59027">
        <ele>1783</ele>
        <time>2018-01-24T14:49:51Z</time>
      </trkpt>
      <trkpt lat="46.18195" lon="6.59028">
        <ele>1783</ele>
        <time>2018-01-24T14:49:54Z</time>
      </trkpt>
      <trkpt lat="46.18196" lon="6.59027">
        <ele>1783</ele>
        <time>2018-01-24T14:49:55Z</time>
      </trkpt>
      <trkpt lat="46.18197" lon="6.59026">
        <ele>1782</ele>
        <time>2018-01-24T14:50:01Z</time>
      </trkpt>
      <trkpt lat="46.18198" lon="6.59025">
        <ele>1782</ele>
        <time>2018-01-24T14:50:02Z</time>
      </trkpt>
      <trkpt lat="46.18199" lon="6.59025">
        <ele>1782</ele>
        <time>2018-01-24T14:50:07Z</time>
      </trkpt>
      <trkpt lat="46.18198" lon="6.59024">
        <ele>1782</ele>
        <time>2018-01-24T14:50:11Z</time>
      </trkpt>
      <trkpt lat="46.18196" lon="6.59023">
        <ele>1783</ele>
        <time>2018-01-24T14:50:19Z</time>
      </trkpt>
      <trkpt lat="46.18195" lon="6.59023">
        <ele>1783</ele>
        <time>2018-01-24T14:50:34Z</time>
      </trkpt>
      <trkpt lat="46.18196" lon="6.59023">
        <ele>1783</ele>
        <time>2018-01-24T14:50:40Z</time>
      </trkpt>
      <trkpt lat="46.18201" lon="6.59022">
        <ele>1782</ele>
        <time>2018-01-24T14:50:45Z</time>
      </trkpt>
      <trkpt lat="46.18202" lon="6.59022">
        <ele>1782</ele>
        <time>2018-01-24T14:50:47Z</time>
      </trkpt>
      <trkpt lat="46.18202" lon="6.59023">
        <ele>1782</ele>
        <time>2018-01-24T14:50:51Z</time>
      </trkpt>
      <trkpt lat="46.18201" lon="6.59022">
        <ele>1782</ele>
        <time>2018-01-24T14:50:54Z</time>
      </trkpt>
      <trkpt lat="46.18199" lon="6.59021">
        <ele>1782</ele>
        <time>2018-01-24T14:50:58Z</time>
      </trkpt>
      <trkpt lat="46.18196" lon="6.59018">
        <ele>1783</ele>
        <time>2018-01-24T14:51:02Z</time>
      </trkpt>
      <trkpt lat="46.18193" lon="6.59016">
        <ele>1785</ele>
        <time>2018-01-24T14:51:07Z</time>
      </trkpt>
      <trkpt lat="46.18192" lon="6.59013">
        <ele>1785</ele>
        <time>2018-01-24T14:51:11Z</time>
      </trkpt>
      <trkpt lat="46.1819" lon="6.59011">
        <ele>1786</ele>
        <time>2018-01-24T14:51:15Z</time>
      </trkpt>
      <trkpt lat="46.18186" lon="6.59008">
        <ele>1788</ele>
        <time>2018-01-24T14:51:20Z</time>
      </trkpt>
      <trkpt lat="46.18184" lon="6.59008">
        <ele>1789</ele>
        <time>2018-01-24T14:51:26Z</time>
      </trkpt>
      <trkpt lat="46.18182" lon="6.59008">
        <ele>1789</ele>
        <time>2018-01-24T14:51:36Z</time>
      </trkpt>
      <trkpt lat="46.18176" lon="6.59002">
        <ele>1793</ele>
        <time>2018-01-24T14:51:54Z</time>
      </trkpt>
      <trkpt lat="46.18175" lon="6.58997">
        <ele>1802</ele>
        <time>2018-01-24T14:52:18Z</time>
      </trkpt>
      <trkpt lat="46.18171" lon="6.5899">
        <ele>1803</ele>
        <time>2018-01-24T14:52:36Z</time>
      </trkpt>
      <trkpt lat="46.18168" lon="6.58985">
        <ele>1805</ele>
        <time>2018-01-24T14:52:53Z</time>
      </trkpt>
      <trkpt lat="46.18165" lon="6.58981">
        <ele>1816</ele>
        <time>2018-01-24T14:53:05Z</time>
      </trkpt>
      <trkpt lat="46.18161" lon="6.58977">
        <ele>1819</ele>
        <time>2018-01-24T14:53:24Z</time>
      </trkpt>
      <trkpt lat="46.18158" lon="6.58979">
        <ele>1819</ele>
        <time>2018-01-24T14:53:40Z</time>
      </trkpt>
      <trkpt lat="46.18153" lon="6.58982">
        <ele>1819</ele>
        <time>2018-01-24T14:53:58Z</time>
      </trkpt>
      <trkpt lat="46.1815" lon="6.58982">
        <ele>1820</ele>
        <time>2018-01-24T14:54:15Z</time>
      </trkpt>
      <trkpt lat="46.18149" lon="6.58981">
        <ele>1820</ele>
        <time>2018-01-24T14:54:24Z</time>
      </trkpt>
      <trkpt lat="46.18142" lon="6.58979">
        <ele>1823</ele>
        <time>2018-01-24T14:54:46Z</time>
      </trkpt>
      <trkpt lat="46.18137" lon="6.58977">
        <ele>1825</ele>
        <time>2018-01-24T14:55:00Z</time>
      </trkpt>
      <trkpt lat="46.18131" lon="6.58977">
        <ele>1826</ele>
        <time>2018-01-24T14:55:29Z</time>
      </trkpt>
      <trkpt lat="46.18127" lon="6.58975">
        <ele>1827</ele>
        <time>2018-01-24T14:55:46Z</time>
      </trkpt>
      <trkpt lat="46.18123" lon="6.58975">
        <ele>1828</ele>
        <time>2018-01-24T14:55:55Z</time>
      </trkpt>
      <trkpt lat="46.1811" lon="6.58983">
        <ele>1828</ele>
        <time>2018-01-24T14:56:28Z</time>
      </trkpt>
      <trkpt lat="46.1811" lon="6.58983">
        <ele>1828</ele>
        <time>2018-01-24T14:56:41Z</time>
      </trkpt>
      <trkpt lat="46.18111" lon="6.58984">
        <ele>1828</ele>
        <time>2018-01-24T14:56:45Z</time>
      </trkpt>
      <trkpt lat="46.18111" lon="6.58992">
        <ele>1827</ele>
        <time>2018-01-24T14:56:54Z</time>
      </trkpt>
      <trkpt lat="46.18112" lon="6.58993">
        <ele>1826</ele>
        <time>2018-01-24T14:57:02Z</time>
      </trkpt>
      <trkpt lat="46.1811" lon="6.58993">
        <ele>1826</ele>
        <time>2018-01-24T14:57:05Z</time>
      </trkpt>
      <trkpt lat="46.1811" lon="6.58993">
        <ele>1826</ele>
        <time>2018-01-24T14:57:09Z</time>
      </trkpt>
      <trkpt lat="46.1811" lon="6.58994">
        <ele>1826</ele>
        <time>2018-01-24T14:57:13Z</time>
      </trkpt>
      <trkpt lat="46.1811" lon="6.58994">
        <ele>1826</ele>
        <time>2018-01-24T14:57:19Z</time>
      </trkpt>
      <trkpt lat="46.1811" lon="6.58994">
        <ele>1826</ele>
        <time>2018-01-24T14:57:21Z</time>
      </trkpt>
      <trkpt lat="46.1811" lon="6.58995">
        <ele>1826</ele>
        <time>2018-01-24T14:57:27Z</time>
      </trkpt>
      <trkpt lat="46.18109" lon="6.58995">
        <ele>1826</ele>
        <time>2018-01-24T14:57:32Z</time>
      </trkpt>
      <trkpt lat="46.18109" lon="6.58995">
        <ele>1826</ele>
        <time>2018-01-24T14:57:39Z</time>
      </trkpt>
      <trkpt lat="46.18109" lon="6.58995">
        <ele>1826</ele>
        <time>2018-01-24T14:57:45Z</time>
      </trkpt>
      <trkpt lat="46.18109" lon="6.58995">
        <ele>1826</ele>
        <time>2018-01-24T14:57:53Z</time>
      </trkpt>
      <trkpt lat="46.18109" lon="6.58995">
        <ele>1826</ele>
        <time>2018-01-24T14:58:00Z</time>
      </trkpt>
      <trkpt lat="46.1811" lon="6.58995">
        <ele>1826</ele>
        <time>2018-01-24T14:58:15Z</time>
      </trkpt>
      <trkpt lat="46.1811" lon="6.58995">
        <ele>1826</ele>
        <time>2018-01-24T14:58:17Z</time>
      </trkpt>
      <trkpt lat="46.1811" lon="6.58994">
        <ele>1826</ele>
        <time>2018-01-24T14:58:24Z</time>
      </trkpt>
      <trkpt lat="46.18109" lon="6.58994">
        <ele>1826</ele>
        <time>2018-01-24T14:58:26Z</time>
      </trkpt>
      <trkpt lat="46.18109" lon="6.58993">
        <ele>1827</ele>
        <time>2018-01-24T14:58:34Z</time>
      </trkpt>
      <trkpt lat="46.18109" lon="6.58993">
        <ele>1827</ele>
        <time>2018-01-24T14:58:37Z</time>
      </trkpt>
      <trkpt lat="46.18109" lon="6.58994">
        <ele>1826</ele>
        <time>2018-01-24T14:58:40Z</time>
      </trkpt>
      <trkpt lat="46.18109" lon="6.58994">
        <ele>1826</ele>
        <time>2018-01-24T14:58:42Z</time>
      </trkpt>
      <trkpt lat="46.18109" lon="6.58995">
        <ele>1826</ele>
        <time>2018-01-24T14:58:56Z</time>
      </trkpt>
      <trkpt lat="46.18109" lon="6.58997">
        <ele>1826</ele>
        <time>2018-01-24T14:59:10Z</time>
      </trkpt>
      <trkpt lat="46.18108" lon="6.58997">
        <ele>1826</ele>
        <time>2018-01-24T14:59:36Z</time>
      </trkpt>
      <trkpt lat="46.18108" lon="6.58997">
        <ele>1826</ele>
        <time>2018-01-24T14:59:44Z</time>
      </trkpt>
      <trkpt lat="46.18107" lon="6.58996">
        <ele>1826</ele>
        <time>2018-01-24T14:59:55Z</time>
      </trkpt>
      <trkpt lat="46.18107" lon="6.58995">
        <ele>1826</ele>
        <time>2018-01-24T15:00:10Z</time>
      </trkpt>
      <trkpt lat="46.18107" lon="6.58996">
        <ele>1826</ele>
        <time>2018-01-24T15:00:26Z</time>
      </trkpt>
      <trkpt lat="46.18108" lon="6.58996">
        <ele>1826</ele>
        <time>2018-01-24T15:00:27Z</time>
      </trkpt>
      <trkpt lat="46.18108" lon="6.58996">
        <ele>1826</ele>
        <time>2018-01-24T15:00:28Z</time>
      </trkpt>
      <trkpt lat="46.18109" lon="6.58995">
        <ele>1826</ele>
        <time>2018-01-24T15:00:38Z</time>
      </trkpt>
      <trkpt lat="46.18108" lon="6.58995">
        <ele>1826</ele>
        <time>2018-01-24T15:00:41Z</time>
      </trkpt>
      <trkpt lat="46.18107" lon="6.58995">
        <ele>1826</ele>
        <time>2018-01-24T15:01:01Z</time>
      </trkpt>
      <trkpt lat="46.18107" lon="6.58996">
        <ele>1826</ele>
        <time>2018-01-24T15:01:39Z</time>
      </trkpt>
      <trkpt lat="46.18108" lon="6.58994">
        <ele>1827</ele>
        <time>2018-01-24T15:01:55Z</time>
      </trkpt>
      <trkpt lat="46.18107" lon="6.58994">
        <ele>1827</ele>
        <time>2018-01-24T15:01:56Z</time>
      </trkpt>
      <trkpt lat="46.18107" lon="6.58995">
        <ele>1826</ele>
        <time>2018-01-24T15:02:02Z</time>
      </trkpt>
      <trkpt lat="46.18106" lon="6.58995">
        <ele>1827</ele>
        <time>2018-01-24T15:02:06Z</time>
      </trkpt>
      <trkpt lat="46.18107" lon="6.58995">
        <ele>1826</ele>
        <time>2018-01-24T15:02:18Z</time>
      </trkpt>
      <trkpt lat="46.18107" lon="6.58996">
        <ele>1826</ele>
        <time>2018-01-24T15:02:34Z</time>
      </trkpt>
      <trkpt lat="46.18108" lon="6.58997">
        <ele>1826</ele>
        <time>2018-01-24T15:02:39Z</time>
      </trkpt>
      <trkpt lat="46.18109" lon="6.58997">
        <ele>1826</ele>
        <time>2018-01-24T15:02:43Z</time>
      </trkpt>
      <trkpt lat="46.18108" lon="6.58997">
        <ele>1826</ele>
        <time>2018-01-24T15:02:51Z</time>
      </trkpt>
      <trkpt lat="46.18109" lon="6.58997">
        <ele>1826</ele>
        <time>2018-01-24T15:03:08Z</time>
      </trkpt>
      <trkpt lat="46.18109" lon="6.58997">
        <ele>1826</ele>
        <time>2018-01-24T15:03:13Z</time>
      </trkpt>
      <trkpt lat="46.18107" lon="6.59">
        <ele>1826</ele>
        <time>2018-01-24T15:03:16Z</time>
      </trkpt>
      <trkpt lat="46.18107" lon="6.59001">
        <ele>1814</ele>
        <time>2018-01-24T15:03:17Z</time>
      </trkpt>
      <trkpt lat="46.18106" lon="6.59003">
        <ele>1814</ele>
        <time>2018-01-24T15:03:18Z</time>
      </trkpt>
      <trkpt lat="46.18106" lon="6.59004">
        <ele>1814</ele>
        <time>2018-01-24T15:03:19Z</time>
      </trkpt>
      <trkpt lat="46.18106" lon="6.59006">
        <ele>1814</ele>
        <time>2018-01-24T15:03:20Z</time>
      </trkpt>
      <trkpt lat="46.18105" lon="6.59007">
        <ele>1814</ele>
        <time>2018-01-24T15:03:21Z</time>
      </trkpt>
      <trkpt lat="46.18096" lon="6.59041">
        <ele>1812</ele>
        <time>2018-01-24T15:03:31Z</time>
      </trkpt>
      <trkpt lat="46.18089" lon="6.59071">
        <ele>1813</ele>
        <time>2018-01-24T15:03:36Z</time>
      </trkpt>
      <trkpt lat="46.18085" lon="6.59092">
        <ele>1814</ele>
        <time>2018-01-24T15:03:39Z</time>
      </trkpt>
      <trkpt lat="46.18078" lon="6.59118">
        <ele>1803</ele>
        <time>2018-01-24T15:03:43Z</time>
      </trkpt>
      <trkpt lat="46.18076" lon="6.59126">
        <ele>1803</ele>
        <time>2018-01-24T15:03:45Z</time>
      </trkpt>
      <trkpt lat="46.1807" lon="6.59154">
        <ele>1805</ele>
        <time>2018-01-24T15:03:51Z</time>
      </trkpt>
      <trkpt lat="46.18068" lon="6.59164">
        <ele>1806</ele>
        <time>2018-01-24T15:03:55Z</time>
      </trkpt>
      <trkpt lat="46.18068" lon="6.59165">
        <ele>1806</ele>
        <time>2018-01-24T15:03:56Z</time>
      </trkpt>
      <trkpt lat="46.18068" lon="6.59167">
        <ele>1803</ele>
        <time>2018-01-24T15:03:59Z</time>
      </trkpt>
      <trkpt lat="46.18066" lon="6.59168">
        <ele>1802</ele>
        <time>2018-01-24T15:04:05Z</time>
      </trkpt>
      <trkpt lat="46.18063" lon="6.59168">
        <ele>1800</ele>
        <time>2018-01-24T15:04:06Z</time>
      </trkpt>
      <trkpt lat="46.1806" lon="6.59166">
        <ele>1802</ele>
        <time>2018-01-24T15:04:07Z</time>
      </trkpt>
      <trkpt lat="46.18056" lon="6.59165">
        <ele>1801</ele>
        <time>2018-01-24T15:04:08Z</time>
      </trkpt>
      <trkpt lat="46.18051" lon="6.59168">
        <ele>1794</ele>
        <time>2018-01-24T15:04:09Z</time>
      </trkpt>
      <trkpt lat="46.18044" lon="6.59169">
        <ele>1792</ele>
        <time>2018-01-24T15:04:10Z</time>
      </trkpt>
      <trkpt lat="46.18038" lon="6.59166">
        <ele>1794</ele>
        <time>2018-01-24T15:04:11Z</time>
      </trkpt>
      <trkpt lat="46.18032" lon="6.59168">
        <ele>1787</ele>
        <time>2018-01-24T15:04:12Z</time>
      </trkpt>
      <trkpt lat="46.18026" lon="6.59172">
        <ele>1784</ele>
        <time>2018-01-24T15:04:13Z</time>
      </trkpt>
      <trkpt lat="46.1802" lon="6.59172">
        <ele>1782</ele>
        <time>2018-01-24T15:04:14Z</time>
      </trkpt>
      <trkpt lat="46.18013" lon="6.59171">
        <ele>1779</ele>
        <time>2018-01-24T15:04:15Z</time>
      </trkpt>
      <trkpt lat="46.18007" lon="6.59174">
        <ele>1777</ele>
        <time>2018-01-24T15:04:16Z</time>
      </trkpt>
      <trkpt lat="46.18002" lon="6.59179">
        <ele>1778</ele>
        <time>2018-01-24T15:04:17Z</time>
      </trkpt>
      <trkpt lat="46.17996" lon="6.59187">
        <ele>1761</ele>
        <time>2018-01-24T15:04:18Z</time>
      </trkpt>
      <trkpt lat="46.17993" lon="6.59195">
        <ele>1758</ele>
        <time>2018-01-24T15:04:19Z</time>
      </trkpt>
      <trkpt lat="46.17994" lon="6.59204">
        <ele>1757</ele>
        <time>2018-01-24T15:04:20Z</time>
      </trkpt>
      <trkpt lat="46.17996" lon="6.59221">
        <ele>1755</ele>
        <time>2018-01-24T15:04:22Z</time>
      </trkpt>
      <trkpt lat="46.17996" lon="6.59228">
        <ele>1755</ele>
        <time>2018-01-24T15:04:23Z</time>
      </trkpt>
      <trkpt lat="46.17996" lon="6.59233">
        <ele>1755</ele>
        <time>2018-01-24T15:04:24Z</time>
      </trkpt>
      <trkpt lat="46.18" lon="6.59255">
        <ele>1753</ele>
        <time>2018-01-24T15:04:30Z</time>
      </trkpt>
      <trkpt lat="46.18001" lon="6.59259">
        <ele>1761</ele>
        <time>2018-01-24T15:04:32Z</time>
      </trkpt>
      <trkpt lat="46.18001" lon="6.59261">
        <ele>1762</ele>
        <time>2018-01-24T15:04:40Z</time>
      </trkpt>
      <trkpt lat="46.18002" lon="6.59264">
        <ele>1763</ele>
        <time>2018-01-24T15:04:41Z</time>
      </trkpt>
      <trkpt lat="46.18002" lon="6.59267">
        <ele>1764</ele>
        <time>2018-01-24T15:04:42Z</time>
      </trkpt>
      <trkpt lat="46.18003" lon="6.59271">
        <ele>1765</ele>
        <time>2018-01-24T15:04:43Z</time>
      </trkpt>
      <trkpt lat="46.18005" lon="6.59275">
        <ele>1765</ele>
        <time>2018-01-24T15:04:44Z</time>
      </trkpt>
      <trkpt lat="46.18011" lon="6.59294">
        <ele>1765</ele>
        <time>2018-01-24T15:04:48Z</time>
      </trkpt>
      <trkpt lat="46.1801" lon="6.593">
        <ele>1764</ele>
        <time>2018-01-24T15:04:49Z</time>
      </trkpt>
      <trkpt lat="46.18006" lon="6.59304">
        <ele>1762</ele>
        <time>2018-01-24T15:04:50Z</time>
      </trkpt>
      <trkpt lat="46.18003" lon="6.5931">
        <ele>1759</ele>
        <time>2018-01-24T15:04:51Z</time>
      </trkpt>
      <trkpt lat="46.18002" lon="6.59318">
        <ele>1755</ele>
        <time>2018-01-24T15:04:52Z</time>
      </trkpt>
      <trkpt lat="46.18002" lon="6.59324">
        <ele>1750</ele>
        <time>2018-01-24T15:04:53Z</time>
      </trkpt>
      <trkpt lat="46.18001" lon="6.5933">
        <ele>1744</ele>
        <time>2018-01-24T15:04:54Z</time>
      </trkpt>
      <trkpt lat="46.17999" lon="6.59334">
        <ele>1739</ele>
        <time>2018-01-24T15:04:55Z</time>
      </trkpt>
      <trkpt lat="46.17996" lon="6.59337">
        <ele>1736</ele>
        <time>2018-01-24T15:04:56Z</time>
      </trkpt>
      <trkpt lat="46.17994" lon="6.59341">
        <ele>1733</ele>
        <time>2018-01-24T15:04:57Z</time>
      </trkpt>
      <trkpt lat="46.17991" lon="6.59344">
        <ele>1732</ele>
        <time>2018-01-24T15:04:58Z</time>
      </trkpt>
      <trkpt lat="46.17988" lon="6.59345">
        <ele>1731</ele>
        <time>2018-01-24T15:04:59Z</time>
      </trkpt>
      <trkpt lat="46.17984" lon="6.59347">
        <ele>1729</ele>
        <time>2018-01-24T15:05:00Z</time>
      </trkpt>
      <trkpt lat="46.17982" lon="6.59351">
        <ele>1728</ele>
        <time>2018-01-24T15:05:01Z</time>
      </trkpt>
      <trkpt lat="46.17983" lon="6.59355">
        <ele>1727</ele>
        <time>2018-01-24T15:05:02Z</time>
      </trkpt>
      <trkpt lat="46.17986" lon="6.59358">
        <ele>1727</ele>
        <time>2018-01-24T15:05:03Z</time>
      </trkpt>
      <trkpt lat="46.17988" lon="6.59362">
        <ele>1726</ele>
        <time>2018-01-24T15:05:04Z</time>
      </trkpt>
      <trkpt lat="46.17986" lon="6.59367">
        <ele>1725</ele>
        <time>2018-01-24T15:05:05Z</time>
      </trkpt>
      <trkpt lat="46.17982" lon="6.59369">
        <ele>1724</ele>
        <time>2018-01-24T15:05:06Z</time>
      </trkpt>
      <trkpt lat="46.17978" lon="6.59369">
        <ele>1724</ele>
        <time>2018-01-24T15:05:07Z</time>
      </trkpt>
      <trkpt lat="46.17975" lon="6.59369">
        <ele>1723</ele>
        <time>2018-01-24T15:05:08Z</time>
      </trkpt>
      <trkpt lat="46.17972" lon="6.59369">
        <ele>1723</ele>
        <time>2018-01-24T15:05:09Z</time>
      </trkpt>
      <trkpt lat="46.1797" lon="6.5937">
        <ele>1722</ele>
        <time>2018-01-24T15:05:10Z</time>
      </trkpt>
      <trkpt lat="46.17967" lon="6.59374">
        <ele>1722</ele>
        <time>2018-01-24T15:05:11Z</time>
      </trkpt>
      <trkpt lat="46.17968" lon="6.59378">
        <ele>1721</ele>
        <time>2018-01-24T15:05:12Z</time>
      </trkpt>
      <trkpt lat="46.1797" lon="6.59381">
        <ele>1721</ele>
        <time>2018-01-24T15:05:13Z</time>
      </trkpt>
      <trkpt lat="46.17972" lon="6.59385">
        <ele>1721</ele>
        <time>2018-01-24T15:05:14Z</time>
      </trkpt>
      <trkpt lat="46.17974" lon="6.59391">
        <ele>1720</ele>
        <time>2018-01-24T15:05:15Z</time>
      </trkpt>
      <trkpt lat="46.17976" lon="6.59397">
        <ele>1720</ele>
        <time>2018-01-24T15:05:16Z</time>
      </trkpt>
      <trkpt lat="46.17976" lon="6.59403">
        <ele>1720</ele>
        <time>2018-01-24T15:05:17Z</time>
      </trkpt>
      <trkpt lat="46.17976" lon="6.59406">
        <ele>1720</ele>
        <time>2018-01-24T15:05:18Z</time>
      </trkpt>
      <trkpt lat="46.17975" lon="6.59409">
        <ele>1719</ele>
        <time>2018-01-24T15:05:19Z</time>
      </trkpt>
      <trkpt lat="46.17973" lon="6.59414">
        <ele>1719</ele>
        <time>2018-01-24T15:05:20Z</time>
      </trkpt>
      <trkpt lat="46.17972" lon="6.59425">
        <ele>1709</ele>
        <time>2018-01-24T15:05:22Z</time>
      </trkpt>
      <trkpt lat="46.17972" lon="6.59431">
        <ele>1709</ele>
        <time>2018-01-24T15:05:23Z</time>
      </trkpt>
      <trkpt lat="46.17973" lon="6.59437">
        <ele>1708</ele>
        <time>2018-01-24T15:05:24Z</time>
      </trkpt>
      <trkpt lat="46.17974" lon="6.59442">
        <ele>1708</ele>
        <time>2018-01-24T15:05:25Z</time>
      </trkpt>
      <trkpt lat="46.17974" lon="6.59447">
        <ele>1707</ele>
        <time>2018-01-24T15:05:26Z</time>
      </trkpt>
      <trkpt lat="46.17973" lon="6.59452">
        <ele>1707</ele>
        <time>2018-01-24T15:05:27Z</time>
      </trkpt>
      <trkpt lat="46.17969" lon="6.59454">
        <ele>1706</ele>
        <time>2018-01-24T15:05:28Z</time>
      </trkpt>
      <trkpt lat="46.17965" lon="6.59457">
        <ele>1705</ele>
        <time>2018-01-24T15:05:29Z</time>
      </trkpt>
      <trkpt lat="46.17962" lon="6.59459">
        <ele>1705</ele>
        <time>2018-01-24T15:05:30Z</time>
      </trkpt>
      <trkpt lat="46.17962" lon="6.59464">
        <ele>1705</ele>
        <time>2018-01-24T15:05:31Z</time>
      </trkpt>
      <trkpt lat="46.17963" lon="6.59468">
        <ele>1704</ele>
        <time>2018-01-24T15:05:32Z</time>
      </trkpt>
      <trkpt lat="46.17963" lon="6.59473">
        <ele>1704</ele>
        <time>2018-01-24T15:05:33Z</time>
      </trkpt>
      <trkpt lat="46.17964" lon="6.59479">
        <ele>1704</ele>
        <time>2018-01-24T15:05:34Z</time>
      </trkpt>
      <trkpt lat="46.17969" lon="6.59515">
        <ele>1697</ele>
        <time>2018-01-24T15:05:41Z</time>
      </trkpt>
      <trkpt lat="46.17965" lon="6.59532">
        <ele>1696</ele>
        <time>2018-01-24T15:05:45Z</time>
      </trkpt>
      <trkpt lat="46.17958" lon="6.59533">
        <ele>1695</ele>
        <time>2018-01-24T15:05:47Z</time>
      </trkpt>
      <trkpt lat="46.17956" lon="6.59538">
        <ele>1694</ele>
        <time>2018-01-24T15:05:48Z</time>
      </trkpt>
      <trkpt lat="46.17953" lon="6.59541">
        <ele>1694</ele>
        <time>2018-01-24T15:05:49Z</time>
      </trkpt>
      <trkpt lat="46.17946" lon="6.59545">
        <ele>1693</ele>
        <time>2018-01-24T15:05:51Z</time>
      </trkpt>
      <trkpt lat="46.17939" lon="6.59553">
        <ele>1691</ele>
        <time>2018-01-24T15:05:53Z</time>
      </trkpt>
      <trkpt lat="46.17931" lon="6.59559">
        <ele>1689</ele>
        <time>2018-01-24T15:05:55Z</time>
      </trkpt>
      <trkpt lat="46.17929" lon="6.59563">
        <ele>1688</ele>
        <time>2018-01-24T15:05:56Z</time>
      </trkpt>
      <trkpt lat="46.1793" lon="6.59569">
        <ele>1687</ele>
        <time>2018-01-24T15:05:57Z</time>
      </trkpt>
      <trkpt lat="46.17929" lon="6.59575">
        <ele>1685</ele>
        <time>2018-01-24T15:05:58Z</time>
      </trkpt>
      <trkpt lat="46.17925" lon="6.5958">
        <ele>1683</ele>
        <time>2018-01-24T15:05:59Z</time>
      </trkpt>
      <trkpt lat="46.17922" lon="6.59585">
        <ele>1679</ele>
        <time>2018-01-24T15:06:00Z</time>
      </trkpt>
      <trkpt lat="46.17922" lon="6.59591">
        <ele>1679</ele>
        <time>2018-01-24T15:06:01Z</time>
      </trkpt>
      <trkpt lat="46.17923" lon="6.59596">
        <ele>1680</ele>
        <time>2018-01-24T15:06:02Z</time>
      </trkpt>
      <trkpt lat="46.17926" lon="6.59601">
        <ele>1680</ele>
        <time>2018-01-24T15:06:03Z</time>
      </trkpt>
      <trkpt lat="46.17929" lon="6.59605">
        <ele>1680</ele>
        <time>2018-01-24T15:06:04Z</time>
      </trkpt>
      <trkpt lat="46.17931" lon="6.59609">
        <ele>1680</ele>
        <time>2018-01-24T15:06:05Z</time>
      </trkpt>
      <trkpt lat="46.17932" lon="6.59612">
        <ele>1680</ele>
        <time>2018-01-24T15:06:06Z</time>
      </trkpt>
      <trkpt lat="46.17953" lon="6.59655">
        <ele>1680</ele>
        <time>2018-01-24T15:06:19Z</time>
      </trkpt>
      <trkpt lat="46.17964" lon="6.59671">
        <ele>1674</ele>
        <time>2018-01-24T15:06:25Z</time>
      </trkpt>
      <trkpt lat="46.1797" lon="6.59673">
        <ele>1675</ele>
        <time>2018-01-24T15:06:30Z</time>
      </trkpt>
      <trkpt lat="46.17974" lon="6.59676">
        <ele>1676</ele>
        <time>2018-01-24T15:06:34Z</time>
      </trkpt>
      <trkpt lat="46.17974" lon="6.59678">
        <ele>1676</ele>
        <time>2018-01-24T15:06:35Z</time>
      </trkpt>
      <trkpt lat="46.17973" lon="6.59681">
        <ele>1676</ele>
        <time>2018-01-24T15:06:36Z</time>
      </trkpt>
      <trkpt lat="46.17973" lon="6.59685">
        <ele>1675</ele>
        <time>2018-01-24T15:06:37Z</time>
      </trkpt>
      <trkpt lat="46.17973" lon="6.59689">
        <ele>1675</ele>
        <time>2018-01-24T15:06:38Z</time>
      </trkpt>
      <trkpt lat="46.17974" lon="6.59694">
        <ele>1674</ele>
        <time>2018-01-24T15:06:39Z</time>
      </trkpt>
      <trkpt lat="46.17974" lon="6.59698">
        <ele>1674</ele>
        <time>2018-01-24T15:06:40Z</time>
      </trkpt>
      <trkpt lat="46.17973" lon="6.59701">
        <ele>1673</ele>
        <time>2018-01-24T15:06:41Z</time>
      </trkpt>
      <trkpt lat="46.17974" lon="6.59705">
        <ele>1673</ele>
        <time>2018-01-24T15:06:42Z</time>
      </trkpt>
      <trkpt lat="46.17974" lon="6.59712">
        <ele>1672</ele>
        <time>2018-01-24T15:06:43Z</time>
      </trkpt>
      <trkpt lat="46.17974" lon="6.59721">
        <ele>1672</ele>
        <time>2018-01-24T15:06:44Z</time>
      </trkpt>
      <trkpt lat="46.17973" lon="6.5973">
        <ele>1671</ele>
        <time>2018-01-24T15:06:45Z</time>
      </trkpt>
      <trkpt lat="46.17971" lon="6.59735">
        <ele>1671</ele>
        <time>2018-01-24T15:06:46Z</time>
      </trkpt>
      <trkpt lat="46.17969" lon="6.59742">
        <ele>1670</ele>
        <time>2018-01-24T15:06:48Z</time>
      </trkpt>
      <trkpt lat="46.17965" lon="6.59753">
        <ele>1661</ele>
        <time>2018-01-24T15:06:53Z</time>
      </trkpt>
      <trkpt lat="46.17964" lon="6.59756">
        <ele>1661</ele>
        <time>2018-01-24T15:06:57Z</time>
      </trkpt>
      <trkpt lat="46.17964" lon="6.59768">
        <ele>1660</ele>
        <time>2018-01-24T15:07:02Z</time>
      </trkpt>
      <trkpt lat="46.17964" lon="6.59774">
        <ele>1659</ele>
        <time>2018-01-24T15:07:03Z</time>
      </trkpt>
      <trkpt lat="46.17963" lon="6.59779">
        <ele>1659</ele>
        <time>2018-01-24T15:07:04Z</time>
      </trkpt>
      <trkpt lat="46.17961" lon="6.59794">
        <ele>1657</ele>
        <time>2018-01-24T15:07:09Z</time>
      </trkpt>
      <trkpt lat="46.1796" lon="6.59796">
        <ele>1657</ele>
        <time>2018-01-24T15:07:11Z</time>
      </trkpt>
      <trkpt lat="46.17959" lon="6.59799">
        <ele>1656</ele>
        <time>2018-01-24T15:07:13Z</time>
      </trkpt>
      <trkpt lat="46.17958" lon="6.59801">
        <ele>1656</ele>
        <time>2018-01-24T15:07:14Z</time>
      </trkpt>
      <trkpt lat="46.17958" lon="6.59805">
        <ele>1655</ele>
        <time>2018-01-24T15:07:15Z</time>
      </trkpt>
      <trkpt lat="46.17958" lon="6.59808">
        <ele>1655</ele>
        <time>2018-01-24T15:07:16Z</time>
      </trkpt>
      <trkpt lat="46.17959" lon="6.59811">
        <ele>1655</ele>
        <time>2018-01-24T15:07:17Z</time>
      </trkpt>
      <trkpt lat="46.17959" lon="6.59815">
        <ele>1655</ele>
        <time>2018-01-24T15:07:18Z</time>
      </trkpt>
      <trkpt lat="46.1796" lon="6.59818">
        <ele>1655</ele>
        <time>2018-01-24T15:07:19Z</time>
      </trkpt>
      <trkpt lat="46.17963" lon="6.59829">
        <ele>1655</ele>
        <time>2018-01-24T15:07:24Z</time>
      </trkpt>
      <trkpt lat="46.17963" lon="6.59831">
        <ele>1655</ele>
        <time>2018-01-24T15:07:25Z</time>
      </trkpt>
      <trkpt lat="46.17969" lon="6.59859">
        <ele>1646</ele>
        <time>2018-01-24T15:07:31Z</time>
      </trkpt>
      <trkpt lat="46.17969" lon="6.59876">
        <ele>1644</ele>
        <time>2018-01-24T15:07:36Z</time>
      </trkpt>
      <trkpt lat="46.17967" lon="6.59877">
        <ele>1643</ele>
        <time>2018-01-24T15:07:37Z</time>
      </trkpt>
      <trkpt lat="46.17963" lon="6.59879">
        <ele>1642</ele>
        <time>2018-01-24T15:07:39Z</time>
      </trkpt>
      <trkpt lat="46.17962" lon="6.59883">
        <ele>1642</ele>
        <time>2018-01-24T15:07:40Z</time>
      </trkpt>
      <trkpt lat="46.17962" lon="6.59904">
        <ele>1640</ele>
        <time>2018-01-24T15:07:45Z</time>
      </trkpt>
      <trkpt lat="46.17963" lon="6.59933">
        <ele>1629</ele>
        <time>2018-01-24T15:07:52Z</time>
      </trkpt>
      <trkpt lat="46.17966" lon="6.59962">
        <ele>1627</ele>
        <time>2018-01-24T15:08:00Z</time>
      </trkpt>
      <trkpt lat="46.17967" lon="6.59972">
        <ele>1626</ele>
        <time>2018-01-24T15:08:03Z</time>
      </trkpt>
      <trkpt lat="46.17966" lon="6.59975">
        <ele>1626</ele>
        <time>2018-01-24T15:08:04Z</time>
      </trkpt>
      <trkpt lat="46.17963" lon="6.59978">
        <ele>1625</ele>
        <time>2018-01-24T15:08:05Z</time>
      </trkpt>
      <trkpt lat="46.17961" lon="6.59982">
        <ele>1624</ele>
        <time>2018-01-24T15:08:06Z</time>
      </trkpt>
      <trkpt lat="46.17961" lon="6.59986">
        <ele>1624</ele>
        <time>2018-01-24T15:08:07Z</time>
      </trkpt>
      <trkpt lat="46.17961" lon="6.59988">
        <ele>1623</ele>
        <time>2018-01-24T15:08:08Z</time>
      </trkpt>
      <trkpt lat="46.17962" lon="6.5999">
        <ele>1623</ele>
        <time>2018-01-24T15:08:09Z</time>
      </trkpt>
      <trkpt lat="46.17962" lon="6.59992">
        <ele>1624</ele>
        <time>2018-01-24T15:08:10Z</time>
      </trkpt>
      <trkpt lat="46.17962" lon="6.59992">
        <ele>1624</ele>
        <time>2018-01-24T15:08:12Z</time>
      </trkpt>
      <trkpt lat="46.17959" lon="6.59995">
        <ele>1622</ele>
        <time>2018-01-24T15:08:21Z</time>
      </trkpt>
      <trkpt lat="46.17957" lon="6.59994">
        <ele>1621</ele>
        <time>2018-01-24T15:08:22Z</time>
      </trkpt>
      <trkpt lat="46.17955" lon="6.59993">
        <ele>1621</ele>
        <time>2018-01-24T15:08:23Z</time>
      </trkpt>
      <trkpt lat="46.17952" lon="6.59993">
        <ele>1620</ele>
        <time>2018-01-24T15:08:24Z</time>
      </trkpt>
      <trkpt lat="46.17949" lon="6.59994">
        <ele>1618</ele>
        <time>2018-01-24T15:08:25Z</time>
      </trkpt>
      <trkpt lat="46.17947" lon="6.59996">
        <ele>1617</ele>
        <time>2018-01-24T15:08:26Z</time>
      </trkpt>
      <trkpt lat="46.17945" lon="6.59997">
        <ele>1616</ele>
        <time>2018-01-24T15:08:27Z</time>
      </trkpt>
      <trkpt lat="46.17944" lon="6.6">
        <ele>1603</ele>
        <time>2018-01-24T15:08:28Z</time>
      </trkpt>
      <trkpt lat="46.17943" lon="6.60005">
        <ele>1603</ele>
        <time>2018-01-24T15:08:29Z</time>
      </trkpt>
      <trkpt lat="46.17944" lon="6.6001">
        <ele>1603</ele>
        <time>2018-01-24T15:08:30Z</time>
      </trkpt>
      <trkpt lat="46.17944" lon="6.60013">
        <ele>1603</ele>
        <time>2018-01-24T15:08:31Z</time>
      </trkpt>
      <trkpt lat="46.17944" lon="6.60016">
        <ele>1603</ele>
        <time>2018-01-24T15:08:32Z</time>
      </trkpt>
      <trkpt lat="46.17946" lon="6.60038">
        <ele>1601</ele>
        <time>2018-01-24T15:08:39Z</time>
      </trkpt>
      <trkpt lat="46.1795" lon="6.60051">
        <ele>1600</ele>
        <time>2018-01-24T15:08:46Z</time>
      </trkpt>
      <trkpt lat="46.1795" lon="6.60052">
        <ele>1600</ele>
        <time>2018-01-24T15:08:52Z</time>
      </trkpt>
      <trkpt lat="46.1795" lon="6.60053">
        <ele>1600</ele>
        <time>2018-01-24T15:08:59Z</time>
      </trkpt>
      <trkpt lat="46.1795" lon="6.60054">
        <ele>1599</ele>
        <time>2018-01-24T15:09:00Z</time>
      </trkpt>
      <trkpt lat="46.17951" lon="6.60057">
        <ele>1599</ele>
        <time>2018-01-24T15:09:01Z</time>
      </trkpt>
      <trkpt lat="46.17951" lon="6.6006">
        <ele>1599</ele>
        <time>2018-01-24T15:09:02Z</time>
      </trkpt>
      <trkpt lat="46.17953" lon="6.60064">
        <ele>1598</ele>
        <time>2018-01-24T15:09:03Z</time>
      </trkpt>
      <trkpt lat="46.17954" lon="6.60068">
        <ele>1598</ele>
        <time>2018-01-24T15:09:04Z</time>
      </trkpt>
      <trkpt lat="46.17955" lon="6.60072">
        <ele>1598</ele>
        <time>2018-01-24T15:09:05Z</time>
      </trkpt>
      <trkpt lat="46.17961" lon="6.60099">
        <ele>1585</ele>
        <time>2018-01-24T15:09:13Z</time>
      </trkpt>
      <trkpt lat="46.17964" lon="6.60104">
        <ele>1585</ele>
        <time>2018-01-24T15:09:16Z</time>
      </trkpt>
      <trkpt lat="46.17964" lon="6.60107">
        <ele>1584</ele>
        <time>2018-01-24T15:09:17Z</time>
      </trkpt>
      <trkpt lat="46.17963" lon="6.6011">
        <ele>1584</ele>
        <time>2018-01-24T15:09:18Z</time>
      </trkpt>
      <trkpt lat="46.17961" lon="6.60111">
        <ele>1583</ele>
        <time>2018-01-24T15:09:19Z</time>
      </trkpt>
      <trkpt lat="46.17958" lon="6.60112">
        <ele>1582</ele>
        <time>2018-01-24T15:09:20Z</time>
      </trkpt>
      <trkpt lat="46.17957" lon="6.60115">
        <ele>1582</ele>
        <time>2018-01-24T15:09:21Z</time>
      </trkpt>
      <trkpt lat="46.17956" lon="6.60119">
        <ele>1581</ele>
        <time>2018-01-24T15:09:22Z</time>
      </trkpt>
      <trkpt lat="46.17955" lon="6.60122">
        <ele>1580</ele>
        <time>2018-01-24T15:09:23Z</time>
      </trkpt>
      <trkpt lat="46.17953" lon="6.60123">
        <ele>1580</ele>
        <time>2018-01-24T15:09:24Z</time>
      </trkpt>
      <trkpt lat="46.17951" lon="6.60122">
        <ele>1579</ele>
        <time>2018-01-24T15:09:25Z</time>
      </trkpt>
      <trkpt lat="46.17949" lon="6.60123">
        <ele>1579</ele>
        <time>2018-01-24T15:09:26Z</time>
      </trkpt>
      <trkpt lat="46.17947" lon="6.60125">
        <ele>1578</ele>
        <time>2018-01-24T15:09:27Z</time>
      </trkpt>
      <trkpt lat="46.17948" lon="6.60127">
        <ele>1578</ele>
        <time>2018-01-24T15:09:28Z</time>
      </trkpt>
      <trkpt lat="46.17949" lon="6.6013">
        <ele>1578</ele>
        <time>2018-01-24T15:09:29Z</time>
      </trkpt>
      <trkpt lat="46.17949" lon="6.60133">
        <ele>1578</ele>
        <time>2018-01-24T15:09:30Z</time>
      </trkpt>
      <trkpt lat="46.17947" lon="6.60137">
        <ele>1577</ele>
        <time>2018-01-24T15:09:31Z</time>
      </trkpt>
      <trkpt lat="46.17945" lon="6.60136">
        <ele>1576</ele>
        <time>2018-01-24T15:09:32Z</time>
      </trkpt>
      <trkpt lat="46.17942" lon="6.60135">
        <ele>1576</ele>
        <time>2018-01-24T15:09:33Z</time>
      </trkpt>
      <trkpt lat="46.17941" lon="6.60136">
        <ele>1575</ele>
        <time>2018-01-24T15:09:34Z</time>
      </trkpt>
      <trkpt lat="46.1794" lon="6.60137">
        <ele>1575</ele>
        <time>2018-01-24T15:09:35Z</time>
      </trkpt>
      <trkpt lat="46.17941" lon="6.60139">
        <ele>1575</ele>
        <time>2018-01-24T15:09:36Z</time>
      </trkpt>
      <trkpt lat="46.17942" lon="6.60141">
        <ele>1575</ele>
        <time>2018-01-24T15:09:37Z</time>
      </trkpt>
      <trkpt lat="46.17943" lon="6.60144">
        <ele>1574</ele>
        <time>2018-01-24T15:09:38Z</time>
      </trkpt>
      <trkpt lat="46.17943" lon="6.60158">
        <ele>1572</ele>
        <time>2018-01-24T15:09:42Z</time>
      </trkpt>
      <trkpt lat="46.17939" lon="6.60161">
        <ele>1570</ele>
        <time>2018-01-24T15:09:44Z</time>
      </trkpt>
      <trkpt lat="46.17939" lon="6.60164">
        <ele>1570</ele>
        <time>2018-01-24T15:09:45Z</time>
      </trkpt>
      <trkpt lat="46.17939" lon="6.60168">
        <ele>1556</ele>
        <time>2018-01-24T15:09:46Z</time>
      </trkpt>
      <trkpt lat="46.17937" lon="6.60171">
        <ele>1556</ele>
        <time>2018-01-24T15:09:47Z</time>
      </trkpt>
      <trkpt lat="46.17935" lon="6.60171">
        <ele>1555</ele>
        <time>2018-01-24T15:09:48Z</time>
      </trkpt>
      <trkpt lat="46.17933" lon="6.6017">
        <ele>1555</ele>
        <time>2018-01-24T15:09:49Z</time>
      </trkpt>
      <trkpt lat="46.17931" lon="6.60171">
        <ele>1555</ele>
        <time>2018-01-24T15:09:50Z</time>
      </trkpt>
      <trkpt lat="46.17929" lon="6.60173">
        <ele>1554</ele>
        <time>2018-01-24T15:09:51Z</time>
      </trkpt>
      <trkpt lat="46.1793" lon="6.60176">
        <ele>1554</ele>
        <time>2018-01-24T15:09:52Z</time>
      </trkpt>
      <trkpt lat="46.17931" lon="6.60177">
        <ele>1554</ele>
        <time>2018-01-24T15:09:53Z</time>
      </trkpt>
      <trkpt lat="46.17931" lon="6.60178">
        <ele>1554</ele>
        <time>2018-01-24T15:09:54Z</time>
      </trkpt>
      <trkpt lat="46.1793" lon="6.60179">
        <ele>1554</ele>
        <time>2018-01-24T15:10:01Z</time>
      </trkpt>
      <trkpt lat="46.1793" lon="6.60181">
        <ele>1554</ele>
        <time>2018-01-24T15:10:02Z</time>
      </trkpt>
      <trkpt lat="46.17929" lon="6.60183">
        <ele>1554</ele>
        <time>2018-01-24T15:10:03Z</time>
      </trkpt>
      <trkpt lat="46.17927" lon="6.60186">
        <ele>1553</ele>
        <time>2018-01-24T15:10:05Z</time>
      </trkpt>
      <trkpt lat="46.17928" lon="6.6019">
        <ele>1553</ele>
        <time>2018-01-24T15:10:06Z</time>
      </trkpt>
      <trkpt lat="46.17929" lon="6.60192">
        <ele>1553</ele>
        <time>2018-01-24T15:10:07Z</time>
      </trkpt>
      <trkpt lat="46.1793" lon="6.60195">
        <ele>1553</ele>
        <time>2018-01-24T15:10:08Z</time>
      </trkpt>
      <trkpt lat="46.17931" lon="6.60196">
        <ele>1552</ele>
        <time>2018-01-24T15:10:09Z</time>
      </trkpt>
      <trkpt lat="46.1793" lon="6.60198">
        <ele>1552</ele>
        <time>2018-01-24T15:10:10Z</time>
      </trkpt>
      <trkpt lat="46.1793" lon="6.60199">
        <ele>1552</ele>
        <time>2018-01-24T15:10:11Z</time>
      </trkpt>
      <trkpt lat="46.1793" lon="6.60202">
        <ele>1551</ele>
        <time>2018-01-24T15:10:12Z</time>
      </trkpt>
      <trkpt lat="46.17931" lon="6.60206">
        <ele>1551</ele>
        <time>2018-01-24T15:10:13Z</time>
      </trkpt>
      <trkpt lat="46.17931" lon="6.6021">
        <ele>1550</ele>
        <time>2018-01-24T15:10:14Z</time>
      </trkpt>
      <trkpt lat="46.17939" lon="6.60236">
        <ele>1544</ele>
        <time>2018-01-24T15:10:20Z</time>
      </trkpt>
      <trkpt lat="46.17945" lon="6.60253">
        <ele>1530</ele>
        <time>2018-01-24T15:10:23Z</time>
      </trkpt>
      <trkpt lat="46.17946" lon="6.60258">
        <ele>1530</ele>
        <time>2018-01-24T15:10:24Z</time>
      </trkpt>
      <trkpt lat="46.17947" lon="6.60263">
        <ele>1530</ele>
        <time>2018-01-24T15:10:25Z</time>
      </trkpt>
      <trkpt lat="46.17946" lon="6.60266">
        <ele>1530</ele>
        <time>2018-01-24T15:10:26Z</time>
      </trkpt>
      <trkpt lat="46.17947" lon="6.60268">
        <ele>1530</ele>
        <time>2018-01-24T15:10:39Z</time>
      </trkpt>
      <trkpt lat="46.17948" lon="6.60268">
        <ele>1530</ele>
        <time>2018-01-24T15:10:47Z</time>
      </trkpt>
      <trkpt lat="46.17947" lon="6.60267">
        <ele>1530</ele>
        <time>2018-01-24T15:10:51Z</time>
      </trkpt>
      <trkpt lat="46.17947" lon="6.60266">
        <ele>1530</ele>
        <time>2018-01-24T15:11:04Z</time>
      </trkpt>
      <trkpt lat="46.17948" lon="6.60271">
        <ele>1530</ele>
        <time>2018-01-24T15:11:10Z</time>
      </trkpt>
      <trkpt lat="46.17949" lon="6.60272">
        <ele>1530</ele>
        <time>2018-01-24T15:11:11Z</time>
      </trkpt>
      <trkpt lat="46.1795" lon="6.60273">
        <ele>1530</ele>
        <time>2018-01-24T15:11:12Z</time>
      </trkpt>
      <trkpt lat="46.17951" lon="6.60274">
        <ele>1530</ele>
        <time>2018-01-24T15:11:13Z</time>
      </trkpt>
      <trkpt lat="46.17953" lon="6.60275">
        <ele>1531</ele>
        <time>2018-01-24T15:11:15Z</time>
      </trkpt>
      <trkpt lat="46.17954" lon="6.60278">
        <ele>1531</ele>
        <time>2018-01-24T15:11:16Z</time>
      </trkpt>
      <trkpt lat="46.17954" lon="6.60281">
        <ele>1530</ele>
        <time>2018-01-24T15:11:17Z</time>
      </trkpt>
      <trkpt lat="46.17953" lon="6.60283">
        <ele>1530</ele>
        <time>2018-01-24T15:11:18Z</time>
      </trkpt>
      <trkpt lat="46.17951" lon="6.60286">
        <ele>1529</ele>
        <time>2018-01-24T15:11:19Z</time>
      </trkpt>
      <trkpt lat="46.17951" lon="6.60288">
        <ele>1529</ele>
        <time>2018-01-24T15:11:20Z</time>
      </trkpt>
      <trkpt lat="46.17952" lon="6.60291">
        <ele>1529</ele>
        <time>2018-01-24T15:11:21Z</time>
      </trkpt>
      <trkpt lat="46.17954" lon="6.60292">
        <ele>1529</ele>
        <time>2018-01-24T15:11:22Z</time>
      </trkpt>
      <trkpt lat="46.17956" lon="6.60293">
        <ele>1530</ele>
        <time>2018-01-24T15:11:23Z</time>
      </trkpt>
      <trkpt lat="46.17959" lon="6.60294">
        <ele>1530</ele>
        <time>2018-01-24T15:11:24Z</time>
      </trkpt>
      <trkpt lat="46.17961" lon="6.60296">
        <ele>1530</ele>
        <time>2018-01-24T15:11:25Z</time>
      </trkpt>
      <trkpt lat="46.17964" lon="6.60296">
        <ele>1530</ele>
        <time>2018-01-24T15:11:26Z</time>
      </trkpt>
      <trkpt lat="46.17967" lon="6.60297">
        <ele>1531</ele>
        <time>2018-01-24T15:11:27Z</time>
      </trkpt>
      <trkpt lat="46.17969" lon="6.603">
        <ele>1531</ele>
        <time>2018-01-24T15:11:31Z</time>
      </trkpt>
      <trkpt lat="46.17969" lon="6.60303">
        <ele>1531</ele>
        <time>2018-01-24T15:11:32Z</time>
      </trkpt>
      <trkpt lat="46.17968" lon="6.60306">
        <ele>1530</ele>
        <time>2018-01-24T15:11:33Z</time>
      </trkpt>
      <trkpt lat="46.17968" lon="6.60309">
        <ele>1530</ele>
        <time>2018-01-24T15:11:34Z</time>
      </trkpt>
      <trkpt lat="46.1797" lon="6.60312">
        <ele>1530</ele>
        <time>2018-01-24T15:11:35Z</time>
      </trkpt>
      <trkpt lat="46.17971" lon="6.60313">
        <ele>1530</ele>
        <time>2018-01-24T15:11:36Z</time>
      </trkpt>
      <trkpt lat="46.17973" lon="6.60315">
        <ele>1530</ele>
        <time>2018-01-24T15:11:37Z</time>
      </trkpt>
      <trkpt lat="46.17979" lon="6.60325">
        <ele>1531</ele>
        <time>2018-01-24T15:11:40Z</time>
      </trkpt>
      <trkpt lat="46.17978" lon="6.60329">
        <ele>1530</ele>
        <time>2018-01-24T15:11:41Z</time>
      </trkpt>
      <trkpt lat="46.17976" lon="6.60331">
        <ele>1530</ele>
        <time>2018-01-24T15:11:42Z</time>
      </trkpt>
      <trkpt lat="46.17974" lon="6.60334">
        <ele>1521</ele>
        <time>2018-01-24T15:11:43Z</time>
      </trkpt>
      <trkpt lat="46.17974" lon="6.60338">
        <ele>1521</ele>
        <time>2018-01-24T15:11:44Z</time>
      </trkpt>
      <trkpt lat="46.17976" lon="6.60341">
        <ele>1521</ele>
        <time>2018-01-24T15:11:45Z</time>
      </trkpt>
      <trkpt lat="46.17977" lon="6.60345">
        <ele>1521</ele>
        <time>2018-01-24T15:11:46Z</time>
      </trkpt>
      <trkpt lat="46.17978" lon="6.60349">
        <ele>1520</ele>
        <time>2018-01-24T15:11:47Z</time>
      </trkpt>
      <trkpt lat="46.17976" lon="6.60354">
        <ele>1519</ele>
        <time>2018-01-24T15:11:48Z</time>
      </trkpt>
      <trkpt lat="46.17973" lon="6.60354">
        <ele>1518</ele>
        <time>2018-01-24T15:11:49Z</time>
      </trkpt>
      <trkpt lat="46.17971" lon="6.60353">
        <ele>1518</ele>
        <time>2018-01-24T15:11:50Z</time>
      </trkpt>
      <trkpt lat="46.17969" lon="6.60355">
        <ele>1518</ele>
        <time>2018-01-24T15:11:53Z</time>
      </trkpt>
      <trkpt lat="46.17968" lon="6.60357">
        <ele>1517</ele>
        <time>2018-01-24T15:11:54Z</time>
      </trkpt>
      <trkpt lat="46.17968" lon="6.60362">
        <ele>1517</ele>
        <time>2018-01-24T15:11:55Z</time>
      </trkpt>
      <trkpt lat="46.17968" lon="6.60368">
        <ele>1516</ele>
        <time>2018-01-24T15:11:56Z</time>
      </trkpt>
      <trkpt lat="46.17967" lon="6.60373">
        <ele>1516</ele>
        <time>2018-01-24T15:11:57Z</time>
      </trkpt>
      <trkpt lat="46.17967" lon="6.60376">
        <ele>1515</ele>
        <time>2018-01-24T15:11:58Z</time>
      </trkpt>
      <trkpt lat="46.17967" lon="6.6038">
        <ele>1515</ele>
        <time>2018-01-24T15:11:59Z</time>
      </trkpt>
      <trkpt lat="46.17967" lon="6.60382">
        <ele>1515</ele>
        <time>2018-01-24T15:12:00Z</time>
      </trkpt>
      <trkpt lat="46.17967" lon="6.60385">
        <ele>1515</ele>
        <time>2018-01-24T15:12:04Z</time>
      </trkpt>
      <trkpt lat="46.17966" lon="6.60388">
        <ele>1514</ele>
        <time>2018-01-24T15:12:05Z</time>
      </trkpt>
      <trkpt lat="46.17965" lon="6.60393">
        <ele>1514</ele>
        <time>2018-01-24T15:12:06Z</time>
      </trkpt>
      <trkpt lat="46.17965" lon="6.60397">
        <ele>1514</ele>
        <time>2018-01-24T15:12:07Z</time>
      </trkpt>
      <trkpt lat="46.17964" lon="6.60402">
        <ele>1513</ele>
        <time>2018-01-24T15:12:08Z</time>
      </trkpt>
      <trkpt lat="46.17963" lon="6.60405">
        <ele>1513</ele>
        <time>2018-01-24T15:12:09Z</time>
      </trkpt>
      <trkpt lat="46.17961" lon="6.60408">
        <ele>1512</ele>
        <time>2018-01-24T15:12:10Z</time>
      </trkpt>
      <trkpt lat="46.17959" lon="6.6041">
        <ele>1512</ele>
        <time>2018-01-24T15:12:11Z</time>
      </trkpt>
      <trkpt lat="46.17956" lon="6.6041">
        <ele>1511</ele>
        <time>2018-01-24T15:12:12Z</time>
      </trkpt>
      <trkpt lat="46.17951" lon="6.60414">
        <ele>1509</ele>
        <time>2018-01-24T15:12:14Z</time>
      </trkpt>
      <trkpt lat="46.17949" lon="6.60416">
        <ele>1509</ele>
        <time>2018-01-24T15:12:17Z</time>
      </trkpt>
      <trkpt lat="46.17948" lon="6.60419">
        <ele>1503</ele>
        <time>2018-01-24T15:12:23Z</time>
      </trkpt>
      <trkpt lat="46.17945" lon="6.6042">
        <ele>1502</ele>
        <time>2018-01-24T15:12:25Z</time>
      </trkpt>
      <trkpt lat="46.17943" lon="6.60423">
        <ele>1501</ele>
        <time>2018-01-24T15:12:27Z</time>
      </trkpt>
      <trkpt lat="46.17943" lon="6.60426">
        <ele>1502</ele>
        <time>2018-01-24T15:12:28Z</time>
      </trkpt>
      <trkpt lat="46.17945" lon="6.60429">
        <ele>1502</ele>
        <time>2018-01-24T15:12:29Z</time>
      </trkpt>
      <trkpt lat="46.17946" lon="6.60432">
        <ele>1503</ele>
        <time>2018-01-24T15:12:30Z</time>
      </trkpt>
      <trkpt lat="46.17946" lon="6.60433">
        <ele>1503</ele>
        <time>2018-01-24T15:12:31Z</time>
      </trkpt>
      <trkpt lat="46.17946" lon="6.60435">
        <ele>1503</ele>
        <time>2018-01-24T15:12:32Z</time>
      </trkpt>
      <trkpt lat="46.17946" lon="6.60438">
        <ele>1503</ele>
        <time>2018-01-24T15:12:33Z</time>
      </trkpt>
      <trkpt lat="46.17946" lon="6.60441">
        <ele>1503</ele>
        <time>2018-01-24T15:12:34Z</time>
      </trkpt>
      <trkpt lat="46.17945" lon="6.60452">
        <ele>1503</ele>
        <time>2018-01-24T15:12:38Z</time>
      </trkpt>
      <trkpt lat="46.17947" lon="6.60455">
        <ele>1503</ele>
        <time>2018-01-24T15:12:43Z</time>
      </trkpt>
      <trkpt lat="46.17946" lon="6.60461">
        <ele>1502</ele>
        <time>2018-01-24T15:12:54Z</time>
      </trkpt>
      <trkpt lat="46.17946" lon="6.60463">
        <ele>1502</ele>
        <time>2018-01-24T15:12:55Z</time>
      </trkpt>
      <trkpt lat="46.17945" lon="6.60465">
        <ele>1502</ele>
        <time>2018-01-24T15:12:57Z</time>
      </trkpt>
      <trkpt lat="46.17945" lon="6.60468">
        <ele>1502</ele>
        <time>2018-01-24T15:12:58Z</time>
      </trkpt>
      <trkpt lat="46.17945" lon="6.6047">
        <ele>1502</ele>
        <time>2018-01-24T15:12:59Z</time>
      </trkpt>
      <trkpt lat="46.17939" lon="6.60492">
        <ele>1499</ele>
        <time>2018-01-24T15:13:04Z</time>
      </trkpt>
      <trkpt lat="46.17937" lon="6.60493">
        <ele>1498</ele>
        <time>2018-01-24T15:13:05Z</time>
      </trkpt>
      <trkpt lat="46.17935" lon="6.60494">
        <ele>1497</ele>
        <time>2018-01-24T15:13:06Z</time>
      </trkpt>
      <trkpt lat="46.17934" lon="6.60495">
        <ele>1497</ele>
        <time>2018-01-24T15:13:07Z</time>
      </trkpt>
      <trkpt lat="46.17932" lon="6.60498">
        <ele>1496</ele>
        <time>2018-01-24T15:13:08Z</time>
      </trkpt>
      <trkpt lat="46.1793" lon="6.60501">
        <ele>1495</ele>
        <time>2018-01-24T15:13:09Z</time>
      </trkpt>
      <trkpt lat="46.17925" lon="6.60517">
        <ele>1497</ele>
        <time>2018-01-24T15:13:15Z</time>
      </trkpt>
      <trkpt lat="46.17927" lon="6.60541">
        <ele>1500</ele>
        <time>2018-01-24T15:13:23Z</time>
      </trkpt>
      <trkpt lat="46.17927" lon="6.60549">
        <ele>1500</ele>
        <time>2018-01-24T15:13:29Z</time>
      </trkpt>
      <trkpt lat="46.17927" lon="6.60551">
        <ele>1500</ele>
        <time>2018-01-24T15:13:30Z</time>
      </trkpt>
      <trkpt lat="46.17924" lon="6.60557">
        <ele>1499</ele>
        <time>2018-01-24T15:13:37Z</time>
      </trkpt>
      <trkpt lat="46.17907" lon="6.60572">
        <ele>1483</ele>
        <time>2018-01-24T15:13:44Z</time>
      </trkpt>
      <trkpt lat="46.17887" lon="6.60584">
        <ele>1480</ele>
        <time>2018-01-24T15:13:50Z</time>
      </trkpt>
      <trkpt lat="46.17869" lon="6.60605">
        <ele>1476</ele>
        <time>2018-01-24T15:13:58Z</time>
      </trkpt>
      <trkpt lat="46.17856" lon="6.60624">
        <ele>1474</ele>
        <time>2018-01-24T15:14:04Z</time>
      </trkpt>
      <trkpt lat="46.17855" lon="6.60625">
        <ele>1474</ele>
        <time>2018-01-24T15:14:07Z</time>
      </trkpt>
      <trkpt lat="46.17857" lon="6.60623">
        <ele>1474</ele>
        <time>2018-01-24T15:14:09Z</time>
      </trkpt>
      <trkpt lat="46.17858" lon="6.60623">
        <ele>1475</ele>
        <time>2018-01-24T15:14:10Z</time>
      </trkpt>
      <trkpt lat="46.17855" lon="6.60627">
        <ele>1474</ele>
        <time>2018-01-24T15:14:16Z</time>
      </trkpt>
      <trkpt lat="46.17853" lon="6.60628">
        <ele>1474</ele>
        <time>2018-01-24T15:14:17Z</time>
      </trkpt>
      <trkpt lat="46.1785" lon="6.60627">
        <ele>1473</ele>
        <time>2018-01-24T15:14:18Z</time>
      </trkpt>
      <trkpt lat="46.17848" lon="6.60625">
        <ele>1473</ele>
        <time>2018-01-24T15:14:19Z</time>
      </trkpt>
      <trkpt lat="46.17846" lon="6.60625">
        <ele>1473</ele>
        <time>2018-01-24T15:14:20Z</time>
      </trkpt>
      <trkpt lat="46.17846" lon="6.60626">
        <ele>1473</ele>
        <time>2018-01-24T15:14:21Z</time>
      </trkpt>
      <trkpt lat="46.17846" lon="6.60628">
        <ele>1473</ele>
        <time>2018-01-24T15:14:22Z</time>
      </trkpt>
      <trkpt lat="46.17846" lon="6.6063">
        <ele>1473</ele>
        <time>2018-01-24T15:14:23Z</time>
      </trkpt>
      <trkpt lat="46.17846" lon="6.60631">
        <ele>1473</ele>
        <time>2018-01-24T15:14:24Z</time>
      </trkpt>
      <trkpt lat="46.17846" lon="6.60632">
        <ele>1473</ele>
        <time>2018-01-24T15:14:25Z</time>
      </trkpt>
      <trkpt lat="46.17848" lon="6.60636">
        <ele>1473</ele>
        <time>2018-01-24T15:14:32Z</time>
      </trkpt>
      <trkpt lat="46.17847" lon="6.60637">
        <ele>1473</ele>
        <time>2018-01-24T15:14:33Z</time>
      </trkpt>
      <trkpt lat="46.17845" lon="6.60639">
        <ele>1473</ele>
        <time>2018-01-24T15:14:35Z</time>
      </trkpt>
      <trkpt lat="46.17845" lon="6.60641">
        <ele>1472</ele>
        <time>2018-01-24T15:14:36Z</time>
      </trkpt>
      <trkpt lat="46.17844" lon="6.60646">
        <ele>1472</ele>
        <time>2018-01-24T15:14:47Z</time>
      </trkpt>
      <trkpt lat="46.1784" lon="6.60647">
        <ele>1471</ele>
        <time>2018-01-24T15:15:09Z</time>
      </trkpt>
      <trkpt lat="46.17838" lon="6.6065">
        <ele>1470</ele>
        <time>2018-01-24T15:15:15Z</time>
      </trkpt>
      <trkpt lat="46.17837" lon="6.60653">
        <ele>1469</ele>
        <time>2018-01-24T15:15:16Z</time>
      </trkpt>
      <trkpt lat="46.17837" lon="6.60655">
        <ele>1469</ele>
        <time>2018-01-24T15:15:17Z</time>
      </trkpt>
      <trkpt lat="46.17837" lon="6.60658">
        <ele>1468</ele>
        <time>2018-01-24T15:15:18Z</time>
      </trkpt>
      <trkpt lat="46.17836" lon="6.60661">
        <ele>1466</ele>
        <time>2018-01-24T15:15:19Z</time>
      </trkpt>
      <trkpt lat="46.17834" lon="6.60665">
        <ele>1464</ele>
        <time>2018-01-24T15:15:20Z</time>
      </trkpt>
      <trkpt lat="46.17831" lon="6.60667">
        <ele>1462</ele>
        <time>2018-01-24T15:15:21Z</time>
      </trkpt>
      <trkpt lat="46.1783" lon="6.60667">
        <ele>1462</ele>
        <time>2018-01-24T15:15:22Z</time>
      </trkpt>
      <trkpt lat="46.17828" lon="6.60668">
        <ele>1461</ele>
        <time>2018-01-24T15:15:25Z</time>
      </trkpt>
      <trkpt lat="46.17827" lon="6.6067">
        <ele>1460</ele>
        <time>2018-01-24T15:15:26Z</time>
      </trkpt>
      <trkpt lat="46.17825" lon="6.60672">
        <ele>1459</ele>
        <time>2018-01-24T15:15:27Z</time>
      </trkpt>
      <trkpt lat="46.1781" lon="6.60699">
        <ele>1455</ele>
        <time>2018-01-24T15:15:33Z</time>
      </trkpt>
      <trkpt lat="46.17802" lon="6.60716">
        <ele>1455</ele>
        <time>2018-01-24T15:15:37Z</time>
      </trkpt>
      <trkpt lat="46.17797" lon="6.60729">
        <ele>1454</ele>
        <time>2018-01-24T15:15:41Z</time>
      </trkpt>
      <trkpt lat="46.17795" lon="6.60731">
        <ele>1454</ele>
        <time>2018-01-24T15:15:46Z</time>
      </trkpt>
      <trkpt lat="46.17793" lon="6.60733">
        <ele>1454</ele>
        <time>2018-01-24T15:15:47Z</time>
      </trkpt>
      <trkpt lat="46.17792" lon="6.60736">
        <ele>1453</ele>
        <time>2018-01-24T15:15:48Z</time>
      </trkpt>
      <trkpt lat="46.1779" lon="6.60741">
        <ele>1453</ele>
        <time>2018-01-24T15:15:49Z</time>
      </trkpt>
      <trkpt lat="46.17789" lon="6.60746">
        <ele>1453</ele>
        <time>2018-01-24T15:15:50Z</time>
      </trkpt>
      <trkpt lat="46.17778" lon="6.60766">
        <ele>1455</ele>
        <time>2018-01-24T15:15:55Z</time>
      </trkpt>
      <trkpt lat="46.17777" lon="6.60764">
        <ele>1454</ele>
        <time>2018-01-24T15:15:56Z</time>
      </trkpt>
      <trkpt lat="46.17776" lon="6.60761">
        <ele>1454</ele>
        <time>2018-01-24T15:15:57Z</time>
      </trkpt>
      <trkpt lat="46.17776" lon="6.60758">
        <ele>1454</ele>
        <time>2018-01-24T15:15:58Z</time>
      </trkpt>
      <trkpt lat="46.17777" lon="6.60756">
        <ele>1454</ele>
        <time>2018-01-24T15:15:59Z</time>
      </trkpt>
      <trkpt lat="46.17777" lon="6.60754">
        <ele>1453</ele>
        <time>2018-01-24T15:16:04Z</time>
      </trkpt>
      <trkpt lat="46.17774" lon="6.60748">
        <ele>1447</ele>
        <time>2018-01-24T15:16:09Z</time>
      </trkpt>
      <trkpt lat="46.17773" lon="6.60748">
        <ele>1447</ele>
        <time>2018-01-24T15:16:10Z</time>
      </trkpt>
      <trkpt lat="46.17771" lon="6.60749">
        <ele>1446</ele>
        <time>2018-01-24T15:16:11Z</time>
      </trkpt>
      <trkpt lat="46.1777" lon="6.60751">
        <ele>1450</ele>
        <time>2018-01-24T15:16:12Z</time>
      </trkpt>
      <trkpt lat="46.17766" lon="6.60749">
        <ele>1444</ele>
        <time>2018-01-24T15:16:14Z</time>
      </trkpt>
      <trkpt lat="46.17764" lon="6.60746">
        <ele>1443</ele>
        <time>2018-01-24T15:16:15Z</time>
      </trkpt>
      <trkpt lat="46.17762" lon="6.60741">
        <ele>1443</ele>
        <time>2018-01-24T15:16:16Z</time>
      </trkpt>
      <trkpt lat="46.17759" lon="6.60738">
        <ele>1443</ele>
        <time>2018-01-24T15:16:17Z</time>
      </trkpt>
      <trkpt lat="46.17757" lon="6.60739">
        <ele>1443</ele>
        <time>2018-01-24T15:16:18Z</time>
      </trkpt>
      <trkpt lat="46.17754" lon="6.60741">
        <ele>1441</ele>
        <time>2018-01-24T15:16:19Z</time>
      </trkpt>
      <trkpt lat="46.17753" lon="6.60744">
        <ele>1440</ele>
        <time>2018-01-24T15:16:20Z</time>
      </trkpt>
      <trkpt lat="46.17751" lon="6.60746">
        <ele>1438</ele>
        <time>2018-01-24T15:16:22Z</time>
      </trkpt>
      <trkpt lat="46.17749" lon="6.60747">
        <ele>1435</ele>
        <time>2018-01-24T15:16:23Z</time>
      </trkpt>
      <trkpt lat="46.17747" lon="6.60749">
        <ele>1435</ele>
        <time>2018-01-24T15:16:24Z</time>
      </trkpt>
      <trkpt lat="46.17744" lon="6.6075">
        <ele>1433</ele>
        <time>2018-01-24T15:16:25Z</time>
      </trkpt>
      <trkpt lat="46.1774" lon="6.6075">
        <ele>1432</ele>
        <time>2018-01-24T15:16:26Z</time>
      </trkpt>
      <trkpt lat="46.17737" lon="6.60749">
        <ele>1431</ele>
        <time>2018-01-24T15:16:27Z</time>
      </trkpt>
      <trkpt lat="46.17731" lon="6.60749">
        <ele>1430</ele>
        <time>2018-01-24T15:16:29Z</time>
      </trkpt>
      <trkpt lat="46.17727" lon="6.60749">
        <ele>1429</ele>
        <time>2018-01-24T15:16:30Z</time>
      </trkpt>
      <trkpt lat="46.17723" lon="6.6075">
        <ele>1428</ele>
        <time>2018-01-24T15:16:31Z</time>
      </trkpt>
      <trkpt lat="46.17715" lon="6.60752">
        <ele>1426</ele>
        <time>2018-01-24T15:16:33Z</time>
      </trkpt>
      <trkpt lat="46.17713" lon="6.60754">
        <ele>1426</ele>
        <time>2018-01-24T15:16:34Z</time>
      </trkpt>
      <trkpt lat="46.17711" lon="6.60755">
        <ele>1425</ele>
        <time>2018-01-24T15:16:35Z</time>
      </trkpt>
      <trkpt lat="46.17708" lon="6.60756">
        <ele>1425</ele>
        <time>2018-01-24T15:16:36Z</time>
      </trkpt>
      <trkpt lat="46.17705" lon="6.60754">
        <ele>1424</ele>
        <time>2018-01-24T15:16:37Z</time>
      </trkpt>
      <trkpt lat="46.17702" lon="6.60751">
        <ele>1423</ele>
        <time>2018-01-24T15:16:38Z</time>
      </trkpt>
      <trkpt lat="46.17699" lon="6.60751">
        <ele>1422</ele>
        <time>2018-01-24T15:16:39Z</time>
      </trkpt>
      <trkpt lat="46.17697" lon="6.60753">
        <ele>1422</ele>
        <time>2018-01-24T15:16:40Z</time>
      </trkpt>
      <trkpt lat="46.17695" lon="6.60754">
        <ele>1421</ele>
        <time>2018-01-24T15:16:41Z</time>
      </trkpt>
      <trkpt lat="46.17692" lon="6.60753">
        <ele>1420</ele>
        <time>2018-01-24T15:16:42Z</time>
      </trkpt>
      <trkpt lat="46.17688" lon="6.60751">
        <ele>1419</ele>
        <time>2018-01-24T15:16:43Z</time>
      </trkpt>
      <trkpt lat="46.17684" lon="6.6075">
        <ele>1418</ele>
        <time>2018-01-24T15:16:44Z</time>
      </trkpt>
      <trkpt lat="46.1768" lon="6.6075">
        <ele>1417</ele>
        <time>2018-01-24T15:16:45Z</time>
      </trkpt>
      <trkpt lat="46.17678" lon="6.60751">
        <ele>1416</ele>
        <time>2018-01-24T15:16:46Z</time>
      </trkpt>
      <trkpt lat="46.17677" lon="6.60754">
        <ele>1416</ele>
        <time>2018-01-24T15:16:47Z</time>
      </trkpt>
      <trkpt lat="46.17674" lon="6.60755">
        <ele>1415</ele>
        <time>2018-01-24T15:16:48Z</time>
      </trkpt>
      <trkpt lat="46.1767" lon="6.60756">
        <ele>1414</ele>
        <time>2018-01-24T15:16:49Z</time>
      </trkpt>
      <trkpt lat="46.17668" lon="6.60754">
        <ele>1413</ele>
        <time>2018-01-24T15:16:50Z</time>
      </trkpt>
      <trkpt lat="46.17664" lon="6.6075">
        <ele>1410</ele>
        <time>2018-01-24T15:16:51Z</time>
      </trkpt>
      <trkpt lat="46.17662" lon="6.60749">
        <ele>1411</ele>
        <time>2018-01-24T15:16:52Z</time>
      </trkpt>
      <trkpt lat="46.17659" lon="6.6075">
        <ele>1409</ele>
        <time>2018-01-24T15:16:53Z</time>
      </trkpt>
      <trkpt lat="46.17656" lon="6.60753">
        <ele>1408</ele>
        <time>2018-01-24T15:16:54Z</time>
      </trkpt>
      <trkpt lat="46.17654" lon="6.60757">
        <ele>1407</ele>
        <time>2018-01-24T15:16:55Z</time>
      </trkpt>
      <trkpt lat="46.17639" lon="6.60765">
        <ele>1405</ele>
        <time>2018-01-24T15:16:59Z</time>
      </trkpt>
      <trkpt lat="46.17638" lon="6.60771">
        <ele>1404</ele>
        <time>2018-01-24T15:17:00Z</time>
      </trkpt>
      <trkpt lat="46.17636" lon="6.60776">
        <ele>1404</ele>
        <time>2018-01-24T15:17:01Z</time>
      </trkpt>
      <trkpt lat="46.17634" lon="6.6078">
        <ele>1404</ele>
        <time>2018-01-24T15:17:02Z</time>
      </trkpt>
      <trkpt lat="46.17629" lon="6.60783">
        <ele>1403</ele>
        <time>2018-01-24T15:17:03Z</time>
      </trkpt>
      <trkpt lat="46.17624" lon="6.60783">
        <ele>1403</ele>
        <time>2018-01-24T15:17:04Z</time>
      </trkpt>
      <trkpt lat="46.1762" lon="6.60781">
        <ele>1402</ele>
        <time>2018-01-24T15:17:05Z</time>
      </trkpt>
      <trkpt lat="46.17617" lon="6.60779">
        <ele>1402</ele>
        <time>2018-01-24T15:17:06Z</time>
      </trkpt>
      <trkpt lat="46.17614" lon="6.60779">
        <ele>1402</ele>
        <time>2018-01-24T15:17:07Z</time>
      </trkpt>
      <trkpt lat="46.17612" lon="6.60783">
        <ele>1402</ele>
        <time>2018-01-24T15:17:08Z</time>
      </trkpt>
      <trkpt lat="46.1761" lon="6.60787">
        <ele>1401</ele>
        <time>2018-01-24T15:17:09Z</time>
      </trkpt>
      <trkpt lat="46.17608" lon="6.6079">
        <ele>1401</ele>
        <time>2018-01-24T15:17:10Z</time>
      </trkpt>
      <trkpt lat="46.17606" lon="6.60794">
        <ele>1401</ele>
        <time>2018-01-24T15:17:11Z</time>
      </trkpt>
      <trkpt lat="46.17602" lon="6.60797">
        <ele>1401</ele>
        <time>2018-01-24T15:17:12Z</time>
      </trkpt>
      <trkpt lat="46.17598" lon="6.608">
        <ele>1400</ele>
        <time>2018-01-24T15:17:13Z</time>
      </trkpt>
      <trkpt lat="46.17593" lon="6.60803">
        <ele>1400</ele>
        <time>2018-01-24T15:17:14Z</time>
      </trkpt>
      <trkpt lat="46.17573" lon="6.60834">
        <ele>1392</ele>
        <time>2018-01-24T15:17:22Z</time>
      </trkpt>
      <trkpt lat="46.17569" lon="6.60844">
        <ele>1391</ele>
        <time>2018-01-24T15:17:24Z</time>
      </trkpt>
      <trkpt lat="46.17565" lon="6.60848">
        <ele>1390</ele>
        <time>2018-01-24T15:17:25Z</time>
      </trkpt>
      <trkpt lat="46.1756" lon="6.60848">
        <ele>1390</ele>
        <time>2018-01-24T15:17:26Z</time>
      </trkpt>
      <trkpt lat="46.17556" lon="6.60849">
        <ele>1390</ele>
        <time>2018-01-24T15:17:27Z</time>
      </trkpt>
      <trkpt lat="46.17552" lon="6.60852">
        <ele>1389</ele>
        <time>2018-01-24T15:17:28Z</time>
      </trkpt>
      <trkpt lat="46.1755" lon="6.60856">
        <ele>1389</ele>
        <time>2018-01-24T15:17:29Z</time>
      </trkpt>
      <trkpt lat="46.17549" lon="6.6086">
        <ele>1389</ele>
        <time>2018-01-24T15:17:30Z</time>
      </trkpt>
      <trkpt lat="46.17547" lon="6.60864">
        <ele>1389</ele>
        <time>2018-01-24T15:17:31Z</time>
      </trkpt>
      <trkpt lat="46.17533" lon="6.60881">
        <ele>1388</ele>
        <time>2018-01-24T15:17:37Z</time>
      </trkpt>
      <trkpt lat="46.1753" lon="6.60884">
        <ele>1387</ele>
        <time>2018-01-24T15:17:38Z</time>
      </trkpt>
      <trkpt lat="46.17528" lon="6.60888">
        <ele>1387</ele>
        <time>2018-01-24T15:17:39Z</time>
      </trkpt>
      <trkpt lat="46.17513" lon="6.60912">
        <ele>1384</ele>
        <time>2018-01-24T15:17:45Z</time>
      </trkpt>
      <trkpt lat="46.17506" lon="6.60917">
        <ele>1381</ele>
        <time>2018-01-24T15:17:47Z</time>
      </trkpt>
      <trkpt lat="46.17504" lon="6.60921">
        <ele>1381</ele>
        <time>2018-01-24T15:17:48Z</time>
      </trkpt>
      <trkpt lat="46.17503" lon="6.60926">
        <ele>1382</ele>
        <time>2018-01-24T15:17:49Z</time>
      </trkpt>
      <trkpt lat="46.17502" lon="6.6093">
        <ele>1383</ele>
        <time>2018-01-24T15:17:50Z</time>
      </trkpt>
      <trkpt lat="46.17502" lon="6.60934">
        <ele>1383</ele>
        <time>2018-01-24T15:17:51Z</time>
      </trkpt>
      <trkpt lat="46.17501" lon="6.60938">
        <ele>1384</ele>
        <time>2018-01-24T15:17:52Z</time>
      </trkpt>
      <trkpt lat="46.17489" lon="6.60961">
        <ele>1379</ele>
        <time>2018-01-24T15:17:58Z</time>
      </trkpt>
      <trkpt lat="46.17485" lon="6.60963">
        <ele>1379</ele>
        <time>2018-01-24T15:17:59Z</time>
      </trkpt>
      <trkpt lat="46.17477" lon="6.60969">
        <ele>1379</ele>
        <time>2018-01-24T15:18:01Z</time>
      </trkpt>
      <trkpt lat="46.17477" lon="6.60974">
        <ele>1379</ele>
        <time>2018-01-24T15:18:02Z</time>
      </trkpt>
      <trkpt lat="46.17476" lon="6.60979">
        <ele>1379</ele>
        <time>2018-01-24T15:18:03Z</time>
      </trkpt>
      <trkpt lat="46.17476" lon="6.60985">
        <ele>1379</ele>
        <time>2018-01-24T15:18:04Z</time>
      </trkpt>
      <trkpt lat="46.17475" lon="6.60991">
        <ele>1378</ele>
        <time>2018-01-24T15:18:05Z</time>
      </trkpt>
      <trkpt lat="46.17473" lon="6.60995">
        <ele>1378</ele>
        <time>2018-01-24T15:18:06Z</time>
      </trkpt>
      <trkpt lat="46.1747" lon="6.60998">
        <ele>1378</ele>
        <time>2018-01-24T15:18:07Z</time>
      </trkpt>
      <trkpt lat="46.17467" lon="6.61">
        <ele>1375</ele>
        <time>2018-01-24T15:18:08Z</time>
      </trkpt>
      <trkpt lat="46.17465" lon="6.61004">
        <ele>1375</ele>
        <time>2018-01-24T15:18:09Z</time>
      </trkpt>
      <trkpt lat="46.17464" lon="6.6101">
        <ele>1375</ele>
        <time>2018-01-24T15:18:10Z</time>
      </trkpt>
      <trkpt lat="46.17464" lon="6.61016">
        <ele>1375</ele>
        <time>2018-01-24T15:18:11Z</time>
      </trkpt>
      <trkpt lat="46.17463" lon="6.61022">
        <ele>1375</ele>
        <time>2018-01-24T15:18:12Z</time>
      </trkpt>
      <trkpt lat="46.17462" lon="6.61027">
        <ele>1375</ele>
        <time>2018-01-24T15:18:13Z</time>
      </trkpt>
      <trkpt lat="46.17459" lon="6.61031">
        <ele>1375</ele>
        <time>2018-01-24T15:18:14Z</time>
      </trkpt>
      <trkpt lat="46.17456" lon="6.61035">
        <ele>1374</ele>
        <time>2018-01-24T15:18:15Z</time>
      </trkpt>
      <trkpt lat="46.17454" lon="6.6104">
        <ele>1374</ele>
        <time>2018-01-24T15:18:16Z</time>
      </trkpt>
      <trkpt lat="46.17454" lon="6.61046">
        <ele>1374</ele>
        <time>2018-01-24T15:18:17Z</time>
      </trkpt>
      <trkpt lat="46.17454" lon="6.61051">
        <ele>1374</ele>
        <time>2018-01-24T15:18:18Z</time>
      </trkpt>
      <trkpt lat="46.17443" lon="6.61078">
        <ele>1373</ele>
        <time>2018-01-24T15:18:24Z</time>
      </trkpt>
      <trkpt lat="46.17442" lon="6.61083">
        <ele>1373</ele>
        <time>2018-01-24T15:18:25Z</time>
      </trkpt>
      <trkpt lat="46.17443" lon="6.61088">
        <ele>1372</ele>
        <time>2018-01-24T15:18:26Z</time>
      </trkpt>
      <trkpt lat="46.17443" lon="6.61092">
        <ele>1372</ele>
        <time>2018-01-24T15:18:27Z</time>
      </trkpt>
      <trkpt lat="46.17442" lon="6.61097">
        <ele>1372</ele>
        <time>2018-01-24T15:18:28Z</time>
      </trkpt>
      <trkpt lat="46.17441" lon="6.61101">
        <ele>1372</ele>
        <time>2018-01-24T15:18:29Z</time>
      </trkpt>
      <trkpt lat="46.17438" lon="6.61105">
        <ele>1372</ele>
        <time>2018-01-24T15:18:30Z</time>
      </trkpt>
      <trkpt lat="46.17435" lon="6.61109">
        <ele>1372</ele>
        <time>2018-01-24T15:18:31Z</time>
      </trkpt>
      <trkpt lat="46.17432" lon="6.61113">
        <ele>1372</ele>
        <time>2018-01-24T15:18:32Z</time>
      </trkpt>
      <trkpt lat="46.17424" lon="6.61128">
        <ele>1372</ele>
        <time>2018-01-24T15:18:36Z</time>
      </trkpt>
      <trkpt lat="46.17415" lon="6.61152">
        <ele>1370</ele>
        <time>2018-01-24T15:18:43Z</time>
      </trkpt>
      <trkpt lat="46.17416" lon="6.61154">
        <ele>1370</ele>
        <time>2018-01-24T15:18:44Z</time>
      </trkpt>
      <trkpt lat="46.17418" lon="6.61158">
        <ele>1369</ele>
        <time>2018-01-24T15:18:45Z</time>
      </trkpt>
      <trkpt lat="46.17418" lon="6.61164">
        <ele>1369</ele>
        <time>2018-01-24T15:18:46Z</time>
      </trkpt>
      <trkpt lat="46.17418" lon="6.6117">
        <ele>1368</ele>
        <time>2018-01-24T15:18:47Z</time>
      </trkpt>
      <trkpt lat="46.17417" lon="6.61176">
        <ele>1369</ele>
        <time>2018-01-24T15:18:48Z</time>
      </trkpt>
      <trkpt lat="46.17415" lon="6.61181">
        <ele>1368</ele>
        <time>2018-01-24T15:18:49Z</time>
      </trkpt>
      <trkpt lat="46.17414" lon="6.61185">
        <ele>1368</ele>
        <time>2018-01-24T15:18:50Z</time>
      </trkpt>
      <trkpt lat="46.17413" lon="6.61194">
        <ele>1367</ele>
        <time>2018-01-24T15:18:53Z</time>
      </trkpt>
      <trkpt lat="46.17413" lon="6.61196">
        <ele>1367</ele>
        <time>2018-01-24T15:18:54Z</time>
      </trkpt>
      <trkpt lat="46.17418" lon="6.61207">
        <ele>1370</ele>
        <time>2018-01-24T15:19:00Z</time>
      </trkpt>
      <trkpt lat="46.1742" lon="6.61221">
        <ele>1369</ele>
        <time>2018-01-24T15:19:07Z</time>
      </trkpt>
      <trkpt lat="46.1742" lon="6.61223">
        <ele>1369</ele>
        <time>2018-01-24T15:19:09Z</time>
      </trkpt>
      <trkpt lat="46.17417" lon="6.61234">
        <ele>1367</ele>
        <time>2018-01-24T15:19:14Z</time>
      </trkpt>
      <trkpt lat="46.17413" lon="6.61239">
        <ele>1365</ele>
        <time>2018-01-24T15:19:16Z</time>
      </trkpt>
      <trkpt lat="46.17411" lon="6.6124">
        <ele>1365</ele>
        <time>2018-01-24T15:19:17Z</time>
      </trkpt>
      <trkpt lat="46.17409" lon="6.61241">
        <ele>1365</ele>
        <time>2018-01-24T15:19:18Z</time>
      </trkpt>
      <trkpt lat="46.17407" lon="6.6124">
        <ele>1365</ele>
        <time>2018-01-24T15:19:19Z</time>
      </trkpt>
      <trkpt lat="46.17405" lon="6.61239">
        <ele>1365</ele>
        <time>2018-01-24T15:19:20Z</time>
      </trkpt>
      <trkpt lat="46.17403" lon="6.61237">
        <ele>1365</ele>
        <time>2018-01-24T15:19:21Z</time>
      </trkpt>
      <trkpt lat="46.17401" lon="6.61237">
        <ele>1365</ele>
        <time>2018-01-24T15:19:22Z</time>
      </trkpt>
      <trkpt lat="46.174" lon="6.61237">
        <ele>1366</ele>
        <time>2018-01-24T15:19:23Z</time>
      </trkpt>
      <trkpt lat="46.17399" lon="6.61239">
        <ele>1365</ele>
        <time>2018-01-24T15:19:24Z</time>
      </trkpt>
      <trkpt lat="46.17399" lon="6.61241">
        <ele>1365</ele>
        <time>2018-01-24T15:19:25Z</time>
      </trkpt>
      <trkpt lat="46.17398" lon="6.61243">
        <ele>1365</ele>
        <time>2018-01-24T15:19:26Z</time>
      </trkpt>
      <trkpt lat="46.17398" lon="6.61246">
        <ele>1365</ele>
        <time>2018-01-24T15:19:27Z</time>
      </trkpt>
      <trkpt lat="46.17397" lon="6.61254">
        <ele>1363</ele>
        <time>2018-01-24T15:19:30Z</time>
      </trkpt>
      <trkpt lat="46.17388" lon="6.61321">
        <ele>1362</ele>
        <time>2018-01-24T15:19:53Z</time>
      </trkpt>
      <trkpt lat="46.17385" lon="6.61345">
        <ele>1361</ele>
        <time>2018-01-24T15:20:29Z</time>
      </trkpt>
      <trkpt lat="46.17386" lon="6.61346">
        <ele>1361</ele>
        <time>2018-01-24T15:20:47Z</time>
      </trkpt>
      <trkpt lat="46.17385" lon="6.61347">
        <ele>1361</ele>
        <time>2018-01-24T15:20:55Z</time>
      </trkpt>
      <trkpt lat="46.17384" lon="6.61347">
        <ele>1361</ele>
        <time>2018-01-24T15:21:04Z</time>
      </trkpt>
      <trkpt lat="46.17384" lon="6.61347">
        <ele>1361</ele>
        <time>2018-01-24T15:21:07Z</time>
      </trkpt>
      <trkpt lat="46.17384" lon="6.61347">
        <ele>1361</ele>
        <time>2018-01-24T15:21:09Z</time>
      </trkpt>
      <trkpt lat="46.17384" lon="6.61348">
        <ele>1361</ele>
        <time>2018-01-24T15:21:16Z</time>
      </trkpt>
      <trkpt lat="46.17385" lon="6.61348">
        <ele>1361</ele>
        <time>2018-01-24T15:21:19Z</time>
      </trkpt>
      <trkpt lat="46.17385" lon="6.61348">
        <ele>1361</ele>
        <time>2018-01-24T15:21:22Z</time>
      </trkpt>
      <trkpt lat="46.17384" lon="6.6135">
        <ele>1361</ele>
        <time>2018-01-24T15:21:43Z</time>
      </trkpt>
      <trkpt lat="46.17386" lon="6.61348">
        <ele>1361</ele>
        <time>2018-01-24T15:22:06Z</time>
      </trkpt>
      <trkpt lat="46.17386" lon="6.61348">
        <ele>1361</ele>
        <time>2018-01-24T15:22:08Z</time>
      </trkpt>
      <trkpt lat="46.17386" lon="6.61347">
        <ele>1361</ele>
        <time>2018-01-24T15:22:14Z</time>
      </trkpt>
      <trkpt lat="46.17385" lon="6.61347">
        <ele>1361</ele>
        <time>2018-01-24T15:22:17Z</time>
      </trkpt>
      <trkpt lat="46.17385" lon="6.61347">
        <ele>1361</ele>
        <time>2018-01-24T15:22:22Z</time>
      </trkpt>
      <trkpt lat="46.17385" lon="6.61348">
        <ele>1361</ele>
        <time>2018-01-24T15:22:39Z</time>
      </trkpt>
      <trkpt lat="46.17385" lon="6.61348">
        <ele>1361</ele>
        <time>2018-01-24T15:22:41Z</time>
      </trkpt>
      <trkpt lat="46.17385" lon="6.61349">
        <ele>1361</ele>
        <time>2018-01-24T15:22:44Z</time>
      </trkpt>
      <trkpt lat="46.17386" lon="6.61348">
        <ele>1361</ele>
        <time>2018-01-24T15:23:01Z</time>
      </trkpt>
      <trkpt lat="46.17386" lon="6.61348">
        <ele>1361</ele>
        <time>2018-01-24T15:23:03Z</time>
      </trkpt>
      <trkpt lat="46.17386" lon="6.61348">
        <ele>1361</ele>
        <time>2018-01-24T15:23:04Z</time>
      </trkpt>
      <trkpt lat="46.17387" lon="6.61347">
        <ele>1361</ele>
        <time>2018-01-24T15:23:07Z</time>
      </trkpt>
      <trkpt lat="46.17387" lon="6.61348">
        <ele>1361</ele>
        <time>2018-01-24T15:23:09Z</time>
      </trkpt>
      <trkpt lat="46.17387" lon="6.61348">
        <ele>1361</ele>
        <time>2018-01-24T15:23:13Z</time>
      </trkpt>
      <trkpt lat="46.17388" lon="6.61348">
        <ele>1361</ele>
        <time>2018-01-24T15:23:15Z</time>
      </trkpt>
      <trkpt lat="46.17388" lon="6.61348">
        <ele>1361</ele>
        <time>2018-01-24T15:23:17Z</time>
      </trkpt>
      <trkpt lat="46.17388" lon="6.61348">
        <ele>1361</ele>
        <time>2018-01-24T15:23:20Z</time>
      </trkpt>
      <trkpt lat="46.17387" lon="6.61348">
        <ele>1361</ele>
        <time>2018-01-24T15:23:28Z</time>
      </trkpt>
      <trkpt lat="46.17387" lon="6.61348">
        <ele>1361</ele>
        <time>2018-01-24T15:23:38Z</time>
      </trkpt>
      <trkpt lat="46.17388" lon="6.61348">
        <ele>1361</ele>
        <time>2018-01-24T15:23:45Z</time>
      </trkpt>
      <trkpt lat="46.17388" lon="6.61348">
        <ele>1361</ele>
        <time>2018-01-24T15:23:47Z</time>
      </trkpt>
      <trkpt lat="46.17389" lon="6.61349">
        <ele>1361</ele>
        <time>2018-01-24T15:24:06Z</time>
      </trkpt>
      <trkpt lat="46.17389" lon="6.61349">
        <ele>1361</ele>
        <time>2018-01-24T15:24:08Z</time>
      </trkpt>
      <trkpt lat="46.17389" lon="6.61349">
        <ele>1361</ele>
        <time>2018-01-24T15:24:09Z</time>
      </trkpt>
      <trkpt lat="46.17389" lon="6.6135">
        <ele>1361</ele>
        <time>2018-01-24T15:24:12Z</time>
      </trkpt>
      <trkpt lat="46.17388" lon="6.6135">
        <ele>1361</ele>
        <time>2018-01-24T15:24:15Z</time>
      </trkpt>
      <trkpt lat="46.17388" lon="6.61349">
        <ele>1361</ele>
        <time>2018-01-24T15:24:18Z</time>
      </trkpt>
      <trkpt lat="46.17389" lon="6.61348">
        <ele>1361</ele>
        <time>2018-01-24T15:24:25Z</time>
      </trkpt>
      <trkpt lat="46.1739" lon="6.61353">
        <ele>1361</ele>
        <time>2018-01-24T15:24:29Z</time>
      </trkpt>
      <trkpt lat="46.17389" lon="6.61355">
        <ele>1361</ele>
        <time>2018-01-24T15:24:30Z</time>
      </trkpt>
      <trkpt lat="46.17389" lon="6.6136">
        <ele>1361</ele>
        <time>2018-01-24T15:24:33Z</time>
      </trkpt>
      <trkpt lat="46.17389" lon="6.61366">
        <ele>1361</ele>
        <time>2018-01-24T15:24:36Z</time>
      </trkpt>
      <trkpt lat="46.17389" lon="6.61372">
        <ele>1361</ele>
        <time>2018-01-24T15:24:39Z</time>
      </trkpt>
      <trkpt lat="46.17389" lon="6.61382">
        <ele>1361</ele>
        <time>2018-01-24T15:24:44Z</time>
      </trkpt>
      <trkpt lat="46.17388" lon="6.61399">
        <ele>1362</ele>
        <time>2018-01-24T15:24:52Z</time>
      </trkpt>
      <trkpt lat="46.17386" lon="6.61415">
        <ele>1362</ele>
        <time>2018-01-24T15:25:01Z</time>
      </trkpt>
      <trkpt lat="46.17386" lon="6.61432">
        <ele>1363</ele>
        <time>2018-01-24T15:25:10Z</time>
      </trkpt>
      <trkpt lat="46.17385" lon="6.61446">
        <ele>1363</ele>
        <time>2018-01-24T15:25:17Z</time>
      </trkpt>
      <trkpt lat="46.17384" lon="6.61466">
        <ele>1364</ele>
        <time>2018-01-24T15:25:27Z</time>
      </trkpt>
      <trkpt lat="46.17383" lon="6.61467">
        <ele>1364</ele>
        <time>2018-01-24T15:25:28Z</time>
      </trkpt>
      <trkpt lat="46.17383" lon="6.61471">
        <ele>1364</ele>
        <time>2018-01-24T15:25:30Z</time>
      </trkpt>
      <trkpt lat="46.17384" lon="6.61474">
        <ele>1364</ele>
        <time>2018-01-24T15:25:31Z</time>
      </trkpt>
      <trkpt lat="46.17384" lon="6.61476">
        <ele>1364</ele>
        <time>2018-01-24T15:25:32Z</time>
      </trkpt>
      <trkpt lat="46.17384" lon="6.61477">
        <ele>1364</ele>
        <time>2018-01-24T15:25:33Z</time>
      </trkpt>
      <trkpt lat="46.17384" lon="6.6148">
        <ele>1364</ele>
        <time>2018-01-24T15:25:34Z</time>
      </trkpt>
      <trkpt lat="46.17384" lon="6.61481">
        <ele>1364</ele>
        <time>2018-01-24T15:25:35Z</time>
      </trkpt>
      <trkpt lat="46.17384" lon="6.61498">
        <ele>1365</ele>
        <time>2018-01-24T15:25:44Z</time>
      </trkpt>
      <trkpt lat="46.17384" lon="6.615">
        <ele>1365</ele>
        <time>2018-01-24T15:25:45Z</time>
      </trkpt>
      <trkpt lat="46.17384" lon="6.61501">
        <ele>1367</ele>
        <time>2018-01-24T15:25:46Z</time>
      </trkpt>
      <trkpt lat="46.17383" lon="6.61503">
        <ele>1367</ele>
        <time>2018-01-24T15:25:47Z</time>
      </trkpt>
      <trkpt lat="46.17383" lon="6.61504">
        <ele>1367</ele>
        <time>2018-01-24T15:25:48Z</time>
      </trkpt>
      <trkpt lat="46.17383" lon="6.61506">
        <ele>1367</ele>
        <time>2018-01-24T15:25:49Z</time>
      </trkpt>
      <trkpt lat="46.17383" lon="6.61508">
        <ele>1367</ele>
        <time>2018-01-24T15:25:50Z</time>
      </trkpt>
      <trkpt lat="46.17382" lon="6.61555">
        <ele>1368</ele>
        <time>2018-01-24T15:26:11Z</time>
      </trkpt>
      <trkpt lat="46.17383" lon="6.61563">
        <ele>1368</ele>
        <time>2018-01-24T15:26:15Z</time>
      </trkpt>
      <trkpt lat="46.17381" lon="6.61579">
        <ele>1369</ele>
        <time>2018-01-24T15:26:22Z</time>
      </trkpt>
      <trkpt lat="46.17381" lon="6.6158">
        <ele>1369</ele>
        <time>2018-01-24T15:26:23Z</time>
      </trkpt>
      <trkpt lat="46.17381" lon="6.61583">
        <ele>1369</ele>
        <time>2018-01-24T15:26:24Z</time>
      </trkpt>
      <trkpt lat="46.1738" lon="6.61585">
        <ele>1371</ele>
        <time>2018-01-24T15:26:25Z</time>
      </trkpt>
      <trkpt lat="46.17379" lon="6.61587">
        <ele>1370</ele>
        <time>2018-01-24T15:26:26Z</time>
      </trkpt>
      <trkpt lat="46.17379" lon="6.61589">
        <ele>1370</ele>
        <time>2018-01-24T15:26:27Z</time>
      </trkpt>
      <trkpt lat="46.17375" lon="6.61607">
        <ele>1369</ele>
        <time>2018-01-24T15:26:35Z</time>
      </trkpt>
      <trkpt lat="46.17356" lon="6.6165">
        <ele>1365</ele>
        <time>2018-01-24T15:26:56Z</time>
      </trkpt>
      <trkpt lat="46.17355" lon="6.61651">
        <ele>1364</ele>
        <time>2018-01-24T15:26:57Z</time>
      </trkpt>
      <trkpt lat="46.17354" lon="6.61653">
        <ele>1364</ele>
        <time>2018-01-24T15:26:58Z</time>
      </trkpt>
      <trkpt lat="46.17354" lon="6.61656">
        <ele>1363</ele>
        <time>2018-01-24T15:26:59Z</time>
      </trkpt>
      <trkpt lat="46.17353" lon="6.61658">
        <ele>1363</ele>
        <time>2018-01-24T15:27:00Z</time>
      </trkpt>
      <trkpt lat="46.17352" lon="6.6166">
        <ele>1362</ele>
        <time>2018-01-24T15:27:01Z</time>
      </trkpt>
      <trkpt lat="46.17352" lon="6.61662">
        <ele>1362</ele>
        <time>2018-01-24T15:27:02Z</time>
      </trkpt>
      <trkpt lat="46.17348" lon="6.61672">
        <ele>1363</ele>
        <time>2018-01-24T15:27:07Z</time>
      </trkpt>
      <trkpt lat="46.17347" lon="6.61674">
        <ele>1363</ele>
        <time>2018-01-24T15:27:08Z</time>
      </trkpt>
      <trkpt lat="46.17338" lon="6.61694">
        <ele>1366</ele>
        <time>2018-01-24T15:27:19Z</time>
      </trkpt>
      <trkpt lat="46.17336" lon="6.61696">
        <ele>1366</ele>
        <time>2018-01-24T15:27:20Z</time>
      </trkpt>
      <trkpt lat="46.17335" lon="6.61698">
        <ele>1366</ele>
        <time>2018-01-24T15:27:21Z</time>
      </trkpt>
      <trkpt lat="46.17334" lon="6.61699">
        <ele>1366</ele>
        <time>2018-01-24T15:27:22Z</time>
      </trkpt>
      <trkpt lat="46.17333" lon="6.61701">
        <ele>1346</ele>
        <time>2018-01-24T15:27:23Z</time>
      </trkpt>
      <trkpt lat="46.17332" lon="6.61703">
        <ele>1346</ele>
        <time>2018-01-24T15:27:24Z</time>
      </trkpt>
      <trkpt lat="46.17315" lon="6.61737">
        <ele>1347</ele>
        <time>2018-01-24T15:27:41Z</time>
      </trkpt>
      <trkpt lat="46.17308" lon="6.61778">
        <ele>1346</ele>
        <time>2018-01-24T15:27:58Z</time>
      </trkpt>
      <trkpt lat="46.17303" lon="6.61828">
        <ele>1347</ele>
        <time>2018-01-24T15:28:16Z</time>
      </trkpt>
      <trkpt lat="46.17302" lon="6.61863">
        <ele>1347</ele>
        <time>2018-01-24T15:28:27Z</time>
      </trkpt>
      <trkpt lat="46.17301" lon="6.61869">
        <ele>1347</ele>
        <time>2018-01-24T15:28:29Z</time>
      </trkpt>
      <trkpt lat="46.17297" lon="6.61887">
        <ele>1346</ele>
        <time>2018-01-24T15:28:35Z</time>
      </trkpt>
      <trkpt lat="46.17294" lon="6.61904">
        <ele>1346</ele>
        <time>2018-01-24T15:28:41Z</time>
      </trkpt>
      <trkpt lat="46.17292" lon="6.61916">
        <ele>1345</ele>
        <time>2018-01-24T15:28:45Z</time>
      </trkpt>
      <trkpt lat="46.17285" lon="6.61958">
        <ele>1341</ele>
        <time>2018-01-24T15:29:01Z</time>
      </trkpt>
      <trkpt lat="46.1729" lon="6.61998">
        <ele>1341</ele>
        <time>2018-01-24T15:29:16Z</time>
      </trkpt>
      <trkpt lat="46.17292" lon="6.62007">
        <ele>1344</ele>
        <time>2018-01-24T15:29:20Z</time>
      </trkpt>
      <trkpt lat="46.17292" lon="6.6201">
        <ele>1344</ele>
        <time>2018-01-24T15:29:21Z</time>
      </trkpt>
      <trkpt lat="46.17292" lon="6.62012">
        <ele>1344</ele>
        <time>2018-01-24T15:29:22Z</time>
      </trkpt>
      <trkpt lat="46.17293" lon="6.62015">
        <ele>1344</ele>
        <time>2018-01-24T15:29:23Z</time>
      </trkpt>
      <trkpt lat="46.17293" lon="6.62018">
        <ele>1344</ele>
        <time>2018-01-24T15:29:24Z</time>
      </trkpt>
      <trkpt lat="46.17293" lon="6.62021">
        <ele>1344</ele>
        <time>2018-01-24T15:29:25Z</time>
      </trkpt>
      <trkpt lat="46.17273" lon="6.6205">
        <ele>1344</ele>
        <time>2018-01-24T15:29:44Z</time>
      </trkpt>
      <trkpt lat="46.17267" lon="6.62056">
        <ele>1343</ele>
        <time>2018-01-24T15:29:50Z</time>
      </trkpt>
      <trkpt lat="46.17264" lon="6.62058">
        <ele>1343</ele>
        <time>2018-01-24T15:29:51Z</time>
      </trkpt>
      <trkpt lat="46.17264" lon="6.62059">
        <ele>1343</ele>
        <time>2018-01-24T15:29:52Z</time>
      </trkpt>
      <trkpt lat="46.17263" lon="6.6206">
        <ele>1343</ele>
        <time>2018-01-24T15:29:53Z</time>
      </trkpt>
      <trkpt lat="46.17261" lon="6.62061">
        <ele>1343</ele>
        <time>2018-01-24T15:29:54Z</time>
      </trkpt>
      <trkpt lat="46.1726" lon="6.62063">
        <ele>1343</ele>
        <time>2018-01-24T15:29:55Z</time>
      </trkpt>
      <trkpt lat="46.17259" lon="6.62064">
        <ele>1343</ele>
        <time>2018-01-24T15:29:56Z</time>
      </trkpt>
      <trkpt lat="46.17258" lon="6.62065">
        <ele>1343</ele>
        <time>2018-01-24T15:29:57Z</time>
      </trkpt>
      <trkpt lat="46.17257" lon="6.62066">
        <ele>1343</ele>
        <time>2018-01-24T15:29:58Z</time>
      </trkpt>
      <trkpt lat="46.17254" lon="6.6207">
        <ele>1343</ele>
        <time>2018-01-24T15:30:01Z</time>
      </trkpt>
      <trkpt lat="46.17253" lon="6.62072">
        <ele>1342</ele>
        <time>2018-01-24T15:30:02Z</time>
      </trkpt>
      <trkpt lat="46.17252" lon="6.62073">
        <ele>1342</ele>
        <time>2018-01-24T15:30:03Z</time>
      </trkpt>
      <trkpt lat="46.1725" lon="6.62075">
        <ele>1337</ele>
        <time>2018-01-24T15:30:04Z</time>
      </trkpt>
      <trkpt lat="46.17249" lon="6.62076">
        <ele>1337</ele>
        <time>2018-01-24T15:30:05Z</time>
      </trkpt>
      <trkpt lat="46.17247" lon="6.62077">
        <ele>1337</ele>
        <time>2018-01-24T15:30:06Z</time>
      </trkpt>
      <trkpt lat="46.17246" lon="6.62079">
        <ele>1338</ele>
        <time>2018-01-24T15:30:07Z</time>
      </trkpt>
      <trkpt lat="46.17245" lon="6.6208">
        <ele>1338</ele>
        <time>2018-01-24T15:30:08Z</time>
      </trkpt>
      <trkpt lat="46.17244" lon="6.62081">
        <ele>1337</ele>
        <time>2018-01-24T15:30:09Z</time>
      </trkpt>
      <trkpt lat="46.17242" lon="6.62083">
        <ele>1337</ele>
        <time>2018-01-24T15:30:10Z</time>
      </trkpt>
      <trkpt lat="46.17228" lon="6.62095">
        <ele>1343</ele>
        <time>2018-01-24T15:30:21Z</time>
      </trkpt>
      <trkpt lat="46.17217" lon="6.62111">
        <ele>1344</ele>
        <time>2018-01-24T15:30:31Z</time>
      </trkpt>
      <trkpt lat="46.17215" lon="6.62113">
        <ele>1344</ele>
        <time>2018-01-24T15:30:33Z</time>
      </trkpt>
      <trkpt lat="46.17214" lon="6.62115">
        <ele>1344</ele>
        <time>2018-01-24T15:30:34Z</time>
      </trkpt>
      <trkpt lat="46.17212" lon="6.62116">
        <ele>1344</ele>
        <time>2018-01-24T15:30:35Z</time>
      </trkpt>
      <trkpt lat="46.17211" lon="6.62118">
        <ele>1344</ele>
        <time>2018-01-24T15:30:36Z</time>
      </trkpt>
      <trkpt lat="46.17209" lon="6.62119">
        <ele>1344</ele>
        <time>2018-01-24T15:30:37Z</time>
      </trkpt>
      <trkpt lat="46.17208" lon="6.6212">
        <ele>1344</ele>
        <time>2018-01-24T15:30:38Z</time>
      </trkpt>
      <trkpt lat="46.17207" lon="6.62121">
        <ele>1344</ele>
        <time>2018-01-24T15:30:39Z</time>
      </trkpt>
      <trkpt lat="46.17206" lon="6.62122">
        <ele>1344</ele>
        <time>2018-01-24T15:30:40Z</time>
      </trkpt>
      <trkpt lat="46.17205" lon="6.62123">
        <ele>1344</ele>
        <time>2018-01-24T15:30:41Z</time>
      </trkpt>
      <trkpt lat="46.17182" lon="6.62142">
        <ele>1346</ele>
        <time>2018-01-24T15:31:00Z</time>
      </trkpt>
      <trkpt lat="46.17174" lon="6.6215">
        <ele>1347</ele>
        <time>2018-01-24T15:31:08Z</time>
      </trkpt>
      <trkpt lat="46.17173" lon="6.62151">
        <ele>1347</ele>
        <time>2018-01-24T15:31:09Z</time>
      </trkpt>
      <trkpt lat="46.17171" lon="6.62151">
        <ele>1348</ele>
        <time>2018-01-24T15:31:10Z</time>
      </trkpt>
      <trkpt lat="46.17161" lon="6.62164">
        <ele>1346</ele>
        <time>2018-01-24T15:31:22Z</time>
      </trkpt>
      <trkpt lat="46.1716" lon="6.62165">
        <ele>1346</ele>
        <time>2018-01-24T15:31:23Z</time>
      </trkpt>
      <trkpt lat="46.17159" lon="6.62166">
        <ele>1345</ele>
        <time>2018-01-24T15:31:24Z</time>
      </trkpt>
      <trkpt lat="46.17158" lon="6.62167">
        <ele>1354</ele>
        <time>2018-01-24T15:31:25Z</time>
      </trkpt>
      <trkpt lat="46.17158" lon="6.62169">
        <ele>1354</ele>
        <time>2018-01-24T15:31:26Z</time>
      </trkpt>
      <trkpt lat="46.17157" lon="6.62171">
        <ele>1355</ele>
        <time>2018-01-24T15:31:27Z</time>
      </trkpt>
      <trkpt lat="46.17156" lon="6.62172">
        <ele>1355</ele>
        <time>2018-01-24T15:31:28Z</time>
      </trkpt>
      <trkpt lat="46.17156" lon="6.62174">
        <ele>1356</ele>
        <time>2018-01-24T15:31:29Z</time>
      </trkpt>
      <trkpt lat="46.17155" lon="6.62175">
        <ele>1356</ele>
        <time>2018-01-24T15:31:30Z</time>
      </trkpt>
      <trkpt lat="46.17154" lon="6.62176">
        <ele>1356</ele>
        <time>2018-01-24T15:31:31Z</time>
      </trkpt>
      <trkpt lat="46.17137" lon="6.62186">
        <ele>1359</ele>
        <time>2018-01-24T15:31:42Z</time>
      </trkpt>
      <trkpt lat="46.17133" lon="6.62191">
        <ele>1360</ele>
        <time>2018-01-24T15:31:46Z</time>
      </trkpt>
      <trkpt lat="46.17132" lon="6.62193">
        <ele>1360</ele>
        <time>2018-01-24T15:31:47Z</time>
      </trkpt>
      <trkpt lat="46.17131" lon="6.62196">
        <ele>1361</ele>
        <time>2018-01-24T15:31:49Z</time>
      </trkpt>
      <trkpt lat="46.1713" lon="6.62196">
        <ele>1361</ele>
        <time>2018-01-24T15:31:50Z</time>
      </trkpt>
      <trkpt lat="46.17129" lon="6.62197">
        <ele>1361</ele>
        <time>2018-01-24T15:31:51Z</time>
      </trkpt>
      <trkpt lat="46.17129" lon="6.62198">
        <ele>1361</ele>
        <time>2018-01-24T15:31:52Z</time>
      </trkpt>
      <trkpt lat="46.17125" lon="6.62206">
        <ele>1363</ele>
        <time>2018-01-24T15:31:58Z</time>
      </trkpt>
      <trkpt lat="46.17123" lon="6.62208">
        <ele>1363</ele>
        <time>2018-01-24T15:31:59Z</time>
      </trkpt>
      <trkpt lat="46.17122" lon="6.62209">
        <ele>1363</ele>
        <time>2018-01-24T15:32:00Z</time>
      </trkpt>
      <trkpt lat="46.17122" lon="6.62211">
        <ele>1364</ele>
        <time>2018-01-24T15:32:01Z</time>
      </trkpt>
      <trkpt lat="46.17121" lon="6.62212">
        <ele>1364</ele>
        <time>2018-01-24T15:32:02Z</time>
      </trkpt>
      <trkpt lat="46.17108" lon="6.62218">
        <ele>1365</ele>
        <time>2018-01-24T15:32:13Z</time>
      </trkpt>
      <trkpt lat="46.17107" lon="6.62218">
        <ele>1365</ele>
        <time>2018-01-24T15:32:14Z</time>
      </trkpt>
      <trkpt lat="46.17105" lon="6.62219">
        <ele>1365</ele>
        <time>2018-01-24T15:32:15Z</time>
      </trkpt>
      <trkpt lat="46.17104" lon="6.6222">
        <ele>1366</ele>
        <time>2018-01-24T15:32:16Z</time>
      </trkpt>
      <trkpt lat="46.17102" lon="6.6222">
        <ele>1366</ele>
        <time>2018-01-24T15:32:17Z</time>
      </trkpt>
      <trkpt lat="46.17101" lon="6.62221">
        <ele>1366</ele>
        <time>2018-01-24T15:32:18Z</time>
      </trkpt>
      <trkpt lat="46.17065" lon="6.62239">
        <ele>1364</ele>
        <time>2018-01-24T15:32:43Z</time>
      </trkpt>
      <trkpt lat="46.17059" lon="6.62241">
        <ele>1362</ele>
        <time>2018-01-24T15:32:47Z</time>
      </trkpt>
      <trkpt lat="46.17057" lon="6.62241">
        <ele>1362</ele>
        <time>2018-01-24T15:32:48Z</time>
      </trkpt>
      <trkpt lat="46.17056" lon="6.62242">
        <ele>1362</ele>
        <time>2018-01-24T15:32:49Z</time>
      </trkpt>
      <trkpt lat="46.17054" lon="6.62243">
        <ele>1361</ele>
        <time>2018-01-24T15:32:50Z</time>
      </trkpt>
      <trkpt lat="46.17052" lon="6.62243">
        <ele>1361</ele>
        <time>2018-01-24T15:32:51Z</time>
      </trkpt>
      <trkpt lat="46.1705" lon="6.62244">
        <ele>1360</ele>
        <time>2018-01-24T15:32:52Z</time>
      </trkpt>
      <trkpt lat="46.17049" lon="6.62244">
        <ele>1360</ele>
        <time>2018-01-24T15:32:53Z</time>
      </trkpt>
      <trkpt lat="46.17047" lon="6.62245">
        <ele>1360</ele>
        <time>2018-01-24T15:32:54Z</time>
      </trkpt>
      <trkpt lat="46.17046" lon="6.62246">
        <ele>1360</ele>
        <time>2018-01-24T15:32:55Z</time>
      </trkpt>
      <trkpt lat="46.17038" lon="6.62259">
        <ele>1383</ele>
        <time>2018-01-24T15:33:07Z</time>
      </trkpt>
      <trkpt lat="46.17037" lon="6.6226">
        <ele>1383</ele>
        <time>2018-01-24T15:33:08Z</time>
      </trkpt>
      <trkpt lat="46.17036" lon="6.62261">
        <ele>1383</ele>
        <time>2018-01-24T15:33:09Z</time>
      </trkpt>
      <trkpt lat="46.17036" lon="6.62262">
        <ele>1383</ele>
        <time>2018-01-24T15:33:10Z</time>
      </trkpt>
      <trkpt lat="46.17034" lon="6.62263">
        <ele>1383</ele>
        <time>2018-01-24T15:33:11Z</time>
      </trkpt>
      <trkpt lat="46.17034" lon="6.62265">
        <ele>1383</ele>
        <time>2018-01-24T15:33:12Z</time>
      </trkpt>
      <trkpt lat="46.17032" lon="6.62266">
        <ele>1383</ele>
        <time>2018-01-24T15:33:13Z</time>
      </trkpt>
      <trkpt lat="46.17024" lon="6.62274">
        <ele>1383</ele>
        <time>2018-01-24T15:33:21Z</time>
      </trkpt>
      <trkpt lat="46.17014" lon="6.6229">
        <ele>1387</ele>
        <time>2018-01-24T15:33:37Z</time>
      </trkpt>
      <trkpt lat="46.17011" lon="6.6229">
        <ele>1387</ele>
        <time>2018-01-24T15:33:39Z</time>
      </trkpt>
      <trkpt lat="46.17008" lon="6.62291">
        <ele>1387</ele>
        <time>2018-01-24T15:33:40Z</time>
      </trkpt>
      <trkpt lat="46.1699" lon="6.62306">
        <ele>1386</ele>
        <time>2018-01-24T15:33:55Z</time>
      </trkpt>
      <trkpt lat="46.16989" lon="6.62308">
        <ele>1387</ele>
        <time>2018-01-24T15:33:56Z</time>
      </trkpt>
      <trkpt lat="46.16987" lon="6.62309">
        <ele>1387</ele>
        <time>2018-01-24T15:33:57Z</time>
      </trkpt>
      <trkpt lat="46.16986" lon="6.62309">
        <ele>1387</ele>
        <time>2018-01-24T15:33:58Z</time>
      </trkpt>
      <trkpt lat="46.16985" lon="6.6231">
        <ele>1387</ele>
        <time>2018-01-24T15:33:59Z</time>
      </trkpt>
      <trkpt lat="46.16984" lon="6.6231">
        <ele>1387</ele>
        <time>2018-01-24T15:34:00Z</time>
      </trkpt>
      <trkpt lat="46.16983" lon="6.62311">
        <ele>1387</ele>
        <time>2018-01-24T15:34:01Z</time>
      </trkpt>
      <trkpt lat="46.16981" lon="6.6231">
        <ele>1386</ele>
        <time>2018-01-24T15:34:02Z</time>
      </trkpt>
      <trkpt lat="46.16978" lon="6.62309">
        <ele>1385</ele>
        <time>2018-01-24T15:34:03Z</time>
      </trkpt>
      <trkpt lat="46.16975" lon="6.62309">
        <ele>1385</ele>
        <time>2018-01-24T15:34:05Z</time>
      </trkpt>
      <trkpt lat="46.16967" lon="6.62304">
        <ele>1382</ele>
        <time>2018-01-24T15:34:09Z</time>
      </trkpt>
      <trkpt lat="46.16964" lon="6.62304">
        <ele>1382</ele>
        <time>2018-01-24T15:34:11Z</time>
      </trkpt>
      <trkpt lat="46.16963" lon="6.62304">
        <ele>1382</ele>
        <time>2018-01-24T15:34:12Z</time>
      </trkpt>
      <trkpt lat="46.16941" lon="6.6231">
        <ele>1382</ele>
        <time>2018-01-24T15:34:28Z</time>
      </trkpt>
      <trkpt lat="46.1694" lon="6.62309">
        <ele>1382</ele>
        <time>2018-01-24T15:34:29Z</time>
      </trkpt>
      <trkpt lat="46.16938" lon="6.62309">
        <ele>1382</ele>
        <time>2018-01-24T15:34:30Z</time>
      </trkpt>
      <trkpt lat="46.16937" lon="6.6231">
        <ele>1382</ele>
        <time>2018-01-24T15:34:31Z</time>
      </trkpt>
      <trkpt lat="46.16936" lon="6.62312">
        <ele>1383</ele>
        <time>2018-01-24T15:34:32Z</time>
      </trkpt>
      <trkpt lat="46.16935" lon="6.62313">
        <ele>1383</ele>
        <time>2018-01-24T15:34:33Z</time>
      </trkpt>
      <trkpt lat="46.16934" lon="6.62314">
        <ele>1383</ele>
        <time>2018-01-24T15:34:34Z</time>
      </trkpt>
      <trkpt lat="46.16933" lon="6.62316">
        <ele>1384</ele>
        <time>2018-01-24T15:34:35Z</time>
      </trkpt>
      <trkpt lat="46.16932" lon="6.62316">
        <ele>1384</ele>
        <time>2018-01-24T15:34:36Z</time>
      </trkpt>
      <trkpt lat="46.16926" lon="6.62317">
        <ele>1385</ele>
        <time>2018-01-24T15:34:42Z</time>
      </trkpt>
      <trkpt lat="46.16924" lon="6.62316">
        <ele>1384</ele>
        <time>2018-01-24T15:34:43Z</time>
      </trkpt>
      <trkpt lat="46.16922" lon="6.62316">
        <ele>1384</ele>
        <time>2018-01-24T15:34:44Z</time>
      </trkpt>
      <trkpt lat="46.16914" lon="6.62319">
        <ele>1383</ele>
        <time>2018-01-24T15:34:52Z</time>
      </trkpt>
      <trkpt lat="46.16891" lon="6.62312">
        <ele>1377</ele>
        <time>2018-01-24T15:35:06Z</time>
      </trkpt>
      <trkpt lat="46.1689" lon="6.62312">
        <ele>1377</ele>
        <time>2018-01-24T15:35:07Z</time>
      </trkpt>
      <trkpt lat="46.16887" lon="6.62312">
        <ele>1377</ele>
        <time>2018-01-24T15:35:08Z</time>
      </trkpt>
      <trkpt lat="46.16886" lon="6.62311">
        <ele>1377</ele>
        <time>2018-01-24T15:35:09Z</time>
      </trkpt>
      <trkpt lat="46.16883" lon="6.6231">
        <ele>1376</ele>
        <time>2018-01-24T15:35:10Z</time>
      </trkpt>
      <trkpt lat="46.16881" lon="6.6231">
        <ele>1376</ele>
        <time>2018-01-24T15:35:11Z</time>
      </trkpt>
      <trkpt lat="46.16879" lon="6.62311">
        <ele>1376</ele>
        <time>2018-01-24T15:35:12Z</time>
      </trkpt>
      <trkpt lat="46.16873" lon="6.62311">
        <ele>1376</ele>
        <time>2018-01-24T15:35:16Z</time>
      </trkpt>
      <trkpt lat="46.16871" lon="6.62312">
        <ele>1376</ele>
        <time>2018-01-24T15:35:17Z</time>
      </trkpt>
      <trkpt lat="46.1687" lon="6.62313">
        <ele>1376</ele>
        <time>2018-01-24T15:35:18Z</time>
      </trkpt>
      <trkpt lat="46.16868" lon="6.62314">
        <ele>1377</ele>
        <time>2018-01-24T15:35:19Z</time>
      </trkpt>
      <trkpt lat="46.16867" lon="6.62314">
        <ele>1377</ele>
        <time>2018-01-24T15:35:20Z</time>
      </trkpt>
      <trkpt lat="46.16863" lon="6.62316">
        <ele>1377</ele>
        <time>2018-01-24T15:35:23Z</time>
      </trkpt>
      <trkpt lat="46.16862" lon="6.62317">
        <ele>1377</ele>
        <time>2018-01-24T15:35:24Z</time>
      </trkpt>
      <trkpt lat="46.16861" lon="6.62318">
        <ele>1378</ele>
        <time>2018-01-24T15:35:26Z</time>
      </trkpt>
      <trkpt lat="46.1686" lon="6.62318">
        <ele>1378</ele>
        <time>2018-01-24T15:35:27Z</time>
      </trkpt>
      <trkpt lat="46.16857" lon="6.62317">
        <ele>1378</ele>
        <time>2018-01-24T15:35:29Z</time>
      </trkpt>
      <trkpt lat="46.16847" lon="6.62319">
        <ele>1379</ele>
        <time>2018-01-24T15:35:40Z</time>
      </trkpt>
      <trkpt lat="46.16844" lon="6.62319">
        <ele>1380</ele>
        <time>2018-01-24T15:35:41Z</time>
      </trkpt>
      <trkpt lat="46.16842" lon="6.6232">
        <ele>1380</ele>
        <time>2018-01-24T15:35:42Z</time>
      </trkpt>
      <trkpt lat="46.1684" lon="6.62321">
        <ele>1381</ele>
        <time>2018-01-24T15:35:43Z</time>
      </trkpt>
      <trkpt lat="46.16838" lon="6.62323">
        <ele>1382</ele>
        <time>2018-01-24T15:35:44Z</time>
      </trkpt>
      <trkpt lat="46.16835" lon="6.62324">
        <ele>1383</ele>
        <time>2018-01-24T15:35:45Z</time>
      </trkpt>
      <trkpt lat="46.16814" lon="6.62333">
        <ele>1377</ele>
        <time>2018-01-24T15:36:02Z</time>
      </trkpt>
      <trkpt lat="46.16813" lon="6.62337">
        <ele>1395</ele>
        <time>2018-01-24T15:36:05Z</time>
      </trkpt>
      <trkpt lat="46.1681" lon="6.62339">
        <ele>1395</ele>
        <time>2018-01-24T15:36:08Z</time>
      </trkpt>
      <trkpt lat="46.16809" lon="6.6234">
        <ele>1395</ele>
        <time>2018-01-24T15:36:09Z</time>
      </trkpt>
      <trkpt lat="46.16806" lon="6.62342">
        <ele>1396</ele>
        <time>2018-01-24T15:36:13Z</time>
      </trkpt>
      <trkpt lat="46.16806" lon="6.62344">
        <ele>1396</ele>
        <time>2018-01-24T15:36:14Z</time>
      </trkpt>
      <trkpt lat="46.16804" lon="6.62344">
        <ele>1396</ele>
        <time>2018-01-24T15:36:15Z</time>
      </trkpt>
      <trkpt lat="46.16803" lon="6.62345">
        <ele>1396</ele>
        <time>2018-01-24T15:36:16Z</time>
      </trkpt>
      <trkpt lat="46.16802" lon="6.62345">
        <ele>1396</ele>
        <time>2018-01-24T15:36:17Z</time>
      </trkpt>
      <trkpt lat="46.16801" lon="6.62347">
        <ele>1397</ele>
        <time>2018-01-24T15:36:18Z</time>
      </trkpt>
      <trkpt lat="46.16797" lon="6.62349">
        <ele>1397</ele>
        <time>2018-01-24T15:36:21Z</time>
      </trkpt>
      <trkpt lat="46.16792" lon="6.62349">
        <ele>1397</ele>
        <time>2018-01-24T15:36:24Z</time>
      </trkpt>
      <trkpt lat="46.16789" lon="6.62348">
        <ele>1396</ele>
        <time>2018-01-24T15:36:25Z</time>
      </trkpt>
      <trkpt lat="46.16786" lon="6.62345">
        <ele>1395</ele>
        <time>2018-01-24T15:36:26Z</time>
      </trkpt>
      <trkpt lat="46.16783" lon="6.62344">
        <ele>1395</ele>
        <time>2018-01-24T15:36:27Z</time>
      </trkpt>
      <trkpt lat="46.16781" lon="6.62343">
        <ele>1394</ele>
        <time>2018-01-24T15:36:28Z</time>
      </trkpt>
      <trkpt lat="46.1678" lon="6.62343">
        <ele>1394</ele>
        <time>2018-01-24T15:36:29Z</time>
      </trkpt>
      <trkpt lat="46.16772" lon="6.62357">
        <ele>1396</ele>
        <time>2018-01-24T15:36:38Z</time>
      </trkpt>
      <trkpt lat="46.1677" lon="6.62361">
        <ele>1396</ele>
        <time>2018-01-24T15:36:40Z</time>
      </trkpt>
      <trkpt lat="46.16769" lon="6.62364">
        <ele>1397</ele>
        <time>2018-01-24T15:36:41Z</time>
      </trkpt>
      <trkpt lat="46.16757" lon="6.62374">
        <ele>1399</ele>
        <time>2018-01-24T15:36:51Z</time>
      </trkpt>
      <trkpt lat="46.16757" lon="6.62374">
        <ele>1399</ele>
        <time>2018-01-24T15:36:52Z</time>
      </trkpt>
      <trkpt lat="46.16756" lon="6.62376">
        <ele>1400</ele>
        <time>2018-01-24T15:36:53Z</time>
      </trkpt>
      <trkpt lat="46.16752" lon="6.62377">
        <ele>1400</ele>
        <time>2018-01-24T15:36:56Z</time>
      </trkpt>
      <trkpt lat="46.1675" lon="6.62377">
        <ele>1400</ele>
        <time>2018-01-24T15:36:57Z</time>
      </trkpt>
      <trkpt lat="46.16747" lon="6.62376">
        <ele>1389</ele>
        <time>2018-01-24T15:36:58Z</time>
      </trkpt>
      <trkpt lat="46.16712" lon="6.62386">
        <ele>1387</ele>
        <time>2018-01-24T15:37:21Z</time>
      </trkpt>
      <trkpt lat="46.16709" lon="6.62387">
        <ele>1387</ele>
        <time>2018-01-24T15:37:22Z</time>
      </trkpt>
      <trkpt lat="46.16708" lon="6.62388">
        <ele>1387</ele>
        <time>2018-01-24T15:37:23Z</time>
      </trkpt>
      <trkpt lat="46.16694" lon="6.62403">
        <ele>1387</ele>
        <time>2018-01-24T15:37:34Z</time>
      </trkpt>
      <trkpt lat="46.16678" lon="6.62415">
        <ele>1388</ele>
        <time>2018-01-24T15:37:48Z</time>
      </trkpt>
      <trkpt lat="46.16677" lon="6.62417">
        <ele>1397</ele>
        <time>2018-01-24T15:37:50Z</time>
      </trkpt>
      <trkpt lat="46.16676" lon="6.62419">
        <ele>1397</ele>
        <time>2018-01-24T15:37:51Z</time>
      </trkpt>
      <trkpt lat="46.16657" lon="6.62449">
        <ele>1388</ele>
        <time>2018-01-24T15:38:12Z</time>
      </trkpt>
      <trkpt lat="46.16646" lon="6.62459">
        <ele>1389</ele>
        <time>2018-01-24T15:38:18Z</time>
      </trkpt>
      <trkpt lat="46.16641" lon="6.62464">
        <ele>1389</ele>
        <time>2018-01-24T15:38:22Z</time>
      </trkpt>
      <trkpt lat="46.1664" lon="6.62465">
        <ele>1389</ele>
        <time>2018-01-24T15:38:23Z</time>
      </trkpt>
      <trkpt lat="46.16639" lon="6.62467">
        <ele>1389</ele>
        <time>2018-01-24T15:38:24Z</time>
      </trkpt>
      <trkpt lat="46.16629" lon="6.62479">
        <ele>1388</ele>
        <time>2018-01-24T15:38:32Z</time>
      </trkpt>
      <trkpt lat="46.16628" lon="6.62482">
        <ele>1388</ele>
        <time>2018-01-24T15:38:34Z</time>
      </trkpt>
      <trkpt lat="46.16626" lon="6.62484">
        <ele>1388</ele>
        <time>2018-01-24T15:38:35Z</time>
      </trkpt>
      <trkpt lat="46.16625" lon="6.62485">
        <ele>1388</ele>
        <time>2018-01-24T15:38:36Z</time>
      </trkpt>
      <trkpt lat="46.16618" lon="6.62498">
        <ele>1387</ele>
        <time>2018-01-24T15:38:44Z</time>
      </trkpt>
      <trkpt lat="46.16619" lon="6.62502">
        <ele>1399</ele>
        <time>2018-01-24T15:38:46Z</time>
      </trkpt>
      <trkpt lat="46.16619" lon="6.62504">
        <ele>1399</ele>
        <time>2018-01-24T15:38:47Z</time>
      </trkpt>
      <trkpt lat="46.16619" lon="6.62506">
        <ele>1399</ele>
        <time>2018-01-24T15:38:48Z</time>
      </trkpt>
      <trkpt lat="46.16618" lon="6.62508">
        <ele>1399</ele>
        <time>2018-01-24T15:38:49Z</time>
      </trkpt>
      <trkpt lat="46.16618" lon="6.6251">
        <ele>1399</ele>
        <time>2018-01-24T15:38:50Z</time>
      </trkpt>
      <trkpt lat="46.16617" lon="6.62511">
        <ele>1399</ele>
        <time>2018-01-24T15:38:51Z</time>
      </trkpt>
      <trkpt lat="46.16617" lon="6.62513">
        <ele>1399</ele>
        <time>2018-01-24T15:38:52Z</time>
      </trkpt>
      <trkpt lat="46.16616" lon="6.62515">
        <ele>1399</ele>
        <time>2018-01-24T15:38:53Z</time>
      </trkpt>
      <trkpt lat="46.16615" lon="6.62516">
        <ele>1399</ele>
        <time>2018-01-24T15:38:54Z</time>
      </trkpt>
      <trkpt lat="46.16614" lon="6.62518">
        <ele>1399</ele>
        <time>2018-01-24T15:38:55Z</time>
      </trkpt>
      <trkpt lat="46.16613" lon="6.6252">
        <ele>1399</ele>
        <time>2018-01-24T15:38:56Z</time>
      </trkpt>
      <trkpt lat="46.16611" lon="6.62521">
        <ele>1398</ele>
        <time>2018-01-24T15:38:57Z</time>
      </trkpt>
      <trkpt lat="46.1661" lon="6.62523">
        <ele>1398</ele>
        <time>2018-01-24T15:38:58Z</time>
      </trkpt>
      <trkpt lat="46.16609" lon="6.62524">
        <ele>1398</ele>
        <time>2018-01-24T15:38:59Z</time>
      </trkpt>
      <trkpt lat="46.16601" lon="6.62539">
        <ele>1399</ele>
        <time>2018-01-24T15:39:09Z</time>
      </trkpt>
      <trkpt lat="46.16582" lon="6.6257">
        <ele>1389</ele>
        <time>2018-01-24T15:39:26Z</time>
      </trkpt>
      <trkpt lat="46.16571" lon="6.62589">
        <ele>1392</ele>
        <time>2018-01-24T15:39:38Z</time>
      </trkpt>
      <trkpt lat="46.16571" lon="6.62593">
        <ele>1391</ele>
        <time>2018-01-24T15:39:40Z</time>
      </trkpt>
      <trkpt lat="46.16571" lon="6.62596">
        <ele>1391</ele>
        <time>2018-01-24T15:39:42Z</time>
      </trkpt>
      <trkpt lat="46.16571" lon="6.62598">
        <ele>1390</ele>
        <time>2018-01-24T15:39:43Z</time>
      </trkpt>
      <trkpt lat="46.16571" lon="6.626">
        <ele>1390</ele>
        <time>2018-01-24T15:39:44Z</time>
      </trkpt>
      <trkpt lat="46.16572" lon="6.62603">
        <ele>1390</ele>
        <time>2018-01-24T15:39:45Z</time>
      </trkpt>
      <trkpt lat="46.16573" lon="6.62604">
        <ele>1390</ele>
        <time>2018-01-24T15:39:46Z</time>
      </trkpt>
      <trkpt lat="46.16573" lon="6.62607">
        <ele>1389</ele>
        <time>2018-01-24T15:39:47Z</time>
      </trkpt>
      <trkpt lat="46.16574" lon="6.62609">
        <ele>1389</ele>
        <time>2018-01-24T15:39:48Z</time>
      </trkpt>
      <trkpt lat="46.16574" lon="6.62639">
        <ele>1388</ele>
        <time>2018-01-24T15:40:04Z</time>
      </trkpt>
      <trkpt lat="46.16574" lon="6.6264">
        <ele>1389</ele>
        <time>2018-01-24T15:40:05Z</time>
      </trkpt>
      <trkpt lat="46.16574" lon="6.62642">
        <ele>1389</ele>
        <time>2018-01-24T15:40:06Z</time>
      </trkpt>
      <trkpt lat="46.16573" lon="6.62644">
        <ele>1389</ele>
        <time>2018-01-24T15:40:07Z</time>
      </trkpt>
      <trkpt lat="46.16573" lon="6.62645">
        <ele>1389</ele>
        <time>2018-01-24T15:40:08Z</time>
      </trkpt>
      <trkpt lat="46.16573" lon="6.62647">
        <ele>1389</ele>
        <time>2018-01-24T15:40:09Z</time>
      </trkpt>
      <trkpt lat="46.16573" lon="6.62649">
        <ele>1389</ele>
        <time>2018-01-24T15:40:10Z</time>
      </trkpt>
      <trkpt lat="46.16572" lon="6.6265">
        <ele>1390</ele>
        <time>2018-01-24T15:40:11Z</time>
      </trkpt>
      <trkpt lat="46.16572" lon="6.62652">
        <ele>1390</ele>
        <time>2018-01-24T15:40:12Z</time>
      </trkpt>
      <trkpt lat="46.16573" lon="6.62654">
        <ele>1390</ele>
        <time>2018-01-24T15:40:13Z</time>
      </trkpt>
      <trkpt lat="46.16576" lon="6.62676">
        <ele>1390</ele>
        <time>2018-01-24T15:40:23Z</time>
      </trkpt>
      <trkpt lat="46.16576" lon="6.62678">
        <ele>1389</ele>
        <time>2018-01-24T15:40:24Z</time>
      </trkpt>
      <trkpt lat="46.16576" lon="6.6268">
        <ele>1389</ele>
        <time>2018-01-24T15:40:25Z</time>
      </trkpt>
      <trkpt lat="46.16577" lon="6.62682">
        <ele>1388</ele>
        <time>2018-01-24T15:40:26Z</time>
      </trkpt>
      <trkpt lat="46.16577" lon="6.62684">
        <ele>1388</ele>
        <time>2018-01-24T15:40:27Z</time>
      </trkpt>
      <trkpt lat="46.16577" lon="6.62686">
        <ele>1387</ele>
        <time>2018-01-24T15:40:28Z</time>
      </trkpt>
      <trkpt lat="46.16577" lon="6.62687">
        <ele>1387</ele>
        <time>2018-01-24T15:40:29Z</time>
      </trkpt>
      <trkpt lat="46.16578" lon="6.62689">
        <ele>1386</ele>
        <time>2018-01-24T15:40:30Z</time>
      </trkpt>
      <trkpt lat="46.16578" lon="6.62691">
        <ele>1386</ele>
        <time>2018-01-24T15:40:31Z</time>
      </trkpt>
      <trkpt lat="46.16577" lon="6.62692">
        <ele>1386</ele>
        <time>2018-01-24T15:40:32Z</time>
      </trkpt>
      <trkpt lat="46.16577" lon="6.62694">
        <ele>1385</ele>
        <time>2018-01-24T15:40:33Z</time>
      </trkpt>
      <trkpt lat="46.16577" lon="6.62695">
        <ele>1385</ele>
        <time>2018-01-24T15:40:34Z</time>
      </trkpt>
      <trkpt lat="46.16577" lon="6.62697">
        <ele>1385</ele>
        <time>2018-01-24T15:40:35Z</time>
      </trkpt>
      <trkpt lat="46.16577" lon="6.62698">
        <ele>1385</ele>
        <time>2018-01-24T15:40:36Z</time>
      </trkpt>
      <trkpt lat="46.16577" lon="6.627">
        <ele>1384</ele>
        <time>2018-01-24T15:40:37Z</time>
      </trkpt>
      <trkpt lat="46.16578" lon="6.62701">
        <ele>1384</ele>
        <time>2018-01-24T15:40:38Z</time>
      </trkpt>
      <trkpt lat="46.16578" lon="6.62703">
        <ele>1384</ele>
        <time>2018-01-24T15:40:39Z</time>
      </trkpt>
      <trkpt lat="46.16579" lon="6.62704">
        <ele>1384</ele>
        <time>2018-01-24T15:40:40Z</time>
      </trkpt>
      <trkpt lat="46.16612" lon="6.62761">
        <ele>1393</ele>
        <time>2018-01-24T15:41:15Z</time>
      </trkpt>
      <trkpt lat="46.16614" lon="6.62762">
        <ele>1393</ele>
        <time>2018-01-24T15:41:16Z</time>
      </trkpt>
      <trkpt lat="46.16615" lon="6.62764">
        <ele>1393</ele>
        <time>2018-01-24T15:41:17Z</time>
      </trkpt>
      <trkpt lat="46.16616" lon="6.62766">
        <ele>1393</ele>
        <time>2018-01-24T15:41:18Z</time>
      </trkpt>
      <trkpt lat="46.16617" lon="6.62767">
        <ele>1394</ele>
        <time>2018-01-24T15:41:19Z</time>
      </trkpt>
      <trkpt lat="46.16618" lon="6.62768">
        <ele>1394</ele>
        <time>2018-01-24T15:41:20Z</time>
      </trkpt>
      <trkpt lat="46.16619" lon="6.6277">
        <ele>1394</ele>
        <time>2018-01-24T15:41:21Z</time>
      </trkpt>
      <trkpt lat="46.1662" lon="6.62771">
        <ele>1394</ele>
        <time>2018-01-24T15:41:22Z</time>
      </trkpt>
      <trkpt lat="46.16622" lon="6.62773">
        <ele>1394</ele>
        <time>2018-01-24T15:41:23Z</time>
      </trkpt>
      <trkpt lat="46.16623" lon="6.62774">
        <ele>1394</ele>
        <time>2018-01-24T15:41:24Z</time>
      </trkpt>
      <trkpt lat="46.16624" lon="6.62775">
        <ele>1394</ele>
        <time>2018-01-24T15:41:25Z</time>
      </trkpt>
      <trkpt lat="46.16625" lon="6.62777">
        <ele>1394</ele>
        <time>2018-01-24T15:41:26Z</time>
      </trkpt>
      <trkpt lat="46.16626" lon="6.62779">
        <ele>1394</ele>
        <time>2018-01-24T15:41:27Z</time>
      </trkpt>
      <trkpt lat="46.16626" lon="6.6278">
        <ele>1394</ele>
        <time>2018-01-24T15:41:28Z</time>
      </trkpt>
      <trkpt lat="46.16628" lon="6.62782">
        <ele>1394</ele>
        <time>2018-01-24T15:41:29Z</time>
      </trkpt>
      <trkpt lat="46.16628" lon="6.62784">
        <ele>1394</ele>
        <time>2018-01-24T15:41:30Z</time>
      </trkpt>
      <trkpt lat="46.16629" lon="6.62784">
        <ele>1394</ele>
        <time>2018-01-24T15:41:31Z</time>
      </trkpt>
      <trkpt lat="46.16631" lon="6.62786">
        <ele>1394</ele>
        <time>2018-01-24T15:41:32Z</time>
      </trkpt>
      <trkpt lat="46.16631" lon="6.62787">
        <ele>1394</ele>
        <time>2018-01-24T15:41:33Z</time>
      </trkpt>
      <trkpt lat="46.16632" lon="6.62789">
        <ele>1394</ele>
        <time>2018-01-24T15:41:34Z</time>
      </trkpt>
      <trkpt lat="46.16633" lon="6.6279">
        <ele>1394</ele>
        <time>2018-01-24T15:41:35Z</time>
      </trkpt>
      <trkpt lat="46.16633" lon="6.62791">
        <ele>1394</ele>
        <time>2018-01-24T15:41:36Z</time>
      </trkpt>
      <trkpt lat="46.16634" lon="6.62794">
        <ele>1394</ele>
        <time>2018-01-24T15:41:37Z</time>
      </trkpt>
      <trkpt lat="46.16643" lon="6.62811">
        <ele>1394</ele>
        <time>2018-01-24T15:41:47Z</time>
      </trkpt>
      <trkpt lat="46.16644" lon="6.62813">
        <ele>1395</ele>
        <time>2018-01-24T15:41:48Z</time>
      </trkpt>
      <trkpt lat="46.16645" lon="6.62814">
        <ele>1395</ele>
        <time>2018-01-24T15:41:49Z</time>
      </trkpt>
      <trkpt lat="46.16646" lon="6.62816">
        <ele>1395</ele>
        <time>2018-01-24T15:41:50Z</time>
      </trkpt>
      <trkpt lat="46.16647" lon="6.62817">
        <ele>1395</ele>
        <time>2018-01-24T15:41:51Z</time>
      </trkpt>
      <trkpt lat="46.16648" lon="6.62818">
        <ele>1395</ele>
        <time>2018-01-24T15:41:52Z</time>
      </trkpt>
      <trkpt lat="46.16649" lon="6.6282">
        <ele>1395</ele>
        <time>2018-01-24T15:41:53Z</time>
      </trkpt>
      <trkpt lat="46.1665" lon="6.62821">
        <ele>1395</ele>
        <time>2018-01-24T15:41:54Z</time>
      </trkpt>
      <trkpt lat="46.16651" lon="6.62822">
        <ele>1396</ele>
        <time>2018-01-24T15:41:55Z</time>
      </trkpt>
      <trkpt lat="46.16652" lon="6.62824">
        <ele>1396</ele>
        <time>2018-01-24T15:41:56Z</time>
      </trkpt>
      <trkpt lat="46.16653" lon="6.62825">
        <ele>1396</ele>
        <time>2018-01-24T15:41:57Z</time>
      </trkpt>
      <trkpt lat="46.16654" lon="6.62826">
        <ele>1396</ele>
        <time>2018-01-24T15:41:58Z</time>
      </trkpt>
      <trkpt lat="46.16655" lon="6.62826">
        <ele>1396</ele>
        <time>2018-01-24T15:41:59Z</time>
      </trkpt>
      <trkpt lat="46.16656" lon="6.62827">
        <ele>1396</ele>
        <time>2018-01-24T15:42:00Z</time>
      </trkpt>
      <trkpt lat="46.16677" lon="6.62846">
        <ele>1402</ele>
        <time>2018-01-24T15:42:18Z</time>
      </trkpt>
      <trkpt lat="46.16677" lon="6.62847">
        <ele>1402</ele>
        <time>2018-01-24T15:42:19Z</time>
      </trkpt>
      <trkpt lat="46.16678" lon="6.62848">
        <ele>1402</ele>
        <time>2018-01-24T15:42:20Z</time>
      </trkpt>
      <trkpt lat="46.1668" lon="6.6285">
        <ele>1402</ele>
        <time>2018-01-24T15:42:21Z</time>
      </trkpt>
      <trkpt lat="46.16681" lon="6.62851">
        <ele>1402</ele>
        <time>2018-01-24T15:42:22Z</time>
      </trkpt>
      <trkpt lat="46.16682" lon="6.62852">
        <ele>1403</ele>
        <time>2018-01-24T15:42:23Z</time>
      </trkpt>
      <trkpt lat="46.16687" lon="6.62857">
        <ele>1403</ele>
        <time>2018-01-24T15:42:27Z</time>
      </trkpt>
      <trkpt lat="46.16688" lon="6.62858">
        <ele>1403</ele>
        <time>2018-01-24T15:42:28Z</time>
      </trkpt>
      <trkpt lat="46.16689" lon="6.62859">
        <ele>1403</ele>
        <time>2018-01-24T15:42:29Z</time>
      </trkpt>
      <trkpt lat="46.1669" lon="6.6286">
        <ele>1403</ele>
        <time>2018-01-24T15:42:30Z</time>
      </trkpt>
      <trkpt lat="46.16691" lon="6.62862">
        <ele>1403</ele>
        <time>2018-01-24T15:42:31Z</time>
      </trkpt>
      <trkpt lat="46.16691" lon="6.62864">
        <ele>1403</ele>
        <time>2018-01-24T15:42:37Z</time>
      </trkpt>
      <trkpt lat="46.16692" lon="6.62866">
        <ele>1403</ele>
        <time>2018-01-24T15:42:43Z</time>
      </trkpt>
      <trkpt lat="46.16693" lon="6.62868">
        <ele>1403</ele>
        <time>2018-01-24T15:42:45Z</time>
      </trkpt>
      <trkpt lat="46.16698" lon="6.62874">
        <ele>1404</ele>
        <time>2018-01-24T15:42:50Z</time>
      </trkpt>
      <trkpt lat="46.16699" lon="6.62876">
        <ele>1404</ele>
        <time>2018-01-24T15:42:51Z</time>
      </trkpt>
      <trkpt lat="46.167" lon="6.62877">
        <ele>1404</ele>
        <time>2018-01-24T15:42:52Z</time>
      </trkpt>
      <trkpt lat="46.16701" lon="6.62879">
        <ele>1403</ele>
        <time>2018-01-24T15:42:53Z</time>
      </trkpt>
      <trkpt lat="46.16702" lon="6.6288">
        <ele>1404</ele>
        <time>2018-01-24T15:42:54Z</time>
      </trkpt>
      <trkpt lat="46.16714" lon="6.62913">
        <ele>1404</ele>
        <time>2018-01-24T15:43:12Z</time>
      </trkpt>
      <trkpt lat="46.16715" lon="6.62915">
        <ele>1404</ele>
        <time>2018-01-24T15:43:13Z</time>
      </trkpt>
      <trkpt lat="46.16724" lon="6.62937">
        <ele>1396</ele>
        <time>2018-01-24T15:43:27Z</time>
      </trkpt>
      <trkpt lat="46.16726" lon="6.62939">
        <ele>1396</ele>
        <time>2018-01-24T15:43:28Z</time>
      </trkpt>
      <trkpt lat="46.16733" lon="6.6295">
        <ele>1395</ele>
        <time>2018-01-24T15:43:37Z</time>
      </trkpt>
      <trkpt lat="46.16735" lon="6.62952">
        <ele>1395</ele>
        <time>2018-01-24T15:43:38Z</time>
      </trkpt>
      <trkpt lat="46.16736" lon="6.62953">
        <ele>1395</ele>
        <time>2018-01-24T15:43:39Z</time>
      </trkpt>
      <trkpt lat="46.16737" lon="6.62954">
        <ele>1395</ele>
        <time>2018-01-24T15:43:40Z</time>
      </trkpt>
      <trkpt lat="46.16738" lon="6.62956">
        <ele>1394</ele>
        <time>2018-01-24T15:43:41Z</time>
      </trkpt>
      <trkpt lat="46.16739" lon="6.62957">
        <ele>1394</ele>
        <time>2018-01-24T15:43:42Z</time>
      </trkpt>
      <trkpt lat="46.1674" lon="6.62959">
        <ele>1394</ele>
        <time>2018-01-24T15:43:43Z</time>
      </trkpt>
      <trkpt lat="46.16741" lon="6.6296">
        <ele>1394</ele>
        <time>2018-01-24T15:43:44Z</time>
      </trkpt>
      <trkpt lat="46.16742" lon="6.62961">
        <ele>1394</ele>
        <time>2018-01-24T15:43:45Z</time>
      </trkpt>
      <trkpt lat="46.16766" lon="6.62991">
        <ele>1405</ele>
        <time>2018-01-24T15:44:08Z</time>
      </trkpt>
      <trkpt lat="46.16783" lon="6.63009">
        <ele>1396</ele>
        <time>2018-01-24T15:44:22Z</time>
      </trkpt>
      <trkpt lat="46.1679" lon="6.63016">
        <ele>1397</ele>
        <time>2018-01-24T15:44:28Z</time>
      </trkpt>
      <trkpt lat="46.16792" lon="6.63017">
        <ele>1397</ele>
        <time>2018-01-24T15:44:29Z</time>
      </trkpt>
      <trkpt lat="46.16793" lon="6.63018">
        <ele>1397</ele>
        <time>2018-01-24T15:44:30Z</time>
      </trkpt>
      <trkpt lat="46.16837" lon="6.63051">
        <ele>1410</ele>
        <time>2018-01-24T15:45:03Z</time>
      </trkpt>
      <trkpt lat="46.16855" lon="6.63058">
        <ele>1410</ele>
        <time>2018-01-24T15:45:14Z</time>
      </trkpt>
      <trkpt lat="46.16856" lon="6.63059">
        <ele>1410</ele>
        <time>2018-01-24T15:45:15Z</time>
      </trkpt>
      <trkpt lat="46.16858" lon="6.63059">
        <ele>1411</ele>
        <time>2018-01-24T15:45:16Z</time>
      </trkpt>
      <trkpt lat="46.1686" lon="6.63059">
        <ele>1411</ele>
        <time>2018-01-24T15:45:17Z</time>
      </trkpt>
      <trkpt lat="46.16861" lon="6.6306">
        <ele>1411</ele>
        <time>2018-01-24T15:45:18Z</time>
      </trkpt>
      <trkpt lat="46.16867" lon="6.63065">
        <ele>1412</ele>
        <time>2018-01-24T15:45:24Z</time>
      </trkpt>
      <trkpt lat="46.1687" lon="6.6307">
        <ele>1412</ele>
        <time>2018-01-24T15:45:28Z</time>
      </trkpt>
      <trkpt lat="46.16871" lon="6.6307">
        <ele>1412</ele>
        <time>2018-01-24T15:45:29Z</time>
      </trkpt>
      <trkpt lat="46.16889" lon="6.63081">
        <ele>1414</ele>
        <time>2018-01-24T15:45:43Z</time>
      </trkpt>
      <trkpt lat="46.1689" lon="6.63082">
        <ele>1414</ele>
        <time>2018-01-24T15:45:44Z</time>
      </trkpt>
      <trkpt lat="46.16891" lon="6.63082">
        <ele>1414</ele>
        <time>2018-01-24T15:45:45Z</time>
      </trkpt>
      <trkpt lat="46.169" lon="6.63085">
        <ele>1406</ele>
        <time>2018-01-24T15:45:53Z</time>
      </trkpt>
      <trkpt lat="46.16903" lon="6.63087">
        <ele>1407</ele>
        <time>2018-01-24T15:45:55Z</time>
      </trkpt>
      <trkpt lat="46.16906" lon="6.63089">
        <ele>1408</ele>
        <time>2018-01-24T15:45:58Z</time>
      </trkpt>
      <trkpt lat="46.16907" lon="6.63089">
        <ele>1409</ele>
        <time>2018-01-24T15:45:59Z</time>
      </trkpt>
      <trkpt lat="46.16909" lon="6.6309">
        <ele>1409</ele>
        <time>2018-01-24T15:46:00Z</time>
      </trkpt>
      <trkpt lat="46.16913" lon="6.63093">
        <ele>1409</ele>
        <time>2018-01-24T15:46:04Z</time>
      </trkpt>
      <trkpt lat="46.16915" lon="6.63094">
        <ele>1409</ele>
        <time>2018-01-24T15:46:05Z</time>
      </trkpt>
      <trkpt lat="46.16917" lon="6.63094">
        <ele>1415</ele>
        <time>2018-01-24T15:46:06Z</time>
      </trkpt>
      <trkpt lat="46.16918" lon="6.63094">
        <ele>1415</ele>
        <time>2018-01-24T15:46:07Z</time>
      </trkpt>
      <trkpt lat="46.16919" lon="6.63095">
        <ele>1415</ele>
        <time>2018-01-24T15:46:08Z</time>
      </trkpt>
      <trkpt lat="46.16921" lon="6.63095">
        <ele>1415</ele>
        <time>2018-01-24T15:46:09Z</time>
      </trkpt>
      <trkpt lat="46.16922" lon="6.63096">
        <ele>1415</ele>
        <time>2018-01-24T15:46:10Z</time>
      </trkpt>
      <trkpt lat="46.16924" lon="6.63096">
        <ele>1415</ele>
        <time>2018-01-24T15:46:11Z</time>
      </trkpt>
      <trkpt lat="46.16938" lon="6.63102">
        <ele>1415</ele>
        <time>2018-01-24T15:46:22Z</time>
      </trkpt>
      <trkpt lat="46.1694" lon="6.63103">
        <ele>1415</ele>
        <time>2018-01-24T15:46:23Z</time>
      </trkpt>
      <trkpt lat="46.16941" lon="6.63104">
        <ele>1415</ele>
        <time>2018-01-24T15:46:24Z</time>
      </trkpt>
      <trkpt lat="46.16942" lon="6.63104">
        <ele>1415</ele>
        <time>2018-01-24T15:46:25Z</time>
      </trkpt>
      <trkpt lat="46.16943" lon="6.63105">
        <ele>1415</ele>
        <time>2018-01-24T15:46:26Z</time>
      </trkpt>
      <trkpt lat="46.16943" lon="6.63106">
        <ele>1415</ele>
        <time>2018-01-24T15:46:27Z</time>
      </trkpt>
      <trkpt lat="46.16945" lon="6.63106">
        <ele>1415</ele>
        <time>2018-01-24T15:46:28Z</time>
      </trkpt>
      <trkpt lat="46.16957" lon="6.63113">
        <ele>1416</ele>
        <time>2018-01-24T15:46:38Z</time>
      </trkpt>
      <trkpt lat="46.16981" lon="6.63123">
        <ele>1417</ele>
        <time>2018-01-24T15:47:02Z</time>
      </trkpt>
      <trkpt lat="46.17015" lon="6.6314">
        <ele>1427</ele>
        <time>2018-01-24T15:47:27Z</time>
      </trkpt>
      <trkpt lat="46.17018" lon="6.63142">
        <ele>1427</ele>
        <time>2018-01-24T15:47:37Z</time>
      </trkpt>
      <trkpt lat="46.17039" lon="6.6315">
        <ele>1430</ele>
        <time>2018-01-24T15:47:53Z</time>
      </trkpt>
      <trkpt lat="46.17063" lon="6.63156">
        <ele>1434</ele>
        <time>2018-01-24T15:48:09Z</time>
      </trkpt>
      <trkpt lat="46.17065" lon="6.63157">
        <ele>1434</ele>
        <time>2018-01-24T15:48:10Z</time>
      </trkpt>
      <trkpt lat="46.17066" lon="6.63157">
        <ele>1434</ele>
        <time>2018-01-24T15:48:11Z</time>
      </trkpt>
      <trkpt lat="46.17068" lon="6.63158">
        <ele>1434</ele>
        <time>2018-01-24T15:48:12Z</time>
      </trkpt>
      <trkpt lat="46.17069" lon="6.63159">
        <ele>1435</ele>
        <time>2018-01-24T15:48:13Z</time>
      </trkpt>
      <trkpt lat="46.1707" lon="6.63159">
        <ele>1435</ele>
        <time>2018-01-24T15:48:14Z</time>
      </trkpt>
      <trkpt lat="46.17071" lon="6.6316">
        <ele>1435</ele>
        <time>2018-01-24T15:48:15Z</time>
      </trkpt>
      <trkpt lat="46.17073" lon="6.6316">
        <ele>1435</ele>
        <time>2018-01-24T15:48:16Z</time>
      </trkpt>
      <trkpt lat="46.17074" lon="6.63161">
        <ele>1435</ele>
        <time>2018-01-24T15:48:17Z</time>
      </trkpt>
      <trkpt lat="46.17088" lon="6.63171">
        <ele>1435</ele>
        <time>2018-01-24T15:48:29Z</time>
      </trkpt>
      <trkpt lat="46.1709" lon="6.63172">
        <ele>1435</ele>
        <time>2018-01-24T15:48:30Z</time>
      </trkpt>
      <trkpt lat="46.17091" lon="6.63172">
        <ele>1435</ele>
        <time>2018-01-24T15:48:31Z</time>
      </trkpt>
      <trkpt lat="46.17092" lon="6.63174">
        <ele>1435</ele>
        <time>2018-01-24T15:48:32Z</time>
      </trkpt>
      <trkpt lat="46.17093" lon="6.63175">
        <ele>1434</ele>
        <time>2018-01-24T15:48:33Z</time>
      </trkpt>
      <trkpt lat="46.17095" lon="6.63176">
        <ele>1434</ele>
        <time>2018-01-24T15:48:34Z</time>
      </trkpt>
      <trkpt lat="46.17108" lon="6.63187">
        <ele>1433</ele>
        <time>2018-01-24T15:48:46Z</time>
      </trkpt>
      <trkpt lat="46.17109" lon="6.63188">
        <ele>1433</ele>
        <time>2018-01-24T15:48:47Z</time>
      </trkpt>
      <trkpt lat="46.17111" lon="6.63189">
        <ele>1433</ele>
        <time>2018-01-24T15:48:48Z</time>
      </trkpt>
      <trkpt lat="46.17112" lon="6.6319">
        <ele>1433</ele>
        <time>2018-01-24T15:48:49Z</time>
      </trkpt>
      <trkpt lat="46.17113" lon="6.63191">
        <ele>1433</ele>
        <time>2018-01-24T15:48:50Z</time>
      </trkpt>
      <trkpt lat="46.17114" lon="6.63192">
        <ele>1433</ele>
        <time>2018-01-24T15:48:51Z</time>
      </trkpt>
      <trkpt lat="46.17131" lon="6.63209">
        <ele>1432</ele>
        <time>2018-01-24T15:49:06Z</time>
      </trkpt>
      <trkpt lat="46.17132" lon="6.6321">
        <ele>1432</ele>
        <time>2018-01-24T15:49:07Z</time>
      </trkpt>
      <trkpt lat="46.17133" lon="6.63211">
        <ele>1432</ele>
        <time>2018-01-24T15:49:08Z</time>
      </trkpt>
      <trkpt lat="46.17134" lon="6.63212">
        <ele>1432</ele>
        <time>2018-01-24T15:49:09Z</time>
      </trkpt>
      <trkpt lat="46.17135" lon="6.63213">
        <ele>1432</ele>
        <time>2018-01-24T15:49:10Z</time>
      </trkpt>
      <trkpt lat="46.17135" lon="6.63214">
        <ele>1432</ele>
        <time>2018-01-24T15:49:11Z</time>
      </trkpt>
      <trkpt lat="46.17136" lon="6.63216">
        <ele>1432</ele>
        <time>2018-01-24T15:49:12Z</time>
      </trkpt>
      <trkpt lat="46.17137" lon="6.63217">
        <ele>1432</ele>
        <time>2018-01-24T15:49:13Z</time>
      </trkpt>
      <trkpt lat="46.17138" lon="6.63219">
        <ele>1432</ele>
        <time>2018-01-24T15:49:14Z</time>
      </trkpt>
      <trkpt lat="46.17138" lon="6.6322">
        <ele>1431</ele>
        <time>2018-01-24T15:49:15Z</time>
      </trkpt>
      <trkpt lat="46.17139" lon="6.63222">
        <ele>1431</ele>
        <time>2018-01-24T15:49:16Z</time>
      </trkpt>
      <trkpt lat="46.1714" lon="6.63223">
        <ele>1431</ele>
        <time>2018-01-24T15:49:17Z</time>
      </trkpt>
      <trkpt lat="46.17161" lon="6.63252">
        <ele>1425</ele>
        <time>2018-01-24T15:49:38Z</time>
      </trkpt>
      <trkpt lat="46.17162" lon="6.63253">
        <ele>1426</ele>
        <time>2018-01-24T15:49:39Z</time>
      </trkpt>
      <trkpt lat="46.17199" lon="6.63289">
        <ele>1433</ele>
        <time>2018-01-24T15:50:12Z</time>
      </trkpt>
      <trkpt lat="46.17206" lon="6.63297">
        <ele>1433</ele>
        <time>2018-01-24T15:50:19Z</time>
      </trkpt>
      <trkpt lat="46.17207" lon="6.63298">
        <ele>1433</ele>
        <time>2018-01-24T15:50:20Z</time>
      </trkpt>
      <trkpt lat="46.17208" lon="6.63299">
        <ele>1433</ele>
        <time>2018-01-24T15:50:21Z</time>
      </trkpt>
      <trkpt lat="46.17209" lon="6.633">
        <ele>1433</ele>
        <time>2018-01-24T15:50:22Z</time>
      </trkpt>
      <trkpt lat="46.17211" lon="6.63301">
        <ele>1433</ele>
        <time>2018-01-24T15:50:23Z</time>
      </trkpt>
      <trkpt lat="46.17212" lon="6.63302">
        <ele>1433</ele>
        <time>2018-01-24T15:50:24Z</time>
      </trkpt>
      <trkpt lat="46.17213" lon="6.63303">
        <ele>1433</ele>
        <time>2018-01-24T15:50:25Z</time>
      </trkpt>
      <trkpt lat="46.17214" lon="6.63304">
        <ele>1433</ele>
        <time>2018-01-24T15:50:26Z</time>
      </trkpt>
      <trkpt lat="46.17215" lon="6.63305">
        <ele>1433</ele>
        <time>2018-01-24T15:50:27Z</time>
      </trkpt>
      <trkpt lat="46.17216" lon="6.63306">
        <ele>1433</ele>
        <time>2018-01-24T15:50:28Z</time>
      </trkpt>
      <trkpt lat="46.17217" lon="6.63308">
        <ele>1433</ele>
        <time>2018-01-24T15:50:29Z</time>
      </trkpt>
      <trkpt lat="46.17218" lon="6.63309">
        <ele>1433</ele>
        <time>2018-01-24T15:50:30Z</time>
      </trkpt>
      <trkpt lat="46.17219" lon="6.6331">
        <ele>1433</ele>
        <time>2018-01-24T15:50:31Z</time>
      </trkpt>
      <trkpt lat="46.1722" lon="6.63311">
        <ele>1433</ele>
        <time>2018-01-24T15:50:32Z</time>
      </trkpt>
      <trkpt lat="46.17221" lon="6.63312">
        <ele>1433</ele>
        <time>2018-01-24T15:50:33Z</time>
      </trkpt>
      <trkpt lat="46.17222" lon="6.63314">
        <ele>1433</ele>
        <time>2018-01-24T15:50:34Z</time>
      </trkpt>
      <trkpt lat="46.17224" lon="6.63315">
        <ele>1433</ele>
        <time>2018-01-24T15:50:35Z</time>
      </trkpt>
      <trkpt lat="46.17225" lon="6.63316">
        <ele>1433</ele>
        <time>2018-01-24T15:50:36Z</time>
      </trkpt>
      <trkpt lat="46.17226" lon="6.63317">
        <ele>1433</ele>
        <time>2018-01-24T15:50:37Z</time>
      </trkpt>
      <trkpt lat="46.17227" lon="6.63319">
        <ele>1433</ele>
        <time>2018-01-24T15:50:38Z</time>
      </trkpt>
      <trkpt lat="46.17228" lon="6.63321">
        <ele>1433</ele>
        <time>2018-01-24T15:50:39Z</time>
      </trkpt>
      <trkpt lat="46.17229" lon="6.63322">
        <ele>1433</ele>
        <time>2018-01-24T15:50:40Z</time>
      </trkpt>
      <trkpt lat="46.1723" lon="6.63323">
        <ele>1433</ele>
        <time>2018-01-24T15:50:41Z</time>
      </trkpt>
      <trkpt lat="46.17231" lon="6.63325">
        <ele>1433</ele>
        <time>2018-01-24T15:50:42Z</time>
      </trkpt>
      <trkpt lat="46.17232" lon="6.63327">
        <ele>1433</ele>
        <time>2018-01-24T15:50:43Z</time>
      </trkpt>
      <trkpt lat="46.17234" lon="6.63331">
        <ele>1433</ele>
        <time>2018-01-24T15:50:46Z</time>
      </trkpt>
      <trkpt lat="46.17235" lon="6.63333">
        <ele>1433</ele>
        <time>2018-01-24T15:50:47Z</time>
      </trkpt>
      <trkpt lat="46.17236" lon="6.63334">
        <ele>1432</ele>
        <time>2018-01-24T15:50:48Z</time>
      </trkpt>
      <trkpt lat="46.17236" lon="6.63335">
        <ele>1432</ele>
        <time>2018-01-24T15:50:49Z</time>
      </trkpt>
      <trkpt lat="46.17237" lon="6.63337">
        <ele>1432</ele>
        <time>2018-01-24T15:50:50Z</time>
      </trkpt>
      <trkpt lat="46.17238" lon="6.63338">
        <ele>1432</ele>
        <time>2018-01-24T15:50:51Z</time>
      </trkpt>
      <trkpt lat="46.17238" lon="6.63339">
        <ele>1432</ele>
        <time>2018-01-24T15:50:52Z</time>
      </trkpt>
      <trkpt lat="46.17239" lon="6.63341">
        <ele>1432</ele>
        <time>2018-01-24T15:50:53Z</time>
      </trkpt>
      <trkpt lat="46.17244" lon="6.63354">
        <ele>1432</ele>
        <time>2018-01-24T15:51:03Z</time>
      </trkpt>
      <trkpt lat="46.17249" lon="6.63357">
        <ele>1432</ele>
        <time>2018-01-24T15:51:07Z</time>
      </trkpt>
      <trkpt lat="46.17251" lon="6.63358">
        <ele>1437</ele>
        <time>2018-01-24T15:51:10Z</time>
      </trkpt>
      <trkpt lat="46.17265" lon="6.63365">
        <ele>1438</ele>
        <time>2018-01-24T15:51:30Z</time>
      </trkpt>
      <trkpt lat="46.17264" lon="6.63366">
        <ele>1438</ele>
        <time>2018-01-24T15:51:34Z</time>
      </trkpt>
      <trkpt lat="46.17264" lon="6.63367">
        <ele>1438</ele>
        <time>2018-01-24T15:51:38Z</time>
      </trkpt>
      <trkpt lat="46.17263" lon="6.63366">
        <ele>1438</ele>
        <time>2018-01-24T15:51:43Z</time>
      </trkpt>
      <trkpt lat="46.17263" lon="6.63367">
        <ele>1438</ele>
        <time>2018-01-24T15:51:45Z</time>
      </trkpt>
      <trkpt lat="46.17263" lon="6.63366">
        <ele>1438</ele>
        <time>2018-01-24T15:51:50Z</time>
      </trkpt>
    </trkseg>
  </trk>
</gpx>